GFSWCAN_prec_snow_003.txt.gz
Snowfall_Accumulation
0.0 0.0 0.0 0.0 0.0 0.0 0.0 0.0 0.0 0.0 0.0 0.0 0.0 0.0 0.0 0.0 0.0 0.0 0.0 0.0 0.0 0.0 0.0 0.0 0.0 0.0 0.0 0.0 0.0 0.0 0.0 0.0 0.0 0.0 0.0 0.0 0.0 0.0 0.0 0.0 0.0 0.0 0.0 0.0 0.0 0.0 0.0 0.0 0.0 0.0 0.0 0.0 0.0 0.0
0.0 0.0 0.0 0.0 0.0 0.0 0.0 0.0 0.0 0.0 0.0 0.0 0.0 0.0 0.0 0.0 0.0 0.0 0.0 0.0 0.0 0.0 0.0 0.0 0.0 0.0 0.0 0.0 0.0 0.0 0.0 0.0 0.0 0.0 0.0 0.0 0.0 0.0 0.0 0.0 0.0 0.0 0.0 0.0 0.0 0.0 0.0 0.0 0.0 0.0 0.0 0.0 0.0 0.0
0.0 0.0 0.0 0.0 0.0 0.0 0.0 0.0 0.0 0.0 0.0 0.0 0.0 0.0 0.0 0.0 0.0 0.0 0.0 0.0 0.0 0.0 0.0 0.0 0.0 0.0 0.0 0.0 0.0 0.0 0.0 0.0 0.0 0.0 0.0 0.0 0.0 0.0 0.0 0.0 0.0 0.0 0.0 0.0 0.0 0.0 0.0 0.0 0.0 0.0 0.0 0.0 0.0 0.0
0.0 0.0 0.0 0.0 0.0 0.0 0.0 0.0 0.0 0.0 0.0 0.0 0.0 0.0 0.0 0.0 0.0 0.0 0.0 0.0 0.0 0.0 0.0 0.0 0.0 0.0 0.0 0.0 0.0 0.0 0.0 0.0 0.0 0.0 0.0 0.0 0.0 0.0 0.0 0.0 0.0 0.0 0.0 0.0 0.0 0.0 0.0 0.0 0.0 0.0 0.0 0.0 0.0 0.0
0.0 0.0 0.0 0.0 0.0 0.0 0.0 0.0 0.0 0.0 0.0 0.0 0.0 0.0 0.0 0.0 0.0 0.0 0.0 0.0 0.0 0.0 0.0 0.0 0.0 0.0 0.0 0.0 0.0 0.0 0.0 0.0 0.0 0.0 0.0 0.0 0.0 0.0 0.0 0.0 0.0 0.0 0.0 0.0 0.0 0.0 0.0 0.0 0.0 0.0 0.0 0.0 0.0 0.0
0.0 0.0 0.0 0.0 0.0 0.0 0.0 0.0 0.0 0.0 0.0 0.0 0.0 0.0 0.0 0.0 0.0 0.0 0.0 0.0 0.0 0.0 0.0 0.0 0.0 0.0 0.0 0.0 0.0 0.0 0.0 0.0 0.0 0.0 0.0 0.0 0.0 0.0 0.0 0.0 0.0 0.0 0.0 0.0 0.0 0.0 0.0 0.0 0.0 0.0 0.0 0.0 0.0 0.0
0.0 0.0 0.0 0.0 0.0 0.0 0.0 0.0 0.0 0.0 0.0 0.0 0.0 0.0 0.0 0.0 0.0 0.0 0.0 0.0 0.0 0.0 0.0 0.0 0.0 0.0 0.0 0.0 0.0 0.0 0.0 0.0 0.0 0.0 0.0 0.0 0.0 0.0 0.0 0.0 0.0 0.0 0.0 0.0 0.0 0.0 0.0 0.0 0.0 0.0 0.0 0.0 0.0 0.0
0.0 0.0 0.0 0.0 0.0 0.0 0.0 0.0 0.0 0.0 0.0 0.0 0.0 0.0 0.0 0.0 0.0 0.0 0.0 0.0 0.0 0.0 0.0 0.0 0.0 0.0 0.0 0.0 0.0 0.0 0.0 0.0 0.0 0.0 0.0 0.0 0.0 0.0 0.0 0.0 0.0 0.0 0.0 0.0 0.0 0.0 0.0 0.0 0.0 0.0 0.0 0.0 0.0 0.0
0.0 0.0 0.0 0.0 0.0 0.0 0.0 0.0 0.0 0.0 0.0 0.0 0.0 0.0 0.0 0.0 0.0 0.0 0.0 0.0 0.0 0.0 0.0 0.0 0.0 0.0 0.0 0.0 0.0 0.0 0.0 0.0 0.0 0.0 0.0 0.0 0.0 0.0 0.0 0.0 0.0 0.0 0.0 0.0 0.0 0.0 0.0 0.0 0.0 0.0 0.0 0.0 0.0 0.0
0.0 0.0 0.0 0.0 0.0 0.0 0.0 0.0 0.0 0.0 0.0 0.0 0.0 0.0 0.0 0.0 0.0 0.0 0.0 0.0 0.0 0.0 0.0 0.0 0.0 0.0 0.0 0.0 0.0 0.0 0.0 0.0 0.0 0.0 0.0 0.0 0.0 0.0 0.0 0.0 0.0 0.0 0.0 0.0 0.0 0.0 0.0 0.0 0.0 0.0 0.0 0.0 0.0 0.0
0.0 0.0 0.0 0.0 0.0 0.0 0.0 0.0 0.0 0.0 0.0 0.0 0.1 0.3 0.0 0.0 0.0 0.0 0.0 0.0 0.0 0.0 0.0 0.0 0.0 0.0 0.0 0.0 0.0 0.0 0.0 0.0 0.0 0.0 0.0 0.0 0.0 0.0 0.0 0.0 0.0 0.0 0.0 0.0 0.0 0.0 0.0 0.0 0.0 0.0 0.0 0.0 0.0 0.0
0.0 0.0 0.0 0.0 0.0 0.0 0.0 0.0 0.0 0.0 0.0 0.0 0.0 0.0 0.0 1.5 0.0 2.2 1.9 0.0 0.0 0.0 0.0 0.0 0.0 0.0 0.0 0.0 0.0 0.0 0.0 0.0 0.0 0.0 0.0 0.0 0.0 0.0 0.0 0.0 0.0 0.0 0.0 0.0 0.0 0.0 0.0 0.0 0.0 0.0 0.0 0.0 0.0 0.0
0.0 0.0 0.0 0.0 0.0 0.0 0.0 0.0 0.0 0.0 0.0 0.0 0.2 1.2 1.5 2.0 2.4 1.0 0.8 0.0 0.0 0.0 0.0 0.0 0.0 0.0 0.0 0.0 0.0 0.0 0.0 0.0 0.0 0.0 0.0 0.0 0.0 0.0 0.0 0.0 0.0 0.0 0.0 0.0 0.0 0.0 0.0 0.0 0.0 0.0 0.0 0.0 0.0 0.0
0.0 0.0 0.0 0.0 0.0 0.0 0.0 0.0 0.0 0.0 0.0 0.1 0.7 1.3 1.0 1.2 0.5 0.1 0.0 0.0 0.0 0.0 0.0 0.0 0.0 0.0 0.0 0.0 0.0 0.0 0.0 0.0 0.0 0.0 0.0 0.0 0.0 0.0 0.0 0.0 0.0 0.0 0.0 0.0 0.0 0.0 0.0 0.0 0.0 0.0 0.0 0.0 0.0 0.0
0.0 0.0 0.0 0.0 0.0 0.0 0.0 0.0 0.0 0.0 0.0 0.0 0.9 1.2 0.8 1.0 0.1 0.0 0.0 0.0 0.0 0.0 0.0 0.0 0.0 0.0 0.0 0.0 0.0 0.0 0.0 0.0 0.0 0.0 0.0 0.0 0.0 0.0 0.0 0.0 0.0 0.0 0.0 0.0 0.0 0.0 0.0 0.0 0.0 0.0 0.0 0.0 0.0 0.0
0.0 0.0 0.0 0.0 0.0 0.0 0.0 0.0 0.0 0.0 0.0 0.1 0.6 1.2 0.9 0.6 0.3 0.1 0.0 0.0 0.0 0.0 0.0 0.0 0.0 0.0 0.0 0.0 0.0 0.0 0.0 0.0 0.0 0.0 0.0 0.0 0.0 0.0 0.0 0.0 0.0 0.0 0.0 0.0 0.0 0.0 0.0 0.0 0.0 0.0 0.0 0.0 0.0 0.0
0.0 0.0 0.0 0.0 0.0 0.0 0.0 0.0 0.0 0.0 0.1 0.0 0.2 0.7 0.8 0.4 0.4 0.3 0.0 0.0 0.0 0.0 0.0 0.0 0.0 0.0 0.0 0.0 0.0 0.0 0.0 0.0 0.0 0.0 0.0 0.0 0.0 0.0 0.0 0.0 0.0 0.0 0.0 0.0 0.0 0.0 0.0 0.0 0.0 0.0 0.0 0.0 0.0 0.0
0.0 0.0 0.0 0.0 0.0 0.0 0.0 0.0 0.0 0.0 0.0 0.0 0.0 0.0 0.0 0.0 0.3 0.3 0.0 0.0 0.0 0.0 0.0 0.0 0.0 0.0 0.0 0.0 0.0 0.0 0.0 0.0 0.0 0.0 0.0 0.0 0.0 0.0 0.0 0.0 0.0 0.0 0.0 0.0 0.0 0.0 0.0 0.0 0.0 0.0 0.0 0.0 0.0 0.0
0.0 0.0 0.0 0.0 0.0 0.0 0.0 0.0 0.0 0.0 0.0 0.0 0.0 0.0 0.0 0.0 0.0 0.0 0.0 0.0 0.0 0.0 0.0 0.0 0.0 0.0 0.0 0.0 0.0 0.0 0.0 0.0 0.0 0.0 0.0 0.0 0.0 0.0 0.0 0.0 0.0 0.0 0.0 0.0 0.0 0.0 0.0 0.0 0.0 0.0 0.0 0.0 0.0 0.0
0.0 0.0 0.0 0.0 0.0 0.0 0.0 0.0 0.0 0.0 0.0 0.0 0.0 0.0 0.0 0.0 0.0 0.0 0.0 0.3 0.0 0.0 0.4 0.0 0.0 0.0 0.0 0.0 0.0 0.0 0.0 0.0 0.0 0.0 0.0 0.0 0.0 0.0 0.0 0.0 0.0 0.0 0.0 0.0 0.0 0.0 0.0 0.0 0.0 0.0 0.0 0.0 0.0 0.0
0.0 0.0 0.0 0.0 0.0 0.0 0.0 0.0 0.0 0.0 0.0 0.0 0.0 0.0 0.0 0.0 0.0 0.0 0.0 1.2 0.8 0.8 0.6 0.1 0.0 0.0 0.0 0.0 0.0 0.0 0.0 0.0 0.0 0.0 0.0 0.0 0.0 0.0 0.0 0.0 0.0 0.0 0.0 0.0 0.0 0.0 0.0 0.0 0.0 0.0 0.0 0.0 0.0 0.0
0.0 0.0 0.0 0.0 0.0 0.0 0.0 0.0 0.0 0.0 0.0 0.0 0.0 0.0 0.0 0.0 0.0 0.0 0.0 1.6 1.9 0.7 0.2 0.1 0.0 0.0 0.0 0.0 0.0 0.0 0.0 0.0 0.0 0.0 0.0 0.0 0.0 0.0 0.0 0.0 0.0 0.0 0.0 0.0 0.0 0.0 0.0 0.0 0.0 0.0 0.0 0.0 0.0 0.0
0.0 0.0 0.0 0.0 0.0 0.0 0.0 0.0 0.0 0.0 0.0 0.0 0.0 0.0 0.0 0.0 0.0 0.0 0.8 0.9 0.9 0.6 0.3 0.1 0.0 0.0 0.0 0.0 0.0 0.0 0.0 0.0 0.0 0.0 0.0 0.0 0.0 0.0 0.0 0.0 0.0 0.0 0.0 0.0 0.0 0.0 0.0 0.0 0.0 0.0 0.0 0.0 0.0 0.0
0.0 0.0 0.0 0.0 0.0 0.0 0.0 0.0 0.0 0.0 0.0 0.0 0.0 0.0 0.0 0.0 0.0 0.0 0.5 0.3 0.3 0.2 0.3 0.4 0.3 0.2 0.0 0.0 0.0 0.0 0.0 0.0 0.0 0.0 0.0 0.0 0.0 0.0 0.0 0.0 0.0 0.0 0.0 0.0 0.0 0.0 0.0 0.0 0.0 0.0 0.0 0.0 0.0 0.0
0.0 0.0 0.0 0.0 0.0 0.0 0.0 0.0 0.0 0.0 0.0 0.0 0.0 0.0 0.0 0.0 0.1 0.1 0.0 0.0 0.0 0.1 0.3 0.4 0.4 0.4 0.3 0.1 0.0 0.0 0.0 0.0 0.0 0.2 0.0 0.0 0.0 0.0 0.0 0.0 0.0 0.0 0.0 0.0 0.0 0.0 0.0 0.0 0.0 0.0 0.0 0.0 0.0 0.0
0.0 0.0 0.0 0.0 0.0 0.0 0.0 0.0 0.0 0.0 0.0 0.0 0.0 0.0 0.0 0.0 0.1 0.0 0.0 0.0 0.1 0.2 0.2 0.3 0.4 0.4 0.3 0.2 0.2 0.2 0.1 0.1 0.3 0.7 0.9 0.0 0.0 0.0 0.0 0.0 0.0 0.0 0.0 0.0 0.0 0.0 0.0 0.0 0.0 0.0 0.0 0.0 0.0 0.0
0.0 0.0 0.0 0.0 0.0 0.0 0.0 0.0 0.0 0.0 0.0 0.0 0.0 0.0 0.0 0.0 0.0 0.0 0.0 0.0 0.0 0.2 0.3 0.6 0.8 0.7 0.6 0.6 0.5 0.4 0.4 0.4 0.4 0.5 1.0 1.5 1.3 0.7 0.2 0.1 0.0 0.0 0.0 0.0 0.0 0.0 0.0 0.0 0.0 0.0 0.0 0.0 0.0 0.0
0.0 0.0 0.0 0.0 0.0 0.0 0.0 0.0 0.0 0.0 0.0 0.0 0.0 0.0 0.0 0.0 0.0 0.0 0.0 0.0 0.0 0.0 0.4 0.7 1.1 1.1 1.0 0.9 0.7 0.6 0.7 0.9 1.0 1.1 1.2 1.3 1.2 0.9 0.6 0.3 0.3 0.0 0.0 0.1 0.0 0.0 0.0 0.0 0.0 0.0 0.0 0.0 0.0 0.0
0.0 0.0 0.0 0.0 0.0 0.0 0.0 0.0 0.0 0.0 0.0 0.0 0.0 0.0 0.0 0.0 0.0 0.0 0.0 0.0 0.0 0.4 0.6 0.8 1.1 1.2 1.2 1.2 1.1 1.1 1.0 0.9 0.6 0.6 0.5 0.7 0.8 0.9 0.7 0.0 0.5 0.3 0.1 0.1 0.0 0.0 0.0 0.0 0.0 0.0 0.0 0.0 0.0 0.0
0.0 0.0 0.0 0.0 0.0 0.0 0.0 0.0 0.0 0.0 0.0 0.0 0.0 0.0 0.0 0.0 0.0 0.0 0.0 0.0 0.0 0.7 1.0 1.2 1.4 1.5 1.5 1.3 1.2 1.2 1.2 1.4 1.0 0.4 0.3 0.4 0.5 0.6 0.5 0.2 0.1 0.0 0.0 0.0 0.0 0.0 0.0 0.0 0.0 0.0 0.0 0.0 0.0 0.0
0.0 0.0 0.0 0.0 0.0 0.0 0.0 0.0 0.0 0.0 0.0 0.0 0.0 0.0 0.0 0.0 0.0 0.0 0.1 0.3 0.6 0.9 1.2 1.5 1.6 1.8 1.6 1.6 1.3 0.9 0.9 1.1 1.3 1.1 0.5 0.3 0.3 0.1 0.0 0.0 0.0 0.0 0.0 0.0 0.0 0.0 0.0 0.0 0.0 0.0 0.0 0.0 0.0 0.0
0.0 0.0 0.0 0.0 0.0 0.0 0.0 0.0 0.0 0.0 0.0 0.0 0.0 0.0 0.0 0.0 0.0 0.0 0.2 0.4 0.7 0.9 1.2 1.4 1.2 1.3 1.4 1.1 0.9 0.6 0.2 0.1 0.2 0.2 0.2 0.1 0.0 0.0 0.0 0.0 0.0 0.0 0.0 0.0 0.0 0.0 0.0 0.0 0.0 0.0 0.0 0.0 0.0 0.0
0.0 0.0 0.0 0.0 0.0 0.0 0.0 0.0 0.0 0.0 0.0 0.0 0.0 0.0 0.0 0.0 0.0 0.2 0.3 0.5 0.6 0.8 0.9 1.1 1.1 0.9 0.5 0.1 0.1 0.0 0.0 0.0 0.0 0.0 0.0 0.0 0.0 0.0 0.0 0.0 0.0 0.0 0.0 0.0 0.0 0.0 0.0 0.0 0.0 0.0 0.0 0.0 0.0 0.0

GFSWCAN_prec_snow_009.txt.gz
Snowfall_Accumulation
0.0 0.0 0.0 0.0 0.0 0.0 0.0 0.0 0.0 0.0 0.0 0.0 0.0 0.0 0.0 0.0 0.0 0.0 0.0 0.0 0.0 0.0 0.0 0.0 0.0 0.0 0.0 0.0 0.0 0.0 0.0 0.0 0.0 0.0 0.0 0.0 0.0 0.0 0.0 0.0 0.0 0.0 0.0 0.0 0.0 0.0 0.0 0.0 0.0 0.0 0.0 0.0 0.0 0.0
0.0 0.0 0.0 0.0 0.0 0.0 0.0 0.0 0.0 0.0 0.0 0.0 0.0 0.0 0.0 0.0 0.0 0.0 0.0 0.0 0.0 0.0 0.0 0.0 0.0 0.0 0.0 0.0 0.0 0.0 0.0 0.0 0.0 0.0 0.0 0.0 0.0 0.0 0.0 0.0 0.0 0.0 0.0 0.0 0.0 0.0 0.0 0.0 0.0 0.0 0.0 0.0 0.0 0.0
0.0 0.0 0.0 0.0 0.0 0.0 0.0 0.0 0.0 0.0 0.0 0.0 0.0 0.0 0.0 0.0 0.0 0.0 0.0 0.0 0.0 0.0 0.0 0.0 0.0 0.0 0.0 0.0 0.0 0.0 0.0 0.0 0.0 0.0 0.0 0.0 0.0 0.0 0.0 0.0 0.0 0.0 0.0 0.0 0.0 0.0 0.0 0.0 0.0 0.0 0.0 0.0 0.0 0.0
0.0 0.0 0.0 0.0 0.0 0.0 0.0 0.0 0.0 0.0 0.0 0.0 0.0 0.0 0.0 0.0 0.0 0.0 0.0 0.0 0.0 0.0 0.0 0.0 0.0 0.0 0.0 0.0 0.0 0.0 0.0 0.0 0.0 0.0 0.0 0.0 0.0 0.0 0.0 0.0 0.0 0.0 0.0 0.0 0.0 0.0 0.0 0.0 0.0 0.0 0.0 0.0 0.0 0.0
0.0 0.0 0.0 0.0 0.0 0.0 0.0 0.0 0.0 0.0 0.0 0.0 0.0 0.0 0.0 0.0 0.0 0.0 0.0 0.0 0.0 0.0 0.0 0.0 0.0 0.0 0.0 0.0 0.0 0.0 0.0 0.0 0.0 0.0 0.0 0.0 0.0 0.0 0.0 0.0 0.0 0.0 0.0 0.0 0.0 0.0 0.0 0.0 0.0 0.0 0.0 0.0 0.0 0.0
0.0 0.0 0.0 0.0 0.0 0.0 0.0 0.0 0.0 0.0 0.0 0.0 0.0 0.0 0.0 0.0 0.0 0.0 0.0 0.0 0.0 0.0 0.0 0.0 0.0 0.0 0.0 0.0 0.0 0.0 0.0 0.0 0.0 0.0 0.0 0.0 0.0 0.0 0.0 0.0 0.0 0.0 0.0 0.0 0.0 0.0 0.0 0.0 0.0 0.0 0.0 0.0 0.0 0.0
0.0 0.0 0.0 0.0 0.0 0.0 0.0 0.0 0.0 0.0 0.0 0.0 0.0 0.0 0.0 0.0 0.0 0.0 0.6 0.0 0.0 0.0 0.0 0.0 0.0 0.0 0.0 0.0 0.0 0.0 0.0 0.0 0.0 0.0 0.0 0.0 0.0 0.0 0.0 0.0 0.0 0.0 0.0 0.0 0.0 0.0 0.0 0.0 0.0 0.0 0.0 0.0 0.0 0.0
0.0 0.0 0.0 0.0 0.0 0.0 0.0 0.0 0.0 0.0 0.0 0.0 0.0 0.0 0.0 0.0 0.0 0.0 0.0 0.0 0.0 0.0 0.0 0.0 0.0 0.0 0.0 0.0 0.0 0.0 0.0 0.0 0.0 0.0 0.0 0.0 0.0 0.0 0.0 0.0 0.0 0.0 0.0 0.0 0.0 0.0 0.0 0.0 0.0 0.0 0.0 0.0 0.0 0.0
0.0 0.0 0.0 0.0 0.0 0.0 0.0 0.0 0.0 0.0 0.0 0.0 0.0 0.0 0.0 0.0 0.0 0.0 0.0 0.0 0.0 0.0 0.0 0.0 0.0 0.0 0.0 0.0 0.0 0.0 0.0 0.0 0.0 0.0 0.0 0.0 0.0 0.0 0.0 0.0 0.0 0.0 0.0 0.0 0.0 0.0 0.0 0.0 0.0 0.0 0.0 0.0 0.0 0.0
0.0 0.0 0.0 0.0 0.0 0.0 0.0 0.0 0.0 0.0 0.0 0.0 0.0 0.0 0.1 0.0 0.0 0.0 0.0 0.0 0.0 0.0 0.0 0.0 0.0 0.0 0.0 0.0 0.0 0.0 0.0 0.0 0.0 0.0 0.0 0.0 0.0 0.0 0.0 0.0 0.0 0.0 0.0 0.0 0.0 0.0 0.0 0.0 0.0 0.0 0.0 0.0 0.0 0.0
0.0 0.0 0.0 0.0 0.0 0.0 0.0 0.0 0.0 0.0 0.0 0.0 0.1 0.5 0.0 0.0 0.0 0.0 0.0 0.0 0.0 0.0 0.0 0.0 0.0 0.0 0.0 0.0 0.0 0.0 0.0 0.0 0.0 0.0 0.0 0.0 0.0 0.0 0.0 0.0 0.0 0.0 0.0 0.0 0.0 0.0 0.0 0.0 0.0 0.0 0.0 0.0 0.0 0.0
0.0 0.0 0.0 0.0 0.0 0.0 0.0 0.0 0.0 0.0 0.0 0.0 0.0 0.0 0.0 2.0 4.6 6.3 4.4 0.0 0.0 0.0 0.0 0.0 0.0 0.0 0.0 0.0 0.0 0.0 0.0 0.0 0.0 0.0 0.0 0.0 0.0 0.0 0.0 0.0 0.0 0.0 0.0 0.0 0.0 0.0 0.0 0.0 0.0 0.0 0.0 0.0 0.0 0.0
0.0 0.0 0.0 0.0 0.0 0.0 0.0 0.0 0.0 0.0 0.0 0.0 0.3 1.5 2.4 4.6 6.0 3.5 1.9 0.5 0.0 0.0 0.0 0.0 0.0 0.0 0.0 0.0 0.0 0.0 0.0 0.0 0.0 0.0 0.0 0.0 0.0 0.0 0.0 0.0 0.0 0.0 0.0 0.0 0.0 0.0 0.0 0.0 0.0 0.0 0.0 0.0 0.0 0.0
0.0 0.0 0.0 0.0 0.0 0.0 0.0 0.0 0.0 0.0 0.0 0.1 0.7 1.3 2.3 3.0 3.0 2.2 1.1 0.7 0.0 0.0 0.0 0.0 0.0 0.0 0.0 0.0 0.0 0.0 0.0 0.0 0.0 0.0 0.0 0.0 0.0 0.0 0.0 0.0 0.0 0.0 0.0 0.0 0.0 0.0 0.0 0.0 0.0 0.0 0.0 0.0 0.0 0.0
0.0 0.0 0.0 0.0 0.0 0.0 0.0 0.0 0.0 0.0 0.0 0.0 0.9 1.2 1.2 1.8 0.8 0.4 0.1 0.4 0.0 0.0 0.0 0.0 0.0 0.0 0.0 0.0 0.0 0.0 0.0 0.0 0.0 0.0 0.0 0.0 0.0 0.0 0.0 0.0 0.0 0.0 0.0 0.0 0.0 0.0 0.0 0.0 0.0 0.0 0.0 0.0 0.0 0.0
0.0 0.0 0.0 0.0 0.0 0.0 0.0 0.0 0.0 0.0 0.0 0.1 0.6 1.2 0.9 0.6 0.3 0.1 0.0 0.1 0.0 0.0 0.0 0.0 0.0 0.0 0.0 0.0 0.0 0.0 0.0 0.0 0.0 0.0 0.0 0.0 0.0 0.0 0.0 0.0 0.0 0.0 0.0 0.0 0.0 0.0 0.0 0.0 0.0 0.0 0.0 0.0 0.0 0.0
0.0 0.0 0.0 0.0 0.0 0.0 0.0 0.0 0.0 0.0 0.1 0.0 0.2 0.7 0.8 0.4 0.4 0.3 0.0 0.0 0.0 0.0 0.0 0.0 0.1 0.0 0.0 0.0 0.0 0.0 0.0 0.0 0.0 0.0 0.0 0.0 0.0 0.0 0.0 0.0 0.0 0.0 0.0 0.0 0.0 0.0 0.0 0.0 0.0 0.0 0.0 0.0 0.0 0.0
0.0 0.0 0.0 0.0 0.0 0.0 0.0 0.0 0.0 0.0 0.0 0.0 0.0 0.0 0.0 0.0 0.3 0.3 0.0 0.0 0.0 0.0 0.9 1.4 0.4 0.0 0.0 0.0 0.0 0.0 0.0 0.0 0.0 0.0 0.0 0.0 0.0 0.0 0.0 0.0 0.0 0.0 0.0 0.0 0.0 0.0 0.0 0.0 0.0 0.0 0.0 0.0 0.0 0.0
0.0 0.0 0.0 0.0 0.0 0.0 0.0 0.0 0.0 0.0 0.0 0.0 0.0 0.0 0.0 0.0 0.0 0.0 0.0 0.0 0.0 0.0 0.0 1.8 1.1 0.1 0.0 0.0 0.0 0.0 0.0 0.0 0.0 0.0 0.0 0.0 0.0 0.0 0.0 0.0 0.0 0.0 0.0 0.0 0.0 0.0 0.0 0.0 0.0 0.0 0.0 0.0 0.0 0.0
0.0 0.0 0.0 0.0 0.0 0.0 0.0 0.0 0.0 0.0 0.0 0.0 0.0 0.0 0.0 0.0 0.0 0.0 0.0 0.3 0.5 1.9 2.2 1.7 0.0 0.2 0.1 0.0 0.0 0.0 0.0 0.0 0.0 0.0 0.0 0.0 0.0 0.0 0.0 0.0 0.0 0.0 0.0 0.0 0.0 0.0 0.0 0.0 0.0 0.0 0.0 0.0 0.0 0.0
0.0 0.0 0.0 0.0 0.0 0.0 0.0 0.0 0.0 0.0 0.0 0.0 0.0 0.0 0.0 0.0 0.0 0.0 0.0 1.2 1.9 3.1 2.3 1.3 0.2 0.0 0.0 0.5 0.2 0.0 0.0 0.0 0.0 0.0 0.0 0.0 0.0 0.0 0.0 0.0 0.0 0.0 0.0 0.0 0.0 0.0 0.0 0.0 0.0 0.0 0.0 0.0 0.0 0.0
0.0 0.0 0.0 0.0 0.0 0.0 0.0 0.0 0.0 0.0 0.0 0.0 0.0 0.0 0.0 0.0 0.0 0.0 0.0 1.6 2.7 1.6 1.2 0.9 0.9 0.6 0.2 0.0 0.7 0.4 0.0 0.0 0.0 0.0 0.0 0.0 0.0 0.0 0.0 0.0 0.0 0.0 0.0 0.0 0.0 0.0 0.0 0.0 0.0 0.0 0.0 0.0 0.0 0.0
0.0 0.0 0.0 0.0 0.0 0.0 0.0 0.0 0.0 0.0 0.0 0.0 0.0 0.0 0.0 0.0 0.0 0.0 0.8 1.0 1.2 0.9 0.7 0.6 0.7 1.6 1.7 1.4 1.4 1.1 0.6 0.1 0.0 0.0 0.0 0.0 0.0 0.0 0.0 0.0 0.0 0.0 0.0 0.0 0.0 0.0 0.0 0.0 0.0 0.0 0.0 0.0 0.0 0.0
0.0 0.0 0.0 0.0 0.0 0.0 0.0 0.0 0.0 0.0 0.0 0.0 0.0 0.0 0.0 0.0 0.0 0.0 0.5 0.3 0.3 0.2 0.8 1.0 0.9 0.7 0.5 1.2 1.4 1.7 1.9 1.2 0.3 0.0 0.0 0.0 0.0 0.0 0.0 0.0 0.0 0.0 0.0 0.0 0.0 0.0 0.0 0.0 0.0 0.0 0.0 0.0 0.0 0.0
0.0 0.0 0.0 0.0 0.0 0.0 0.0 0.0 0.0 0.0 0.0 0.0 0.0 0.0 0.0 0.0 0.1 0.1 0.0 0.0 0.0 0.1 0.3 0.8 0.9 0.9 0.9 0.7 1.0 1.0 1.0 1.2 1.1 0.8 0.1 0.0 0.0 0.0 0.0 0.0 0.0 0.0 0.0 0.0 0.0 0.0 0.0 0.0 0.0 0.0 0.0 0.0 0.0 0.0
0.0 0.0 0.0 0.0 0.0 0.0 0.0 0.0 0.0 0.0 0.0 0.0 0.0 0.0 0.0 0.0 0.1 0.0 0.0 0.0 0.1 0.2 0.2 0.3 0.7 0.7 0.5 0.5 0.7 1.2 1.2 1.1 1.0 1.1 1.1 0.0 0.0 0.0 0.0 0.0 0.0 0.0 0.0 0.0 0.0 0.0 0.0 0.0 0.0 0.0 0.0 0.0 0.0 0.0
0.0 0.0 0.0 0.0 0.0 0.0 0.0 0.0 0.0 0.0 0.0 0.0 0.0 0.0 0.0 0.0 0.0 0.0 0.0 0.0 0.0 0.2 0.3 0.6 1.2 1.1 0.8 0.8 0.8 1.2 1.4 1.5 1.4 1.1 1.4 2.2 2.1 1.3 0.5 0.2 0.1 0.0 0.0 0.0 0.1 0.1 0.0 0.0 0.0 0.0 0.0 0.0 0.0 0.0
0.0 0.0 0.0 0.0 0.0 0.0 0.0 0.0 0.0 0.0 0.0 0.0 0.0 0.0 0.0 0.0 0.0 0.0 0.0 0.0 0.0 0.0 0.4 0.7 1.1 1.5 1.3 1.1 1.2 1.6 1.8 2.0 2.2 2.1 2.2 2.6 3.0 3.0 2.5 1.4 0.9 1.3 0.8 0.4 0.1 0.1 0.0 0.0 0.0 0.0 0.0 0.1 0.0 0.0
0.0 0.0 0.0 0.0 0.0 0.0 0.0 0.0 0.0 0.0 0.0 0.0 0.0 0.0 0.0 0.0 0.0 0.0 0.0 0.0 0.0 0.4 0.6 0.8 1.1 1.2 1.6 1.7 1.7 2.2 2.3 2.1 1.6 1.1 0.7 0.9 1.9 3.0 3.2 2.0 2.4 2.2 1.4 0.5 0.3 0.3 0.0 0.0 0.0 0.0 0.1 0.0 0.0 0.0
0.0 0.0 0.0 0.0 0.0 0.0 0.0 0.0 0.0 0.0 0.0 0.0 0.0 0.0 0.0 0.0 0.0 0.0 0.0 0.0 0.0 0.7 1.0 1.4 1.4 1.5 2.0 2.0 2.0 1.9 2.4 2.6 2.2 0.9 0.6 0.9 1.0 1.7 2.2 2.2 2.2 2.1 1.5 0.8 0.7 0.6 0.3 0.2 0.1 0.0 0.0 0.0 0.0 0.0
0.0 0.0 0.0 0.0 0.0 0.0 0.0 0.0 0.0 0.0 0.0 0.0 0.0 0.0 0.0 0.0 0.0 0.0 0.1 0.3 0.7 1.1 1.5 1.9 2.1 2.6 2.7 2.9 2.9 2.5 2.5 3.0 3.3 3.1 2.1 1.8 1.7 1.7 2.1 2.2 1.9 1.5 1.1 0.8 0.7 0.5 0.3 0.2 0.0 0.0 0.0 0.0 0.0 0.0
0.0 0.0 0.0 0.0 0.0 0.0 0.0 0.0 0.0 0.0 0.0 0.0 0.0 0.0 0.0 0.0 0.0 0.0 0.2 0.4 0.9 1.2 1.6 1.9 2.1 2.6 3.1 3.1 3.2 3.2 2.5 2.4 2.9 2.9 2.3 1.7 1.5 1.4 1.3 1.4 1.3 1.1 0.9 0.7 0.4 0.1 0.0 0.0 0.0 0.0 0.0 0.0 0.0 0.0
0.1 0.0 0.0 0.0 0.0 0.0 0.0 0.0 0.0 0.0 0.0 0.0 0.0 0.0 0.0 0.0 0.0 0.2 0.3 0.5 1.0 1.2 1.4 2.1 2.5 2.5 2.4 2.4 2.7 3.0 3.1 3.0 2.8 2.6 2.4 1.7 1.1 1.0 0.9 0.7 0.6 0.3 0.1 0.0 0.0 0.0 0.0 0.0 0.0 0.0 0.0 0.0 0.0 0.0

GFSWCAN_prec_snow_012.txt.gz
Snowfall_Accumulation
0.0 0.0 0.0 0.0 0.0 0.0 0.0 0.0 0.0 0.0 0.0 0.0 0.0 0.0 0.0 0.0 0.0 0.0 0.0 0.0 0.0 0.0 0.0 0.0 0.0 0.0 0.0 0.0 0.0 0.0 0.0 0.0 0.0 0.0 0.0 0.0 0.0 0.0 0.0 0.0 0.0 0.0 0.0 0.0 0.0 0.0 0.0 0.0 0.0 0.0 0.0 0.0 0.0 0.0
0.0 0.0 0.0 0.0 0.0 0.0 0.0 0.0 0.0 0.0 0.0 0.0 0.0 0.0 0.0 0.0 0.0 0.0 0.0 0.0 0.0 0.0 0.0 0.0 0.0 0.0 0.0 0.0 0.0 0.0 0.0 0.0 0.0 0.0 0.0 0.0 0.0 0.0 0.0 0.0 0.0 0.0 0.0 0.0 0.0 0.0 0.0 0.0 0.0 0.0 0.0 0.0 0.0 0.0
0.0 0.0 0.0 0.0 0.0 0.0 0.0 0.0 0.0 0.0 0.0 0.0 0.0 0.0 0.0 0.0 0.0 0.0 0.0 0.0 0.0 0.0 0.0 0.0 0.0 0.0 0.0 0.0 0.0 0.0 0.0 0.0 0.0 0.0 0.0 0.0 0.0 0.0 0.0 0.0 0.0 0.0 0.0 0.0 0.0 0.0 0.0 0.0 0.0 0.0 0.0 0.0 0.0 0.0
0.0 0.0 0.0 0.0 0.0 0.0 0.0 0.0 0.0 0.0 0.0 0.0 0.0 0.0 0.0 0.0 0.0 0.0 0.0 0.0 0.0 0.0 0.0 0.0 0.0 0.0 0.0 0.0 0.0 0.0 0.0 0.0 0.0 0.0 0.0 0.0 0.0 0.0 0.0 0.0 0.0 0.0 0.0 0.0 0.0 0.0 0.0 0.0 0.0 0.0 0.0 0.0 0.0 0.0
0.0 0.0 0.0 0.0 0.0 0.0 0.0 0.0 0.0 0.0 0.0 0.0 0.0 0.0 0.0 0.0 0.0 0.0 0.0 0.0 0.0 0.0 0.0 0.0 0.0 0.0 0.0 0.0 0.0 0.0 0.0 0.0 0.0 0.0 0.0 0.0 0.0 0.0 0.0 0.0 0.0 0.0 0.0 0.0 0.0 0.0 0.0 0.0 0.0 0.0 0.0 0.0 0.0 0.0
0.0 0.0 0.0 0.0 0.0 0.0 0.0 0.0 0.0 0.0 0.0 0.0 0.0 0.0 0.0 0.0 0.0 0.0 0.0 0.0 0.0 0.0 0.0 0.0 0.0 0.0 0.0 0.0 0.0 0.0 0.0 0.0 0.0 0.0 0.0 0.0 0.0 0.0 0.0 0.0 0.0 0.0 0.0 0.0 0.0 0.0 0.0 0.0 0.0 0.0 0.0 0.0 0.0 0.0
0.0 0.0 0.0 0.0 0.0 0.0 0.0 0.0 0.0 0.0 0.0 0.0 0.0 0.0 0.0 0.0 0.0 0.0 0.6 0.0 0.0 0.0 0.0 0.0 0.0 0.0 0.0 0.0 0.0 0.0 0.0 0.0 0.0 0.0 0.0 0.0 0.0 0.0 0.0 0.0 0.0 0.0 0.0 0.0 0.0 0.0 0.0 0.0 0.0 0.0 0.0 0.0 0.0 0.0
0.0 0.0 0.0 0.0 0.0 0.0 0.0 0.0 0.0 0.0 0.0 0.0 0.0 0.0 0.0 0.0 0.0 0.0 0.0 0.0 0.0 0.0 0.0 0.0 0.0 0.0 0.0 0.0 0.0 0.0 0.0 0.0 0.0 0.0 0.0 0.0 0.0 0.0 0.0 0.0 0.0 0.0 0.0 0.0 0.0 0.0 0.0 0.0 0.0 0.0 0.0 0.0 0.0 0.0
0.0 0.0 0.0 0.0 0.0 0.0 0.0 0.0 0.0 0.0 0.0 0.0 0.0 0.0 0.0 0.0 0.0 0.0 0.0 0.0 0.0 0.0 0.0 0.0 0.0 0.0 0.0 0.0 0.0 0.0 0.0 0.0 0.0 0.0 0.0 0.0 0.0 0.0 0.0 0.0 0.0 0.0 0.0 0.0 0.0 0.0 0.0 0.0 0.0 0.0 0.0 0.0 0.0 0.0
0.0 0.0 0.0 0.0 0.0 0.0 0.0 0.0 0.0 0.0 0.0 0.0 0.0 0.0 0.4 0.0 0.0 0.0 0.0 0.0 0.0 0.0 0.0 0.0 0.0 0.0 0.0 0.0 0.0 0.0 0.0 0.0 0.0 0.0 0.0 0.0 0.0 0.0 0.0 0.0 0.0 0.0 0.0 0.0 0.0 0.0 0.0 0.0 0.0 0.0 0.0 0.0 0.0 0.0
0.0 0.0 0.0 0.0 0.0 0.0 0.0 0.0 0.0 0.0 0.0 0.0 0.1 0.5 0.0 0.0 0.0 0.0 2.3 0.0 0.0 0.0 0.0 0.0 0.0 0.0 0.0 0.0 0.0 0.0 0.0 0.0 0.0 0.0 0.0 0.0 0.0 0.0 0.0 0.0 0.0 0.0 0.0 0.0 0.0 0.0 0.0 0.0 0.0 0.0 0.0 0.0 0.0 0.0
0.0 0.0 0.0 0.0 0.0 0.0 0.0 0.0 0.0 0.0 0.0 0.0 0.0 0.0 0.0 2.5 5.7 7.5 7.0 0.0 0.0 0.0 0.0 0.0 0.0 0.0 0.0 0.0 0.0 0.0 0.0 0.0 0.0 0.0 0.0 0.0 0.0 0.0 0.0 0.0 0.0 0.0 0.0 0.0 0.0 0.0 0.0 0.0 0.0 0.0 0.0 0.0 0.0 0.0
0.0 0.0 0.0 0.0 0.0 0.0 0.0 0.0 0.0 0.0 0.0 0.0 0.3 1.5 2.7 5.3 6.6 4.6 3.5 1.1 0.0 0.0 0.0 0.0 0.0 0.0 0.0 0.0 0.0 0.0 0.0 0.0 0.0 0.0 0.0 0.0 0.0 0.0 0.0 0.0 0.0 0.0 0.0 0.0 0.0 0.0 0.0 0.0 0.0 0.0 0.0 0.0 0.0 0.0
0.0 0.0 0.0 0.0 0.0 0.0 0.0 0.0 0.0 0.0 0.0 0.1 0.7 1.3 2.3 3.0 3.0 2.2 1.1 0.9 0.0 0.1 0.0 0.0 0.0 0.0 0.0 0.0 0.0 0.0 0.0 0.0 0.0 0.0 0.0 0.0 0.0 0.0 0.0 0.0 0.0 0.0 0.0 0.0 0.0 0.0 0.0 0.0 0.0 0.0 0.0 0.0 0.0 0.0
0.0 0.0 0.0 0.0 0.0 0.0 0.0 0.0 0.0 0.0 0.0 0.0 0.9 1.2 1.2 1.8 0.8 0.4 0.1 0.5 0.0 0.0 0.0 0.0 0.0 0.0 0.0 0.0 0.0 0.0 0.0 0.0 0.0 0.0 0.0 0.0 0.0 0.0 0.0 0.0 0.0 0.0 0.0 0.0 0.0 0.0 0.0 0.0 0.0 0.0 0.0 0.0 0.0 0.0
0.0 0.0 0.0 0.0 0.0 0.0 0.0 0.0 0.0 0.0 0.0 0.1 0.6 1.2 0.9 0.6 0.3 0.1 0.0 0.1 0.0 0.0 0.0 0.0 0.0 0.0 0.0 0.0 0.0 0.0 0.0 0.0 0.0 0.0 0.0 0.0 0.0 0.0 0.0 0.0 0.0 0.0 0.0 0.0 0.0 0.0 0.0 0.0 0.0 0.0 0.0 0.0 0.0 0.0
0.0 0.0 0.0 0.0 0.0 0.0 0.0 0.0 0.0 0.0 0.1 0.0 0.2 0.7 0.8 0.4 0.4 0.3 0.0 0.0 0.0 0.0 0.2 0.3 0.3 0.0 0.0 0.0 0.0 0.0 0.0 0.0 0.0 0.0 0.0 0.0 0.0 0.0 0.0 0.0 0.0 0.0 0.0 0.0 0.0 0.0 0.0 0.0 0.0 0.0 0.0 0.0 0.0 0.0
0.0 0.0 0.0 0.0 0.0 0.0 0.0 0.0 0.0 0.0 0.0 0.0 0.0 0.0 0.0 0.0 0.3 0.3 0.0 0.0 0.0 0.0 1.2 2.2 1.2 0.4 0.0 0.0 0.0 0.0 0.0 0.0 0.0 0.0 0.0 0.0 0.0 0.0 0.0 0.0 0.0 0.0 0.0 0.0 0.0 0.0 0.0 0.0 0.0 0.0 0.0 0.0 0.0 0.0
0.0 0.0 0.0 0.0 0.0 0.0 0.0 0.0 0.0 0.0 0.0 0.0 0.0 0.0 0.0 0.0 0.0 0.0 0.0 0.0 0.0 0.0 0.0 2.1 1.5 0.1 0.0 0.0 0.0 0.0 0.0 0.0 0.0 0.0 0.0 0.0 0.0 0.0 0.0 0.0 0.0 0.0 0.0 0.0 0.0 0.0 0.0 0.0 0.0 0.0 0.0 0.0 0.0 0.0
0.0 0.0 0.0 0.0 0.0 0.0 0.0 0.0 0.0 0.0 0.0 0.0 0.0 0.0 0.0 0.0 0.0 0.0 0.0 0.3 0.5 1.9 2.2 1.7 0.0 0.2 0.1 0.3 0.3 0.0 0.0 0.0 0.0 0.0 0.0 0.0 0.0 0.0 0.0 0.0 0.0 0.0 0.0 0.0 0.0 0.0 0.0 0.0 0.0 0.0 0.0 0.0 0.0 0.0
0.0 0.0 0.0 0.0 0.0 0.0 0.0 0.0 0.0 0.0 0.0 0.0 0.0 0.0 0.0 0.0 0.0 0.0 0.0 1.2 1.9 3.1 2.3 1.3 0.2 0.1 0.0 0.5 0.2 0.0 0.0 0.0 0.0 0.0 0.0 0.0 0.0 0.0 0.0 0.0 0.0 0.0 0.0 0.0 0.0 0.0 0.0 0.0 0.0 0.0 0.0 0.0 0.0 0.0
0.0 0.0 0.0 0.0 0.0 0.0 0.0 0.0 0.0 0.0 0.0 0.0 0.0 0.0 0.0 0.0 0.0 0.0 0.0 1.6 2.7 1.6 1.2 0.9 0.9 0.6 0.2 0.0 0.7 0.7 0.5 0.0 0.0 0.0 0.0 0.0 0.0 0.0 0.0 0.0 0.0 0.0 0.0 0.0 0.0 0.0 0.0 0.0 0.0 0.0 0.0 0.0 0.0 0.0
0.0 0.0 0.0 0.0 0.0 0.0 0.0 0.0 0.0 0.0 0.0 0.0 0.0 0.0 0.0 0.0 0.0 0.0 0.8 1.0 1.2 0.9 0.7 0.6 0.7 1.6 1.7 1.4 1.4 1.1 0.6 0.1 0.0 0.2 0.1 0.0 0.0 0.0 0.0 0.0 0.0 0.0 0.0 0.0 0.0 0.0 0.0 0.0 0.0 0.0 0.0 0.0 0.0 0.0
0.0 0.0 0.0 0.0 0.0 0.0 0.0 0.0 0.0 0.0 0.0 0.0 0.0 0.0 0.0 0.0 0.0 0.0 0.5 0.3 0.3 0.2 0.8 1.0 0.9 0.7 0.5 1.2 1.4 1.7 1.9 1.2 0.3 0.0 0.6 0.3 0.1 0.0 0.0 0.0 0.0 0.0 0.0 0.0 0.0 0.0 0.0 0.0 0.0 0.0 0.0 0.0 0.0 0.0
0.0 0.0 0.0 0.0 0.0 0.0 0.0 0.0 0.0 0.0 0.0 0.0 0.0 0.0 0.0 0.0 0.1 0.1 0.0 0.0 0.0 0.1 0.3 0.8 0.9 0.9 0.9 0.7 1.0 1.0 1.0 1.2 1.8 1.9 0.1 1.3 0.6 0.2 0.0 0.0 0.0 0.0 0.0 0.0 0.0 0.0 0.0 0.0 0.0 0.0 0.0 0.0 0.0 0.0
0.0 0.0 0.0 0.0 0.0 0.0 0.0 0.0 0.0 0.0 0.0 0.0 0.0 0.0 0.0 0.0 0.1 0.0 0.0 0.0 0.1 0.2 0.2 0.3 0.7 0.7 0.5 0.5 0.7 1.2 1.2 1.1 1.0 1.7 1.1 1.6 1.3 0.8 0.3 0.0 0.0 0.0 0.0 0.0 0.0 0.0 0.0 0.0 0.0 0.0 0.0 0.0 0.0 0.0
0.0 0.0 0.0 0.0 0.0 0.0 0.0 0.0 0.0 0.0 0.0 0.0 0.0 0.0 0.0 0.0 0.0 0.0 0.0 0.0 0.0 0.2 0.3 0.6 1.2 1.1 0.8 0.8 0.8 1.2 1.4 1.5 1.4 1.1 1.4 3.2 3.1 2.1 0.9 0.3 0.1 0.0 0.0 0.0 0.1 0.1 0.0 0.1 0.0 0.0 0.0 0.0 0.0 0.0
0.0 0.0 0.0 0.0 0.0 0.0 0.0 0.0 0.0 0.0 0.0 0.0 0.0 0.0 0.0 0.0 0.0 0.0 0.0 0.0 0.0 0.0 0.4 0.7 1.1 1.5 1.3 1.1 1.2 1.6 1.8 2.0 2.2 2.1 3.0 3.5 3.8 3.6 2.9 1.6 1.0 1.3 0.8 0.4 0.1 0.4 0.3 0.2 0.1 0.0 0.0 0.1 0.0 0.0
0.0 0.0 0.0 0.0 0.0 0.0 0.0 0.0 0.0 0.0 0.0 0.0 0.0 0.0 0.0 0.0 0.0 0.0 0.0 0.0 0.0 0.4 0.6 0.8 1.1 1.2 1.6 1.7 1.7 2.2 2.3 2.3 1.9 1.5 1.2 1.5 2.7 3.7 3.9 2.6 3.0 2.7 1.4 1.4 1.1 0.7 0.3 0.2 0.1 0.0 0.1 0.0 0.0 0.1
0.0 0.0 0.0 0.0 0.0 0.0 0.0 0.0 0.0 0.0 0.0 0.0 0.0 0.0 0.0 0.0 0.0 0.0 0.0 0.0 0.0 0.7 1.0 1.4 1.4 1.5 2.0 2.0 2.0 1.9 2.4 2.6 2.5 1.2 1.0 1.4 1.8 2.7 3.1 3.0 2.9 2.9 2.4 1.6 1.9 1.8 0.9 0.5 0.4 0.3 0.0 0.2 0.1 0.0
0.0 0.0 0.0 0.0 0.0 0.0 0.0 0.0 0.0 0.0 0.0 0.0 0.0 0.0 0.0 0.0 0.0 0.0 0.1 0.3 0.7 1.1 1.5 1.9 2.1 2.6 2.7 2.9 2.9 2.5 2.5 3.0 3.3 3.6 2.8 2.6 2.6 2.6 3.0 3.2 2.9 2.5 2.1 1.6 1.1 0.9 0.7 0.7 0.6 0.5 0.3 0.1 0.0 0.0
0.0 0.0 0.0 0.0 0.0 0.0 0.0 0.0 0.0 0.0 0.0 0.0 0.0 0.0 0.0 0.0 0.0 0.0 0.2 0.4 0.9 1.2 1.6 1.9 2.1 2.6 3.1 3.1 3.2 3.2 2.5 2.8 2.9 3.7 3.2 2.4 2.3 2.2 2.2 2.3 2.4 2.2 2.0 1.7 1.2 0.9 0.6 0.4 0.3 0.1 0.0 0.0 0.0 0.0
0.1 0.0 0.0 0.0 0.0 0.0 0.0 0.0 0.0 0.0 0.0 0.0 0.0 0.0 0.0 0.0 0.0 0.2 0.3 0.5 1.0 1.2 1.4 2.1 2.5 2.5 2.4 2.4 2.7 3.0 3.1 3.0 3.8 3.8 3.6 2.7 2.1 1.9 2.0 1.9 1.9 1.8 1.4 1.0 0.7 0.4 0.3 0.1 0.0 0.0 0.0 0.0 0.0 0.0

GFSWCAN_prec_snow_015.txt.gz
Snowfall_Accumulation
0.0 0.0 0.0 0.0 0.0 0.0 0.0 0.0 0.0 0.0 0.0 0.0 0.0 0.0 0.0 0.0 0.0 0.0 0.0 0.0 0.0 0.0 0.0 0.0 0.0 0.0 0.0 0.0 0.0 0.0 0.0 0.0 0.0 0.0 0.0 0.0 0.1 0.0 0.0 0.0 0.0 0.0 0.0 0.0 0.0 0.0 0.0 0.0 0.0 0.0 0.0 0.0 0.0 0.0
0.0 0.0 0.0 0.0 0.0 0.0 0.0 0.0 0.0 0.0 0.0 0.0 0.0 0.0 0.0 0.0 0.0 0.0 0.0 0.0 0.0 0.0 0.0 0.0 0.0 0.0 0.0 0.0 0.0 0.0 0.0 0.0 0.0 0.0 0.0 0.0 0.0 0.0 0.0 0.0 0.0 0.0 0.0 0.0 0.0 0.0 0.0 0.0 0.0 0.0 0.0 0.0 0.0 0.0
0.0 0.0 0.0 0.0 0.0 0.0 0.0 0.0 0.0 0.0 0.0 0.0 0.0 0.0 0.0 0.0 0.0 0.0 0.0 0.0 0.0 0.0 0.0 0.0 0.0 0.0 0.0 0.0 0.0 0.0 0.0 0.0 0.0 0.0 0.0 0.0 0.0 0.0 0.0 0.0 0.0 0.0 0.0 0.0 0.0 0.0 0.0 0.0 0.0 0.0 0.0 0.0 0.0 0.0
0.0 0.0 0.0 0.0 0.0 0.0 0.0 0.0 0.0 0.0 0.0 0.0 0.0 0.0 0.0 0.0 0.0 0.0 0.0 0.0 0.0 0.4 0.0 0.0 0.0 0.0 0.0 0.0 0.0 0.0 0.0 0.0 0.0 0.0 0.0 0.0 0.0 0.0 0.0 0.0 0.0 0.0 0.0 0.0 0.0 0.0 0.0 0.0 0.0 0.0 0.0 0.0 0.0 0.0
0.0 0.0 0.0 0.0 0.0 0.0 0.0 0.0 0.0 0.0 0.0 0.0 0.0 0.0 0.0 0.0 0.0 0.0 0.0 0.0 0.0 0.0 0.2 0.0 0.0 0.0 0.0 0.0 0.0 0.0 0.0 0.0 0.0 0.0 0.0 0.0 0.0 0.0 0.0 0.0 0.0 0.0 0.0 0.0 0.0 0.0 0.0 0.0 0.0 0.0 0.0 0.0 0.0 0.0
0.0 0.0 0.0 0.0 0.0 0.0 0.0 0.0 0.0 0.0 0.0 0.0 0.0 0.0 0.0 0.0 0.0 0.0 0.0 0.0 0.0 0.0 0.0 0.0 0.0 0.0 0.0 0.0 0.0 0.0 0.0 0.0 0.0 0.0 0.0 0.0 0.0 0.0 0.0 0.0 0.0 0.0 0.0 0.0 0.0 0.0 0.0 0.0 0.0 0.0 0.0 0.0 0.0 0.0
0.0 0.0 0.0 0.0 0.0 0.0 0.0 0.0 0.0 0.0 0.0 0.0 0.0 0.0 0.0 0.0 0.0 0.0 0.6 0.0 0.0 0.0 0.0 0.0 0.0 0.0 0.0 0.0 0.0 0.0 0.0 0.0 0.0 0.0 0.0 0.0 0.0 0.0 0.0 0.0 0.0 0.0 0.0 0.0 0.0 0.0 0.0 0.0 0.0 0.0 0.0 0.0 0.0 0.0
0.0 0.0 0.0 0.0 0.0 0.0 0.0 0.0 0.0 0.0 0.0 0.0 0.0 0.0 0.0 0.0 0.0 0.0 0.0 0.0 0.0 0.0 0.0 0.0 0.0 0.0 0.0 0.0 0.0 0.0 0.0 0.0 0.0 0.0 0.0 0.0 0.0 0.0 0.0 0.0 0.0 0.0 0.0 0.0 0.0 0.0 0.0 0.0 0.0 0.0 0.0 0.0 0.0 0.0
0.0 0.0 0.0 0.0 0.0 0.0 0.0 0.0 0.0 0.0 0.0 0.0 0.0 0.0 0.0 0.0 0.0 0.0 0.0 0.0 0.0 0.0 0.1 0.0 0.0 0.0 0.0 0.0 0.0 0.0 0.0 0.0 0.0 0.0 0.0 0.0 0.0 0.0 0.0 0.0 0.0 0.0 0.0 0.0 0.0 0.0 0.0 0.0 0.0 0.0 0.0 0.0 0.0 0.0
0.0 0.0 0.0 0.0 0.0 0.0 0.0 0.0 0.0 0.0 0.0 0.0 0.0 0.0 0.6 0.0 0.0 0.0 0.0 0.0 0.0 0.0 0.0 0.0 0.0 0.0 0.0 0.0 0.0 0.0 0.0 0.0 0.0 0.0 0.0 0.0 0.0 0.0 0.0 0.0 0.0 0.0 0.0 0.0 0.0 0.0 0.0 0.0 0.0 0.0 0.0 0.0 0.0 0.0
0.0 0.0 0.0 0.0 0.0 0.0 0.0 0.0 0.0 0.0 0.0 0.0 0.1 0.5 0.0 0.0 0.0 0.0 3.4 1.6 0.0 0.0 0.0 0.0 0.0 0.0 0.0 0.0 0.0 0.0 0.0 0.0 0.0 0.0 0.0 0.0 0.0 0.0 0.0 0.0 0.0 0.0 0.0 0.0 0.0 0.0 0.0 0.0 0.0 0.0 0.0 0.0 0.0 0.0
0.0 0.0 0.0 0.0 0.0 0.0 0.0 0.0 0.0 0.0 0.0 0.0 0.0 0.0 0.0 3.5 6.2 7.9 8.1 1.1 0.0 0.0 0.0 0.0 0.0 0.0 0.0 0.0 0.0 0.0 0.0 0.0 0.0 0.0 0.0 0.0 0.0 0.0 0.0 0.0 0.0 0.0 0.0 0.0 0.0 0.0 0.0 0.0 0.0 0.0 0.0 0.0 0.0 0.0
0.0 0.0 0.0 0.0 0.0 0.0 0.0 0.0 0.0 0.0 0.0 0.0 0.3 1.5 2.8 5.3 6.6 4.6 3.5 1.1 0.0 0.0 0.0 0.0 0.0 0.0 0.0 0.0 0.0 0.0 0.0 0.0 0.0 0.0 0.0 0.0 0.0 0.0 0.0 0.0 0.0 0.0 0.0 0.0 0.0 0.0 0.0 0.0 0.0 0.0 0.0 0.0 0.0 0.0
0.0 0.0 0.0 0.0 0.0 0.0 0.0 0.0 0.0 0.0 0.0 0.1 0.7 1.3 2.3 3.0 3.0 2.2 1.1 0.9 0.0 0.1 0.0 0.0 0.0 0.0 0.0 0.0 0.0 0.0 0.0 0.0 0.0 0.0 0.0 0.0 0.0 0.0 0.0 0.0 0.0 0.0 0.0 0.0 0.0 0.0 0.0 0.0 0.0 0.0 0.0 0.0 0.0 0.0
0.0 0.0 0.0 0.0 0.0 0.0 0.0 0.0 0.0 0.0 0.0 0.0 0.9 1.2 1.2 1.8 0.8 0.4 0.1 0.5 0.0 0.0 0.0 0.0 0.0 0.0 0.0 0.0 0.0 0.0 0.0 0.0 0.0 0.0 0.0 0.0 0.0 0.0 0.0 0.0 0.0 0.0 0.0 0.0 0.0 0.0 0.0 0.0 0.0 0.0 0.0 0.0 0.0 0.0
0.0 0.0 0.0 0.0 0.0 0.0 0.0 0.0 0.0 0.0 0.0 0.1 0.6 1.2 0.9 0.6 0.3 0.1 0.0 0.1 0.0 0.0 0.0 0.0 0.0 0.0 0.0 0.0 0.0 0.0 0.0 0.0 0.0 0.0 0.0 0.0 0.0 0.0 0.0 0.0 0.0 0.0 0.0 0.0 0.0 0.0 0.0 0.0 0.0 0.0 0.0 0.0 0.0 0.0
0.0 0.0 0.0 0.0 0.0 0.0 0.0 0.0 0.0 0.0 0.1 0.0 0.2 0.7 0.8 0.4 0.4 0.3 0.0 0.0 0.0 0.0 0.3 0.6 0.3 0.0 0.0 0.0 0.0 0.0 0.0 0.0 0.0 0.0 0.0 0.0 0.0 0.0 0.0 0.0 0.0 0.0 0.0 0.0 0.0 0.0 0.0 0.0 0.0 0.0 0.0 0.0 0.0 0.0
0.0 0.0 0.0 0.0 0.0 0.0 0.0 0.0 0.0 0.0 0.0 0.0 0.0 0.0 0.0 0.0 0.3 0.3 0.0 0.0 0.0 0.0 1.2 2.6 1.5 0.6 0.1 0.0 0.0 0.0 0.0 0.0 0.0 0.0 0.0 0.0 0.0 0.0 0.0 0.0 0.0 0.0 0.0 0.0 0.0 0.0 0.0 0.0 0.0 0.0 0.0 0.0 0.0 0.0
0.0 0.0 0.0 0.0 0.0 0.0 0.0 0.0 0.0 0.0 0.0 0.0 0.0 0.0 0.0 0.0 0.0 0.0 0.0 0.0 0.0 0.0 0.0 2.2 1.7 0.1 0.0 0.0 0.0 0.0 0.0 0.0 0.0 0.0 0.0 0.0 0.0 0.0 0.0 0.0 0.0 0.0 0.0 0.0 0.0 0.0 0.0 0.0 0.0 0.0 0.0 0.0 0.0 0.0
0.0 0.0 0.0 0.0 0.0 0.0 0.0 0.0 0.0 0.0 0.0 0.0 0.0 0.0 0.0 0.0 0.0 0.0 0.0 0.3 0.5 1.9 2.3 1.7 0.0 0.2 0.1 0.3 0.3 0.1 0.0 0.0 0.0 0.0 0.0 0.0 0.0 0.0 0.0 0.0 0.0 0.0 0.0 0.0 0.0 0.0 0.0 0.0 0.0 0.0 0.0 0.0 0.0 0.0
0.0 0.0 0.0 0.0 0.0 0.0 0.0 0.0 0.0 0.0 0.0 0.0 0.0 0.0 0.0 0.0 0.0 0.0 0.0 1.2 1.9 3.1 2.3 1.3 0.2 0.1 0.0 0.5 0.2 0.0 0.0 0.0 0.0 0.0 0.0 0.0 0.0 0.0 0.0 0.0 0.0 0.0 0.0 0.0 0.0 0.0 0.0 0.0 0.0 0.0 0.0 0.0 0.0 0.0
0.4 0.0 0.0 0.0 0.0 0.0 0.0 0.0 0.0 0.0 0.0 0.0 0.0 0.0 0.0 0.0 0.0 0.0 0.0 1.6 2.7 1.6 1.2 0.9 0.9 0.6 0.2 0.0 0.7 0.7 0.5 0.0 0.0 0.0 0.0 0.0 0.0 0.0 0.0 0.0 0.0 0.0 0.0 0.0 0.0 0.0 0.0 0.0 0.0 0.0 0.0 0.0 0.0 0.0
0.1 0.0 0.0 0.0 0.0 0.0 0.0 0.0 0.0 0.0 0.0 0.0 0.0 0.0 0.0 0.0 0.0 0.0 0.8 1.0 1.2 0.9 0.7 0.6 0.7 1.6 1.7 1.4 1.4 1.1 0.6 0.1 0.0 0.2 0.1 0.0 0.0 0.0 0.0 0.0 0.0 0.0 0.0 0.0 0.0 0.0 0.0 0.0 0.0 0.0 0.0 0.0 0.0 0.0
0.0 0.0 0.0 0.0 0.0 0.0 0.0 0.0 0.0 0.0 0.0 0.0 0.0 0.0 0.0 0.0 0.0 0.0 0.5 0.3 0.3 0.2 0.8 1.0 0.9 0.7 0.5 1.2 1.4 1.7 1.9 1.2 0.3 0.0 0.6 0.3 0.1 0.0 0.0 0.0 0.0 0.0 0.0 0.0 0.0 0.0 0.0 0.0 0.0 0.0 0.0 0.0 0.0 0.0
0.1 0.0 0.0 0.0 0.0 0.0 0.0 0.0 0.0 0.0 0.0 0.0 0.0 0.0 0.0 0.0 0.1 0.1 0.0 0.0 0.0 0.1 0.3 0.8 0.9 0.9 0.9 0.7 1.0 1.0 1.0 1.2 1.8 1.9 0.1 1.3 0.6 0.2 0.0 0.0 0.3 0.0 0.0 0.0 0.0 0.0 0.0 0.0 0.0 0.0 0.0 0.0 0.0 0.0
0.1 0.0 0.0 0.0 0.0 0.0 0.0 0.0 0.0 0.0 0.0 0.0 0.0 0.0 0.0 0.0 0.1 0.0 0.0 0.0 0.1 0.2 0.2 0.3 0.7 0.7 0.5 0.5 0.7 1.2 1.2 1.1 1.0 1.7 1.1 1.6 1.3 1.6 1.5 0.0 1.0 0.5 0.1 0.0 0.0 0.0 0.0 0.0 0.0 0.0 0.0 0.0 0.0 0.0
0.0 0.0 0.0 0.0 0.0 0.0 0.0 0.0 0.0 0.0 0.0 0.0 0.0 0.0 0.0 0.0 0.0 0.0 0.0 0.0 0.0 0.2 0.3 0.6 1.2 1.1 0.8 0.8 0.8 1.2 1.4 1.5 1.4 1.1 1.4 3.2 3.1 2.1 0.9 1.4 1.3 1.0 0.6 0.3 0.1 0.1 0.0 0.1 0.0 0.1 0.0 0.0 0.0 0.0
0.0 0.0 0.0 0.0 0.0 0.0 0.0 0.0 0.0 0.0 0.0 0.0 0.0 0.0 0.0 0.0 0.0 0.0 0.0 0.0 0.0 0.0 0.4 0.7 1.1 1.5 1.3 1.1 1.2 1.6 1.8 2.0 2.2 2.1 3.0 3.5 3.8 3.6 2.9 2.5 2.1 2.5 1.8 0.9 0.2 0.4 0.3 0.2 0.1 0.3 0.1 0.1 0.1 0.0
0.0 0.0 0.0 0.0 0.0 0.0 0.0 0.0 0.0 0.0 0.0 0.0 0.0 0.0 0.0 0.0 0.0 0.0 0.0 0.0 0.0 0.4 0.6 0.8 1.1 1.2 1.6 1.7 1.7 2.2 2.3 2.3 1.9 1.5 1.2 1.5 2.7 3.7 3.9 3.6 4.2 4.0 2.4 2.1 1.5 1.0 0.3 0.8 0.8 0.6 0.4 0.2 0.0 0.1
0.0 0.0 0.0 0.0 0.0 0.0 0.0 0.0 0.0 0.0 0.0 0.0 0.0 0.0 0.0 0.0 0.0 0.0 0.0 0.0 0.0 0.7 1.0 1.4 1.4 1.5 2.0 2.0 2.0 1.9 2.4 2.6 2.5 1.3 1.1 1.4 1.8 2.7 4.0 4.0 4.1 4.2 3.8 2.9 3.1 3.1 2.3 1.8 1.5 0.9 0.2 0.4 0.4 0.4
0.0 0.0 0.0 0.0 0.0 0.0 0.0 0.0 0.0 0.0 0.0 0.0 0.0 0.0 0.0 0.0 0.0 0.0 0.1 0.3 0.7 1.1 1.5 1.9 2.1 2.6 2.7 2.9 2.9 2.5 2.5 3.0 3.3 3.6 2.8 2.8 2.9 3.1 3.7 4.0 3.8 3.7 3.5 3.0 2.2 1.5 1.3 1.1 0.9 0.7 0.7 0.7 0.6 0.5
0.0 0.0 0.0 0.0 0.0 0.0 0.0 0.0 0.0 0.0 0.0 0.0 0.0 0.0 0.0 0.0 0.0 0.0 0.2 0.4 0.9 1.2 1.6 1.9 2.1 2.6 3.1 3.1 3.2 3.2 2.5 2.8 2.9 3.7 3.2 2.7 2.7 2.2 2.9 3.3 3.3 3.1 3.0 2.8 2.4 2.0 1.4 1.0 0.9 0.7 0.7 0.5 0.3 0.2
0.1 0.0 0.0 0.0 0.0 0.0 0.0 0.0 0.0 0.0 0.0 0.0 0.0 0.0 0.0 0.0 0.0 0.2 0.3 0.5 1.0 1.2 1.4 2.1 2.5 2.5 2.5 2.5 2.7 3.0 3.1 3.0 3.8 3.8 3.6 3.1 2.6 2.6 2.7 2.8 2.9 2.8 2.5 2.3 2.1 1.8 1.6 1.1 0.8 0.6 0.3 0.1 0.1 0.0

GFSWCAN_prec_snow_021.txt.gz
Snowfall_Accumulation
0.0 0.0 0.0 0.0 0.0 0.0 0.0 0.0 0.0 0.0 0.0 0.0 0.0 0.0 0.0 0.0 0.0 0.0 0.0 0.0 0.0 0.0 0.0 0.0 0.0 0.0 0.0 0.0 0.0 0.0 0.0 0.0 0.0 0.0 0.0 0.0 0.1 0.0 0.0 0.0 0.0 0.0 0.0 0.0 0.1 0.2 0.0 0.0 0.0 0.0 0.0 0.0 0.0 0.0
0.0 0.0 0.0 0.0 0.0 0.0 0.0 0.0 0.0 0.0 0.0 0.0 0.0 0.0 0.0 0.0 0.0 0.0 0.0 0.0 0.0 0.0 0.0 0.0 0.0 0.0 0.0 0.0 0.0 0.0 0.0 0.0 0.0 0.0 0.0 0.0 0.0 0.0 0.0 0.0 0.0 0.0 0.0 0.0 0.0 0.0 0.0 0.0 0.0 0.0 0.0 0.0 0.0 0.0
0.0 0.0 0.0 0.0 0.0 0.0 0.0 0.0 0.0 0.0 0.0 0.0 0.0 0.0 0.0 0.0 0.0 0.0 0.0 0.0 0.0 0.0 0.0 0.0 0.0 0.0 0.0 0.0 0.0 0.0 0.0 0.0 0.0 0.0 0.0 0.0 0.0 0.0 0.1 0.0 0.0 0.0 0.0 0.0 0.0 0.0 0.0 0.0 0.0 0.0 0.0 0.0 0.0 0.0
0.0 0.0 0.0 0.0 0.0 0.0 0.0 0.0 0.0 0.0 0.0 0.0 0.0 0.0 0.0 0.0 0.0 0.0 0.0 0.0 0.0 0.4 0.6 0.0 0.0 0.0 0.0 0.0 0.0 0.0 0.0 0.0 0.0 0.0 0.0 0.0 0.0 0.0 0.0 0.0 0.0 0.0 0.0 0.0 0.0 0.0 0.0 0.0 0.0 0.0 0.0 0.0 0.0 0.0
0.0 0.0 0.0 0.0 0.0 0.0 0.0 0.0 0.0 0.0 0.0 0.0 0.0 0.0 0.0 0.0 0.0 0.0 0.0 0.0 0.0 0.2 1.8 1.0 0.0 0.0 0.0 0.0 0.0 0.0 0.0 0.0 0.0 0.0 0.0 0.0 0.0 0.0 0.0 0.0 0.0 0.0 0.0 0.0 0.0 0.0 0.0 0.0 0.0 0.0 0.0 0.0 0.0 0.0
0.0 0.0 0.0 0.0 0.0 0.0 0.0 0.0 0.0 0.0 0.0 0.0 0.0 0.0 0.0 0.0 0.0 0.0 0.0 0.0 0.0 0.0 1.5 2.7 0.0 0.0 0.0 0.0 0.0 0.0 0.0 0.0 0.0 0.0 0.0 0.0 0.0 0.0 0.0 0.0 0.0 0.0 0.0 0.0 0.0 0.0 0.0 0.0 0.0 0.0 0.0 0.0 0.0 0.0
0.0 0.0 0.0 0.0 0.0 0.0 0.0 0.0 0.0 0.0 0.0 0.0 0.0 0.0 0.0 0.0 0.0 0.2 0.6 0.0 0.0 0.0 3.2 3.7 0.0 0.0 0.0 0.0 0.0 0.0 0.0 0.0 0.0 0.0 0.0 0.0 0.0 0.0 0.0 0.0 0.0 0.0 0.0 0.0 0.0 0.0 0.0 0.0 0.0 0.0 0.0 0.0 0.0 0.0
0.0 0.0 0.0 0.0 0.0 0.0 0.0 0.0 0.0 0.0 0.0 0.0 0.0 0.0 0.0 0.0 0.0 0.0 0.0 0.0 0.0 2.3 2.4 3.7 0.0 0.0 0.0 0.0 0.0 0.0 0.0 0.0 0.0 0.0 0.0 0.0 0.0 0.0 0.0 0.0 0.0 0.0 0.0 0.0 0.0 0.0 0.0 0.0 0.0 0.0 0.0 0.0 0.0 0.0
0.0 0.0 0.0 0.0 0.0 0.0 0.0 0.0 0.0 0.0 0.0 0.0 0.0 0.0 0.0 0.0 0.0 0.0 0.0 0.0 0.0 0.0 3.4 1.0 0.1 0.2 0.0 0.0 0.0 0.0 0.0 0.0 0.0 0.0 0.0 0.0 0.0 0.0 0.0 0.0 0.0 0.0 0.0 0.0 0.0 0.0 0.0 0.0 0.0 0.0 0.0 0.0 0.0 0.0
0.0 0.0 0.0 0.0 0.0 0.0 0.0 0.0 0.0 0.0 0.0 0.0 0.0 0.0 0.6 0.0 0.0 0.0 0.0 1.4 1.6 1.3 0.6 0.5 0.0 0.0 0.0 0.0 0.0 0.0 0.0 0.0 0.0 0.0 0.0 0.0 0.0 0.0 0.0 0.0 0.0 0.0 0.0 0.0 0.0 0.0 0.0 0.0 0.0 0.0 0.0 0.0 0.0 0.0
0.0 0.0 0.0 0.0 0.0 0.0 0.0 0.0 0.0 0.0 0.0 0.0 0.1 0.5 0.0 0.0 0.0 0.0 5.3 3.8 1.6 0.4 0.0 0.0 0.0 0.0 0.0 0.0 0.0 0.0 0.0 0.0 0.0 0.0 0.0 0.0 0.0 0.0 0.0 0.0 0.0 0.0 0.0 0.0 0.0 0.0 0.0 0.0 0.0 0.0 0.0 0.0 0.0 0.0
0.0 0.0 0.0 0.0 0.0 0.0 0.0 0.0 0.0 0.0 0.0 0.0 0.0 0.0 0.0 3.5 6.6 8.5 8.7 1.2 0.0 0.1 0.0 0.0 0.0 0.0 0.0 0.0 0.0 0.0 0.0 0.0 0.0 0.0 0.0 0.0 0.0 0.0 0.0 0.0 0.0 0.0 0.0 0.0 0.0 0.0 0.0 0.0 0.0 0.0 0.0 0.0 0.0 0.0
0.0 0.0 0.0 0.0 0.0 0.0 0.0 0.0 0.0 0.0 0.0 0.0 0.4 1.5 2.8 5.4 6.8 4.7 3.6 1.2 0.1 0.1 0.0 0.0 0.0 0.0 0.0 0.0 0.0 0.0 0.0 0.0 0.0 0.0 0.0 0.0 0.0 0.0 0.0 0.0 0.0 0.0 0.0 0.0 0.0 0.0 0.0 0.0 0.0 0.0 0.0 0.0 0.0 0.0
0.0 0.0 0.0 0.0 0.0 0.0 0.0 0.0 0.0 0.0 0.0 0.1 0.7 1.3 2.3 3.0 3.0 2.2 1.1 1.0 0.0 0.2 0.0 0.0 0.0 0.0 0.0 0.0 0.0 0.0 0.0 0.0 0.0 0.0 0.0 0.0 0.0 0.0 0.0 0.0 0.0 0.0 0.0 0.0 0.0 0.0 0.0 0.0 0.0 0.0 0.0 0.0 0.0 0.0
0.0 0.0 0.0 0.0 0.0 0.0 0.0 0.0 0.0 0.0 0.0 0.0 0.9 1.2 1.2 1.8 0.8 0.4 0.1 0.5 0.0 0.0 0.0 0.0 0.0 0.0 0.0 0.0 0.0 0.0 0.0 0.0 0.0 0.0 0.0 0.0 0.0 0.0 0.0 0.0 0.0 0.0 0.0 0.0 0.0 0.0 0.0 0.0 0.0 0.0 0.0 0.0 0.0 0.0
0.0 0.0 0.0 0.0 0.0 0.0 0.0 0.0 0.0 0.0 0.0 0.1 0.6 1.2 0.9 0.6 0.3 0.1 0.0 0.1 0.0 0.0 0.0 0.0 0.0 0.0 0.0 0.0 0.0 0.0 0.0 0.0 0.0 0.0 0.0 0.0 0.0 0.0 0.0 0.0 0.0 0.0 0.0 0.0 0.0 0.0 0.0 0.0 0.0 0.0 0.0 0.0 0.0 0.0
0.0 0.0 0.0 0.0 0.0 0.0 0.0 0.0 0.0 0.0 0.1 0.0 0.2 0.7 0.8 0.4 0.4 0.3 0.0 0.0 0.0 0.0 0.5 0.8 0.6 0.0 0.0 0.0 0.0 0.0 0.0 0.0 0.0 0.0 0.0 0.0 0.0 0.0 0.0 0.0 0.0 0.0 0.0 0.0 0.0 0.0 0.0 0.0 0.0 0.0 0.0 0.0 0.0 0.0
0.0 0.0 0.0 0.0 0.0 0.0 0.0 0.0 0.0 0.0 0.0 0.0 0.0 0.0 0.0 0.0 0.3 0.3 0.0 0.0 0.0 0.0 1.2 3.1 1.6 0.8 0.1 0.0 0.0 0.0 0.0 0.0 0.0 0.0 0.0 0.0 0.0 0.0 0.0 0.0 0.0 0.0 0.0 0.0 0.0 0.0 0.0 0.0 0.0 0.0 0.0 0.0 0.0 0.0
0.0 0.0 0.0 0.0 0.0 0.0 0.0 0.0 0.0 0.0 0.0 0.0 0.0 0.0 0.0 0.0 0.0 0.0 0.0 0.0 0.0 0.0 0.0 2.3 1.9 0.2 0.0 0.0 0.0 0.0 0.0 0.0 0.0 0.0 0.0 0.0 0.0 0.0 0.0 0.0 0.0 0.0 0.0 0.0 0.0 0.0 0.0 0.0 0.0 0.0 0.0 0.0 0.0 0.0
0.0 0.0 0.0 0.0 0.0 0.0 0.0 0.0 0.0 0.0 0.0 0.0 0.0 0.0 0.0 0.0 0.0 0.0 0.0 0.3 0.5 1.9 2.3 1.7 0.0 0.2 0.1 0.3 0.3 0.1 0.0 0.0 0.0 0.0 0.0 0.0 0.0 0.0 0.0 0.0 0.0 0.0 0.0 0.0 0.0 0.0 0.0 0.0 0.0 0.0 0.0 0.0 0.0 0.0
0.0 0.0 0.0 0.0 0.1 0.0 0.0 0.0 0.0 0.0 0.0 0.0 0.0 0.0 0.0 0.0 0.0 0.0 0.0 1.2 1.9 3.1 2.3 1.3 0.2 0.1 0.0 0.5 0.2 0.0 0.0 0.0 0.0 0.0 0.0 0.0 0.0 0.0 0.0 0.0 0.0 0.0 0.0 0.0 0.0 0.0 0.0 0.0 0.0 0.0 0.0 0.0 0.0 0.0
0.9 0.0 1.4 1.0 0.1 0.0 0.0 0.0 0.0 0.0 0.0 0.0 0.0 0.0 0.0 0.0 0.0 0.0 0.0 1.6 2.7 1.6 1.2 0.9 0.9 0.6 0.2 0.0 0.7 0.7 0.5 0.0 0.0 0.0 0.0 0.0 0.0 0.0 0.0 0.0 0.0 0.0 0.0 0.0 0.0 0.0 0.0 0.0 0.0 0.0 0.0 0.0 0.0 0.0
0.8 1.2 0.8 0.2 0.0 0.1 0.0 0.0 0.0 0.0 0.0 0.0 0.0 0.0 0.0 0.0 0.0 0.0 0.8 1.0 1.2 0.9 0.7 0.6 0.7 1.6 1.7 1.4 1.4 1.1 0.6 0.1 0.0 0.2 0.1 0.0 0.0 0.0 0.0 0.0 0.0 0.0 0.0 0.0 0.0 0.0 0.0 0.0 0.0 0.0 0.0 0.0 0.0 0.0
0.0 0.7 0.5 0.4 0.3 0.1 0.0 0.0 0.0 0.0 0.0 0.0 0.0 0.0 0.0 0.0 0.0 0.0 0.5 0.3 0.3 0.2 0.8 1.0 0.9 0.7 0.5 1.2 1.4 1.7 1.9 1.2 0.3 0.0 0.6 0.3 0.1 0.0 0.0 0.0 0.0 0.0 0.0 0.0 0.0 0.0 0.0 0.0 0.0 0.0 0.0 0.0 0.0 0.0
1.4 1.0 0.5 0.4 0.0 0.0 0.0 0.0 0.0 0.0 0.0 0.0 0.0 0.0 0.0 0.0 0.1 0.1 0.0 0.0 0.0 0.1 0.3 0.8 0.9 0.9 0.9 0.7 1.0 1.0 1.0 1.2 1.8 1.9 0.1 1.3 0.6 0.2 0.0 0.0 0.3 0.0 0.0 0.1 0.1 0.0 0.0 0.0 0.0 0.0 0.0 0.0 0.0 0.0
0.9 0.3 0.1 0.0 0.0 0.0 0.0 0.0 0.0 0.0 0.0 0.0 0.0 0.0 0.0 0.0 0.1 0.0 0.0 0.0 0.1 0.2 0.2 0.3 0.7 0.7 0.5 0.5 0.7 1.2 1.2 1.1 1.0 1.7 1.1 1.6 1.3 1.6 1.6 0.0 1.0 0.5 0.1 0.0 0.4 0.4 0.2 0.1 0.0 0.0 0.0 0.0 0.0 0.0
0.2 0.2 0.0 0.0 0.0 0.0 0.0 0.0 0.0 0.0 0.0 0.0 0.0 0.0 0.0 0.0 0.0 0.0 0.0 0.0 0.0 0.2 0.3 0.6 1.2 1.1 0.8 0.8 0.8 1.2 1.4 1.5 1.4 1.1 1.4 3.2 3.1 2.1 0.9 1.4 1.3 1.0 0.6 0.3 0.8 0.5 0.4 0.4 0.3 0.3 0.3 0.2 0.0 0.1
0.0 0.0 0.0 0.0 0.0 0.0 0.0 0.0 0.0 0.0 0.0 0.0 0.0 0.0 0.0 0.0 0.0 0.0 0.0 0.0 0.0 0.0 0.4 0.7 1.1 1.5 1.3 1.1 1.2 1.6 1.8 2.0 2.2 2.1 3.0 3.5 3.8 3.6 2.9 2.5 2.1 2.5 2.3 1.6 1.1 1.2 1.0 0.7 0.5 1.0 0.7 0.6 0.5 0.3
0.0 0.0 0.0 0.0 0.0 0.0 0.0 0.0 0.0 0.0 0.0 0.0 0.0 0.0 0.0 0.0 0.0 0.0 0.0 0.0 0.0 0.4 0.6 0.8 1.1 1.2 1.6 1.7 1.7 2.2 2.3 2.3 1.9 1.5 1.2 1.5 2.7 3.7 3.9 3.6 4.2 4.3 2.9 3.0 2.6 2.2 1.4 1.8 1.8 1.9 2.1 2.0 1.7 1.3
0.0 0.0 0.0 0.0 0.0 0.0 0.0 0.0 0.0 0.0 0.0 0.0 0.0 0.0 0.0 0.0 0.0 0.0 0.0 0.0 0.0 0.7 1.0 1.4 1.4 1.5 2.0 2.0 2.0 1.9 2.4 2.6 2.5 1.3 1.1 1.4 1.8 2.7 4.0 4.0 4.2 4.5 4.4 4.0 4.6 5.2 4.9 4.5 4.4 3.9 2.9 2.9 2.6 2.0
0.0 0.0 0.0 0.0 0.0 0.0 0.0 0.0 0.0 0.0 0.0 0.0 0.0 0.0 0.0 0.0 0.0 0.0 0.1 0.3 0.7 1.1 1.5 1.9 2.1 2.6 2.7 2.9 2.9 2.5 2.5 3.0 3.3 3.6 2.9 2.9 2.9 3.1 3.7 4.0 3.8 4.2 4.3 4.1 3.6 3.4 3.2 2.6 2.3 2.2 2.3 2.2 1.9 1.3
0.0 0.0 0.0 0.0 0.0 0.0 0.0 0.0 0.0 0.0 0.0 0.0 0.0 0.0 0.0 0.0 0.0 0.0 0.2 0.4 0.9 1.2 1.6 1.9 2.1 2.6 3.1 3.1 3.2 3.3 2.6 2.9 2.9 3.7 3.2 2.8 2.7 2.2 2.9 3.3 3.8 3.9 4.1 4.0 3.5 3.3 3.1 3.1 3.4 3.0 2.8 2.6 2.0 1.6
0.1 0.0 0.0 0.0 0.0 0.0 0.0 0.0 0.0 0.0 0.0 0.0 0.0 0.0 0.0 0.0 0.0 0.2 0.3 0.5 1.0 1.2 1.4 2.1 2.5 2.5 2.5 2.5 2.8 3.1 3.2 3.1 3.9 4.0 3.8 3.4 2.9 2.8 2.9 3.1 3.5 3.6 3.5 3.6 3.9 3.9 4.0 3.6 3.3 3.2 2.7 2.3 1.8 1.5

GFSWCAN_prec_snow_027.txt.gz
Snowfall_Accumulation
0.0 0.0 0.0 0.0 0.0 0.0 0.0 0.0 0.0 0.0 0.0 0.0 0.0 0.0 0.0 0.0 0.0 0.0 0.0 0.0 0.0 0.0 0.0 0.0 0.0 0.0 0.0 0.0 0.0 0.0 0.0 0.0 0.0 0.0 0.0 0.0 0.1 0.0 0.0 0.0 0.0 0.0 0.1 0.1 0.3 0.5 0.0 0.0 0.0 0.0 0.0 0.0 0.0 0.0
0.0 0.0 0.0 0.0 0.0 0.0 0.0 0.0 0.0 0.0 0.0 0.0 0.0 0.0 0.0 0.0 0.0 0.0 0.0 0.0 0.0 0.1 0.0 0.0 0.0 0.0 0.0 0.0 0.0 0.0 0.0 0.0 0.0 0.0 0.0 0.0 0.0 0.0 0.0 0.0 0.0 0.0 0.0 0.0 0.0 0.0 0.0 0.0 0.0 0.0 0.0 0.0 0.0 0.0
0.0 0.0 0.0 0.0 0.0 0.0 0.0 0.0 0.0 0.0 0.0 0.0 0.0 0.0 0.0 0.0 0.0 0.0 0.0 0.0 0.0 0.1 0.0 0.0 0.0 0.0 0.0 0.0 0.0 0.0 0.0 0.0 0.0 0.0 0.0 0.0 0.0 0.0 0.1 0.0 0.0 0.0 0.0 0.0 0.0 0.0 0.0 0.0 0.0 0.0 0.0 0.0 0.0 0.0
0.0 0.0 0.0 0.0 0.0 0.0 0.0 0.0 0.0 0.0 0.0 0.0 0.0 0.0 0.0 0.0 0.0 0.0 0.0 0.0 0.0 0.6 0.8 0.0 0.0 0.0 0.0 0.0 0.0 0.0 0.0 0.0 0.0 0.0 0.0 0.0 0.0 0.0 0.0 0.0 0.0 0.0 0.0 0.0 0.0 0.0 0.0 0.0 0.0 0.0 0.0 0.0 0.0 0.0
0.0 0.0 0.0 0.0 0.0 0.0 0.0 0.0 0.0 0.0 0.0 0.0 0.0 0.0 0.0 0.0 0.0 0.0 0.0 0.0 0.0 0.5 2.0 1.0 0.0 0.0 0.0 0.0 0.0 0.0 0.0 0.0 0.0 0.0 0.0 0.0 0.0 0.0 0.0 0.0 0.0 0.0 0.0 0.0 0.0 0.0 0.0 0.0 0.0 0.0 0.0 0.0 0.0 0.0
0.0 0.0 0.0 0.0 0.0 0.0 0.0 0.0 0.0 0.0 0.0 0.0 0.0 0.0 0.0 0.0 0.0 0.0 0.0 0.0 0.0 0.0 2.0 2.7 0.0 0.0 0.0 0.0 0.0 0.0 0.0 0.0 0.0 0.0 0.0 0.0 0.0 0.0 0.0 0.0 0.0 0.0 0.0 0.0 0.0 0.0 0.0 0.0 0.0 0.0 0.0 0.0 0.0 0.0
0.0 0.0 0.0 0.0 0.0 0.0 0.0 0.0 0.0 0.0 0.0 0.0 0.0 0.0 0.0 0.0 0.0 0.2 0.6 0.0 0.0 0.0 3.5 7.1 4.4 0.0 0.0 0.0 0.0 0.0 0.0 0.0 0.0 0.0 0.0 0.0 0.0 0.0 0.0 0.0 0.0 0.0 0.0 0.0 0.0 0.0 0.0 0.0 0.0 0.0 0.0 0.0 0.0 0.0
0.0 0.0 0.0 0.0 0.0 0.0 0.0 0.0 0.0 0.0 0.0 0.0 0.0 0.0 0.0 0.0 0.0 0.0 0.0 0.0 0.0 3.7 5.8 9.2 7.7 5.3 0.0 0.0 0.0 0.0 0.0 0.0 0.0 0.0 0.0 0.0 0.0 0.0 0.0 0.0 0.0 0.0 0.0 0.0 0.0 0.0 0.0 0.0 0.0 0.0 0.0 0.0 0.0 0.0
0.0 0.0 0.0 0.0 0.0 0.0 0.0 0.0 0.0 0.0 0.0 0.0 0.0 0.0 0.0 0.0 0.0 0.0 0.0 0.0 0.0 0.0 6.5 5.8 7.5 6.0 0.0 0.0 0.0 0.0 0.0 0.0 0.0 0.0 0.0 0.0 0.0 0.0 0.0 0.0 0.0 0.0 0.0 0.0 0.0 0.0 0.0 0.0 0.0 0.0 0.0 0.0 0.0 0.0
0.0 0.0 0.0 0.0 0.0 0.0 0.0 0.0 0.0 0.0 0.0 0.0 0.0 0.0 0.6 0.0 0.0 0.0 0.0 2.3 2.8 2.9 3.0 3.8 1.8 0.0 0.0 0.0 0.0 0.0 0.0 0.0 1.0 0.0 0.0 0.0 0.0 0.0 0.0 0.0 0.0 0.0 0.0 0.0 0.0 0.0 0.0 0.0 0.0 0.0 0.0 0.0 0.0 0.0
0.0 0.0 0.0 0.0 0.0 0.0 0.0 0.0 0.0 0.0 0.0 0.0 0.1 0.5 0.0 0.0 0.0 0.0 5.8 4.2 2.0 1.5 2.3 2.1 0.0 0.0 0.0 0.0 0.0 0.0 0.0 0.0 0.4 0.3 0.0 0.0 0.0 0.0 0.0 0.0 0.0 0.0 0.0 0.0 0.0 0.0 0.0 0.0 0.0 0.0 0.0 0.0 0.0 0.0
0.0 0.0 0.0 0.0 0.0 0.0 0.0 0.0 0.0 0.0 0.0 0.0 0.0 0.0 0.0 3.5 6.7 8.9 8.8 1.3 0.1 0.3 0.4 0.0 0.0 0.0 0.0 0.0 0.0 0.0 0.3 0.5 0.2 0.0 0.0 0.0 0.0 0.0 0.0 0.0 0.0 0.0 0.0 0.0 0.0 0.0 0.0 0.0 0.0 0.0 0.0 0.0 0.0 0.0
0.0 0.0 0.0 0.0 0.0 0.0 0.0 0.0 0.0 0.0 0.0 0.0 0.4 1.5 2.8 5.4 6.8 4.8 3.6 1.2 0.3 0.2 0.0 0.2 0.0 0.0 0.0 0.0 0.0 0.0 0.0 0.0 0.0 0.0 0.0 0.0 0.0 0.0 0.0 0.0 0.0 0.0 0.0 0.0 0.0 0.0 0.0 0.0 0.0 0.0 0.0 0.0 0.0 0.0
0.0 0.0 0.0 0.0 0.0 0.0 0.0 0.0 0.0 0.0 0.0 0.1 0.7 1.3 2.3 3.0 3.0 2.2 1.1 1.0 0.0 0.3 0.0 0.0 0.0 0.0 0.0 0.0 0.0 0.0 0.0 0.0 0.0 0.0 0.0 0.0 0.0 0.0 0.0 0.0 0.0 0.0 0.0 0.0 0.0 0.0 0.0 0.0 0.0 0.0 0.0 0.0 0.0 0.0
0.0 0.0 0.0 0.0 0.0 0.0 0.0 0.0 0.0 0.0 0.0 0.0 0.9 1.2 1.2 1.8 0.8 0.4 0.1 0.5 0.0 0.0 0.0 0.0 0.0 0.0 0.0 0.0 0.0 0.0 0.0 0.0 0.0 0.0 0.0 0.0 0.0 0.0 0.0 0.0 0.0 0.0 0.0 0.0 0.0 0.0 0.0 0.0 0.0 0.0 0.0 0.0 0.0 0.4
0.0 0.0 0.0 0.0 0.0 0.0 0.0 0.0 0.0 0.0 0.0 0.1 0.6 1.2 0.9 0.6 0.3 0.1 0.0 0.1 0.0 0.0 0.1 0.1 0.1 0.0 0.0 0.0 0.0 0.0 0.0 0.0 0.0 0.0 0.0 0.0 0.0 0.0 0.0 0.0 0.0 0.0 0.0 0.0 0.0 0.0 0.0 0.0 0.0 0.0 0.0 0.0 0.0 1.0
0.0 0.0 0.0 0.0 0.0 0.0 0.0 0.0 0.0 0.0 0.1 0.0 0.2 0.7 0.8 0.4 0.4 0.3 0.0 0.0 0.0 0.2 1.0 1.3 1.2 0.0 0.0 0.1 0.0 0.0 0.0 0.0 0.0 0.0 0.0 0.0 0.0 0.0 0.0 0.0 0.0 0.0 0.0 0.0 0.0 0.0 0.0 0.0 0.0 0.0 0.0 0.0 0.0 0.0
0.0 0.0 0.0 0.0 0.0 0.0 0.0 0.0 0.0 0.0 0.0 0.0 0.0 0.0 0.0 0.0 0.3 0.3 0.0 0.0 0.0 0.2 1.8 3.9 1.6 1.1 0.1 0.0 0.0 0.0 0.0 0.0 0.0 0.0 0.0 0.0 0.0 0.0 0.0 0.0 0.0 0.0 0.0 0.0 0.0 0.0 0.0 0.0 0.0 0.0 0.0 0.0 0.0 0.0
0.0 0.0 0.0 0.0 0.0 0.0 0.0 0.0 0.0 0.0 0.0 0.0 0.0 0.0 0.0 0.0 0.0 0.0 0.0 0.0 0.0 0.0 0.3 2.7 2.1 0.2 0.0 0.0 0.0 0.0 0.0 0.0 0.0 0.0 0.0 0.0 0.0 0.0 0.0 0.0 0.0 0.0 0.0 0.0 0.0 0.0 0.0 0.0 0.0 0.0 0.0 0.0 0.0 0.0
0.0 0.0 0.0 0.0 0.0 0.0 0.0 0.0 0.0 0.0 0.0 0.0 0.0 0.0 0.0 0.0 0.0 0.0 0.0 0.3 0.5 1.9 2.3 1.8 0.0 0.2 0.1 0.3 0.3 0.1 0.0 0.0 0.0 0.0 0.0 0.0 0.0 0.0 0.0 0.0 0.0 0.0 0.0 0.0 0.0 0.0 0.0 0.0 0.0 0.0 0.0 0.0 0.0 0.0
0.0 0.0 0.0 0.0 0.4 0.1 0.0 0.0 0.0 0.0 0.0 0.0 0.0 0.0 0.0 0.0 0.0 0.0 0.0 1.2 1.9 3.1 2.3 1.3 0.2 0.1 0.0 0.5 0.2 0.0 0.0 0.0 0.0 0.0 0.0 0.0 0.0 0.0 0.0 0.0 0.0 0.0 0.0 0.0 0.0 0.0 0.0 0.0 0.0 0.0 0.0 0.0 0.0 0.0
0.9 0.0 2.5 2.7 1.1 0.3 0.1 0.0 0.0 0.0 0.0 0.0 0.0 0.0 0.0 0.0 0.0 0.0 0.0 1.6 2.7 1.6 1.2 0.9 0.9 0.6 0.2 0.0 0.7 0.7 0.5 0.0 0.0 0.0 0.0 0.0 0.0 0.0 0.0 0.0 0.0 0.0 0.0 0.0 0.0 0.0 0.0 0.0 0.0 0.0 0.0 0.0 0.0 0.0
0.8 2.4 2.9 1.9 0.9 0.6 0.1 0.0 0.0 0.0 0.0 0.0 0.0 0.0 0.0 0.0 0.0 0.0 0.8 1.0 1.2 0.9 0.7 0.6 0.7 1.6 1.7 1.4 1.4 1.1 0.6 0.1 0.0 0.2 0.1 0.0 0.0 0.0 0.0 0.0 0.0 0.0 0.0 0.0 0.0 0.0 0.0 0.0 0.0 0.0 0.0 0.0 0.0 0.0
0.0 2.8 2.6 1.9 1.1 0.4 0.0 0.0 0.0 0.0 0.0 0.0 0.0 0.0 0.0 0.0 0.0 0.0 0.5 0.3 0.3 0.2 0.8 1.0 0.9 0.7 0.5 1.2 1.4 1.7 1.9 1.2 0.3 0.0 0.6 0.3 0.1 0.0 0.0 0.0 0.0 0.0 0.0 0.0 0.0 0.0 0.0 0.0 0.0 0.0 0.0 0.0 0.0 0.0
4.1 3.5 2.2 1.5 0.4 0.0 0.0 0.0 0.0 0.0 0.0 0.0 0.1 0.0 0.0 0.0 0.1 0.1 0.0 0.0 0.0 0.1 0.3 0.8 0.9 0.9 0.9 0.7 1.0 1.0 1.0 1.2 1.8 1.9 0.1 1.3 0.6 0.2 0.0 0.0 0.3 0.0 0.0 0.1 0.1 0.0 0.0 0.0 0.0 0.0 0.0 0.0 0.0 0.0
3.7 1.5 0.5 0.0 0.0 0.0 0.0 0.0 0.0 0.0 0.0 0.0 0.1 0.0 0.0 0.0 0.1 0.0 0.0 0.0 0.1 0.2 0.2 0.3 0.7 0.7 0.5 0.5 0.7 1.2 1.2 1.1 1.0 1.7 1.1 1.6 1.3 1.6 1.6 0.0 1.0 0.5 0.1 0.0 0.4 0.4 0.2 0.1 0.0 0.0 0.0 0.0 0.1 0.0
1.7 0.7 0.0 0.0 0.0 0.0 0.0 0.0 0.0 0.0 0.0 0.1 0.0 0.0 0.0 0.0 0.0 0.0 0.0 0.0 0.0 0.2 0.3 0.6 1.2 1.1 0.8 0.8 0.8 1.2 1.4 1.5 1.4 1.1 1.4 3.2 3.1 2.1 0.9 1.4 1.3 1.0 0.6 0.3 0.8 0.5 0.4 0.4 0.3 0.4 0.4 0.4 0.3 0.3
0.3 0.0 0.0 0.0 0.0 0.0 0.0 0.0 0.0 0.0 0.0 0.0 0.0 0.0 0.0 0.0 0.0 0.0 0.0 0.0 0.0 0.0 0.4 0.7 1.1 1.5 1.3 1.1 1.2 1.6 1.8 2.0 2.2 2.1 3.0 3.5 3.8 3.6 2.9 2.5 2.1 2.5 2.3 1.6 1.1 1.2 1.0 0.7 0.5 1.1 0.9 0.8 0.8 0.6
0.0 0.0 0.0 0.0 0.0 0.0 0.0 0.0 0.0 0.0 0.0 0.0 0.0 0.0 0.0 0.0 0.0 0.0 0.0 0.0 0.0 0.4 0.6 0.8 1.1 1.2 1.6 1.7 1.7 2.2 2.3 2.3 1.9 1.5 1.2 1.5 2.7 3.7 3.9 3.6 4.2 4.3 2.9 3.0 2.6 2.3 1.6 1.9 1.8 1.9 2.1 2.2 2.0 1.9
0.0 0.0 0.0 0.0 0.0 0.0 0.0 0.0 0.0 0.0 0.0 0.0 0.0 0.0 0.0 0.0 0.0 0.0 0.0 0.0 0.0 0.7 1.0 1.4 1.4 1.5 2.0 2.0 2.0 1.9 2.4 2.6 2.5 1.3 1.1 1.4 1.8 2.7 4.0 4.0 4.2 4.5 4.4 4.0 4.6 5.2 4.9 4.8 4.9 4.4 3.6 3.4 3.1 2.9
0.0 0.0 0.0 0.0 0.0 0.0 0.0 0.0 0.0 0.0 0.0 0.0 0.0 0.0 0.0 0.0 0.0 0.0 0.1 0.3 0.7 1.1 1.5 1.9 2.1 2.6 2.7 2.9 2.9 2.5 2.5 3.0 3.3 3.6 2.9 2.9 2.9 3.1 3.7 4.0 3.8 4.2 4.3 4.1 3.6 3.4 3.4 2.9 2.5 2.5 2.5 2.5 2.3 2.0
0.0 0.0 0.0 0.0 0.0 0.0 0.0 0.0 0.0 0.0 0.0 0.0 0.0 0.0 0.0 0.0 0.0 0.0 0.2 0.4 0.9 1.2 1.6 1.9 2.1 2.6 3.1 3.1 3.2 3.3 2.6 2.9 2.9 3.7 3.2 2.8 2.7 2.2 2.9 3.3 3.9 3.9 4.1 4.0 3.5 3.5 3.4 3.4 3.6 3.3 3.2 3.2 2.8 2.5
0.2 0.0 0.0 0.0 0.0 0.0 0.0 0.0 0.0 0.0 0.0 0.0 0.0 0.0 0.0 0.0 0.0 0.2 0.3 0.5 1.0 1.2 1.4 2.1 2.5 2.5 2.5 2.5 2.8 3.1 3.2 3.1 3.9 4.0 3.8 3.5 3.1 3.0 3.0 3.2 3.6 3.8 3.7 3.8 4.1 4.2 4.3 4.0 3.8 3.7 3.3 3.0 2.8 2.6

GFSWCAN_prec_snow_030.txt.gz
Snowfall_Accumulation
0.0 0.0 0.0 0.0 0.0 0.0 0.0 0.0 0.0 0.0 0.0 0.0 0.0 0.0 0.0 0.0 0.0 0.0 0.0 0.0 0.0 0.0 0.0 0.0 0.0 0.0 0.0 0.0 0.0 0.0 0.0 0.0 0.0 0.0 0.0 0.0 0.1 0.0 0.0 0.0 0.0 0.0 0.1 0.2 0.4 0.6 0.0 0.0 0.0 0.0 0.0 0.0 0.0 0.0
0.0 0.0 0.0 0.0 0.0 0.0 0.0 0.0 0.0 0.0 0.0 0.0 0.0 0.0 0.0 0.0 0.0 0.0 0.0 0.0 0.0 0.1 0.0 0.0 0.0 0.0 0.0 0.0 0.0 0.0 0.0 0.0 0.0 0.0 0.0 0.0 0.0 0.0 0.0 0.0 0.0 0.0 0.0 0.0 0.0 0.0 0.0 0.0 0.0 0.0 0.0 0.0 0.0 0.0
0.0 0.0 0.0 0.0 0.0 0.0 0.0 0.0 0.0 0.0 0.0 0.0 0.0 0.0 0.0 0.0 0.0 0.0 0.0 0.0 0.0 0.1 0.0 0.0 0.0 0.0 0.0 0.0 0.0 0.0 0.0 0.0 0.0 0.0 0.0 0.0 0.0 0.0 0.1 0.0 0.0 0.0 0.0 0.0 0.0 0.0 0.0 0.0 0.0 0.0 0.0 0.0 0.0 0.0
0.0 0.0 0.0 0.0 0.0 0.0 0.0 0.0 0.0 0.0 0.0 0.0 0.0 0.0 0.0 0.0 0.0 0.0 0.0 0.0 0.0 0.6 1.1 0.0 0.0 0.0 0.0 0.0 0.0 0.0 0.0 0.0 0.0 0.0 0.0 0.0 0.0 0.0 0.0 0.0 0.0 0.0 0.0 0.0 0.0 0.0 0.0 0.0 0.0 0.0 0.0 0.0 0.0 0.0
0.0 0.0 0.0 0.0 0.0 0.0 0.0 0.0 0.0 0.0 0.0 0.0 0.0 0.0 0.0 0.0 0.0 0.0 0.0 0.0 0.0 0.5 2.3 1.1 0.0 0.0 0.0 0.0 0.0 0.0 0.0 0.0 0.0 0.0 0.0 0.0 0.0 0.0 0.0 0.0 0.0 0.0 0.0 0.0 0.0 0.0 0.0 0.0 0.0 0.0 0.0 0.0 0.0 0.0
0.0 0.0 0.0 0.0 0.0 0.0 0.0 0.0 0.0 0.0 0.0 0.0 0.0 0.0 0.0 0.0 0.0 0.0 0.0 0.0 0.0 0.0 3.0 3.1 0.0 0.0 0.0 0.0 0.0 0.0 0.0 0.0 0.0 0.0 0.0 0.0 0.0 0.0 0.0 0.0 0.0 0.0 0.0 0.0 0.0 0.0 0.0 0.0 0.0 0.0 0.0 0.0 0.0 0.0
0.0 0.0 0.0 0.0 0.0 0.0 0.0 0.0 0.0 0.0 0.0 0.0 0.0 0.0 0.0 0.0 0.0 0.2 0.6 0.0 0.0 0.0 3.8 7.3 4.4 0.6 0.0 0.0 0.0 0.0 0.0 0.0 0.0 0.0 0.0 0.0 0.0 0.0 0.0 0.0 0.0 0.0 0.0 0.0 0.0 0.0 0.0 0.0 0.0 0.0 0.0 0.0 0.0 0.0
0.0 0.0 0.0 0.0 0.0 0.0 0.0 0.0 0.0 0.0 0.0 0.0 0.0 0.0 0.0 0.0 0.0 0.0 0.0 0.0 0.0 3.7 6.4 9.7 8.2 6.6 0.0 0.0 0.0 0.0 0.0 0.0 0.0 0.0 0.0 0.0 0.0 0.0 0.0 0.0 0.0 0.0 0.0 0.0 0.0 0.0 0.0 0.0 0.0 0.0 0.0 0.0 0.0 0.0
0.0 0.0 0.0 0.0 0.0 0.0 0.0 0.0 0.0 0.0 0.0 0.0 0.0 0.0 0.0 0.0 0.0 0.0 0.0 0.0 0.0 0.2 7.1 6.8 8.5 7.1 0.0 0.0 0.0 0.0 0.0 0.0 0.0 0.0 0.0 0.0 0.0 0.0 0.0 0.0 0.0 0.0 0.0 0.0 0.0 0.0 0.0 0.0 0.0 0.0 0.0 0.0 0.0 0.0
0.0 0.0 0.0 0.0 0.0 0.0 0.0 0.0 0.0 0.0 0.0 0.0 0.0 0.0 0.6 0.0 0.0 0.0 0.0 2.5 3.1 3.2 3.6 4.8 2.8 1.2 0.0 0.0 0.0 0.0 0.0 0.0 1.0 0.0 0.0 0.0 0.0 0.0 0.0 0.0 0.0 0.0 0.0 0.0 0.0 0.0 0.0 0.0 0.0 0.0 0.0 0.0 0.0 0.0
0.0 0.0 0.0 0.0 0.0 0.0 0.0 0.0 0.0 0.0 0.0 0.0 0.1 0.5 0.0 0.0 0.0 0.0 5.9 4.4 2.2 1.6 2.7 2.8 0.9 1.1 0.0 0.0 0.0 0.0 0.0 0.0 0.4 0.3 0.0 0.1 0.0 0.0 0.0 0.0 0.0 0.0 0.0 0.0 0.0 0.0 0.0 0.0 0.0 0.0 0.0 0.0 0.0 0.0
0.0 0.0 0.0 0.0 0.0 0.0 0.0 0.0 0.0 0.0 0.0 0.0 0.0 0.0 0.0 3.5 6.8 8.9 8.8 1.4 0.3 0.4 0.8 0.6 0.0 0.0 0.0 0.0 0.0 0.0 0.3 0.5 0.2 0.0 0.0 0.0 0.0 0.0 0.0 0.0 0.0 0.0 0.0 0.0 0.0 0.0 0.0 0.0 0.0 0.0 0.0 0.0 0.0 0.0
0.0 0.0 0.0 0.0 0.0 0.0 0.0 0.0 0.0 0.0 0.0 0.0 0.4 1.5 2.9 5.4 6.8 4.8 3.6 1.2 0.4 0.4 0.3 0.8 1.3 0.0 0.0 0.0 0.0 0.0 0.0 0.1 0.0 0.2 0.0 0.0 0.0 0.0 0.0 0.0 0.0 0.0 0.0 0.0 0.0 0.0 0.0 0.0 0.0 0.0 0.0 0.0 0.0 0.0
0.0 0.0 0.0 0.0 0.0 0.0 0.0 0.0 0.0 0.0 0.0 0.1 0.7 1.3 2.3 3.0 3.0 2.2 1.1 1.0 0.0 0.3 0.0 0.1 0.6 0.8 0.0 0.0 0.0 0.1 0.0 0.0 0.0 0.0 0.0 0.0 0.0 0.0 0.0 0.0 0.0 0.0 0.0 0.0 0.0 0.0 0.0 0.0 0.0 0.0 0.0 0.0 0.0 0.0
0.0 0.0 0.0 0.0 0.0 0.0 0.0 0.0 0.0 0.0 0.0 0.0 0.9 1.2 1.2 1.8 0.8 0.4 0.1 0.5 0.0 0.0 0.0 0.0 0.0 0.0 0.1 0.0 0.0 0.0 0.0 0.0 0.0 0.0 0.0 0.0 0.0 0.0 0.0 0.0 0.0 0.0 0.0 0.0 0.0 0.0 0.0 0.0 0.0 0.0 0.0 0.0 0.0 0.4
0.0 0.0 0.0 0.0 0.0 0.0 0.0 0.0 0.0 0.0 0.0 0.1 0.6 1.2 0.9 0.6 0.3 0.1 0.0 0.1 0.0 0.0 0.1 0.2 0.1 0.1 0.0 0.0 0.0 0.0 0.0 0.0 0.0 0.0 0.0 0.0 0.0 0.0 0.0 0.0 0.0 0.0 0.0 0.0 0.0 0.0 0.0 0.0 0.0 0.0 0.0 0.0 0.0 1.0
0.0 0.0 0.0 0.0 0.0 0.0 0.0 0.0 0.0 0.0 0.1 0.0 0.2 0.7 0.8 0.4 0.4 0.3 0.0 0.0 0.0 0.2 1.3 1.7 1.4 0.0 0.1 0.1 0.0 0.0 0.0 0.0 0.0 0.0 0.0 0.0 0.0 0.0 0.0 0.0 0.0 0.0 0.0 0.0 0.0 0.0 0.0 0.0 0.0 0.0 0.0 0.0 0.0 0.0
0.0 0.0 0.0 0.0 0.0 0.0 0.0 0.0 0.0 0.0 0.0 0.0 0.0 0.0 0.0 0.0 0.3 0.3 0.0 0.0 0.0 0.4 1.8 4.5 1.9 1.2 0.1 0.0 0.0 0.0 0.0 0.0 0.0 0.0 0.0 0.0 0.0 0.0 0.0 0.0 0.0 0.0 0.0 0.0 0.0 0.0 0.0 0.0 0.0 0.0 0.0 0.0 0.0 0.0
0.0 0.0 0.0 0.0 0.0 0.0 0.0 0.0 0.0 0.0 0.0 0.0 0.0 0.0 0.0 0.0 0.0 0.0 0.0 0.0 0.0 0.0 0.3 3.0 2.2 0.2 0.0 0.0 0.0 0.0 0.0 0.0 0.0 0.0 0.0 0.0 0.0 0.0 0.0 0.0 0.0 0.0 0.0 0.0 0.0 0.0 0.0 0.0 0.0 0.0 0.0 0.0 0.0 0.0
0.0 0.0 0.0 0.0 0.0 0.0 0.0 0.0 0.0 0.0 0.0 0.0 0.0 0.0 0.0 0.0 0.0 0.0 0.0 0.3 0.5 1.9 2.3 1.9 0.0 0.2 0.1 0.3 0.3 0.1 0.0 0.0 0.0 0.0 0.0 0.0 0.0 0.0 0.0 0.0 0.0 0.0 0.0 0.0 0.0 0.0 0.0 0.0 0.0 0.0 0.0 0.0 0.0 0.0
0.0 0.0 0.0 0.0 0.4 0.1 0.0 0.0 0.0 0.0 0.0 0.0 0.0 0.0 0.0 0.0 0.0 0.0 0.0 1.2 1.9 3.1 2.3 1.3 0.2 0.1 0.0 0.5 0.2 0.0 0.0 0.0 0.0 0.0 0.0 0.0 0.0 0.0 0.0 0.0 0.0 0.0 0.0 0.0 0.0 0.0 0.0 0.0 0.0 0.0 0.0 0.0 0.0 0.0
0.9 0.0 2.5 2.7 1.4 0.3 0.1 0.0 0.0 0.0 0.0 0.0 0.0 0.0 0.0 0.0 0.0 0.0 0.0 1.6 2.7 1.6 1.2 0.9 0.9 0.6 0.2 0.0 0.7 0.7 0.5 0.0 0.0 0.0 0.0 0.0 0.0 0.0 0.0 0.0 0.0 0.0 0.0 0.0 0.0 0.0 0.0 0.0 0.0 0.0 0.0 0.0 0.0 0.0
0.8 2.4 3.1 2.3 1.3 0.8 0.1 0.0 0.0 0.0 0.0 0.0 0.0 0.0 0.0 0.0 0.0 0.0 0.8 1.0 1.2 0.9 0.7 0.6 0.7 1.6 1.7 1.4 1.4 1.1 0.6 0.1 0.0 0.2 0.1 0.0 0.0 0.0 0.0 0.0 0.0 0.0 0.0 0.0 0.0 0.0 0.0 0.0 0.0 0.0 0.0 0.0 0.0 0.0
0.0 2.8 2.6 1.9 1.3 0.5 0.1 0.0 0.0 0.0 0.0 0.0 0.0 0.0 0.0 0.0 0.0 0.0 0.5 0.3 0.3 0.2 0.8 1.0 0.9 0.7 0.5 1.2 1.4 1.7 1.9 1.2 0.3 0.0 0.6 0.3 0.1 0.0 0.0 0.0 0.0 0.0 0.0 0.0 0.0 0.0 0.0 0.0 0.0 0.0 0.0 0.0 0.0 0.0
4.1 3.5 2.2 1.5 0.5 0.1 0.0 0.0 0.0 0.0 0.0 0.0 0.1 0.0 0.0 0.0 0.1 0.1 0.0 0.0 0.0 0.1 0.3 0.8 0.9 0.9 0.9 0.7 1.0 1.0 1.0 1.2 1.8 1.9 0.1 1.3 0.6 0.2 0.0 0.0 0.3 0.0 0.0 0.1 0.1 0.0 0.0 0.0 0.0 0.0 0.0 0.0 0.0 0.0
3.8 1.5 0.5 0.0 0.0 0.0 0.0 0.0 0.0 0.0 0.0 0.0 0.1 0.0 0.0 0.0 0.1 0.0 0.0 0.0 0.1 0.2 0.2 0.3 0.7 0.7 0.5 0.5 0.7 1.2 1.2 1.1 1.0 1.7 1.1 1.6 1.3 1.6 1.6 0.0 1.0 0.5 0.1 0.0 0.4 0.4 0.2 0.1 0.0 0.0 0.0 0.0 0.1 0.0
1.7 0.7 0.0 0.0 0.0 0.0 0.0 0.0 0.0 0.0 0.0 0.1 0.0 0.0 0.0 0.0 0.0 0.0 0.0 0.0 0.0 0.2 0.3 0.6 1.2 1.1 0.8 0.8 0.8 1.2 1.4 1.5 1.4 1.1 1.4 3.2 3.1 2.1 0.9 1.4 1.3 1.0 0.6 0.3 0.8 0.5 0.4 0.4 0.3 0.4 0.4 0.4 0.3 0.3
0.3 0.0 0.0 0.0 0.0 0.0 0.0 0.0 0.0 0.0 0.0 0.0 0.0 0.0 0.0 0.0 0.0 0.0 0.0 0.0 0.0 0.0 0.4 0.7 1.1 1.5 1.3 1.1 1.2 1.6 1.8 2.0 2.2 2.1 3.0 3.5 3.8 3.6 2.9 2.5 2.1 2.5 2.3 1.6 1.1 1.2 1.0 0.7 0.5 1.1 0.9 0.8 0.8 0.6
0.0 0.0 0.0 0.0 0.0 0.0 0.0 0.0 0.0 0.0 0.0 0.0 0.0 0.0 0.0 0.0 0.0 0.0 0.0 0.0 0.0 0.4 0.6 0.8 1.1 1.2 1.6 1.7 1.7 2.2 2.3 2.3 1.9 1.5 1.2 1.5 2.7 3.7 3.9 3.6 4.2 4.3 2.9 3.0 2.6 2.3 1.6 2.0 1.8 1.9 2.1 2.2 2.0 1.9
0.0 0.0 0.0 0.0 0.0 0.0 0.0 0.0 0.0 0.0 0.0 0.0 0.0 0.0 0.0 0.0 0.0 0.0 0.0 0.0 0.0 0.7 1.0 1.4 1.4 1.5 2.0 2.0 2.0 1.9 2.4 2.6 2.5 1.3 1.1 1.4 1.8 2.7 4.0 4.0 4.2 4.5 4.4 4.0 4.6 5.2 4.9 4.8 4.9 4.5 3.6 3.4 3.2 2.9
0.0 0.0 0.0 0.0 0.0 0.0 0.0 0.0 0.0 0.0 0.0 0.0 0.0 0.0 0.0 0.0 0.0 0.0 0.1 0.3 0.7 1.1 1.5 1.9 2.1 2.6 2.7 2.9 2.9 2.5 2.5 3.0 3.3 3.6 2.9 2.9 2.9 3.1 3.7 4.0 3.8 4.2 4.3 4.1 3.6 3.4 3.4 2.9 2.5 2.5 2.5 2.5 2.3 2.1
0.0 0.0 0.0 0.0 0.0 0.0 0.0 0.0 0.0 0.0 0.0 0.0 0.0 0.0 0.0 0.0 0.0 0.0 0.2 0.4 0.9 1.2 1.6 1.9 2.1 2.6 3.1 3.1 3.2 3.3 2.6 2.9 2.9 3.7 3.2 2.8 2.7 2.2 2.9 3.3 3.9 3.9 4.1 4.0 3.5 3.5 3.4 3.4 3.6 3.3 3.2 3.2 3.0 2.6
0.5 0.2 0.2 0.1 0.0 0.0 0.0 0.0 0.0 0.0 0.0 0.0 0.0 0.0 0.0 0.0 0.0 0.2 0.3 0.5 1.0 1.2 1.4 2.1 2.5 2.5 2.5 2.5 2.8 3.1 3.2 3.1 3.9 4.0 3.8 3.5 3.1 3.0 3.1 3.3 3.6 3.9 3.8 3.8 4.1 4.2 4.4 4.1 3.8 3.7 3.4 3.1 2.9 2.7

GFSWCAN_prec_snow_033.txt.gz
Snowfall_Accumulation
0.0 0.0 0.0 0.0 0.0 0.0 0.0 0.0 0.0 0.0 0.0 0.0 0.0 0.0 0.0 0.0 0.0 0.0 0.0 0.0 0.0 0.0 0.0 0.0 0.0 0.0 0.0 0.0 0.0 0.0 0.0 0.0 0.0 0.0 0.0 0.0 0.1 0.0 0.0 0.0 0.0 0.0 0.1 0.2 0.4 0.6 0.0 0.0 0.0 0.0 0.0 0.0 0.0 0.0
0.0 0.0 0.0 0.0 0.0 0.0 0.0 0.0 0.0 0.0 0.0 0.0 0.0 0.0 0.0 0.0 0.0 0.0 0.0 0.0 0.0 0.1 0.0 0.0 0.0 0.0 0.0 0.0 0.0 0.0 0.0 0.0 0.0 0.0 0.0 0.0 0.0 0.0 0.0 0.0 0.0 0.0 0.0 0.0 0.0 0.0 0.0 0.0 0.0 0.0 0.0 0.0 0.0 0.0
0.0 0.0 0.0 0.0 0.0 0.0 0.0 0.0 0.0 0.0 0.0 0.0 0.0 0.0 0.0 0.0 0.0 0.0 0.0 0.0 0.0 0.4 0.0 0.0 0.0 0.0 0.0 0.0 0.0 0.0 0.0 0.0 0.0 0.0 0.0 0.0 0.0 0.0 0.1 0.0 0.0 0.0 0.0 0.0 0.0 0.0 0.0 0.0 0.0 0.0 0.0 0.0 0.0 0.0
0.0 0.0 0.0 0.0 0.0 0.0 0.0 0.0 0.0 0.0 0.0 0.0 0.0 0.0 0.0 0.0 0.0 0.0 0.0 0.0 0.0 0.6 1.3 0.0 0.0 0.0 0.0 0.0 0.0 0.0 0.0 0.0 0.0 0.0 0.0 0.0 0.0 0.0 0.0 0.0 0.0 0.0 0.0 0.0 0.0 0.0 0.0 0.0 0.0 0.0 0.0 0.0 0.0 0.0
0.0 0.0 0.0 0.0 0.0 0.0 0.0 0.0 0.0 0.0 0.0 0.0 0.0 0.0 0.0 0.0 0.0 0.0 0.0 0.0 0.0 0.7 2.3 1.1 0.0 0.0 0.0 0.0 0.0 0.0 0.0 0.0 0.4 1.1 0.0 0.0 0.0 0.0 0.0 0.0 0.0 0.0 0.0 0.0 0.0 0.0 0.0 0.0 0.0 0.0 0.0 0.0 0.0 0.0
0.0 0.0 0.0 0.0 0.0 0.0 0.0 0.0 0.0 0.0 0.0 0.0 0.0 0.0 0.0 0.0 0.0 0.0 0.0 0.0 0.0 0.0 3.2 3.1 0.0 0.0 0.0 0.0 0.0 0.0 0.0 0.0 1.3 0.9 0.0 0.0 0.0 0.0 0.0 0.0 0.0 0.0 0.0 0.0 0.0 0.0 0.0 0.0 0.0 0.0 0.0 0.0 0.0 0.0
0.0 0.0 0.0 0.0 0.0 0.0 0.0 0.0 0.0 0.0 0.0 0.0 0.0 0.0 0.0 0.0 0.0 0.2 0.6 0.0 0.0 0.0 3.9 7.3 4.4 0.6 0.0 0.0 0.0 0.0 0.0 0.0 2.6 1.8 0.0 0.0 0.0 0.0 0.0 0.0 0.0 0.0 0.0 0.0 0.0 0.0 0.0 0.0 0.0 0.0 0.0 0.0 0.0 0.0
0.0 0.0 0.0 0.0 0.0 0.0 0.0 0.0 0.0 0.0 0.0 0.0 0.0 0.0 0.0 0.0 0.0 0.0 0.0 0.0 0.0 3.7 6.7 9.9 8.2 6.9 0.0 0.0 0.0 0.0 0.0 0.0 4.8 0.0 0.0 0.0 0.0 0.0 0.0 0.0 0.0 0.0 0.0 0.0 0.0 0.0 0.0 0.0 0.0 0.0 0.0 0.0 0.0 0.0
0.0 0.0 0.0 0.0 0.0 0.0 0.0 0.0 0.0 0.0 0.0 0.0 0.0 0.0 0.0 0.0 0.0 0.0 0.0 0.0 0.0 0.2 7.2 6.8 8.6 7.4 0.0 0.0 0.0 0.0 0.0 2.0 0.0 0.0 0.0 0.0 0.0 0.0 0.0 0.0 0.0 0.0 0.0 0.0 0.0 0.0 0.0 0.0 0.0 0.0 0.0 0.0 0.0 0.0
0.0 0.0 0.0 0.0 0.0 0.0 0.0 0.0 0.0 0.0 0.0 0.0 0.0 0.0 0.6 0.0 0.0 0.0 0.0 2.7 3.4 3.5 4.0 5.4 3.4 1.7 0.0 3.2 0.0 0.0 0.0 1.4 2.4 0.0 0.0 0.0 0.0 0.0 0.0 0.0 0.0 0.0 0.0 0.0 0.0 0.0 0.0 0.0 0.0 0.0 0.0 0.0 0.0 0.0
0.0 0.0 0.0 0.0 0.0 0.0 0.0 0.0 0.0 0.0 0.0 0.0 0.1 0.5 0.0 0.0 0.0 0.0 6.0 4.5 2.3 1.8 2.9 3.3 2.1 1.9 0.0 0.0 0.0 0.0 0.0 0.0 0.4 0.4 0.0 0.1 0.0 0.0 0.0 0.0 0.0 0.0 0.0 0.0 0.0 0.0 0.0 0.0 0.0 0.0 0.0 0.0 0.0 0.0
0.0 0.0 0.0 0.0 0.0 0.0 0.0 0.0 0.0 0.0 0.0 0.0 0.0 0.0 0.0 3.5 6.9 9.1 8.8 1.4 0.4 0.6 1.0 1.2 0.9 0.0 0.0 0.0 0.0 0.0 0.3 0.5 0.3 0.0 0.0 0.0 0.0 0.0 0.0 0.0 0.0 0.0 0.0 0.0 0.0 0.0 0.0 0.0 0.0 0.0 0.0 0.0 0.0 0.0
0.0 0.0 0.0 0.0 0.0 0.0 0.0 0.0 0.0 0.0 0.0 0.0 0.4 1.5 2.9 5.5 6.9 4.9 3.6 1.3 0.5 0.5 0.5 1.0 1.3 0.0 0.0 0.0 0.0 0.0 0.0 0.1 0.0 0.2 0.0 0.0 0.0 0.0 0.0 0.0 0.0 0.0 0.0 0.0 0.0 0.0 0.0 0.0 0.0 0.0 0.0 0.0 0.0 0.0
0.0 0.0 0.0 0.0 0.0 0.0 0.0 0.0 0.0 0.0 0.0 0.1 0.7 1.3 2.3 3.0 3.2 2.4 1.3 1.1 0.0 0.3 0.0 0.1 1.0 1.6 0.0 0.4 0.0 0.5 0.2 0.0 0.0 0.0 0.0 0.0 0.0 0.0 0.0 0.0 0.0 0.0 0.0 0.0 0.0 0.0 0.0 0.0 0.0 0.0 0.0 0.0 0.0 0.0
0.0 0.0 0.0 0.0 0.0 0.0 0.0 0.0 0.0 0.0 0.0 0.0 0.9 1.2 1.2 1.8 0.8 0.4 0.1 0.5 0.0 0.0 0.0 0.0 0.0 0.0 0.8 0.8 0.1 0.0 0.0 0.0 0.0 0.0 0.0 0.0 0.0 0.0 0.0 0.0 0.0 0.0 0.0 0.0 0.0 0.0 0.0 0.0 0.0 0.0 0.0 0.0 0.0 0.4
0.0 0.0 0.0 0.0 0.0 0.0 0.0 0.0 0.0 0.0 0.0 0.1 0.6 1.2 0.9 0.6 0.3 0.1 0.0 0.1 0.0 0.0 0.1 0.2 0.3 0.6 0.4 0.2 0.0 0.0 0.0 0.0 0.0 0.0 0.0 0.0 0.0 0.0 0.0 0.0 0.0 0.0 0.0 0.0 0.0 0.0 0.0 0.0 0.0 0.0 0.0 0.0 0.0 1.0
0.0 0.0 0.0 0.0 0.0 0.0 0.0 0.0 0.0 0.0 0.1 0.0 0.2 0.7 0.8 0.4 0.4 0.3 0.0 0.0 0.0 0.2 1.3 2.0 1.7 0.1 0.3 0.3 0.0 0.0 0.0 0.0 0.0 0.0 0.0 0.0 0.0 0.0 0.0 0.0 0.0 0.0 0.0 0.0 0.0 0.0 0.0 0.0 0.0 0.0 0.0 0.0 0.0 0.0
0.0 0.0 0.0 0.0 0.0 0.0 0.0 0.0 0.0 0.0 0.0 0.0 0.0 0.0 0.0 0.0 0.3 0.3 0.0 0.0 0.0 0.4 1.8 4.8 2.3 1.4 0.2 0.0 0.0 0.0 0.0 0.0 0.0 0.0 0.0 0.0 0.0 0.0 0.0 0.0 0.0 0.0 0.0 0.0 0.0 0.0 0.0 0.0 0.0 0.0 0.0 0.0 0.0 0.0
0.0 0.0 0.0 0.0 0.0 0.0 0.0 0.0 0.0 0.0 0.0 0.0 0.0 0.0 0.0 0.0 0.0 0.0 0.0 0.0 0.0 0.0 0.3 3.0 2.2 0.3 0.0 0.0 0.0 0.0 0.0 0.0 0.0 0.0 0.0 0.0 0.0 0.0 0.0 0.0 0.0 0.0 0.0 0.0 0.0 0.0 0.0 0.0 0.0 0.0 0.0 0.0 0.0 0.0
0.0 0.0 0.0 0.0 0.0 0.0 0.0 0.0 0.0 0.0 0.0 0.0 0.0 0.0 0.0 0.0 0.0 0.0 0.0 0.3 0.5 2.0 2.3 1.9 0.0 0.2 0.1 0.3 0.3 0.1 0.0 0.0 0.0 0.0 0.0 0.0 0.0 0.0 0.0 0.0 0.0 0.0 0.0 0.0 0.0 0.0 0.0 0.0 0.0 0.0 0.0 0.0 0.0 0.0
0.0 0.0 0.0 0.0 0.4 0.1 0.0 0.0 0.0 0.0 0.0 0.0 0.0 0.0 0.0 0.0 0.0 0.0 0.0 1.2 2.1 3.1 2.3 1.3 0.2 0.1 0.0 0.5 0.2 0.0 0.0 0.0 0.0 0.0 0.0 0.0 0.0 0.0 0.0 0.0 0.0 0.0 0.0 0.0 0.0 0.0 0.0 0.0 0.0 0.0 0.0 0.0 0.0 0.0
0.9 0.0 2.5 2.7 1.6 0.3 0.1 0.0 0.0 0.0 0.0 0.0 0.0 0.0 0.0 0.0 0.0 0.0 0.0 1.6 2.7 1.6 1.2 0.9 0.9 0.6 0.2 0.0 0.7 0.7 0.5 0.0 0.0 0.0 0.0 0.0 0.0 0.0 0.0 0.0 0.0 0.0 0.0 0.0 0.0 0.0 0.0 0.0 0.0 0.0 0.0 0.0 0.0 0.0
0.8 2.4 3.2 2.3 1.3 0.9 0.1 0.0 0.0 0.0 0.0 0.0 0.0 0.0 0.0 0.0 0.0 0.0 0.8 1.0 1.2 0.9 0.7 0.6 0.7 1.6 1.7 1.4 1.4 1.1 0.6 0.1 0.0 0.2 0.1 0.0 0.0 0.0 0.0 0.0 0.0 0.0 0.0 0.0 0.0 0.0 0.0 0.0 0.0 0.0 0.0 0.0 0.0 0.0
0.0 2.8 2.7 1.9 1.3 0.5 0.2 0.0 0.1 0.0 0.0 0.0 0.0 0.0 0.0 0.0 0.0 0.0 0.5 0.3 0.3 0.2 0.8 1.0 0.9 0.7 0.5 1.2 1.4 1.7 1.9 1.2 0.3 0.0 0.6 0.3 0.1 0.0 0.0 0.0 0.0 0.0 0.0 0.0 0.0 0.0 0.0 0.0 0.0 0.0 0.0 0.0 0.0 0.0
4.2 3.5 2.2 1.5 0.6 0.2 0.0 0.0 0.0 0.0 0.0 0.0 0.1 0.0 0.0 0.0 0.1 0.1 0.0 0.0 0.0 0.1 0.3 0.8 0.9 0.9 0.9 0.7 1.0 1.0 1.0 1.2 1.8 1.9 0.1 1.3 0.6 0.2 0.0 0.0 0.3 0.0 0.0 0.1 0.1 0.0 0.0 0.0 0.0 0.0 0.0 0.0 0.0 0.0
3.8 1.5 0.5 0.0 0.0 0.0 0.0 0.0 0.0 0.0 0.0 0.0 0.1 0.0 0.0 0.0 0.1 0.0 0.0 0.0 0.1 0.2 0.2 0.3 0.7 0.7 0.5 0.5 0.7 1.2 1.2 1.1 1.0 1.7 1.1 1.6 1.3 1.6 1.6 0.0 1.0 0.5 0.1 0.0 0.4 0.4 0.2 0.1 0.0 0.0 0.0 0.0 0.1 0.0
1.8 0.7 0.0 0.0 0.0 0.0 0.0 0.0 0.0 0.0 0.0 0.1 0.0 0.0 0.0 0.0 0.0 0.0 0.0 0.0 0.0 0.2 0.3 0.6 1.2 1.1 0.8 0.8 0.8 1.2 1.4 1.5 1.4 1.1 1.4 3.2 3.1 2.1 0.9 1.4 1.3 1.0 0.6 0.3 0.8 0.5 0.4 0.4 0.3 0.4 0.4 0.4 0.3 0.3
0.3 0.0 0.0 0.0 0.0 0.0 0.0 0.0 0.0 0.0 0.0 0.0 0.0 0.0 0.0 0.0 0.0 0.0 0.0 0.0 0.0 0.0 0.4 0.7 1.1 1.5 1.3 1.1 1.2 1.6 1.8 2.0 2.2 2.1 3.0 3.5 3.8 3.6 2.9 2.5 2.1 2.5 2.3 1.6 1.1 1.2 1.0 0.7 0.5 1.1 0.9 0.8 0.8 0.6
0.0 0.0 0.0 0.0 0.0 0.0 0.0 0.0 0.0 0.0 0.0 0.0 0.0 0.0 0.0 0.0 0.0 0.0 0.0 0.0 0.0 0.4 0.6 0.8 1.1 1.2 1.6 1.7 1.7 2.2 2.3 2.3 1.9 1.5 1.2 1.5 2.7 3.7 3.9 3.6 4.2 4.3 2.9 3.0 2.6 2.3 1.6 2.0 1.8 1.9 2.1 2.2 2.0 1.9
0.0 0.0 0.0 0.0 0.0 0.0 0.0 0.0 0.0 0.0 0.0 0.0 0.0 0.0 0.0 0.0 0.0 0.0 0.0 0.0 0.0 0.7 1.0 1.4 1.4 1.5 2.0 2.0 2.0 1.9 2.4 2.6 2.5 1.3 1.1 1.4 1.8 2.7 4.0 4.0 4.2 4.5 4.4 4.0 4.6 5.2 4.9 4.8 4.9 4.5 3.6 3.4 3.3 2.9
0.0 0.0 0.0 0.0 0.0 0.0 0.0 0.0 0.0 0.0 0.0 0.0 0.0 0.0 0.0 0.0 0.0 0.0 0.1 0.3 0.7 1.1 1.5 1.9 2.1 2.6 2.7 2.9 2.9 2.5 2.5 3.0 3.3 3.6 2.9 2.9 2.9 3.1 3.7 4.0 3.8 4.2 4.3 4.1 3.6 3.4 3.4 2.9 2.5 2.6 2.5 2.5 2.3 2.1
0.0 0.0 0.0 0.0 0.0 0.0 0.0 0.0 0.0 0.0 0.0 0.0 0.0 0.0 0.0 0.0 0.0 0.0 0.2 0.4 0.9 1.2 1.6 1.9 2.1 2.6 3.1 3.1 3.2 3.3 2.6 2.9 2.9 3.7 3.2 2.8 2.7 2.2 2.9 3.3 3.9 3.9 4.1 4.0 3.5 3.6 3.5 3.5 3.6 3.3 3.2 3.2 3.0 2.6
0.5 0.2 0.2 0.1 0.0 0.0 0.0 0.0 0.0 0.0 0.0 0.0 0.0 0.0 0.0 0.0 0.0 0.2 0.3 0.5 1.0 1.2 1.4 2.1 2.5 2.5 2.5 2.5 2.8 3.1 3.2 3.1 3.9 4.0 3.8 3.5 3.1 3.0 3.1 3.4 3.6 3.9 3.9 3.9 4.1 4.3 4.5 4.1 3.9 3.7 3.4 3.1 2.9 2.7

GFSWCAN_prec_snow_036.txt.gz
Snowfall_Accumulation
0.0 0.0 0.0 0.0 0.0 0.0 0.0 0.0 0.0 0.0 0.0 0.0 0.0 0.0 0.0 0.0 0.0 0.0 0.0 0.0 0.0 0.0 0.0 0.0 0.0 0.0 0.0 0.0 0.0 0.0 0.0 0.0 0.0 0.0 0.0 0.0 0.1 0.0 0.0 0.0 0.0 0.0 0.1 0.3 0.4 0.7 0.0 0.0 0.0 0.0 0.0 0.0 0.0 0.0
0.0 0.0 0.0 0.0 0.0 0.0 0.0 0.0 0.0 0.0 0.0 0.0 0.0 0.0 0.0 0.0 0.0 0.0 0.0 0.0 0.0 0.1 0.0 0.0 0.0 0.0 0.0 0.0 0.0 0.0 0.0 0.0 0.0 0.0 0.0 0.0 0.0 0.0 0.0 0.0 0.0 0.0 0.0 0.0 0.0 0.0 0.0 0.0 0.0 0.0 0.0 0.0 0.0 0.0
0.0 0.0 0.0 0.0 0.0 0.0 0.0 0.0 0.0 0.0 0.0 0.0 0.0 0.0 0.0 0.0 0.0 0.0 0.0 0.0 0.0 0.4 0.0 0.0 0.0 0.0 0.0 0.0 0.0 0.0 0.0 0.0 0.0 0.0 0.0 0.0 0.0 0.0 0.1 0.0 0.0 0.0 0.0 0.0 0.0 0.0 0.0 0.0 0.0 0.0 0.0 0.0 0.0 0.0
0.0 0.0 0.0 0.0 0.0 0.0 0.0 0.0 0.0 0.0 0.0 0.0 0.0 0.0 0.0 0.0 0.0 0.0 0.0 0.0 0.0 0.6 1.4 0.0 0.0 0.0 0.0 0.0 0.0 0.0 0.0 0.0 0.0 0.7 0.0 0.0 0.0 0.0 0.0 0.0 0.0 0.0 0.0 0.0 0.0 0.0 0.0 0.0 0.0 0.0 0.0 0.0 0.0 0.0
0.0 0.0 0.0 0.0 0.0 0.0 0.0 0.0 0.0 0.0 0.0 0.0 0.0 0.0 0.0 0.0 0.0 0.0 0.0 0.0 0.0 0.7 2.3 1.1 0.0 0.0 0.0 0.0 0.0 0.0 0.0 0.0 0.4 1.1 1.7 0.0 0.0 0.0 0.0 0.0 0.0 0.0 0.0 0.0 0.0 0.0 0.0 0.0 0.0 0.0 0.0 0.0 0.0 0.0
0.0 0.0 0.0 0.0 0.0 0.0 0.0 0.0 0.0 0.0 0.0 0.0 0.0 0.0 0.0 0.0 0.0 0.0 0.0 0.0 0.0 0.0 3.3 3.2 0.0 0.0 0.0 0.0 0.0 0.0 0.0 0.0 1.3 0.9 2.2 0.0 0.0 0.0 0.0 0.0 0.0 0.0 0.0 0.0 0.0 0.0 0.0 0.0 0.0 0.0 0.0 0.0 0.0 0.0
0.0 0.0 0.0 0.0 0.0 0.0 0.0 0.0 0.0 0.0 0.0 0.0 0.0 0.0 0.0 0.0 0.0 0.2 0.6 0.0 0.0 0.0 4.1 7.4 4.4 0.6 0.0 0.0 0.0 0.0 0.0 0.1 2.9 2.6 0.0 1.9 0.0 0.0 0.0 0.0 0.0 0.0 0.0 0.0 0.0 0.0 0.0 0.0 0.0 0.0 0.0 0.0 0.0 0.0
0.0 0.0 0.0 0.0 0.0 0.0 0.0 0.0 0.0 0.0 0.0 0.0 0.0 0.0 0.0 0.0 0.0 0.0 0.0 0.0 0.0 3.7 6.8 9.9 8.2 6.9 0.0 0.0 0.0 0.0 0.0 0.0 4.8 1.2 0.0 0.6 0.0 0.0 0.0 0.0 0.0 0.0 0.0 0.0 0.0 0.0 0.0 0.0 0.0 0.0 0.0 0.0 0.0 0.0
0.0 0.0 0.0 0.0 0.0 0.0 0.0 0.0 0.0 0.0 0.0 0.0 0.0 0.0 0.0 0.0 0.0 0.0 0.0 0.0 0.0 0.2 7.3 6.9 8.7 7.6 0.6 0.0 0.2 0.0 0.0 2.0 0.9 1.2 0.0 0.0 0.0 0.1 0.0 0.0 0.0 0.0 0.0 0.0 0.0 0.0 0.0 0.0 0.0 0.0 0.0 0.0 0.0 0.0
0.0 0.0 0.0 0.0 0.0 0.0 0.0 0.0 0.0 0.0 0.0 0.0 0.0 0.0 0.6 0.0 0.0 0.0 0.0 2.9 3.8 3.9 4.2 5.6 3.9 2.3 1.7 4.0 0.2 1.0 0.0 2.6 4.4 0.0 0.0 1.0 0.0 0.0 0.0 0.0 0.0 0.0 0.0 0.0 0.0 0.0 0.0 0.0 0.0 0.0 0.0 0.0 0.0 0.0
0.0 0.0 0.0 0.0 0.0 0.0 0.0 0.0 0.0 0.0 0.0 0.0 0.1 0.5 0.0 0.0 0.0 0.1 6.1 4.7 2.5 2.0 3.1 3.5 2.7 2.8 0.0 3.0 1.3 0.0 2.0 1.1 1.6 1.5 0.0 0.2 0.0 0.0 0.0 0.0 0.0 0.0 0.0 0.0 0.0 0.0 0.0 0.0 0.0 0.0 0.0 0.0 0.0 0.0
0.0 0.0 0.0 0.0 0.0 0.0 0.0 0.0 0.0 0.0 0.0 0.0 0.0 0.0 0.0 3.5 6.9 9.2 8.9 1.5 0.6 1.0 1.6 1.5 1.2 0.6 1.0 0.0 0.0 0.0 0.5 0.5 0.3 0.0 0.0 0.0 0.0 0.0 0.0 0.0 0.0 0.0 0.0 0.0 0.0 0.0 0.0 0.0 0.0 0.0 0.0 0.0 0.0 0.0
0.0 0.0 0.0 0.0 0.0 0.0 0.0 0.0 0.0 0.0 0.0 0.0 0.4 1.5 2.9 5.5 7.1 5.2 3.9 1.5 0.5 0.5 0.6 1.0 1.3 0.2 0.0 0.0 0.0 0.0 0.1 0.1 0.0 0.3 0.0 0.0 0.0 0.0 0.0 0.0 0.0 0.0 0.0 0.0 0.0 0.0 0.0 0.0 0.0 0.0 0.0 0.0 0.0 0.0
0.0 0.0 0.0 0.0 0.0 0.0 0.0 0.0 0.0 0.0 0.0 0.1 0.7 1.3 2.3 3.0 3.2 2.4 1.3 1.1 0.0 0.3 0.0 0.1 1.0 1.8 0.0 1.0 0.1 0.6 0.2 0.1 0.1 0.0 0.0 0.0 0.0 0.0 0.0 0.0 0.0 0.0 0.0 0.0 0.0 0.0 0.0 0.0 0.0 0.0 0.0 0.0 0.0 0.0
0.0 0.0 0.0 0.0 0.0 0.0 0.0 0.0 0.0 0.0 0.0 0.0 0.9 1.2 1.2 1.8 0.8 0.4 0.1 0.5 0.0 0.0 0.0 0.0 0.0 0.3 1.3 1.3 0.4 0.0 0.1 0.1 0.0 0.0 0.0 0.0 0.0 0.0 0.0 0.0 0.0 0.0 0.0 0.0 0.0 0.0 0.0 0.0 0.0 0.0 0.0 0.0 0.0 0.4
0.0 0.0 0.0 0.0 0.0 0.0 0.0 0.0 0.0 0.0 0.0 0.1 0.6 1.2 0.9 0.6 0.3 0.1 0.0 0.1 0.0 0.0 0.1 0.2 0.4 1.0 0.8 0.7 0.3 0.0 0.0 0.0 0.0 0.0 0.0 0.0 0.0 0.0 0.0 0.0 0.0 0.0 0.0 0.0 0.0 0.0 0.0 0.0 0.0 0.0 0.0 0.0 0.0 1.0
0.0 0.0 0.0 0.0 0.0 0.0 0.0 0.0 0.0 0.0 0.1 0.0 0.2 0.7 0.8 0.4 0.4 0.3 0.0 0.0 0.0 0.2 1.3 2.0 2.2 0.4 0.6 0.5 0.0 0.0 0.0 0.0 0.0 0.0 0.0 0.0 0.0 0.0 0.0 0.0 0.0 0.0 0.0 0.0 0.0 0.0 0.0 0.0 0.0 0.0 0.0 0.0 0.0 0.0
0.0 0.0 0.0 0.0 0.0 0.0 0.0 0.0 0.0 0.0 0.0 0.0 0.0 0.0 0.0 0.0 0.3 0.3 0.0 0.0 0.0 0.4 1.8 5.0 2.5 1.5 0.3 0.0 0.0 0.0 0.0 0.0 0.0 0.0 0.0 0.0 0.0 0.0 0.0 0.0 0.0 0.0 0.0 0.0 0.0 0.0 0.0 0.0 0.0 0.0 0.0 0.0 0.0 0.0
0.0 0.0 0.0 0.0 0.0 0.0 0.0 0.0 0.0 0.0 0.0 0.0 0.0 0.0 0.0 0.0 0.0 0.0 0.0 0.0 0.0 0.0 0.3 3.0 2.2 0.3 0.0 0.0 0.0 0.0 0.0 0.0 0.0 0.0 0.0 0.0 0.0 0.0 0.0 0.0 0.0 0.0 0.0 0.0 0.0 0.0 0.0 0.0 0.0 0.0 0.0 0.0 0.0 0.0
0.0 0.0 0.0 0.0 0.0 0.0 0.0 0.0 0.0 0.0 0.0 0.0 0.0 0.0 0.0 0.0 0.0 0.0 0.0 0.3 0.5 2.0 2.3 1.9 0.0 0.2 0.1 0.3 0.3 0.1 0.0 0.0 0.0 0.0 0.0 0.0 0.0 0.0 0.0 0.0 0.0 0.0 0.0 0.0 0.0 0.0 0.0 0.0 0.0 0.0 0.0 0.0 0.0 0.0
0.0 0.0 0.0 0.0 0.4 0.1 0.0 0.0 0.0 0.0 0.0 0.0 0.0 0.0 0.0 0.0 0.0 0.0 0.0 1.2 2.2 3.1 2.3 1.3 0.2 0.1 0.0 0.5 0.2 0.0 0.0 0.0 0.0 0.0 0.0 0.0 0.0 0.0 0.0 0.0 0.0 0.0 0.0 0.0 0.0 0.0 0.0 0.0 0.0 0.0 0.0 0.0 0.0 0.0
0.9 0.0 2.5 2.7 1.6 0.3 0.2 0.0 0.0 0.0 0.0 0.0 0.0 0.0 0.0 0.0 0.0 0.0 0.0 1.6 2.7 1.6 1.2 0.9 0.9 0.6 0.2 0.0 0.7 0.7 0.5 0.0 0.0 0.0 0.0 0.0 0.0 0.0 0.0 0.0 0.0 0.0 0.0 0.0 0.0 0.0 0.0 0.0 0.0 0.0 0.0 0.0 0.0 0.0
0.8 2.4 3.2 2.3 1.3 0.9 0.1 0.1 0.1 0.0 0.0 0.0 0.0 0.0 0.0 0.0 0.0 0.0 0.8 1.0 1.2 0.9 0.7 0.6 0.7 1.6 1.7 1.4 1.4 1.1 0.6 0.1 0.0 0.2 0.1 0.0 0.0 0.0 0.0 0.0 0.0 0.0 0.0 0.0 0.0 0.0 0.0 0.0 0.0 0.0 0.0 0.0 0.0 0.0
0.0 2.8 2.7 1.9 1.3 0.5 0.3 0.0 0.1 0.0 0.0 0.0 0.0 0.0 0.0 0.0 0.0 0.0 0.5 0.3 0.3 0.2 0.8 1.0 0.9 0.7 0.5 1.2 1.4 1.7 1.9 1.2 0.3 0.0 0.6 0.3 0.1 0.0 0.0 0.0 0.0 0.0 0.0 0.0 0.0 0.0 0.0 0.0 0.0 0.0 0.0 0.0 0.0 0.0
4.2 3.5 2.2 1.5 0.6 0.4 0.1 0.1 0.0 0.0 0.0 0.0 0.1 0.0 0.0 0.0 0.1 0.1 0.0 0.0 0.0 0.1 0.3 0.8 0.9 0.9 0.9 0.7 1.0 1.0 1.0 1.2 1.8 1.9 0.1 1.3 0.6 0.2 0.0 0.0 0.3 0.0 0.0 0.1 0.1 0.0 0.0 0.0 0.0 0.0 0.0 0.0 0.0 0.0
4.0 1.5 0.5 0.0 0.0 0.0 0.0 0.0 0.0 0.0 0.0 0.0 0.1 0.0 0.0 0.0 0.1 0.0 0.0 0.0 0.1 0.2 0.2 0.3 0.7 0.7 0.5 0.5 0.7 1.2 1.2 1.1 1.0 1.7 1.1 1.6 1.3 1.6 1.6 0.0 1.0 0.5 0.1 0.0 0.4 0.4 0.2 0.1 0.0 0.0 0.0 0.0 0.1 0.0
1.9 0.7 0.0 0.0 0.0 0.0 0.0 0.0 0.0 0.0 0.0 0.1 0.0 0.0 0.0 0.0 0.0 0.0 0.0 0.0 0.0 0.2 0.3 0.6 1.2 1.1 0.8 0.8 0.8 1.2 1.4 1.5 1.4 1.1 1.4 3.2 3.1 2.1 0.9 1.4 1.3 1.0 0.6 0.3 0.8 0.5 0.4 0.4 0.3 0.4 0.4 0.4 0.3 0.3
0.3 0.0 0.0 0.0 0.0 0.0 0.0 0.0 0.0 0.0 0.0 0.0 0.0 0.0 0.0 0.0 0.0 0.0 0.0 0.0 0.0 0.0 0.4 0.7 1.1 1.5 1.3 1.1 1.2 1.6 1.8 2.0 2.2 2.1 3.0 3.5 3.8 3.6 2.9 2.5 2.1 2.5 2.3 1.6 1.1 1.2 1.0 0.7 0.5 1.1 0.9 0.8 0.8 0.6
0.0 0.0 0.0 0.0 0.0 0.0 0.0 0.0 0.0 0.0 0.0 0.0 0.0 0.0 0.0 0.0 0.0 0.0 0.0 0.0 0.0 0.4 0.6 0.8 1.1 1.2 1.6 1.7 1.7 2.2 2.3 2.3 1.9 1.5 1.2 1.5 2.7 3.7 3.9 3.6 4.2 4.3 2.9 3.0 2.6 2.3 1.6 2.0 1.8 1.9 2.1 2.2 2.0 1.9
0.0 0.0 0.0 0.0 0.0 0.0 0.0 0.0 0.0 0.0 0.0 0.0 0.0 0.0 0.0 0.0 0.0 0.0 0.0 0.0 0.0 0.7 1.0 1.4 1.4 1.5 2.0 2.0 2.0 1.9 2.4 2.6 2.5 1.3 1.1 1.4 1.8 2.7 4.0 4.0 4.2 4.5 4.4 4.0 4.6 5.2 4.9 4.8 4.9 4.5 3.6 3.4 3.3 2.9
0.0 0.0 0.0 0.0 0.0 0.0 0.0 0.0 0.0 0.0 0.0 0.0 0.0 0.0 0.0 0.0 0.0 0.0 0.1 0.3 0.7 1.1 1.5 1.9 2.1 2.6 2.7 2.9 2.9 2.5 2.5 3.0 3.3 3.6 2.9 2.9 2.9 3.1 3.7 4.0 3.8 4.2 4.3 4.1 3.6 3.4 3.4 2.9 2.5 2.6 2.5 2.5 2.3 2.1
0.0 0.0 0.0 0.0 0.0 0.0 0.0 0.0 0.0 0.0 0.0 0.0 0.0 0.0 0.0 0.0 0.0 0.0 0.2 0.4 0.9 1.2 1.6 1.9 2.1 2.6 3.1 3.1 3.2 3.3 2.6 2.9 2.9 3.7 3.2 2.8 2.7 2.2 2.9 3.3 3.9 3.9 4.1 4.0 3.5 3.6 3.5 3.5 3.6 3.3 3.2 3.2 3.0 2.6
0.5 0.2 0.2 0.1 0.0 0.0 0.0 0.0 0.0 0.0 0.0 0.0 0.0 0.0 0.0 0.0 0.0 0.2 0.3 0.5 1.0 1.2 1.4 2.1 2.5 2.5 2.5 2.5 2.8 3.1 3.2 3.1 3.9 4.0 3.8 3.5 3.1 3.0 3.1 3.4 3.6 3.9 3.9 3.9 4.2 4.3 4.5 4.2 3.9 3.7 3.4 3.1 2.9 2.7

GFSWCAN_prec_snow_039.txt.gz
Snowfall_Accumulation
0.0 0.0 0.0 0.0 0.0 0.0 0.0 0.0 0.0 0.0 0.0 0.0 0.0 0.0 0.0 0.0 0.0 0.0 0.0 0.0 0.0 0.0 0.0 0.0 0.0 0.0 0.0 0.0 0.0 0.0 0.0 0.0 0.0 0.0 0.0 0.0 0.1 0.0 0.0 0.0 0.0 0.0 0.1 0.4 0.4 0.7 0.0 0.0 0.0 0.0 0.0 0.0 0.0 0.0
0.0 0.0 0.0 0.0 0.0 0.0 0.0 0.0 0.0 0.0 0.0 0.0 0.0 0.0 0.0 0.0 0.0 0.0 0.0 0.0 0.0 0.1 0.0 0.0 0.0 0.0 0.0 0.0 0.0 0.0 0.0 0.0 0.0 0.0 0.0 0.0 0.0 0.0 0.0 0.0 0.0 0.0 0.0 0.0 0.0 0.0 0.0 0.0 0.0 0.0 0.0 0.0 0.0 0.0
0.0 0.0 0.0 0.0 0.0 0.0 0.0 0.0 0.0 0.0 0.0 0.0 0.0 0.0 0.0 0.0 0.0 0.0 0.0 0.0 0.0 0.4 0.0 0.0 0.0 0.0 0.0 0.0 0.0 0.0 0.0 0.0 0.0 0.0 0.0 0.0 0.0 0.0 0.1 0.0 0.0 0.0 0.0 0.0 0.0 0.0 0.0 0.0 0.0 0.0 0.0 0.0 0.0 0.0
0.0 0.0 0.0 0.0 0.0 0.0 0.0 0.0 0.0 0.0 0.0 0.0 0.0 0.0 0.0 0.0 0.0 0.0 0.0 0.0 0.0 0.6 1.5 0.0 0.0 0.0 0.0 0.0 0.0 0.0 0.0 0.0 0.0 0.7 0.6 0.0 0.0 0.0 0.0 0.0 0.0 0.0 0.0 0.0 0.0 0.0 0.0 0.0 0.0 0.0 0.0 0.0 0.0 0.0
0.0 0.0 0.0 0.0 0.0 0.0 0.0 0.0 0.0 0.0 0.0 0.0 0.0 0.0 0.0 0.0 0.0 0.0 0.0 0.0 0.0 0.7 2.4 1.1 0.0 0.0 0.0 0.0 0.0 0.0 0.0 0.0 0.4 1.1 1.7 1.0 0.0 0.0 0.0 0.0 0.0 0.0 0.0 0.0 0.0 0.0 0.0 0.0 0.0 0.0 0.0 0.0 0.0 0.0
0.0 0.0 0.0 0.0 0.0 0.0 0.0 0.0 0.0 0.0 0.0 0.0 0.0 0.0 0.0 0.0 0.0 0.0 0.0 0.0 0.0 0.0 3.5 3.2 0.0 0.0 0.0 0.0 0.0 0.0 0.0 0.0 1.3 0.9 2.2 0.0 0.0 0.0 0.0 0.0 0.0 0.0 0.0 0.0 0.0 0.0 0.0 0.0 0.0 0.0 0.0 0.0 0.0 0.0
0.0 0.0 0.0 0.0 0.0 0.0 0.0 0.0 0.0 0.0 0.0 0.0 0.0 0.0 0.0 0.0 0.0 0.2 0.6 0.0 0.0 0.0 4.1 7.4 4.4 0.6 0.0 0.0 0.0 0.0 0.0 0.3 3.1 2.7 0.0 1.9 1.4 1.8 0.0 0.0 0.0 0.0 0.0 0.0 0.0 0.0 0.0 0.0 0.0 0.0 0.0 0.0 0.0 0.0
0.0 0.0 0.0 0.0 0.0 0.0 0.0 0.0 0.0 0.0 0.0 0.0 0.0 0.0 0.0 0.0 0.0 0.0 0.0 0.0 0.0 3.7 6.9 10.0 8.2 6.9 0.0 0.0 0.0 0.0 0.0 0.2 5.1 1.4 0.0 0.6 0.0 2.1 0.7 0.0 0.0 0.0 0.0 0.0 0.0 0.0 0.0 0.0 0.0 0.0 0.0 0.0 0.0 0.0
0.0 0.0 0.0 0.0 0.0 0.0 0.0 0.0 0.0 0.0 0.0 0.0 0.0 0.0 0.0 0.0 0.0 0.0 0.0 0.0 0.0 0.2 7.5 7.0 8.8 7.7 0.6 0.2 0.2 0.0 0.0 2.0 0.9 1.4 0.0 0.0 1.2 2.2 0.0 0.0 0.0 0.0 0.0 0.0 0.0 0.0 0.0 0.0 0.0 0.0 0.0 0.0 0.0 0.0
0.0 0.0 0.0 0.0 0.0 0.0 0.0 0.0 0.0 0.0 0.0 0.0 0.0 0.0 0.6 0.0 0.0 0.0 0.0 3.0 4.3 4.3 4.5 5.9 4.1 2.6 2.4 4.5 0.5 1.0 0.2 3.0 5.1 0.0 0.0 1.6 0.0 0.0 0.0 0.0 0.0 0.0 0.0 0.0 0.0 0.0 0.0 0.0 0.0 0.0 0.0 0.0 0.0 0.0
0.0 0.0 0.0 0.0 0.0 0.0 0.0 0.0 0.0 0.0 0.0 0.0 0.1 0.5 0.0 0.0 0.0 0.1 6.2 4.8 2.7 2.4 3.5 3.7 3.0 3.2 0.0 3.8 1.7 0.6 3.1 2.3 5.1 2.5 0.8 0.7 0.3 0.0 0.0 0.0 0.0 0.0 0.0 0.0 0.0 0.0 0.0 0.0 0.0 0.0 0.0 0.0 0.0 0.0
0.0 0.0 0.0 0.0 0.0 0.0 0.0 0.0 0.0 0.0 0.0 0.0 0.0 0.0 0.0 3.5 7.0 9.5 9.1 1.7 0.9 1.4 1.6 1.7 1.2 0.6 1.6 0.0 1.4 0.9 1.6 1.1 1.1 0.0 1.0 0.5 0.0 0.0 0.0 0.0 0.0 0.0 0.0 0.0 0.0 0.0 0.0 0.0 0.0 0.0 0.0 0.0 0.0 0.0
0.0 0.0 0.0 0.0 0.0 0.0 0.0 0.0 0.0 0.0 0.0 0.0 0.4 1.5 2.9 5.5 7.1 5.2 4.1 1.7 0.6 0.5 0.6 1.0 1.3 0.3 0.0 0.0 1.1 0.7 0.4 0.3 0.0 0.4 0.0 0.0 0.0 0.0 0.0 0.0 0.0 0.0 0.0 0.0 0.0 0.0 0.0 0.0 0.0 0.0 0.0 0.0 0.0 0.0
0.0 0.0 0.0 0.0 0.0 0.0 0.0 0.0 0.0 0.0 0.0 0.1 0.7 1.3 2.3 3.0 3.2 2.4 1.3 1.1 0.0 0.3 0.0 0.1 1.0 1.8 0.3 1.6 0.8 1.0 0.4 0.4 0.5 0.2 0.0 0.0 0.0 0.0 0.0 0.0 0.0 0.0 0.0 0.0 0.0 0.0 0.0 0.0 0.0 0.0 0.0 0.0 0.0 0.0
0.0 0.0 0.0 0.0 0.0 0.0 0.0 0.0 0.0 0.0 0.0 0.0 0.9 1.2 1.2 1.8 0.8 0.4 0.1 0.5 0.0 0.0 0.0 0.0 0.0 0.5 1.3 1.8 0.8 0.2 0.2 0.1 0.1 0.2 0.0 0.0 0.0 0.0 0.0 0.0 0.0 0.0 0.0 0.0 0.0 0.0 0.0 0.0 0.0 0.0 0.0 0.0 0.0 0.4
0.0 0.0 0.0 0.0 0.0 0.0 0.0 0.0 0.0 0.0 0.0 0.1 0.6 1.2 0.9 0.6 0.3 0.1 0.0 0.1 0.0 0.0 0.1 0.3 0.5 1.1 0.8 1.5 0.8 0.2 0.1 0.0 0.0 0.0 0.0 0.0 0.0 0.0 0.0 0.0 0.0 0.0 0.0 0.0 0.0 0.0 0.0 0.0 0.0 0.0 0.0 0.0 0.0 1.0
0.0 0.0 0.0 0.0 0.0 0.0 0.0 0.0 0.0 0.0 0.1 0.0 0.2 0.7 0.8 0.4 0.4 0.3 0.0 0.0 0.0 0.2 1.3 2.0 2.3 0.5 0.6 0.9 0.2 0.0 0.1 0.0 0.0 0.0 0.0 0.0 0.0 0.0 0.0 0.0 0.0 0.0 0.0 0.0 0.0 0.0 0.0 0.0 0.0 0.0 0.0 0.0 0.0 0.0
0.0 0.0 0.0 0.0 0.0 0.0 0.0 0.0 0.0 0.0 0.0 0.0 0.0 0.0 0.0 0.0 0.3 0.3 0.0 0.0 0.0 0.4 1.8 5.0 2.5 1.5 0.3 0.1 0.0 0.2 0.0 0.0 0.2 0.0 0.0 0.0 0.0 0.0 0.0 0.0 0.0 0.0 0.0 0.0 0.0 0.0 0.0 0.0 0.0 0.0 0.0 0.0 0.0 0.0
0.0 0.0 0.0 0.0 0.0 0.0 0.0 0.0 0.0 0.0 0.0 0.0 0.0 0.0 0.0 0.0 0.0 0.0 0.0 0.0 0.0 0.0 0.3 3.0 2.2 0.3 0.0 0.0 0.0 0.0 0.0 0.0 0.0 0.0 0.0 0.0 0.0 0.0 0.0 0.0 0.0 0.0 0.0 0.0 0.0 0.0 0.0 0.0 0.0 0.0 0.0 0.0 0.0 0.0
0.0 0.0 0.0 0.0 0.0 0.0 0.0 0.0 0.0 0.0 0.0 0.0 0.0 0.0 0.0 0.0 0.0 0.0 0.0 0.3 0.5 2.0 2.3 1.9 0.0 0.2 0.1 0.3 0.3 0.1 0.0 0.0 0.0 0.0 0.0 0.0 0.0 0.0 0.0 0.0 0.0 0.0 0.0 0.0 0.0 0.0 0.0 0.0 0.0 0.0 0.0 0.0 0.0 0.0
0.0 0.0 0.0 0.0 0.4 0.1 0.0 0.0 0.0 0.0 0.0 0.0 0.0 0.0 0.0 0.0 0.0 0.0 0.0 1.2 2.2 3.1 2.3 1.3 0.2 0.1 0.0 0.5 0.2 0.0 0.0 0.0 0.0 0.0 0.0 0.0 0.0 0.0 0.0 0.0 0.0 0.0 0.0 0.0 0.0 0.0 0.0 0.0 0.0 0.0 0.0 0.0 0.0 0.0
0.9 0.0 2.5 2.7 1.6 0.3 0.2 0.0 0.0 0.0 0.0 0.0 0.0 0.0 0.0 0.0 0.0 0.0 0.0 1.6 2.7 1.6 1.2 0.9 0.9 0.6 0.2 0.0 0.7 0.7 0.5 0.0 0.0 0.0 0.0 0.0 0.0 0.0 0.0 0.0 0.0 0.0 0.0 0.0 0.0 0.0 0.0 0.0 0.0 0.0 0.0 0.0 0.0 0.0
0.8 2.4 3.2 2.3 1.3 0.9 0.1 0.1 0.1 0.0 0.0 0.0 0.0 0.0 0.0 0.0 0.0 0.0 0.8 1.0 1.2 0.9 0.7 0.6 0.7 1.6 1.7 1.4 1.4 1.1 0.6 0.1 0.0 0.2 0.1 0.0 0.0 0.0 0.0 0.0 0.0 0.0 0.0 0.0 0.0 0.0 0.0 0.0 0.0 0.0 0.0 0.0 0.0 0.0
0.0 2.8 2.7 1.9 1.3 0.5 0.3 0.0 0.1 0.0 0.0 0.0 0.0 0.0 0.0 0.0 0.0 0.0 0.5 0.3 0.3 0.2 0.8 1.0 0.9 0.7 0.5 1.2 1.4 1.7 1.9 1.2 0.3 0.0 0.6 0.3 0.1 0.0 0.0 0.0 0.0 0.0 0.0 0.0 0.0 0.0 0.0 0.0 0.0 0.0 0.0 0.0 0.0 0.0
4.2 3.5 2.2 1.5 0.6 0.4 0.1 0.1 0.0 0.0 0.0 0.0 0.1 0.0 0.0 0.0 0.1 0.1 0.0 0.0 0.0 0.1 0.3 0.8 0.9 0.9 0.9 0.7 1.0 1.0 1.0 1.2 1.8 1.9 0.1 1.3 0.6 0.2 0.0 0.0 0.3 0.0 0.0 0.1 0.1 0.0 0.0 0.0 0.0 0.0 0.0 0.0 0.0 0.0
4.1 1.5 0.5 0.0 0.0 0.0 0.0 0.0 0.0 0.0 0.0 0.0 0.1 0.0 0.0 0.0 0.1 0.0 0.0 0.0 0.1 0.2 0.2 0.3 0.7 0.7 0.5 0.5 0.7 1.2 1.2 1.1 1.0 1.7 1.1 1.6 1.3 1.6 1.6 0.0 1.0 0.5 0.1 0.0 0.4 0.4 0.2 0.1 0.0 0.0 0.0 0.0 0.1 0.0
1.9 0.7 0.0 0.0 0.0 0.0 0.0 0.0 0.0 0.0 0.0 0.1 0.0 0.0 0.0 0.0 0.0 0.0 0.0 0.0 0.0 0.2 0.3 0.6 1.2 1.1 0.8 0.8 0.8 1.2 1.4 1.5 1.4 1.1 1.4 3.2 3.1 2.1 0.9 1.4 1.3 1.0 0.6 0.3 0.8 0.5 0.4 0.4 0.3 0.4 0.4 0.4 0.3 0.3
0.3 0.0 0.0 0.0 0.0 0.0 0.0 0.1 0.1 0.1 0.0 0.0 0.0 0.0 0.0 0.0 0.0 0.0 0.0 0.0 0.0 0.0 0.4 0.7 1.1 1.5 1.3 1.1 1.2 1.6 1.8 2.0 2.2 2.1 3.0 3.5 3.8 3.6 2.9 2.5 2.1 2.5 2.3 1.6 1.1 1.2 1.0 0.7 0.5 1.1 0.9 0.8 0.8 0.6
0.1 0.0 0.0 0.0 0.0 0.0 0.0 0.0 0.0 0.0 0.0 0.0 0.0 0.0 0.0 0.0 0.0 0.0 0.0 0.0 0.0 0.4 0.6 0.8 1.1 1.2 1.6 1.7 1.7 2.2 2.3 2.3 1.9 1.5 1.2 1.5 2.7 3.7 3.9 3.6 4.2 4.3 2.9 3.0 2.6 2.3 1.6 2.0 1.8 1.9 2.1 2.2 2.0 1.9
0.0 0.0 0.0 0.0 0.0 0.0 0.0 0.0 0.0 0.0 0.0 0.0 0.0 0.0 0.0 0.0 0.0 0.0 0.0 0.0 0.0 0.7 1.0 1.4 1.4 1.5 2.0 2.0 2.0 1.9 2.4 2.6 2.5 1.3 1.1 1.4 1.8 2.7 4.0 4.0 4.2 4.5 4.4 4.0 4.6 5.2 4.9 4.8 4.9 4.5 3.6 3.4 3.3 2.9
0.0 0.0 0.0 0.0 0.0 0.0 0.0 0.0 0.0 0.0 0.0 0.0 0.0 0.0 0.0 0.0 0.0 0.0 0.1 0.3 0.7 1.1 1.5 1.9 2.1 2.6 2.7 2.9 2.9 2.5 2.5 3.0 3.3 3.6 2.9 2.9 2.9 3.1 3.7 4.0 3.8 4.2 4.3 4.1 3.6 3.4 3.4 2.9 2.5 2.6 2.5 2.5 2.3 2.1
0.0 0.0 0.0 0.0 0.0 0.0 0.0 0.0 0.0 0.0 0.0 0.0 0.0 0.0 0.0 0.0 0.0 0.0 0.2 0.4 0.9 1.2 1.6 1.9 2.1 2.6 3.1 3.1 3.2 3.3 2.6 2.9 2.9 3.7 3.2 2.8 2.7 2.2 2.9 3.3 3.9 3.9 4.1 4.0 3.5 3.6 3.5 3.5 3.6 3.3 3.2 3.2 3.0 2.6
0.5 0.2 0.2 0.1 0.0 0.0 0.0 0.0 0.0 0.0 0.0 0.0 0.0 0.0 0.0 0.0 0.0 0.2 0.3 0.5 1.0 1.2 1.4 2.1 2.5 2.5 2.5 2.5 2.8 3.1 3.2 3.1 3.9 4.0 3.8 3.5 3.1 3.0 3.1 3.4 3.6 3.9 3.9 3.9 4.2 4.4 4.5 4.2 3.9 3.7 3.4 3.1 2.9 2.7

GFSWCAN_prec_snow_042.txt.gz
Snowfall_Accumulation
0.0 0.0 0.0 0.0 0.0 0.0 0.0 0.0 0.0 0.0 0.0 0.0 0.0 0.0 0.0 0.0 0.0 0.0 0.0 0.0 0.0 0.0 0.0 0.0 0.0 0.0 0.0 0.0 0.0 0.0 0.0 0.0 0.0 0.3 0.0 0.0 0.1 0.0 0.0 0.0 0.0 0.0 0.1 0.4 0.4 0.7 0.0 0.0 0.0 0.0 0.0 0.0 0.0 0.0
0.0 0.0 0.0 0.0 0.0 0.0 0.0 0.0 0.0 0.0 0.0 0.0 0.0 0.0 0.0 0.0 0.0 0.0 0.0 0.0 0.0 0.1 0.0 0.0 0.0 0.0 0.0 0.0 0.0 0.0 0.0 0.0 0.0 0.0 0.0 0.0 0.0 0.0 0.0 0.0 0.0 0.0 0.0 0.0 0.0 0.0 0.0 0.0 0.0 0.0 0.0 0.0 0.0 0.0
0.0 0.0 0.0 0.0 0.0 0.0 0.0 0.0 0.0 0.0 0.0 0.0 0.0 0.0 0.0 0.0 0.0 0.0 0.0 0.0 0.0 0.4 0.0 0.0 0.0 0.0 0.0 0.0 0.0 0.0 0.0 0.0 0.0 0.1 0.1 0.0 0.0 0.0 0.1 0.0 0.0 0.0 0.0 0.0 0.0 0.0 0.0 0.0 0.0 0.0 0.0 0.0 0.0 0.0
0.0 0.0 0.0 0.0 0.0 0.0 0.0 0.0 0.0 0.0 0.0 0.0 0.0 0.0 0.0 0.0 0.0 0.0 0.0 0.0 0.0 0.6 1.6 0.0 0.0 0.0 0.0 0.0 0.0 0.0 0.0 0.0 0.0 0.7 0.6 0.3 0.2 0.0 0.0 0.0 0.0 0.0 0.0 0.0 0.0 0.0 0.0 0.0 0.0 0.0 0.0 0.0 0.0 0.0
0.0 0.0 0.0 0.0 0.0 0.0 0.0 0.0 0.0 0.0 0.0 0.0 0.0 0.0 0.0 0.0 0.0 0.0 0.0 0.0 0.0 0.7 2.5 1.1 0.0 0.0 0.0 0.0 0.0 0.0 0.0 0.0 0.4 1.1 1.7 1.0 0.0 0.0 0.0 0.0 0.0 0.0 0.0 0.0 0.0 0.0 0.0 0.0 0.0 0.0 0.0 0.0 0.0 0.0
0.0 0.0 0.0 0.0 0.0 0.0 0.0 0.0 0.0 0.0 0.0 0.0 0.0 0.0 0.0 0.0 0.0 0.0 0.0 0.0 0.0 0.0 3.6 3.2 0.0 0.0 0.0 0.0 0.0 0.0 0.0 0.0 1.3 0.9 2.2 0.0 0.0 0.0 0.9 0.1 0.0 0.0 0.0 0.0 0.0 0.0 0.0 0.0 0.0 0.0 0.0 0.0 0.0 0.0
0.0 0.0 0.0 0.0 0.0 0.0 0.0 0.0 0.0 0.0 0.0 0.0 0.0 0.0 0.0 0.0 0.0 0.2 0.6 0.0 0.0 0.0 4.1 7.5 4.4 0.6 0.0 0.0 0.0 0.0 0.0 0.3 3.1 2.8 0.0 1.9 1.4 1.8 1.5 0.0 0.0 0.0 0.0 0.0 0.0 0.0 0.0 0.0 0.0 0.0 0.0 0.0 0.0 0.0
0.0 0.0 0.0 0.0 0.0 0.0 0.0 0.0 0.0 0.0 0.0 0.0 0.0 0.0 0.0 0.0 0.0 0.0 0.0 0.0 0.0 3.7 6.9 10.0 8.2 6.9 0.0 0.0 0.0 0.0 0.0 0.2 5.2 1.5 0.0 0.6 0.0 2.1 1.5 0.0 0.0 0.0 0.0 0.0 0.0 0.0 0.0 0.0 0.0 0.0 0.0 0.0 0.0 0.0
0.0 0.0 0.0 0.0 0.0 0.0 0.0 0.0 0.0 0.0 0.0 0.0 0.0 0.0 0.0 0.0 0.0 0.0 0.0 0.0 0.0 0.2 7.7 7.1 8.9 7.9 0.6 0.3 0.2 0.0 0.0 2.0 0.9 1.5 0.0 0.0 1.2 2.4 0.0 0.0 0.0 0.0 0.0 0.0 0.0 0.0 0.0 0.0 0.0 0.0 0.0 0.0 0.0 0.0
0.0 0.0 0.0 0.0 0.0 0.0 0.0 0.0 0.0 0.0 0.0 0.0 0.0 0.0 0.6 0.0 0.0 0.0 0.0 3.2 4.7 4.6 4.6 6.0 4.3 2.6 2.4 4.7 0.8 1.0 0.2 3.3 5.4 0.0 0.0 1.6 0.0 0.0 0.0 0.0 0.0 0.0 0.0 0.0 0.0 0.0 0.0 0.0 0.0 0.0 0.0 0.0 0.0 0.0
0.0 0.0 0.0 0.0 0.0 0.0 0.0 0.0 0.0 0.0 0.0 0.0 0.1 0.5 0.0 0.0 0.0 0.1 6.5 5.2 3.1 2.7 3.7 3.7 3.0 3.3 0.0 4.2 2.0 0.6 3.4 2.3 6.4 3.1 0.8 1.2 0.3 0.0 0.0 0.0 0.0 0.0 0.0 0.0 0.0 0.0 0.0 0.0 0.0 0.0 0.0 0.0 0.0 0.0
0.0 0.0 0.0 0.0 0.0 0.0 0.0 0.0 0.0 0.0 0.0 0.0 0.0 0.0 0.0 3.5 7.0 9.5 9.1 1.7 1.3 1.8 1.7 1.8 1.2 0.6 1.7 0.0 2.2 1.6 2.3 1.8 2.1 0.0 1.9 1.5 0.5 0.2 0.0 0.0 0.0 0.0 0.0 0.0 0.0 0.0 0.0 0.0 0.0 0.0 0.0 0.0 0.0 0.0
0.0 0.0 0.0 0.0 0.0 0.0 0.0 0.0 0.0 0.0 0.0 0.0 0.4 1.5 2.9 5.5 7.1 5.2 4.1 1.7 0.6 0.5 0.6 1.0 1.3 0.3 0.0 0.0 1.9 1.7 1.1 0.6 0.0 0.6 0.0 0.0 0.0 0.0 0.0 0.0 0.0 0.0 0.0 0.0 0.0 0.0 0.0 0.0 0.0 0.0 0.0 0.0 0.0 0.0
0.0 0.0 0.0 0.0 0.0 0.0 0.0 0.0 0.0 0.0 0.0 0.1 0.7 1.3 2.3 3.0 3.2 2.4 1.3 1.1 0.0 0.3 0.0 0.1 1.0 1.8 0.4 1.9 1.4 1.6 0.6 0.5 0.6 0.5 0.3 0.0 0.0 0.0 0.0 0.0 0.0 0.0 0.0 0.0 0.0 0.0 0.0 0.0 0.0 0.0 0.0 0.0 0.0 0.0
0.0 0.0 0.0 0.0 0.0 0.0 0.0 0.0 0.0 0.0 0.0 0.0 0.9 1.2 1.2 1.8 0.8 0.4 0.1 0.5 0.0 0.0 0.0 0.0 0.1 0.6 1.4 2.0 1.4 0.7 0.4 0.3 0.3 0.6 0.2 0.0 0.0 0.0 0.0 0.0 0.0 0.0 0.0 0.0 0.0 0.0 0.0 0.0 0.0 0.0 0.0 0.0 0.0 0.4
0.0 0.0 0.0 0.0 0.0 0.0 0.0 0.0 0.0 0.0 0.0 0.1 0.6 1.2 0.9 0.6 0.3 0.1 0.0 0.1 0.0 0.0 0.1 0.3 0.5 1.2 1.0 1.8 1.3 0.8 0.7 0.6 0.5 0.2 0.0 0.2 0.2 0.0 0.0 0.0 0.0 0.0 0.0 0.0 0.0 0.0 0.0 0.0 0.0 0.0 0.0 0.0 0.0 1.0
0.0 0.0 0.0 0.0 0.0 0.0 0.0 0.0 0.0 0.0 0.1 0.0 0.2 0.7 0.8 0.4 0.4 0.3 0.0 0.0 0.0 0.2 1.3 2.0 2.3 0.7 0.6 1.2 0.6 0.5 1.5 1.3 0.7 0.0 0.1 0.0 0.0 0.0 0.0 0.0 0.0 0.0 0.0 0.0 0.0 0.0 0.0 0.0 0.0 0.0 0.0 0.0 0.0 0.0
0.0 0.0 0.0 0.0 0.0 0.0 0.0 0.0 0.0 0.0 0.0 0.0 0.0 0.0 0.0 0.0 0.3 0.3 0.0 0.0 0.0 0.4 1.8 5.0 2.5 1.5 0.3 0.1 0.0 0.2 0.0 0.0 0.2 0.0 0.2 0.0 0.0 0.0 0.0 0.0 0.0 0.0 0.1 0.1 0.0 0.0 0.0 0.0 0.0 0.0 0.0 0.0 0.0 0.0
0.0 0.0 0.0 0.0 0.0 0.0 0.0 0.0 0.0 0.0 0.0 0.0 0.0 0.0 0.0 0.0 0.0 0.0 0.0 0.0 0.0 0.0 0.3 3.0 2.2 0.3 0.0 0.0 0.0 0.0 0.0 0.0 0.0 0.0 0.0 0.0 0.0 0.0 0.0 0.0 0.0 0.0 0.0 0.0 0.0 0.0 0.0 0.0 0.0 0.0 0.0 0.0 0.0 0.0
0.0 0.0 0.0 0.0 0.0 0.0 0.0 0.0 0.0 0.0 0.0 0.0 0.0 0.0 0.0 0.0 0.0 0.0 0.0 0.3 0.5 2.0 2.3 1.9 0.0 0.2 0.1 0.3 0.3 0.1 0.0 0.0 0.0 0.0 0.0 0.0 0.0 0.0 0.0 0.0 0.1 0.0 0.0 0.0 0.0 0.0 0.0 0.0 0.0 0.0 0.0 0.0 0.0 0.0
0.0 0.0 0.0 0.0 0.4 0.1 0.0 0.0 0.0 0.0 0.0 0.0 0.0 0.0 0.0 0.0 0.0 0.0 0.0 1.2 2.2 3.1 2.3 1.3 0.2 0.1 0.0 0.5 0.2 0.0 0.0 0.0 0.0 0.0 0.0 0.0 0.0 0.0 0.0 0.0 0.0 0.0 0.0 0.0 0.0 0.0 0.0 0.0 0.0 0.0 0.0 0.0 0.0 0.0
0.9 0.0 2.5 2.7 1.6 0.3 0.2 0.0 0.0 0.0 0.0 0.0 0.0 0.0 0.0 0.0 0.0 0.0 0.0 1.6 2.7 1.6 1.2 0.9 0.9 0.6 0.2 0.0 0.7 0.7 0.5 0.0 0.0 0.0 0.0 0.0 0.0 0.0 0.0 0.0 0.0 0.0 0.0 0.0 0.0 0.0 0.0 0.0 0.0 0.0 0.0 0.0 0.0 0.0
0.8 2.4 3.2 2.3 1.3 0.9 0.1 0.1 0.1 0.0 0.0 0.0 0.0 0.0 0.0 0.0 0.0 0.0 0.8 1.0 1.2 0.9 0.7 0.6 0.7 1.6 1.7 1.4 1.4 1.1 0.6 0.1 0.0 0.2 0.1 0.0 0.0 0.0 0.0 0.0 0.0 0.0 0.0 0.0 0.0 0.0 0.0 0.0 0.0 0.0 0.0 0.0 0.0 0.0
0.0 2.8 2.7 1.9 1.3 0.5 0.3 0.0 0.1 0.0 0.0 0.0 0.0 0.0 0.0 0.0 0.0 0.0 0.5 0.3 0.3 0.2 0.8 1.0 0.9 0.7 0.5 1.2 1.4 1.7 1.9 1.2 0.3 0.0 0.6 0.3 0.1 0.0 0.0 0.0 0.0 0.0 0.0 0.0 0.0 0.0 0.0 0.0 0.0 0.0 0.0 0.0 0.0 0.0
4.2 3.7 2.5 1.9 0.7 0.5 0.1 0.1 0.0 0.0 0.0 0.0 0.1 0.0 0.0 0.0 0.1 0.1 0.0 0.0 0.0 0.1 0.3 0.8 0.9 0.9 0.9 0.7 1.0 1.0 1.0 1.2 1.8 1.9 0.1 1.3 0.6 0.2 0.0 0.0 0.3 0.0 0.0 0.1 0.1 0.0 0.0 0.0 0.0 0.0 0.0 0.0 0.0 0.0
4.6 1.6 0.7 0.0 0.0 0.0 0.0 0.0 0.0 0.0 0.0 0.0 0.1 0.0 0.0 0.0 0.1 0.0 0.0 0.0 0.1 0.2 0.2 0.3 0.7 0.7 0.5 0.5 0.7 1.2 1.2 1.1 1.0 1.7 1.1 1.6 1.3 1.6 1.6 0.0 1.0 0.5 0.1 0.0 0.4 0.4 0.2 0.1 0.0 0.0 0.0 0.0 0.1 0.0
1.9 0.7 0.0 0.0 0.0 0.0 0.0 0.0 0.0 0.0 0.0 0.1 0.0 0.0 0.0 0.2 0.0 0.0 0.0 0.0 0.0 0.2 0.3 0.6 1.2 1.1 0.8 0.8 0.8 1.2 1.4 1.5 1.4 1.1 1.4 3.2 3.1 2.1 0.9 1.4 1.3 1.0 0.6 0.3 0.8 0.5 0.4 0.4 0.3 0.4 0.4 0.4 0.3 0.3
0.3 0.0 0.0 0.0 0.0 0.0 0.0 0.1 0.1 0.1 0.0 0.0 0.3 0.2 0.1 0.0 0.0 0.0 0.0 0.0 0.0 0.0 0.4 0.7 1.1 1.5 1.3 1.1 1.2 1.6 1.8 2.0 2.2 2.1 3.0 3.5 3.8 3.6 2.9 2.5 2.1 2.5 2.3 1.6 1.1 1.2 1.0 0.7 0.5 1.1 0.9 0.8 0.8 0.6
0.1 0.0 0.0 0.0 0.0 0.0 0.0 0.0 0.0 0.0 0.0 0.0 0.0 0.0 0.0 0.0 0.0 0.0 0.0 0.0 0.0 0.4 0.6 0.8 1.1 1.2 1.6 1.7 1.7 2.2 2.3 2.3 1.9 1.5 1.2 1.5 2.7 3.7 3.9 3.6 4.2 4.3 2.9 3.0 2.6 2.3 1.6 2.0 1.8 1.9 2.1 2.2 2.0 1.9
0.0 0.0 0.0 0.0 0.0 0.0 0.0 0.0 0.0 0.0 0.0 0.0 0.0 0.0 0.0 0.0 0.0 0.0 0.0 0.0 0.0 0.7 1.0 1.4 1.4 1.5 2.0 2.0 2.0 1.9 2.4 2.6 2.5 1.3 1.1 1.4 1.8 2.7 4.0 4.0 4.2 4.5 4.4 4.0 4.6 5.2 4.9 4.8 4.9 4.5 3.6 3.4 3.3 2.9
0.0 0.0 0.0 0.0 0.0 0.0 0.0 0.0 0.0 0.0 0.0 0.0 0.0 0.0 0.0 0.0 0.0 0.0 0.1 0.3 0.7 1.1 1.5 1.9 2.1 2.6 2.7 2.9 2.9 2.5 2.5 3.0 3.3 3.6 2.9 2.9 2.9 3.1 3.7 4.0 3.8 4.2 4.3 4.1 3.6 3.4 3.4 2.9 2.5 2.6 2.5 2.5 2.3 2.1
0.0 0.0 0.0 0.0 0.0 0.0 0.0 0.0 0.0 0.0 0.0 0.0 0.0 0.0 0.0 0.0 0.0 0.0 0.2 0.4 0.9 1.2 1.6 1.9 2.1 2.6 3.1 3.1 3.2 3.3 2.6 2.9 2.9 3.7 3.2 2.8 2.7 2.2 2.9 3.3 3.9 3.9 4.1 4.0 3.5 3.6 3.5 3.5 3.6 3.3 3.2 3.2 3.0 2.6
0.5 0.2 0.2 0.1 0.0 0.0 0.0 0.0 0.0 0.0 0.0 0.0 0.0 0.0 0.0 0.0 0.0 0.2 0.3 0.5 1.0 1.2 1.4 2.1 2.5 2.5 2.5 2.5 2.8 3.1 3.2 3.1 3.9 4.0 3.8 3.5 3.1 3.0 3.1 3.4 3.6 3.9 3.9 3.9 4.2 4.4 4.5 4.2 3.9 3.7 3.4 3.1 2.9 2.7

GFSWCAN_prec_snow_045.txt.gz
Snowfall_Accumulation
0.0 0.0 0.0 0.0 0.0 0.0 0.0 0.0 0.0 0.0 0.0 0.0 0.0 0.0 0.0 0.0 0.0 0.0 0.0 0.0 0.0 0.0 0.0 0.0 0.0 0.0 0.0 0.0 0.0 0.0 0.0 0.0 0.0 0.3 0.0 0.0 0.1 0.0 0.0 0.0 0.0 0.0 0.1 0.4 0.4 0.7 0.0 0.0 0.0 0.0 0.0 0.0 0.0 0.0
0.0 0.0 0.0 0.0 0.0 0.0 0.0 0.0 0.0 0.0 0.0 0.0 0.0 0.0 0.0 0.0 0.0 0.0 0.0 0.0 0.0 0.1 0.0 0.0 0.0 0.0 0.0 0.0 0.0 0.0 0.0 0.0 0.0 0.0 0.0 0.0 0.0 0.0 0.0 0.0 0.0 0.0 0.0 0.0 0.0 0.0 0.0 0.0 0.0 0.0 0.0 0.0 0.0 0.0
0.0 0.0 0.0 0.0 0.0 0.0 0.0 0.0 0.0 0.0 0.0 0.0 0.0 0.0 0.0 0.0 0.0 0.0 0.0 0.0 0.0 0.4 0.0 0.0 0.0 0.0 0.0 0.0 0.0 0.0 0.0 0.0 0.0 0.1 0.2 0.0 0.0 0.0 0.1 0.0 0.0 0.0 0.0 0.0 0.0 0.0 0.0 0.0 0.0 0.0 0.0 0.0 0.0 0.0
0.0 0.0 0.0 0.0 0.0 0.0 0.0 0.0 0.0 0.0 0.0 0.0 0.0 0.0 0.0 0.0 0.0 0.0 0.0 0.0 0.0 0.6 1.6 0.0 0.0 0.0 0.0 0.0 0.0 0.0 0.0 0.0 0.0 0.7 0.6 0.3 0.3 0.0 0.0 0.0 0.0 0.0 0.0 0.0 0.0 0.0 0.0 0.0 0.0 0.0 0.0 0.0 0.0 0.0
0.0 0.0 0.0 0.0 0.0 0.0 0.0 0.0 0.0 0.0 0.0 0.0 0.0 0.0 0.0 0.0 0.0 0.0 0.0 0.0 0.0 0.7 2.6 1.1 0.0 0.0 0.0 0.0 0.0 0.0 0.0 0.0 0.4 1.1 1.7 1.0 0.0 0.0 0.0 0.0 0.0 0.0 0.0 0.0 0.0 0.0 0.0 0.0 0.0 0.0 0.0 0.0 0.0 0.0
0.0 0.0 0.0 0.0 0.0 0.0 0.0 0.0 0.0 0.0 0.0 0.0 0.0 0.0 0.0 0.0 0.0 0.0 0.0 0.0 0.0 0.0 3.6 3.2 0.0 0.0 0.0 0.0 0.0 0.0 0.0 0.0 1.3 0.9 2.2 0.0 0.0 0.0 0.9 0.1 0.0 0.0 0.0 0.0 0.0 0.0 0.0 0.0 0.0 0.0 0.0 0.0 0.0 0.0
0.0 0.0 0.0 0.0 0.0 0.0 0.0 0.0 0.0 0.0 0.0 0.0 0.0 0.0 0.0 0.0 0.0 0.2 0.6 0.0 0.0 0.0 4.1 7.5 4.4 0.6 0.0 0.0 0.0 0.0 0.0 0.3 3.1 2.8 0.0 1.9 1.4 1.8 1.6 0.0 0.0 0.0 0.0 0.0 0.0 0.0 0.0 0.0 0.0 0.0 0.0 0.0 0.0 0.0
0.0 0.0 0.0 0.0 0.0 0.0 0.0 0.0 0.0 0.0 0.0 0.0 0.0 0.0 0.0 0.0 0.0 0.0 0.0 0.0 0.0 3.7 6.9 10.0 8.2 6.9 0.0 0.0 0.0 0.0 0.0 0.2 5.2 1.5 0.0 0.6 0.0 2.1 1.5 0.0 0.0 0.0 0.0 0.0 0.0 0.0 0.0 0.0 0.0 0.0 0.0 0.0 0.0 0.0
0.0 0.0 0.0 0.0 0.0 0.0 0.0 0.0 0.0 0.0 0.0 0.0 0.0 0.0 0.0 0.0 0.0 0.0 0.0 0.0 0.0 0.2 7.7 7.1 8.9 7.9 0.6 0.3 0.2 0.0 0.0 2.0 0.9 1.5 0.0 0.0 1.2 2.4 0.0 0.0 0.0 0.0 0.0 0.0 0.0 0.0 0.0 0.0 0.0 0.0 0.0 0.0 0.0 0.0
0.0 0.0 0.0 0.0 0.0 0.0 0.0 0.0 0.0 0.0 0.0 0.0 0.0 0.0 0.6 0.0 0.0 0.0 0.0 3.2 4.7 4.6 4.6 6.0 4.3 2.7 2.4 4.7 1.1 1.1 0.3 3.3 5.4 0.0 0.0 1.6 0.0 0.0 0.0 0.0 0.0 0.0 0.0 0.0 0.0 0.0 0.0 0.0 0.0 0.0 0.0 0.0 0.0 0.0
0.0 0.0 0.0 0.0 0.0 0.0 0.0 0.0 0.0 0.0 0.0 0.0 0.1 0.5 0.0 0.0 0.0 0.1 6.5 5.2 3.1 2.7 3.7 3.7 3.0 3.3 0.0 4.3 2.3 0.6 3.4 2.5 6.5 3.1 0.8 1.2 1.7 0.4 0.0 0.0 0.0 0.0 0.0 0.0 0.0 0.0 0.0 0.0 0.0 0.0 0.0 0.0 0.0 0.0
0.0 0.0 0.0 0.0 0.0 0.0 0.0 0.0 0.0 0.0 0.0 0.0 0.0 0.0 0.0 3.5 7.0 9.5 9.1 1.7 1.3 1.8 1.7 1.8 1.2 0.6 1.7 0.0 2.6 1.8 2.7 2.2 2.1 0.6 2.2 2.2 1.8 1.4 0.9 0.0 0.0 0.0 0.0 0.0 0.0 0.0 0.0 0.0 0.0 0.0 0.0 0.0 0.0 0.0
0.0 0.0 0.0 0.0 0.0 0.0 0.0 0.0 0.0 0.0 0.0 0.0 0.4 1.5 2.9 5.5 7.1 5.2 4.1 1.7 0.6 0.5 0.6 1.0 1.3 0.3 0.0 0.3 2.3 2.3 1.8 0.8 0.0 1.1 0.4 0.4 0.0 0.0 0.0 0.7 0.5 0.4 0.0 0.0 0.0 0.0 0.0 0.0 0.0 0.0 0.0 0.0 0.0 0.0
0.0 0.0 0.0 0.0 0.0 0.0 0.0 0.0 0.0 0.0 0.0 0.1 0.7 1.3 2.3 3.0 3.2 2.4 1.3 1.1 0.0 0.3 0.0 0.1 1.0 1.8 0.4 1.9 1.9 2.1 0.6 0.7 0.9 1.0 1.1 0.3 0.2 0.0 0.0 0.0 0.0 0.0 0.1 0.2 0.1 0.0 0.0 0.0 0.0 0.0 0.0 0.0 0.0 0.0
0.0 0.0 0.0 0.0 0.0 0.0 0.0 0.0 0.0 0.0 0.0 0.0 0.9 1.2 1.2 1.8 0.8 0.4 0.1 0.5 0.0 0.0 0.0 0.0 0.1 0.6 1.4 2.2 1.8 1.4 0.8 0.9 1.3 2.0 1.3 0.6 0.6 0.3 0.0 0.0 0.0 0.0 0.0 0.0 0.0 0.1 0.0 0.0 0.0 0.0 0.0 0.0 0.0 0.4
0.0 0.0 0.0 0.0 0.0 0.0 0.0 0.0 0.0 0.0 0.0 0.1 0.6 1.2 0.9 0.6 0.3 0.1 0.0 0.1 0.0 0.0 0.1 0.3 0.5 1.2 1.0 2.4 1.3 1.9 2.7 2.8 2.0 1.4 0.8 0.4 0.7 0.0 0.2 0.0 0.0 0.0 0.0 0.0 0.0 0.0 0.0 0.0 0.0 0.0 0.0 0.0 0.0 1.0
0.0 0.0 0.0 0.0 0.0 0.0 0.0 0.0 0.0 0.0 0.1 0.0 0.2 0.7 0.8 0.4 0.4 0.3 0.0 0.0 0.0 0.2 1.3 2.0 2.3 0.7 0.6 1.2 0.6 0.5 1.5 1.3 0.9 0.0 0.1 0.0 0.1 0.0 0.0 0.0 0.0 0.0 0.0 0.0 0.0 0.0 0.0 0.2 0.1 0.0 0.0 0.0 0.0 0.0
0.0 0.0 0.0 0.0 0.0 0.0 0.0 0.0 0.0 0.0 0.0 0.0 0.0 0.0 0.0 0.0 0.3 0.3 0.0 0.0 0.0 0.4 1.8 5.0 2.5 1.5 0.3 0.1 0.0 0.2 0.0 0.0 0.2 0.0 0.2 0.0 0.0 0.0 0.0 0.0 0.0 0.2 0.7 1.1 0.9 0.8 0.6 0.2 0.0 0.0 0.0 0.0 0.0 0.0
0.0 0.0 0.0 0.0 0.0 0.0 0.0 0.0 0.0 0.0 0.0 0.0 0.0 0.0 0.0 0.0 0.0 0.0 0.0 0.0 0.0 0.0 0.3 3.0 2.2 0.3 0.0 0.0 0.0 0.0 0.0 0.0 0.0 0.0 0.0 0.0 0.0 0.0 0.0 0.3 0.3 0.4 0.8 0.5 0.0 0.0 0.0 0.0 0.0 0.0 0.0 0.0 0.0 0.0
0.0 0.0 0.0 0.0 0.0 0.0 0.0 0.0 0.0 0.0 0.0 0.0 0.0 0.0 0.0 0.0 0.0 0.0 0.0 0.3 0.5 2.0 2.3 1.9 0.0 0.2 0.1 0.3 0.3 0.1 0.0 0.0 0.0 0.0 0.0 0.0 0.0 0.0 0.0 0.0 0.1 0.4 0.2 0.0 0.0 0.0 0.0 0.0 0.0 0.0 0.0 0.0 0.0 0.0
0.0 0.0 0.0 0.0 0.4 0.1 0.0 0.0 0.0 0.0 0.0 0.0 0.0 0.0 0.0 0.0 0.0 0.0 0.0 1.2 2.2 3.1 2.3 1.3 0.2 0.1 0.0 0.5 0.2 0.0 0.0 0.0 0.0 0.0 0.0 0.0 0.0 0.0 0.0 0.0 0.0 0.0 0.0 0.0 0.0 0.0 0.0 0.0 0.0 0.0 0.0 0.0 0.0 0.0
0.9 0.0 2.5 2.7 1.6 0.3 0.2 0.0 0.0 0.0 0.0 0.0 0.0 0.0 0.0 0.0 0.0 0.0 0.0 1.6 2.7 1.6 1.2 0.9 0.9 0.6 0.2 0.0 0.7 0.7 0.5 0.0 0.0 0.0 0.0 0.0 0.0 0.0 0.0 0.0 0.0 0.0 0.0 0.0 0.0 0.0 0.0 0.0 0.0 0.0 0.0 0.0 0.0 0.0
0.8 2.4 3.2 2.3 1.3 0.9 0.1 0.1 0.1 0.0 0.0 0.0 0.0 0.0 0.0 0.0 0.0 0.0 0.8 1.0 1.2 0.9 0.7 0.6 0.7 1.6 1.7 1.4 1.4 1.1 0.6 0.1 0.0 0.2 0.1 0.0 0.0 0.0 0.0 0.0 0.0 0.0 0.0 0.0 0.0 0.0 0.0 0.0 0.0 0.0 0.0 0.0 0.0 0.0
0.0 2.8 2.7 1.9 1.3 0.5 0.3 0.0 0.1 0.0 0.0 0.0 0.0 0.0 0.0 0.0 0.0 0.0 0.5 0.3 0.3 0.2 0.8 1.0 0.9 0.7 0.5 1.2 1.4 1.7 1.9 1.2 0.3 0.0 0.6 0.3 0.1 0.0 0.0 0.0 0.0 0.0 0.0 0.0 0.0 0.0 0.0 0.0 0.0 0.0 0.0 0.0 0.0 0.0
4.2 3.7 2.5 2.2 0.9 0.5 0.1 0.1 0.0 0.0 0.0 0.0 0.1 0.0 0.0 0.0 0.1 0.1 0.0 0.0 0.0 0.1 0.3 0.8 0.9 0.9 0.9 0.7 1.0 1.0 1.0 1.2 1.8 1.9 0.1 1.3 0.6 0.2 0.0 0.0 0.3 0.0 0.0 0.1 0.1 0.0 0.0 0.0 0.0 0.0 0.0 0.0 0.0 0.0
4.6 1.6 0.7 0.1 0.0 0.0 0.0 0.0 0.0 0.0 0.0 0.0 0.1 0.0 0.0 0.0 0.1 0.0 0.0 0.0 0.1 0.2 0.2 0.3 0.7 0.7 0.5 0.5 0.7 1.2 1.2 1.1 1.0 1.7 1.1 1.6 1.3 1.6 1.6 0.0 1.0 0.5 0.1 0.0 0.4 0.4 0.2 0.1 0.0 0.0 0.0 0.0 0.1 0.0
2.2 0.7 0.0 0.0 0.0 0.0 0.0 0.0 0.0 0.0 0.0 0.1 0.0 0.0 0.0 0.2 0.0 0.0 0.0 0.0 0.0 0.2 0.3 0.6 1.2 1.1 0.8 0.8 0.8 1.2 1.4 1.5 1.4 1.1 1.4 3.2 3.1 2.1 0.9 1.4 1.3 1.0 0.6 0.3 0.8 0.5 0.4 0.4 0.3 0.4 0.4 0.4 0.3 0.3
0.3 0.0 0.0 0.0 0.0 0.0 0.0 0.1 0.1 0.1 0.0 0.0 0.3 0.2 0.1 0.0 0.0 0.0 0.0 0.0 0.0 0.0 0.4 0.7 1.1 1.5 1.3 1.1 1.2 1.6 1.8 2.0 2.2 2.1 3.0 3.5 3.8 3.6 2.9 2.5 2.1 2.5 2.3 1.6 1.1 1.2 1.0 0.7 0.5 1.1 0.9 0.8 0.8 0.6
0.1 0.0 0.0 0.0 0.0 0.0 0.0 0.0 0.0 0.0 0.0 0.0 0.0 0.0 0.0 0.0 0.0 0.0 0.0 0.0 0.0 0.4 0.6 0.8 1.1 1.2 1.6 1.7 1.7 2.2 2.3 2.3 1.9 1.5 1.2 1.5 2.7 3.7 3.9 3.6 4.2 4.3 2.9 3.0 2.6 2.3 1.6 2.0 1.8 1.9 2.1 2.2 2.0 1.9
0.0 0.0 0.0 0.0 0.0 0.0 0.0 0.0 0.0 0.0 0.0 0.0 0.0 0.0 0.0 0.0 0.0 0.0 0.0 0.0 0.0 0.7 1.0 1.4 1.4 1.5 2.0 2.0 2.0 1.9 2.4 2.6 2.5 1.3 1.1 1.4 1.8 2.7 4.0 4.0 4.2 4.5 4.4 4.0 4.6 5.2 4.9 4.8 4.9 4.5 3.6 3.4 3.3 2.9
0.0 0.0 0.0 0.0 0.0 0.0 0.0 0.0 0.0 0.0 0.0 0.0 0.0 0.0 0.0 0.0 0.0 0.0 0.1 0.3 0.7 1.1 1.5 1.9 2.1 2.6 2.7 2.9 2.9 2.5 2.5 3.0 3.3 3.6 2.9 2.9 2.9 3.1 3.7 4.0 3.8 4.2 4.3 4.1 3.6 3.4 3.4 2.9 2.5 2.6 2.5 2.5 2.3 2.1
0.0 0.0 0.0 0.0 0.0 0.0 0.0 0.0 0.0 0.0 0.0 0.0 0.0 0.0 0.0 0.0 0.0 0.0 0.2 0.4 0.9 1.2 1.6 1.9 2.1 2.6 3.1 3.1 3.2 3.3 2.6 2.9 2.9 3.7 3.2 2.8 2.7 2.2 2.9 3.3 3.9 3.9 4.1 4.0 3.5 3.6 3.5 3.5 3.6 3.3 3.2 3.2 3.0 2.6
0.6 0.3 0.2 0.1 0.0 0.0 0.0 0.0 0.0 0.0 0.0 0.0 0.0 0.0 0.0 0.0 0.0 0.2 0.3 0.5 1.0 1.2 1.4 2.1 2.5 2.5 2.5 2.5 2.8 3.1 3.2 3.1 3.9 4.0 3.8 3.5 3.1 3.0 3.1 3.4 3.6 3.9 3.9 3.9 4.2 4.4 4.5 4.2 3.9 3.7 3.4 3.1 2.9 2.7

GFSWCAN_prec_snow_048.txt.gz
Snowfall_Accumulation
0.0 0.0 0.0 0.0 0.0 0.0 0.0 0.0 0.0 0.0 0.0 0.0 0.0 0.0 0.0 0.0 0.0 0.0 0.0 0.0 0.0 0.0 0.0 0.0 0.0 0.0 0.0 0.0 0.0 0.0 0.0 0.0 0.0 0.3 0.0 0.0 0.1 0.0 0.0 0.0 0.0 0.0 0.1 0.4 0.4 0.7 0.0 0.0 0.0 0.0 0.0 0.0 0.0 0.0
0.0 0.0 0.0 0.0 0.0 0.0 0.0 0.0 0.0 0.0 0.0 0.0 0.0 0.0 0.0 0.0 0.0 0.0 0.0 0.0 0.0 0.1 0.0 0.0 0.0 0.0 0.0 0.0 0.0 0.0 0.0 0.0 0.0 0.0 0.1 0.0 0.0 0.0 0.0 0.0 0.0 0.0 0.0 0.0 0.0 0.0 0.0 0.0 0.0 0.0 0.0 0.0 0.0 0.0
0.0 0.0 0.0 0.0 0.0 0.0 0.0 0.0 0.0 0.0 0.0 0.0 0.0 0.0 0.0 0.0 0.0 0.0 0.0 0.0 0.0 0.4 0.0 0.0 0.0 0.0 0.0 0.0 0.0 0.0 0.0 0.0 0.0 0.1 0.2 0.0 0.0 0.0 0.1 0.0 0.0 0.0 0.0 0.0 0.0 0.0 0.0 0.0 0.0 0.0 0.0 0.0 0.0 0.0
0.0 0.0 0.0 0.0 0.0 0.0 0.0 0.0 0.0 0.0 0.0 0.0 0.0 0.0 0.0 0.0 0.0 0.0 0.0 0.0 0.0 0.6 1.6 0.0 0.0 0.0 0.0 0.0 0.0 0.0 0.0 0.0 0.0 0.7 0.6 0.3 0.3 0.0 0.0 0.0 0.0 0.0 0.0 0.0 0.0 0.0 0.0 0.0 0.0 0.0 0.0 0.0 0.0 0.0
0.0 0.0 0.0 0.0 0.0 0.0 0.0 0.0 0.0 0.0 0.0 0.0 0.0 0.0 0.0 0.0 0.0 0.0 0.0 0.0 0.0 0.7 2.6 1.1 0.0 0.0 0.0 0.0 0.0 0.0 0.0 0.0 0.4 1.1 1.7 1.0 0.0 0.0 0.0 0.0 0.0 0.0 0.0 0.0 0.0 0.0 0.0 0.0 0.0 0.0 0.0 0.0 0.0 0.0
0.0 0.0 0.0 0.0 0.0 0.0 0.0 0.0 0.0 0.0 0.0 0.0 0.0 0.0 0.0 0.0 0.0 0.0 0.0 0.0 0.0 0.0 3.6 3.2 0.0 0.0 0.0 0.0 0.0 0.0 0.0 0.0 1.3 0.9 2.2 0.0 0.0 0.0 0.9 0.1 0.0 0.0 0.0 0.0 0.0 0.0 0.0 0.0 0.0 0.0 0.0 0.0 0.0 0.0
0.0 0.0 0.0 0.0 0.0 0.0 0.0 0.0 0.0 0.0 0.0 0.0 0.0 0.0 0.0 0.0 0.0 0.2 0.6 0.0 0.0 0.0 4.1 7.5 4.4 0.6 0.0 0.0 0.0 0.0 0.0 0.3 3.1 2.8 0.0 1.9 1.4 1.8 1.6 0.0 0.0 0.0 0.0 0.0 0.0 0.0 0.0 0.0 0.0 0.0 0.0 0.0 0.0 0.0
0.0 0.0 0.0 0.0 0.0 0.0 0.0 0.0 0.0 0.0 0.0 0.0 0.0 0.0 0.0 0.0 0.0 0.0 0.0 0.0 0.0 3.7 6.9 10.0 8.2 6.9 0.0 0.0 0.0 0.0 0.0 0.2 5.2 1.5 0.0 0.6 0.0 2.1 1.5 0.0 0.0 0.0 0.0 0.0 0.0 0.0 0.0 0.0 0.0 0.0 0.0 0.0 0.0 0.0
0.0 0.0 0.0 0.0 0.0 0.0 0.0 0.0 0.0 0.0 0.0 0.0 0.0 0.0 0.0 0.0 0.0 0.0 0.0 0.0 0.0 0.2 7.7 7.1 8.9 7.9 0.6 0.3 0.2 0.1 0.0 2.0 0.9 1.5 0.0 0.0 1.2 2.4 0.0 0.0 0.0 0.0 0.0 0.0 0.0 0.0 0.0 0.0 0.0 0.0 0.0 0.0 0.0 0.0
0.0 0.0 0.0 0.0 0.0 0.0 0.0 0.0 0.0 0.0 0.0 0.0 0.0 0.0 0.6 0.0 0.0 0.0 0.0 3.2 4.7 4.6 4.6 6.0 4.3 2.7 2.4 4.7 1.1 1.2 0.3 3.3 5.4 0.0 0.0 1.6 0.0 0.0 0.0 0.0 0.0 0.0 0.0 0.0 2.5 1.0 0.0 0.0 0.0 0.0 0.0 0.0 0.0 0.0
0.0 0.0 0.0 0.0 0.0 0.0 0.0 0.0 0.0 0.0 0.0 0.0 0.1 0.5 0.0 0.0 0.0 0.1 6.5 5.2 3.1 2.7 3.7 3.7 3.0 3.3 0.0 4.4 2.3 0.7 3.4 2.5 6.5 3.1 0.8 1.2 2.2 0.8 0.0 0.0 0.0 0.0 0.0 0.0 0.0 0.5 0.0 0.0 0.0 0.0 0.0 0.0 0.0 0.0
0.0 0.0 0.0 0.0 0.0 0.0 0.0 0.0 0.0 0.0 0.0 0.0 0.0 0.0 0.0 3.5 7.0 9.5 9.1 1.7 1.3 1.8 1.7 1.8 1.2 0.6 1.7 0.0 2.8 1.8 2.9 2.4 2.1 0.9 2.5 2.8 2.3 1.4 1.9 0.6 0.0 0.0 0.0 0.0 0.0 0.0 0.0 0.0 0.0 0.0 0.0 0.0 0.0 0.0
0.0 0.0 0.0 0.0 0.0 0.0 0.0 0.0 0.0 0.0 0.0 0.0 0.4 1.5 2.9 5.5 7.1 5.2 4.1 1.7 0.6 0.5 0.6 1.0 1.3 0.3 0.0 0.3 2.4 2.7 2.1 0.9 0.5 1.7 1.6 1.4 0.5 0.0 0.5 1.7 1.6 1.1 0.0 1.2 1.7 0.0 0.1 0.0 0.0 0.0 0.0 0.0 0.0 0.0
0.0 0.0 0.0 0.0 0.0 0.0 0.0 0.0 0.0 0.0 0.0 0.1 0.7 1.3 2.3 3.0 3.2 2.4 1.3 1.1 0.0 0.3 0.0 0.1 1.0 1.8 0.4 1.9 1.9 2.4 0.6 1.1 2.1 2.4 2.0 0.3 0.5 0.4 0.2 0.4 0.7 0.8 0.7 1.4 2.7 2.0 0.5 0.0 0.0 0.0 0.0 0.0 0.0 0.0
0.0 0.0 0.0 0.0 0.0 0.0 0.0 0.0 0.0 0.0 0.0 0.0 0.9 1.2 1.2 1.8 0.8 0.4 0.1 0.5 0.0 0.0 0.0 0.0 0.1 0.6 1.4 2.2 1.8 1.9 2.1 3.4 2.8 2.6 1.3 0.6 0.6 0.8 0.5 0.3 0.2 0.5 0.7 0.8 1.0 1.6 1.5 0.0 0.0 0.0 0.0 0.0 0.0 0.4
0.0 0.0 0.0 0.0 0.0 0.0 0.0 0.0 0.0 0.0 0.0 0.1 0.6 1.2 0.9 0.6 0.3 0.1 0.0 0.1 0.0 0.0 0.1 0.3 0.5 1.2 1.0 2.5 1.3 1.9 2.7 2.8 2.0 1.4 0.8 0.4 0.7 0.0 0.2 0.3 0.0 0.0 0.0 0.2 0.3 0.5 0.4 0.1 0.0 0.0 0.0 0.0 0.0 1.0
0.0 0.0 0.0 0.0 0.0 0.0 0.0 0.0 0.0 0.0 0.1 0.0 0.2 0.7 0.8 0.4 0.4 0.3 0.0 0.0 0.0 0.2 1.3 2.0 2.3 0.7 0.6 1.2 0.6 0.5 1.5 1.3 0.9 0.0 0.1 0.0 0.1 0.0 0.0 0.0 0.0 0.0 0.0 0.0 0.6 0.6 0.6 0.7 0.2 0.0 0.0 0.0 0.0 0.0
0.0 0.0 0.0 0.0 0.0 0.0 0.0 0.0 0.0 0.0 0.0 0.0 0.0 0.0 0.0 0.0 0.3 0.3 0.0 0.0 0.0 0.4 1.8 5.0 2.5 1.5 0.3 0.1 0.0 0.2 0.0 0.0 0.2 0.0 0.2 0.0 0.0 0.0 0.0 0.0 0.0 0.2 0.7 1.7 1.5 1.3 0.6 1.0 0.5 0.3 0.0 0.0 0.0 0.0
0.0 0.0 0.0 0.0 0.0 0.0 0.0 0.0 0.0 0.0 0.0 0.0 0.0 0.0 0.0 0.0 0.0 0.0 0.0 0.0 0.0 0.0 0.3 3.0 2.2 0.3 0.0 0.0 0.0 0.0 0.0 0.0 0.0 0.0 0.0 0.0 0.0 0.0 0.0 0.3 0.3 0.7 1.7 1.1 0.1 0.0 0.0 0.0 0.3 0.2 0.0 0.0 0.0 0.0
0.0 0.0 0.0 0.0 0.0 0.0 0.0 0.0 0.0 0.0 0.0 0.0 0.0 0.0 0.0 0.0 0.0 0.0 0.0 0.3 0.5 2.0 2.3 1.9 0.0 0.2 0.1 0.3 0.3 0.1 0.0 0.0 0.0 0.0 0.0 0.0 0.0 0.0 0.0 0.0 0.1 0.4 0.7 0.5 0.4 0.2 0.0 0.0 0.0 0.0 0.0 0.0 0.0 0.0
0.0 0.0 0.0 0.0 0.4 0.1 0.0 0.0 0.0 0.0 0.0 0.0 0.0 0.0 0.0 0.0 0.0 0.0 0.0 1.2 2.2 3.1 2.3 1.3 0.2 0.1 0.0 0.5 0.2 0.0 0.0 0.0 0.0 0.0 0.0 0.0 0.0 0.0 0.0 0.0 0.0 0.0 0.0 0.2 0.2 0.1 0.0 0.0 0.0 0.0 0.0 0.0 0.0 0.0
0.9 0.0 2.5 2.7 1.6 0.3 0.2 0.0 0.0 0.0 0.0 0.0 0.0 0.0 0.0 0.0 0.0 0.0 0.0 1.6 2.7 1.6 1.2 0.9 0.9 0.6 0.2 0.0 0.7 0.7 0.5 0.0 0.0 0.0 0.0 0.0 0.0 0.0 0.0 0.0 0.0 0.0 0.0 0.0 0.0 0.0 0.0 0.0 0.0 0.0 0.0 0.0 0.0 0.0
0.8 2.4 3.2 2.3 1.3 0.9 0.1 0.1 0.1 0.0 0.0 0.0 0.0 0.0 0.0 0.0 0.0 0.0 0.8 1.0 1.2 0.9 0.7 0.6 0.7 1.6 1.7 1.4 1.4 1.1 0.6 0.1 0.0 0.2 0.1 0.0 0.0 0.0 0.0 0.0 0.0 0.0 0.0 0.0 0.0 0.0 0.0 0.0 0.0 0.0 0.0 0.0 0.0 0.0
0.0 2.8 2.7 1.9 1.3 0.5 0.3 0.0 0.1 0.0 0.0 0.0 0.0 0.0 0.0 0.0 0.0 0.0 0.5 0.3 0.3 0.2 0.8 1.0 0.9 0.7 0.5 1.2 1.4 1.7 1.9 1.2 0.3 0.0 0.6 0.3 0.1 0.0 0.0 0.0 0.0 0.0 0.0 0.0 0.0 0.0 0.0 0.0 0.0 0.0 0.0 0.0 0.0 0.0
4.2 3.7 2.5 2.2 0.9 0.5 0.1 0.1 0.0 0.0 0.0 0.0 0.1 0.0 0.0 0.0 0.1 0.1 0.0 0.0 0.0 0.1 0.3 0.8 0.9 0.9 0.9 0.7 1.0 1.0 1.0 1.2 1.8 1.9 0.1 1.3 0.6 0.2 0.0 0.0 0.3 0.0 0.0 0.1 0.1 0.0 0.0 0.0 0.0 0.0 0.0 0.0 0.0 0.0
4.6 1.6 0.7 0.1 0.0 0.0 0.0 0.0 0.0 0.0 0.0 0.0 0.1 0.0 0.0 0.0 0.1 0.0 0.0 0.0 0.1 0.2 0.2 0.3 0.7 0.7 0.5 0.5 0.7 1.2 1.2 1.1 1.0 1.7 1.1 1.6 1.3 1.6 1.6 0.0 1.0 0.5 0.1 0.0 0.4 0.4 0.2 0.1 0.0 0.0 0.0 0.0 0.1 0.0
2.2 0.7 0.0 0.0 0.0 0.0 0.0 0.0 0.0 0.0 0.0 0.1 0.0 0.0 0.0 0.2 0.0 0.0 0.0 0.0 0.0 0.2 0.3 0.6 1.2 1.1 0.8 0.8 0.8 1.2 1.4 1.5 1.4 1.1 1.4 3.2 3.1 2.1 0.9 1.4 1.3 1.0 0.6 0.3 0.8 0.5 0.4 0.4 0.3 0.4 0.4 0.4 0.3 0.3
0.3 0.0 0.0 0.0 0.0 0.0 0.0 0.1 0.1 0.1 0.0 0.0 0.3 0.2 0.1 0.0 0.0 0.0 0.0 0.0 0.0 0.0 0.4 0.7 1.1 1.5 1.3 1.1 1.2 1.6 1.8 2.0 2.2 2.1 3.0 3.5 3.8 3.6 2.9 2.5 2.1 2.5 2.3 1.6 1.1 1.2 1.0 0.7 0.5 1.1 0.9 0.8 0.8 0.6
0.1 0.0 0.0 0.0 0.0 0.0 0.0 0.0 0.0 0.0 0.0 0.0 0.0 0.0 0.0 0.0 0.0 0.0 0.0 0.0 0.0 0.4 0.6 0.8 1.1 1.2 1.6 1.7 1.7 2.2 2.3 2.3 1.9 1.5 1.2 1.5 2.7 3.7 3.9 3.6 4.2 4.3 2.9 3.0 2.6 2.3 1.6 2.0 1.8 1.9 2.1 2.2 2.0 1.9
0.0 0.0 0.0 0.0 0.0 0.0 0.0 0.0 0.0 0.0 0.0 0.0 0.0 0.0 0.0 0.0 0.0 0.0 0.0 0.0 0.0 0.7 1.0 1.4 1.4 1.5 2.0 2.0 2.0 1.9 2.4 2.6 2.5 1.3 1.1 1.4 1.8 2.7 4.0 4.0 4.2 4.5 4.4 4.0 4.6 5.2 4.9 4.8 4.9 4.5 3.6 3.4 3.3 2.9
0.0 0.0 0.0 0.0 0.0 0.0 0.0 0.0 0.0 0.0 0.0 0.0 0.0 0.0 0.0 0.0 0.0 0.0 0.1 0.3 0.7 1.1 1.5 1.9 2.1 2.6 2.7 2.9 2.9 2.5 2.5 3.0 3.3 3.6 2.9 2.9 2.9 3.1 3.7 4.0 3.8 4.2 4.3 4.1 3.6 3.4 3.4 2.9 2.5 2.6 2.5 2.5 2.3 2.1
0.0 0.0 0.0 0.0 0.0 0.0 0.0 0.0 0.0 0.0 0.0 0.0 0.0 0.0 0.0 0.0 0.0 0.0 0.2 0.4 0.9 1.2 1.6 1.9 2.1 2.6 3.1 3.1 3.2 3.3 2.6 2.9 2.9 3.7 3.2 2.8 2.7 2.2 2.9 3.3 3.9 3.9 4.1 4.0 3.5 3.6 3.5 3.5 3.6 3.3 3.2 3.2 3.0 2.6
0.6 0.3 0.2 0.1 0.0 0.0 0.0 0.0 0.0 0.0 0.0 0.0 0.0 0.0 0.0 0.0 0.0 0.2 0.3 0.5 1.0 1.2 1.4 2.1 2.5 2.5 2.5 2.5 2.8 3.1 3.2 3.1 3.9 4.0 3.8 3.5 3.1 3.0 3.1 3.4 3.6 3.9 3.9 3.9 4.2 4.4 4.5 4.2 3.9 3.7 3.4 3.1 2.9 2.7

GFSWCAN_prec_snow_051.txt.gz
Snowfall_Accumulation
0.0 0.0 0.0 0.0 0.0 0.0 0.0 0.0 0.0 0.0 0.0 0.0 0.0 0.0 0.0 0.0 0.0 0.0 0.0 0.0 0.0 0.0 0.0 0.0 0.0 0.0 0.0 0.0 0.0 0.0 0.0 0.0 0.0 0.3 0.0 0.0 0.1 0.0 0.0 0.0 0.0 0.0 0.1 0.4 0.4 0.8 0.0 0.0 0.0 0.0 0.0 0.0 0.0 0.0
0.0 0.0 0.0 0.0 0.0 0.0 0.0 0.0 0.0 0.0 0.0 0.0 0.0 0.0 0.0 0.0 0.0 0.0 0.0 0.0 0.0 0.1 0.0 0.0 0.0 0.0 0.0 0.0 0.0 0.0 0.0 0.0 0.0 0.0 0.2 0.0 0.0 0.0 0.0 0.0 0.0 0.0 0.0 0.0 0.0 0.0 0.0 0.0 0.0 0.0 0.0 0.0 0.0 0.0
0.0 0.0 0.0 0.0 0.0 0.0 0.0 0.0 0.0 0.0 0.0 0.0 0.0 0.0 0.0 0.0 0.0 0.0 0.0 0.0 0.0 0.4 0.0 0.0 0.0 0.0 0.0 0.0 0.0 0.0 0.0 0.0 0.0 0.1 0.2 0.0 0.0 0.0 0.1 0.0 0.0 0.0 0.0 0.0 0.0 0.0 0.0 0.0 0.0 0.0 0.0 0.0 0.0 0.0
0.0 0.0 0.0 0.0 0.0 0.0 0.0 0.0 0.0 0.0 0.0 0.0 0.0 0.0 0.0 0.0 0.0 0.0 0.0 0.0 0.0 0.6 1.6 0.0 0.0 0.0 0.0 0.0 0.0 0.0 0.0 0.0 0.0 0.7 0.6 0.3 0.3 0.0 0.0 0.0 0.0 0.0 0.0 0.0 0.0 0.0 0.0 0.0 0.0 0.0 0.0 0.0 0.0 0.0
0.0 0.0 0.0 0.0 0.0 0.0 0.0 0.0 0.0 0.0 0.0 0.0 0.0 0.0 0.0 0.0 0.0 0.0 0.0 0.0 0.0 0.7 2.6 1.1 0.0 0.0 0.0 0.0 0.0 0.0 0.0 0.0 0.4 1.1 1.7 1.0 0.0 0.0 0.0 0.0 0.0 0.0 0.0 0.0 0.0 0.0 0.0 0.0 0.0 0.0 0.0 0.0 0.0 0.0
0.0 0.0 0.0 0.0 0.0 0.0 0.0 0.0 0.0 0.0 0.0 0.0 0.0 0.0 0.0 0.0 0.0 0.0 0.0 0.0 0.0 0.0 3.6 3.2 0.0 0.0 0.0 0.0 0.0 0.0 0.0 0.0 1.3 0.9 2.2 0.0 0.0 0.0 0.9 0.1 0.0 0.0 0.0 0.0 0.0 0.0 0.0 0.0 0.0 0.0 0.0 0.0 0.0 0.0
0.0 0.0 0.0 0.0 0.0 0.0 0.0 0.0 0.0 0.0 0.0 0.0 0.0 0.0 0.0 0.0 0.0 0.2 0.6 0.0 0.0 0.0 4.1 7.5 4.4 0.6 0.0 0.0 0.0 0.0 0.0 0.3 3.1 2.8 0.0 1.9 1.4 1.8 1.6 0.0 0.0 0.0 0.0 0.0 0.0 0.0 0.0 0.0 0.0 0.0 0.0 0.0 0.0 0.0
0.0 0.0 0.0 0.0 0.0 0.0 0.0 0.0 0.0 0.0 0.0 0.0 0.0 0.0 0.0 0.0 0.0 0.0 0.0 0.0 0.0 3.7 6.9 10.0 8.2 6.9 0.0 0.0 0.0 0.0 0.0 0.2 5.2 1.5 0.0 0.6 0.0 2.1 1.5 0.0 0.0 0.0 0.0 0.0 0.0 0.0 0.0 0.0 0.0 0.0 0.0 0.0 0.0 0.0
0.0 0.0 0.0 0.0 0.0 0.0 0.0 0.0 0.0 0.0 0.0 0.0 0.0 0.0 0.0 0.0 0.0 0.0 0.0 0.0 0.0 0.2 7.7 7.1 8.9 7.9 0.6 0.3 0.3 0.1 0.0 2.0 0.9 1.5 0.0 0.0 1.2 2.4 0.0 0.0 0.0 0.0 0.0 0.0 0.0 0.0 0.0 0.0 0.0 0.0 0.0 0.0 0.0 0.0
0.0 0.0 0.0 0.0 0.0 0.0 0.0 0.0 0.0 0.0 0.0 0.0 0.0 0.0 0.6 0.0 0.0 0.0 0.0 3.2 4.7 4.6 4.6 6.0 4.3 2.7 2.4 4.7 1.2 1.3 0.3 3.3 5.4 0.0 0.0 1.6 0.0 0.0 0.0 0.5 0.2 0.1 0.0 0.0 3.8 2.7 1.0 1.6 0.0 0.0 0.0 0.0 0.0 0.0
0.0 0.0 0.0 0.0 0.0 0.0 0.0 0.0 0.0 0.0 0.0 0.0 0.1 0.5 0.0 0.0 0.0 0.1 6.5 5.2 3.1 2.7 3.7 3.7 3.0 3.3 0.0 4.4 2.3 0.7 3.6 2.5 6.5 3.1 0.8 1.2 2.6 1.1 0.0 0.3 0.0 0.1 0.2 0.0 0.0 0.5 0.9 1.0 1.3 0.0 0.0 0.0 0.0 0.0
0.0 0.0 0.0 0.0 0.0 0.0 0.0 0.0 0.0 0.0 0.0 0.0 0.0 0.0 0.0 3.5 7.0 9.5 9.1 1.7 1.3 1.8 1.7 1.8 1.2 0.6 1.7 0.0 3.0 1.9 3.1 2.6 2.2 0.9 2.9 3.4 2.3 1.4 1.9 0.6 0.3 0.1 0.0 0.0 0.0 1.5 0.9 0.1 0.0 0.0 0.0 0.0 0.0 0.0
0.0 0.0 0.0 0.0 0.0 0.0 0.0 0.0 0.0 0.0 0.0 0.0 0.4 1.5 2.9 5.5 7.1 5.2 4.1 1.7 0.6 0.5 0.6 1.0 1.3 0.3 0.0 0.3 2.4 2.9 2.3 1.1 1.5 3.3 3.2 1.4 0.5 0.0 0.5 1.7 1.6 1.6 0.3 1.3 2.0 0.0 0.7 0.1 0.0 0.0 0.0 0.0 0.0 0.0
0.0 0.0 0.0 0.0 0.0 0.0 0.0 0.0 0.0 0.0 0.0 0.1 0.7 1.3 2.3 3.0 3.2 2.4 1.3 1.1 0.0 0.3 0.0 0.1 1.0 1.8 0.4 1.9 1.9 2.6 0.6 2.3 4.2 2.4 2.0 0.3 0.5 0.4 0.2 0.4 0.7 0.8 1.2 1.7 3.9 3.9 1.9 0.7 0.1 0.0 0.0 0.0 0.0 0.0
0.0 0.0 0.0 0.0 0.0 0.0 0.0 0.0 0.0 0.0 0.0 0.0 0.9 1.2 1.2 1.8 0.8 0.4 0.1 0.5 0.0 0.0 0.0 0.0 0.1 0.6 1.4 2.2 1.8 1.9 2.1 3.4 2.8 2.6 1.3 0.6 0.6 0.8 0.5 0.3 0.2 0.5 0.7 1.6 1.6 2.6 3.2 1.5 0.2 0.0 0.0 0.0 0.0 0.4
0.0 0.0 0.0 0.0 0.0 0.0 0.0 0.0 0.0 0.0 0.0 0.1 0.6 1.2 0.9 0.6 0.3 0.1 0.0 0.1 0.0 0.0 0.1 0.3 0.5 1.2 1.0 2.5 1.3 1.9 2.8 2.8 2.0 1.4 0.8 0.4 0.7 0.0 0.2 0.3 0.0 0.0 0.0 0.2 1.3 1.7 2.0 1.6 0.6 0.4 0.2 0.0 0.0 1.0
0.0 0.0 0.0 0.0 0.0 0.0 0.0 0.0 0.0 0.0 0.1 0.0 0.2 0.7 0.8 0.4 0.4 0.3 0.0 0.0 0.0 0.2 1.3 2.0 2.3 0.7 0.6 1.2 0.6 0.5 1.5 1.3 0.9 0.0 0.1 0.0 0.1 0.0 0.0 0.0 0.0 0.0 0.0 0.0 0.6 1.0 1.3 1.8 1.2 0.6 0.3 0.0 0.0 0.0
0.0 0.0 0.0 0.0 0.0 0.0 0.0 0.0 0.0 0.0 0.0 0.0 0.0 0.0 0.0 0.0 0.3 0.3 0.0 0.0 0.0 0.4 1.8 5.0 2.5 1.5 0.3 0.1 0.0 0.2 0.0 0.0 0.2 0.0 0.2 0.0 0.0 0.0 0.0 0.0 0.0 0.2 0.7 1.7 1.5 1.5 0.7 1.0 0.7 0.5 0.1 0.0 0.0 0.0
0.0 0.0 0.0 0.0 0.0 0.0 0.0 0.0 0.0 0.0 0.0 0.0 0.0 0.0 0.0 0.0 0.0 0.0 0.0 0.0 0.0 0.0 0.3 3.0 2.2 0.3 0.0 0.0 0.0 0.0 0.0 0.0 0.0 0.0 0.0 0.0 0.0 0.0 0.0 0.3 0.3 0.7 1.7 1.4 0.4 0.3 0.1 0.0 0.4 0.2 0.3 0.1 0.0 0.0
0.0 0.0 0.0 0.0 0.0 0.0 0.0 0.0 0.0 0.0 0.0 0.0 0.0 0.0 0.0 0.0 0.0 0.0 0.0 0.3 0.5 2.0 2.3 1.9 0.0 0.2 0.1 0.3 0.3 0.1 0.0 0.0 0.0 0.0 0.0 0.0 0.0 0.0 0.0 0.0 0.1 0.4 0.7 0.5 0.4 0.8 0.5 0.1 0.0 0.0 0.0 0.0 0.0 0.0
0.0 0.0 0.0 0.0 0.4 0.1 0.0 0.0 0.0 0.0 0.0 0.0 0.0 0.0 0.0 0.0 0.0 0.0 0.0 1.2 2.2 3.1 2.3 1.3 0.2 0.1 0.0 0.5 0.2 0.0 0.0 0.0 0.0 0.0 0.0 0.0 0.0 0.0 0.0 0.0 0.0 0.0 0.0 0.2 0.2 0.1 0.5 0.3 0.1 0.0 0.0 0.0 0.0 0.0
0.9 0.0 2.5 2.7 1.6 0.3 0.2 0.0 0.0 0.0 0.0 0.0 0.0 0.0 0.0 0.0 0.0 0.0 0.0 1.6 2.7 1.6 1.2 0.9 0.9 0.6 0.2 0.0 0.7 0.7 0.5 0.0 0.0 0.0 0.0 0.0 0.0 0.0 0.0 0.0 0.0 0.0 0.0 0.0 0.0 0.0 0.0 0.1 0.0 0.0 0.0 0.0 0.0 0.0
0.8 2.4 3.2 2.3 1.3 0.9 0.1 0.1 0.1 0.0 0.0 0.0 0.0 0.0 0.0 0.0 0.0 0.0 0.8 1.0 1.2 0.9 0.7 0.6 0.7 1.6 1.7 1.4 1.4 1.1 0.6 0.1 0.0 0.2 0.1 0.0 0.0 0.0 0.0 0.0 0.0 0.0 0.0 0.0 0.0 0.0 0.0 0.0 0.0 0.0 0.0 0.0 0.0 0.0
0.0 2.8 2.7 1.9 1.3 0.5 0.3 0.0 0.1 0.0 0.0 0.0 0.0 0.0 0.0 0.0 0.0 0.0 0.5 0.3 0.3 0.2 0.8 1.0 0.9 0.7 0.5 1.2 1.4 1.7 1.9 1.2 0.3 0.0 0.6 0.3 0.1 0.0 0.0 0.0 0.0 0.0 0.0 0.0 0.0 0.0 0.0 0.0 0.0 0.0 0.0 0.0 0.0 0.0
4.2 3.7 2.5 2.2 0.9 0.5 0.1 0.1 0.0 0.0 0.0 0.0 0.1 0.0 0.0 0.0 0.1 0.1 0.0 0.0 0.0 0.1 0.3 0.8 0.9 0.9 0.9 0.7 1.0 1.0 1.0 1.2 1.8 1.9 0.1 1.3 0.6 0.2 0.0 0.0 0.3 0.0 0.0 0.1 0.1 0.0 0.0 0.0 0.0 0.0 0.0 0.0 0.0 0.0
4.6 1.6 0.7 0.1 0.0 0.0 0.0 0.0 0.0 0.0 0.0 0.0 0.1 0.0 0.0 0.0 0.1 0.0 0.0 0.0 0.1 0.2 0.2 0.3 0.7 0.7 0.5 0.5 0.7 1.2 1.2 1.1 1.0 1.7 1.1 1.6 1.3 1.6 1.6 0.0 1.0 0.5 0.1 0.0 0.4 0.4 0.2 0.1 0.0 0.0 0.0 0.0 0.1 0.0
2.2 0.7 0.0 0.0 0.0 0.0 0.0 0.0 0.0 0.0 0.0 0.1 0.0 0.0 0.0 0.2 0.0 0.0 0.0 0.0 0.0 0.2 0.3 0.6 1.2 1.1 0.8 0.8 0.8 1.2 1.4 1.5 1.4 1.1 1.4 3.2 3.1 2.1 0.9 1.4 1.3 1.0 0.6 0.3 0.8 0.5 0.4 0.4 0.3 0.4 0.4 0.4 0.3 0.3
0.3 0.0 0.0 0.0 0.0 0.0 0.0 0.1 0.1 0.1 0.0 0.0 0.3 0.2 0.1 0.0 0.0 0.0 0.0 0.0 0.0 0.0 0.4 0.7 1.1 1.5 1.3 1.1 1.2 1.6 1.8 2.0 2.2 2.1 3.0 3.5 3.8 3.6 2.9 2.5 2.1 2.5 2.3 1.6 1.1 1.2 1.0 0.7 0.5 1.1 0.9 0.8 0.8 0.6
0.1 0.0 0.0 0.0 0.0 0.0 0.0 0.0 0.0 0.0 0.0 0.0 0.0 0.0 0.0 0.0 0.0 0.0 0.0 0.0 0.0 0.4 0.6 0.8 1.1 1.2 1.6 1.7 1.7 2.2 2.3 2.3 1.9 1.5 1.2 1.5 2.7 3.7 3.9 3.6 4.2 4.3 2.9 3.0 2.6 2.3 1.6 2.0 1.8 1.9 2.1 2.2 2.0 1.9
0.0 0.0 0.0 0.0 0.0 0.0 0.0 0.0 0.0 0.0 0.0 0.0 0.0 0.0 0.0 0.0 0.0 0.0 0.0 0.0 0.0 0.7 1.0 1.4 1.4 1.5 2.0 2.0 2.0 1.9 2.4 2.6 2.5 1.3 1.1 1.4 1.8 2.7 4.0 4.0 4.2 4.5 4.4 4.0 4.6 5.2 4.9 4.8 4.9 4.5 3.6 3.4 3.3 2.9
0.0 0.0 0.0 0.0 0.0 0.0 0.0 0.0 0.0 0.0 0.0 0.0 0.0 0.0 0.0 0.0 0.0 0.0 0.1 0.3 0.7 1.1 1.5 1.9 2.1 2.6 2.7 2.9 2.9 2.5 2.5 3.0 3.3 3.6 2.9 2.9 2.9 3.1 3.7 4.0 3.8 4.2 4.3 4.1 3.6 3.4 3.4 2.9 2.5 2.6 2.5 2.5 2.3 2.1
0.0 0.0 0.0 0.0 0.0 0.0 0.0 0.0 0.0 0.0 0.0 0.0 0.0 0.0 0.0 0.0 0.0 0.0 0.2 0.4 0.9 1.2 1.6 1.9 2.1 2.6 3.1 3.1 3.2 3.3 2.6 2.9 2.9 3.7 3.2 2.8 2.7 2.2 2.9 3.3 3.9 3.9 4.1 4.0 3.5 3.6 3.5 3.5 3.6 3.3 3.2 3.2 3.0 2.6
0.6 0.3 0.2 0.1 0.0 0.0 0.0 0.0 0.0 0.0 0.0 0.0 0.0 0.0 0.0 0.0 0.0 0.2 0.3 0.5 1.0 1.2 1.4 2.1 2.5 2.5 2.5 2.5 2.8 3.1 3.2 3.1 3.9 4.0 3.8 3.5 3.1 3.0 3.1 3.4 3.6 3.9 3.9 3.9 4.2 4.4 4.5 4.2 3.9 3.7 3.4 3.1 2.9 2.7

GFSWCAN_prec_snow_054.txt.gz
Snowfall_Accumulation
0.0 0.0 0.0 0.0 0.0 0.0 0.0 0.0 0.0 0.0 0.0 0.0 0.0 0.0 0.0 0.0 0.0 0.0 0.0 0.0 0.0 0.0 0.0 0.0 0.0 0.0 0.0 0.0 0.0 0.0 0.0 0.0 0.0 0.3 0.0 0.0 0.1 0.0 0.0 0.0 0.0 0.0 0.1 0.4 0.4 0.8 0.0 0.0 0.0 0.0 0.0 0.0 0.0 0.0
0.0 0.0 0.0 0.0 0.0 0.0 0.0 0.0 0.0 0.0 0.0 0.0 0.0 0.0 0.0 0.0 0.0 0.0 0.0 0.0 0.0 0.1 0.0 0.0 0.0 0.0 0.0 0.0 0.0 0.0 0.0 0.0 0.0 0.0 0.2 0.0 0.0 0.0 0.0 0.0 0.0 0.0 0.0 0.0 0.0 0.0 0.0 0.0 0.0 0.0 0.0 0.0 0.0 0.0
0.0 0.0 0.0 0.0 0.0 0.0 0.0 0.0 0.0 0.0 0.0 0.0 0.0 0.0 0.0 0.0 0.0 0.0 0.0 0.0 0.0 0.4 0.0 0.0 0.0 0.0 0.0 0.0 0.0 0.0 0.0 0.0 0.0 0.1 0.2 0.0 0.0 0.0 0.1 0.0 0.0 0.0 0.0 0.0 0.0 0.0 0.0 0.0 0.0 0.0 0.0 0.0 0.0 0.0
0.0 0.0 0.0 0.0 0.0 0.0 0.0 0.0 0.0 0.0 0.0 0.0 0.0 0.0 0.0 0.0 0.0 0.0 0.0 0.0 0.0 0.6 1.6 0.0 0.0 0.0 0.0 0.0 0.0 0.0 0.0 0.0 0.0 0.7 0.6 0.3 0.3 0.0 0.0 0.0 0.0 0.0 0.0 0.0 0.0 0.0 0.0 0.0 0.0 0.0 0.0 0.0 0.0 0.0
0.0 0.0 0.0 0.0 0.0 0.0 0.0 0.0 0.0 0.0 0.0 0.0 0.0 0.0 0.0 0.0 0.0 0.0 0.0 0.0 0.0 0.7 2.6 1.1 0.0 0.0 0.0 0.0 0.0 0.0 0.0 0.0 0.4 1.1 1.7 1.0 0.0 0.0 0.0 0.0 0.0 0.0 0.0 0.0 0.0 0.0 0.0 0.0 0.0 0.0 0.0 0.0 0.0 0.0
0.0 0.0 0.0 0.0 0.0 0.0 0.0 0.0 0.0 0.0 0.0 0.0 0.0 0.0 0.0 0.0 0.0 0.0 0.0 0.0 0.0 0.0 3.6 3.2 0.0 0.0 0.0 0.0 0.0 0.0 0.0 0.0 1.3 0.9 2.2 0.0 0.0 0.0 0.9 0.1 0.0 0.0 0.0 0.0 0.0 0.0 0.0 0.0 0.0 0.0 0.0 0.0 0.0 0.0
0.0 0.0 0.0 0.0 0.0 0.0 0.0 0.0 0.0 0.0 0.0 0.0 0.0 0.0 0.0 0.0 0.0 0.2 0.6 0.0 0.0 0.0 4.1 7.5 4.4 0.6 0.0 0.0 0.0 0.0 0.0 0.3 3.1 2.8 0.0 1.9 1.4 1.8 1.6 0.0 0.0 0.0 0.0 0.0 0.0 0.0 0.0 0.0 0.0 0.0 0.0 0.0 0.0 0.0
0.0 0.0 0.0 0.0 0.0 0.0 0.0 0.0 0.0 0.0 0.0 0.0 0.0 0.0 0.0 0.0 0.0 0.0 0.0 0.0 0.0 3.7 6.9 10.0 8.2 6.9 0.0 0.0 0.0 0.0 0.0 0.2 5.2 1.5 0.0 0.6 0.0 2.1 1.5 0.0 0.0 0.0 0.0 0.0 0.0 0.0 0.0 0.0 0.0 0.0 0.0 0.0 0.0 0.0
0.0 0.0 0.0 0.0 0.0 0.0 0.0 0.0 0.0 0.0 0.0 0.0 0.0 0.0 0.0 0.0 0.0 0.0 0.0 0.0 0.0 0.2 7.7 7.1 8.9 7.9 0.6 0.3 0.3 0.1 0.0 2.0 0.9 1.5 0.0 0.0 1.2 2.4 0.0 0.0 0.1 0.0 0.0 0.0 0.0 0.0 0.0 0.0 0.0 0.0 0.0 0.0 0.0 0.0
0.0 0.0 0.0 0.0 0.0 0.0 0.0 0.0 0.0 0.0 0.0 0.0 0.0 0.0 0.6 0.0 0.0 0.0 0.0 3.2 4.7 4.6 4.6 6.0 4.3 2.7 2.4 4.7 1.2 1.3 0.3 3.3 5.4 0.0 0.0 1.7 0.0 0.0 0.0 0.5 0.2 0.1 0.0 0.0 4.0 2.7 1.0 1.6 0.3 0.3 0.0 0.0 0.0 0.0
0.0 0.0 0.0 0.0 0.0 0.0 0.0 0.0 0.0 0.0 0.0 0.0 0.1 0.5 0.0 0.0 0.0 0.1 6.5 5.2 3.1 2.7 3.7 3.7 3.0 3.3 0.0 4.4 2.3 0.7 3.7 2.7 6.5 3.2 1.2 1.7 2.8 1.1 0.0 0.3 0.0 0.1 0.2 0.0 0.0 0.5 1.7 2.6 3.1 0.9 0.0 2.3 0.0 0.0
0.0 0.0 0.0 0.0 0.0 0.0 0.0 0.0 0.0 0.0 0.0 0.0 0.0 0.0 0.0 3.5 7.0 9.5 9.1 1.7 1.3 1.8 1.7 1.8 1.2 0.6 1.7 0.0 3.0 2.1 3.1 2.9 2.6 1.6 3.9 3.4 2.3 1.4 1.9 0.6 0.3 0.1 0.0 0.1 0.2 2.1 0.9 0.9 1.2 1.4 1.7 1.4 0.8 0.4
0.0 0.0 0.0 0.0 0.0 0.0 0.0 0.0 0.0 0.0 0.0 0.0 0.4 1.5 2.9 5.5 7.1 5.2 4.1 1.7 0.6 0.5 0.6 1.0 1.3 0.3 0.0 0.3 2.4 2.9 2.3 1.1 2.5 4.3 3.2 1.4 0.5 0.0 0.5 1.7 1.6 1.6 0.3 1.3 2.0 0.0 0.7 0.5 0.4 0.3 0.3 0.1 0.0 0.0
0.0 0.0 0.0 0.0 0.0 0.0 0.0 0.0 0.0 0.0 0.0 0.1 0.7 1.3 2.3 3.0 3.2 2.4 1.3 1.1 0.0 0.3 0.0 0.1 1.0 1.8 0.4 1.9 1.9 2.6 0.6 2.7 4.7 2.4 2.0 0.3 0.5 0.4 0.2 0.4 0.7 0.8 1.2 1.7 3.9 3.9 1.9 1.0 0.4 0.1 0.0 0.0 0.0 0.0
0.0 0.0 0.0 0.0 0.0 0.0 0.0 0.0 0.0 0.0 0.0 0.0 0.9 1.2 1.2 1.8 0.8 0.4 0.1 0.5 0.0 0.0 0.0 0.0 0.1 0.6 1.4 2.2 1.8 1.9 2.1 3.4 2.8 2.6 1.3 0.6 0.6 0.8 0.5 0.3 0.2 0.5 0.7 1.6 1.6 2.6 3.5 1.9 0.7 0.0 0.0 0.0 0.3 0.5
0.0 0.0 0.0 0.0 0.0 0.0 0.0 0.0 0.0 0.0 0.0 0.1 0.6 1.2 0.9 0.6 0.3 0.1 0.0 0.1 0.0 0.0 0.1 0.3 0.5 1.2 1.0 2.5 1.3 1.9 2.8 2.8 2.0 1.4 0.8 0.4 0.7 0.0 0.2 0.3 0.0 0.0 0.0 0.2 1.3 1.7 2.3 2.0 1.2 0.6 0.2 0.0 0.1 1.0
0.0 0.0 0.0 0.0 0.0 0.0 0.0 0.0 0.0 0.0 0.1 0.0 0.2 0.7 0.8 0.4 0.4 0.3 0.0 0.0 0.0 0.2 1.3 2.0 2.3 0.7 0.6 1.2 0.6 0.5 1.5 1.3 0.9 0.0 0.1 0.0 0.1 0.0 0.0 0.0 0.0 0.0 0.0 0.0 0.6 1.0 1.7 2.3 2.0 1.2 0.9 0.7 0.5 0.1
0.0 0.0 0.0 0.0 0.0 0.0 0.0 0.0 0.0 0.0 0.0 0.0 0.0 0.0 0.0 0.0 0.3 0.3 0.0 0.0 0.0 0.4 1.8 5.0 2.5 1.5 0.3 0.1 0.0 0.2 0.0 0.0 0.2 0.0 0.2 0.0 0.0 0.0 0.0 0.0 0.0 0.2 0.7 1.7 1.5 1.5 1.0 1.5 1.1 0.7 0.3 0.1 0.0 0.2
0.0 0.0 0.0 0.0 0.0 0.0 0.0 0.0 0.0 0.0 0.0 0.0 0.0 0.0 0.0 0.0 0.0 0.0 0.0 0.0 0.0 0.0 0.3 3.0 2.2 0.3 0.0 0.0 0.0 0.0 0.0 0.0 0.0 0.0 0.0 0.0 0.0 0.0 0.0 0.3 0.3 0.7 1.7 1.4 0.4 0.3 0.4 0.4 0.7 0.3 0.4 0.3 0.1 0.0
0.0 0.0 0.0 0.0 0.0 0.0 0.0 0.0 0.0 0.0 0.0 0.0 0.0 0.0 0.0 0.0 0.0 0.0 0.0 0.3 0.5 2.0 2.3 1.9 0.0 0.2 0.1 0.3 0.3 0.1 0.0 0.0 0.0 0.0 0.0 0.0 0.0 0.0 0.0 0.0 0.1 0.4 0.7 0.5 0.4 0.8 0.5 0.6 0.4 0.2 0.0 0.0 0.0 0.1
0.0 0.0 0.0 0.0 0.4 0.1 0.0 0.0 0.0 0.0 0.0 0.0 0.0 0.0 0.0 0.0 0.0 0.0 0.0 1.2 2.2 3.1 2.3 1.3 0.2 0.1 0.0 0.5 0.2 0.0 0.0 0.0 0.0 0.0 0.0 0.0 0.0 0.0 0.0 0.0 0.0 0.0 0.0 0.2 0.2 0.1 0.5 0.3 0.7 0.5 0.2 0.1 0.0 0.0
0.9 0.0 2.5 2.7 1.6 0.3 0.2 0.0 0.0 0.0 0.0 0.0 0.0 0.0 0.0 0.0 0.0 0.0 0.0 1.6 2.7 1.6 1.2 0.9 0.9 0.6 0.2 0.0 0.7 0.7 0.5 0.0 0.0 0.0 0.0 0.0 0.0 0.0 0.0 0.0 0.0 0.0 0.0 0.0 0.0 0.0 0.0 0.1 0.0 0.4 0.4 0.2 0.0 0.0
0.8 2.4 3.2 2.3 1.3 0.9 0.1 0.1 0.1 0.0 0.0 0.0 0.0 0.0 0.0 0.0 0.0 0.0 0.8 1.0 1.2 0.9 0.7 0.6 0.7 1.6 1.7 1.4 1.4 1.1 0.6 0.1 0.0 0.2 0.1 0.0 0.0 0.0 0.0 0.0 0.0 0.0 0.0 0.0 0.0 0.0 0.0 0.0 0.0 0.0 0.0 0.0 0.0 0.0
0.0 2.8 2.7 1.9 1.3 0.5 0.3 0.0 0.1 0.0 0.0 0.0 0.0 0.0 0.0 0.0 0.0 0.0 0.5 0.3 0.3 0.2 0.8 1.0 0.9 0.7 0.5 1.2 1.4 1.7 1.9 1.2 0.3 0.0 0.6 0.3 0.1 0.0 0.0 0.0 0.0 0.0 0.0 0.0 0.0 0.0 0.0 0.0 0.0 0.0 0.0 0.0 0.0 0.0
4.2 3.7 2.5 2.2 0.9 0.5 0.1 0.1 0.0 0.0 0.0 0.0 0.1 0.0 0.0 0.0 0.1 0.1 0.0 0.0 0.0 0.1 0.3 0.8 0.9 0.9 0.9 0.7 1.0 1.0 1.0 1.2 1.8 1.9 0.1 1.3 0.6 0.2 0.0 0.0 0.3 0.0 0.0 0.1 0.1 0.0 0.0 0.0 0.0 0.0 0.0 0.0 0.0 0.0
4.6 1.6 0.7 0.1 0.0 0.0 0.0 0.0 0.0 0.0 0.0 0.0 0.1 0.0 0.0 0.0 0.1 0.0 0.0 0.0 0.1 0.2 0.2 0.3 0.7 0.7 0.5 0.5 0.7 1.2 1.2 1.1 1.0 1.7 1.1 1.6 1.3 1.6 1.6 0.0 1.0 0.5 0.1 0.0 0.4 0.4 0.2 0.1 0.0 0.0 0.0 0.0 0.1 0.0
2.2 0.7 0.0 0.0 0.0 0.0 0.0 0.0 0.0 0.0 0.0 0.1 0.0 0.0 0.0 0.2 0.0 0.0 0.0 0.0 0.0 0.2 0.3 0.6 1.2 1.1 0.8 0.8 0.8 1.2 1.4 1.5 1.4 1.1 1.4 3.2 3.1 2.1 0.9 1.4 1.3 1.0 0.6 0.3 0.8 0.5 0.4 0.4 0.3 0.4 0.4 0.4 0.3 0.3
0.3 0.0 0.0 0.0 0.0 0.0 0.0 0.1 0.1 0.1 0.0 0.0 0.3 0.2 0.1 0.0 0.0 0.0 0.0 0.0 0.0 0.0 0.4 0.7 1.1 1.5 1.3 1.1 1.2 1.6 1.8 2.0 2.2 2.1 3.0 3.5 3.8 3.6 2.9 2.5 2.1 2.5 2.3 1.6 1.1 1.2 1.0 0.7 0.5 1.1 0.9 0.8 0.8 0.6
0.1 0.0 0.0 0.0 0.0 0.0 0.0 0.0 0.0 0.0 0.0 0.0 0.0 0.0 0.0 0.0 0.0 0.0 0.0 0.0 0.0 0.4 0.6 0.8 1.1 1.2 1.6 1.7 1.7 2.2 2.3 2.3 1.9 1.5 1.2 1.5 2.7 3.7 3.9 3.6 4.2 4.3 2.9 3.0 2.6 2.3 1.6 2.0 1.8 1.9 2.1 2.2 2.0 1.9
0.0 0.0 0.0 0.0 0.0 0.0 0.0 0.0 0.0 0.0 0.0 0.0 0.0 0.0 0.0 0.0 0.0 0.0 0.0 0.0 0.0 0.7 1.0 1.4 1.4 1.5 2.0 2.0 2.0 1.9 2.4 2.6 2.5 1.3 1.1 1.4 1.8 2.7 4.0 4.0 4.2 4.5 4.4 4.0 4.6 5.2 4.9 4.8 4.9 4.5 3.6 3.4 3.3 2.9
0.0 0.0 0.0 0.0 0.0 0.0 0.0 0.0 0.0 0.0 0.0 0.0 0.0 0.0 0.0 0.0 0.0 0.0 0.1 0.3 0.7 1.1 1.5 1.9 2.1 2.6 2.7 2.9 2.9 2.5 2.5 3.0 3.3 3.6 2.9 2.9 2.9 3.1 3.7 4.0 3.8 4.2 4.3 4.1 3.6 3.4 3.4 2.9 2.5 2.6 2.5 2.5 2.3 2.1
0.0 0.0 0.0 0.0 0.0 0.0 0.0 0.0 0.0 0.0 0.0 0.0 0.0 0.0 0.0 0.0 0.0 0.0 0.2 0.4 0.9 1.2 1.6 1.9 2.1 2.6 3.1 3.1 3.2 3.3 2.6 2.9 2.9 3.7 3.2 2.8 2.7 2.2 2.9 3.3 3.9 3.9 4.1 4.0 3.5 3.6 3.5 3.5 3.6 3.3 3.2 3.2 3.0 2.6
0.6 0.3 0.2 0.1 0.0 0.0 0.0 0.0 0.0 0.0 0.0 0.0 0.0 0.0 0.0 0.0 0.0 0.2 0.3 0.5 1.0 1.2 1.4 2.1 2.5 2.5 2.5 2.5 2.8 3.1 3.2 3.1 3.9 4.1 3.9 3.7 3.2 3.1 3.1 3.4 3.6 3.9 3.9 3.9 4.2 4.4 4.5 4.2 3.9 3.7 3.4 3.1 2.9 2.7

GFSWCAN_prec_snow_057.txt.gz
Snowfall_Accumulation
0.0 0.0 0.0 0.0 0.0 0.0 0.0 0.0 0.0 0.0 0.0 0.0 0.0 0.0 0.0 0.0 0.0 0.0 0.0 0.0 0.0 0.0 0.0 0.0 0.0 0.0 0.0 0.0 0.0 0.0 0.0 0.0 0.1 0.3 0.0 0.1 0.1 0.0 0.0 0.0 0.0 0.0 0.1 0.4 0.4 0.8 0.0 0.0 0.0 0.0 0.0 0.0 0.0 0.0
0.0 0.0 0.0 0.0 0.0 0.0 0.0 0.0 0.0 0.0 0.0 0.0 0.0 0.0 0.0 0.0 0.0 0.0 0.0 0.0 0.0 0.1 0.0 0.0 0.0 0.0 0.0 0.0 0.0 0.0 0.0 0.0 0.0 0.1 0.2 0.0 0.0 0.0 0.0 0.0 0.0 0.0 0.0 0.0 0.0 0.0 0.0 0.0 0.0 0.0 0.0 0.0 0.0 0.0
0.0 0.0 0.0 0.0 0.0 0.0 0.0 0.0 0.0 0.0 0.0 0.0 0.0 0.0 0.0 0.0 0.0 0.0 0.0 0.0 0.0 0.4 0.0 0.0 0.0 0.0 0.0 0.0 0.0 0.0 0.0 0.0 0.0 0.1 0.2 0.1 0.0 0.0 0.1 0.0 0.0 0.0 0.0 0.0 0.0 0.0 0.0 0.0 0.0 0.0 0.0 0.0 0.0 0.0
0.0 0.0 0.0 0.0 0.0 0.0 0.0 0.0 0.0 0.0 0.0 0.0 0.0 0.0 0.0 0.0 0.0 0.0 0.0 0.0 0.0 0.6 1.6 0.0 0.0 0.0 0.0 0.0 0.0 0.0 0.0 0.0 0.0 0.7 0.6 0.3 0.3 0.0 0.0 0.0 0.0 0.0 0.0 0.0 0.0 0.0 0.0 0.0 0.0 0.0 0.0 0.0 0.0 0.0
0.0 0.0 0.0 0.0 0.0 0.0 0.0 0.0 0.0 0.0 0.0 0.0 0.0 0.0 0.0 0.0 0.0 0.0 0.0 0.0 0.0 0.7 2.6 1.1 0.0 0.0 0.0 0.0 0.0 0.0 0.0 0.0 0.4 1.1 1.7 1.0 0.0 0.0 0.0 0.0 0.0 0.0 0.0 0.0 0.0 0.0 0.0 0.0 0.0 0.0 0.0 0.0 0.0 0.0
0.0 0.0 0.0 0.0 0.0 0.0 0.0 0.0 0.0 0.0 0.0 0.0 0.0 0.0 0.0 0.0 0.0 0.0 0.0 0.0 0.0 0.0 3.6 3.2 0.0 0.0 0.0 0.0 0.0 0.0 0.0 0.0 1.3 0.9 2.2 0.0 0.0 0.0 0.9 0.1 0.0 0.0 0.0 0.0 0.0 0.0 0.0 0.0 0.0 0.0 0.0 0.0 0.0 0.0
0.0 0.0 0.0 0.0 0.0 0.0 0.0 0.0 0.0 0.0 0.0 0.0 0.0 0.0 0.0 0.0 0.0 0.2 0.6 0.0 0.0 0.0 4.1 7.5 4.4 0.6 0.0 0.0 0.0 0.0 0.0 0.3 3.1 2.8 0.0 1.9 1.4 1.8 1.6 0.0 0.0 0.0 0.0 0.0 0.0 0.0 0.0 0.0 0.0 0.0 0.0 0.0 0.0 0.0
0.0 0.0 0.0 0.0 0.0 0.0 0.0 0.0 0.0 0.0 0.0 0.0 0.0 0.0 0.0 0.0 0.0 0.0 0.0 0.0 0.0 3.7 6.9 10.0 8.2 6.9 0.0 0.0 0.0 0.0 0.0 0.2 5.2 1.5 0.0 0.6 0.0 2.1 1.5 0.0 0.0 0.0 0.0 0.0 0.0 0.0 0.0 0.0 0.0 0.0 0.0 0.0 0.0 0.0
0.0 0.0 0.0 0.0 0.0 0.0 0.0 0.0 0.0 0.0 0.0 0.0 0.0 0.0 0.0 0.0 0.0 0.0 0.0 0.0 0.0 0.2 7.7 7.1 8.9 7.9 0.6 0.3 0.3 0.1 0.0 2.0 0.9 1.5 0.0 0.0 1.2 2.4 0.0 0.0 0.1 0.0 0.0 0.0 0.0 0.0 0.0 0.0 0.0 0.0 0.0 0.0 0.0 0.0
0.0 0.0 0.0 0.0 0.0 0.0 0.0 0.0 0.0 0.0 0.0 0.0 0.0 0.0 0.6 0.0 0.0 0.0 0.0 3.2 4.7 4.6 4.6 6.0 4.3 2.7 2.4 4.7 1.2 1.3 0.3 3.3 5.4 0.0 0.0 1.7 0.0 0.0 0.0 0.5 0.2 0.1 0.0 0.0 4.0 2.7 1.0 1.6 0.3 0.3 0.0 0.1 0.0 0.0
0.0 0.0 0.0 0.0 0.0 0.0 0.0 0.0 0.0 0.0 0.0 0.0 0.1 0.5 0.0 0.0 0.0 0.1 6.5 5.2 3.1 2.7 3.7 3.7 3.0 3.3 0.0 4.4 2.3 0.7 3.7 2.7 6.5 3.2 1.2 1.7 2.8 1.1 0.0 0.3 0.0 0.1 0.2 0.0 0.0 0.5 1.7 2.9 3.1 1.5 0.6 3.2 1.5 2.4
0.0 0.0 0.0 0.0 0.0 0.0 0.0 0.0 0.0 0.0 0.0 0.0 0.0 0.0 0.0 3.5 7.0 9.5 9.1 1.7 1.3 1.8 1.7 1.8 1.2 0.6 1.7 0.0 3.0 2.1 3.1 2.9 2.6 1.6 4.0 3.4 2.3 1.4 1.9 0.6 0.3 0.1 0.0 0.1 0.2 2.1 0.9 0.9 1.2 1.4 2.6 2.9 2.7 2.9
0.0 0.0 0.0 0.0 0.0 0.0 0.0 0.0 0.0 0.0 0.0 0.0 0.4 1.5 2.9 5.5 7.1 5.2 4.1 1.7 0.6 0.5 0.6 1.0 1.3 0.3 0.0 0.3 2.4 2.9 2.3 1.1 2.6 4.3 3.2 1.4 0.5 0.0 0.5 1.7 1.6 1.6 0.3 1.3 2.0 0.0 0.7 0.5 0.4 0.3 0.3 0.1 0.0 0.0
0.0 0.0 0.0 0.0 0.0 0.0 0.0 0.0 0.0 0.0 0.0 0.1 0.7 1.3 2.3 3.0 3.2 2.4 1.3 1.1 0.0 0.3 0.0 0.1 1.0 1.8 0.4 1.9 1.9 2.6 0.6 2.7 4.8 2.4 2.0 0.3 0.5 0.4 0.2 0.4 0.7 0.8 1.2 1.7 3.9 3.9 1.9 1.0 0.4 0.1 0.0 0.0 0.0 0.0
0.0 0.0 0.0 0.0 0.0 0.0 0.0 0.0 0.0 0.0 0.0 0.0 0.9 1.2 1.2 1.8 0.8 0.4 0.1 0.5 0.0 0.0 0.0 0.0 0.1 0.6 1.4 2.2 1.8 1.9 2.1 3.4 2.8 2.6 1.3 0.6 0.6 0.8 0.5 0.3 0.2 0.5 0.7 1.6 1.6 2.6 3.5 1.9 0.7 0.0 0.0 0.0 0.3 0.5
0.0 0.0 0.0 0.0 0.0 0.0 0.0 0.0 0.0 0.0 0.0 0.1 0.6 1.2 0.9 0.6 0.3 0.1 0.0 0.1 0.0 0.0 0.1 0.3 0.5 1.2 1.0 2.5 1.3 1.9 2.8 2.8 2.0 1.4 0.8 0.4 0.7 0.0 0.2 0.3 0.0 0.0 0.0 0.2 1.3 1.7 2.3 2.0 1.2 0.6 0.5 0.1 0.1 1.2
0.0 0.0 0.0 0.0 0.0 0.0 0.0 0.0 0.0 0.0 0.1 0.0 0.2 0.7 0.8 0.4 0.4 0.3 0.0 0.0 0.0 0.2 1.3 2.0 2.3 0.7 0.6 1.2 0.6 0.5 1.5 1.3 0.9 0.0 0.1 0.0 0.1 0.0 0.0 0.0 0.0 0.0 0.0 0.0 0.6 1.0 1.7 2.3 2.3 1.2 1.5 1.3 0.9 0.5
0.0 0.0 0.0 0.0 0.0 0.0 0.0 0.0 0.0 0.0 0.0 0.0 0.0 0.0 0.0 0.0 0.3 0.3 0.0 0.0 0.0 0.4 1.8 5.0 2.5 1.5 0.3 0.1 0.0 0.2 0.0 0.0 0.2 0.0 0.2 0.0 0.0 0.0 0.0 0.0 0.0 0.2 0.7 1.7 1.5 1.5 1.0 1.5 1.4 1.1 0.8 0.7 0.4 0.5
0.0 0.0 0.0 0.0 0.0 0.0 0.0 0.0 0.0 0.0 0.0 0.0 0.0 0.0 0.0 0.0 0.0 0.0 0.0 0.0 0.0 0.0 0.3 3.0 2.2 0.3 0.0 0.0 0.0 0.0 0.0 0.0 0.0 0.0 0.0 0.0 0.0 0.0 0.0 0.3 0.3 0.7 1.7 1.4 0.4 0.3 0.4 0.4 0.7 0.3 0.9 0.6 0.3 0.1
0.0 0.0 0.0 0.0 0.0 0.0 0.0 0.0 0.0 0.0 0.0 0.0 0.0 0.0 0.0 0.0 0.0 0.0 0.0 0.3 0.5 2.0 2.3 1.9 0.0 0.2 0.1 0.3 0.3 0.1 0.0 0.0 0.0 0.0 0.0 0.0 0.0 0.0 0.0 0.0 0.1 0.4 0.7 0.5 0.4 0.8 0.5 0.6 0.4 0.2 0.5 0.4 0.3 0.3
0.0 0.0 0.0 0.0 0.4 0.1 0.0 0.0 0.0 0.0 0.0 0.0 0.0 0.0 0.0 0.0 0.0 0.0 0.0 1.2 2.2 3.1 2.3 1.3 0.2 0.1 0.0 0.5 0.2 0.0 0.0 0.0 0.0 0.0 0.0 0.0 0.0 0.0 0.0 0.0 0.0 0.0 0.0 0.2 0.2 0.1 0.5 0.3 0.7 0.5 0.2 0.7 0.5 0.2
0.9 0.0 2.5 2.7 1.6 0.3 0.2 0.0 0.0 0.0 0.0 0.0 0.0 0.0 0.0 0.0 0.0 0.0 0.0 1.6 2.7 1.6 1.2 0.9 0.9 0.6 0.2 0.0 0.7 0.7 0.5 0.0 0.0 0.0 0.0 0.0 0.0 0.0 0.0 0.0 0.0 0.0 0.0 0.0 0.0 0.0 0.0 0.1 0.0 0.4 0.4 0.9 0.8 0.3
0.8 2.4 3.2 2.3 1.3 0.9 0.1 0.1 0.1 0.0 0.0 0.0 0.0 0.0 0.0 0.0 0.0 0.0 0.8 1.0 1.2 0.9 0.7 0.6 0.7 1.6 1.7 1.4 1.4 1.1 0.6 0.1 0.0 0.2 0.1 0.0 0.0 0.0 0.0 0.0 0.0 0.0 0.0 0.0 0.0 0.0 0.0 0.0 0.0 0.0 0.0 0.0 0.5 0.5
0.0 2.8 2.7 1.9 1.3 0.5 0.3 0.0 0.1 0.0 0.0 0.0 0.0 0.0 0.0 0.0 0.0 0.0 0.5 0.3 0.3 0.2 0.8 1.0 0.9 0.7 0.5 1.2 1.4 1.7 1.9 1.2 0.3 0.0 0.6 0.3 0.1 0.0 0.0 0.0 0.0 0.0 0.0 0.0 0.0 0.0 0.0 0.0 0.0 0.0 0.0 0.0 0.0 0.0
4.2 3.7 2.5 2.2 0.9 0.5 0.1 0.1 0.0 0.0 0.0 0.0 0.1 0.0 0.0 0.0 0.1 0.1 0.0 0.0 0.0 0.1 0.3 0.8 0.9 0.9 0.9 0.7 1.0 1.0 1.0 1.2 1.8 1.9 0.1 1.3 0.6 0.2 0.0 0.0 0.3 0.0 0.0 0.1 0.1 0.0 0.0 0.0 0.0 0.0 0.0 0.0 0.0 0.0
4.6 1.6 0.7 0.1 0.0 0.0 0.0 0.0 0.0 0.0 0.0 0.0 0.1 0.0 0.0 0.0 0.1 0.0 0.0 0.0 0.1 0.2 0.2 0.3 0.7 0.7 0.5 0.5 0.7 1.2 1.2 1.1 1.0 1.7 1.1 1.6 1.3 1.6 1.6 0.0 1.0 0.5 0.1 0.0 0.4 0.4 0.2 0.1 0.0 0.0 0.0 0.0 0.1 0.0
2.2 0.7 0.0 0.0 0.0 0.0 0.0 0.0 0.0 0.0 0.0 0.1 0.0 0.0 0.0 0.2 0.0 0.0 0.0 0.0 0.0 0.2 0.3 0.6 1.2 1.1 0.8 0.8 0.8 1.2 1.4 1.5 1.4 1.1 1.4 3.2 3.1 2.1 0.9 1.4 1.3 1.0 0.6 0.3 0.8 0.5 0.4 0.4 0.3 0.4 0.4 0.4 0.3 0.3
0.3 0.0 0.0 0.0 0.0 0.0 0.0 0.1 0.1 0.1 0.0 0.0 0.3 0.2 0.1 0.0 0.0 0.0 0.0 0.0 0.0 0.0 0.4 0.7 1.1 1.5 1.3 1.1 1.2 1.6 1.8 2.0 2.2 2.1 3.0 3.5 3.8 3.6 2.9 2.5 2.1 2.5 2.3 1.6 1.1 1.2 1.0 0.7 0.5 1.1 0.9 0.8 0.8 0.6
0.1 0.0 0.0 0.0 0.0 0.0 0.0 0.0 0.0 0.0 0.0 0.0 0.0 0.0 0.0 0.0 0.0 0.0 0.0 0.0 0.0 0.4 0.6 0.8 1.1 1.2 1.6 1.7 1.7 2.2 2.3 2.3 1.9 1.5 1.2 1.5 2.7 3.7 3.9 3.6 4.2 4.3 2.9 3.0 2.6 2.3 1.6 2.0 1.8 1.9 2.1 2.2 2.0 1.9
0.0 0.0 0.0 0.0 0.0 0.0 0.0 0.0 0.0 0.0 0.0 0.0 0.0 0.0 0.0 0.0 0.0 0.0 0.0 0.0 0.0 0.7 1.0 1.4 1.4 1.5 2.0 2.0 2.0 1.9 2.4 2.6 2.5 1.4 1.2 1.4 1.8 2.7 4.0 4.0 4.2 4.5 4.4 4.0 4.6 5.2 4.9 4.8 4.9 4.5 3.6 3.4 3.3 2.9
0.0 0.0 0.0 0.0 0.0 0.0 0.0 0.0 0.0 0.0 0.0 0.0 0.0 0.0 0.0 0.0 0.0 0.0 0.1 0.3 0.7 1.1 1.5 1.9 2.1 2.6 2.7 2.9 2.9 2.5 2.5 3.0 3.3 3.6 2.9 2.9 3.0 3.1 3.7 4.0 3.8 4.2 4.3 4.1 3.6 3.4 3.4 2.9 2.5 2.6 2.5 2.5 2.3 2.1
0.0 0.0 0.0 0.0 0.0 0.0 0.0 0.0 0.0 0.0 0.0 0.0 0.0 0.0 0.0 0.0 0.0 0.0 0.2 0.4 0.9 1.2 1.6 1.9 2.1 2.6 3.1 3.1 3.2 3.3 2.7 2.9 2.9 3.7 3.2 2.8 2.9 2.2 3.0 3.3 3.9 3.9 4.1 4.0 3.5 3.6 3.5 3.5 3.6 3.3 3.2 3.2 3.0 2.6
0.6 0.3 0.2 0.1 0.0 0.0 0.0 0.0 0.0 0.0 0.0 0.0 0.0 0.0 0.0 0.0 0.0 0.2 0.3 0.5 1.0 1.2 1.4 2.1 2.5 2.5 2.5 2.5 2.8 3.1 3.2 3.1 3.9 4.1 4.0 4.0 3.6 3.2 3.1 3.4 3.6 3.9 3.9 3.9 4.2 4.4 4.5 4.2 3.9 3.7 3.4 3.1 2.9 2.7

GFSWCAN_prec_snow_060.txt.gz
Snowfall_Accumulation
0.0 0.0 0.0 0.0 0.0 0.0 0.0 0.0 0.0 0.0 0.0 0.0 0.0 0.0 0.0 0.0 0.0 0.0 0.0 0.0 0.0 0.0 0.0 0.0 0.0 0.0 0.0 0.0 0.0 0.0 0.0 0.0 0.1 0.3 0.0 0.1 0.1 0.0 0.0 0.0 0.0 0.0 0.1 0.4 0.4 0.8 0.0 0.0 0.0 0.0 0.0 0.0 0.0 0.0
0.0 0.0 0.0 0.0 0.0 0.0 0.0 0.0 0.0 0.0 0.0 0.0 0.0 0.0 0.0 0.0 0.0 0.0 0.0 0.0 0.0 0.1 0.0 0.0 0.0 0.0 0.0 0.0 0.0 0.0 0.0 0.0 0.0 0.3 0.2 0.0 0.0 0.0 0.0 0.0 0.0 0.0 0.0 0.0 0.0 0.0 0.0 0.0 0.0 0.0 0.0 0.0 0.0 0.0
0.0 0.0 0.0 0.0 0.0 0.0 0.0 0.0 0.0 0.0 0.0 0.0 0.0 0.0 0.0 0.0 0.0 0.0 0.0 0.0 0.0 0.4 0.0 0.0 0.0 0.0 0.0 0.0 0.0 0.0 0.0 0.0 0.0 0.1 0.2 0.1 0.0 0.0 0.1 0.0 0.0 0.0 0.0 0.0 0.0 0.0 0.0 0.0 0.0 0.0 0.0 0.0 0.0 0.0
0.0 0.0 0.0 0.0 0.0 0.0 0.0 0.0 0.0 0.0 0.0 0.0 0.0 0.0 0.0 0.0 0.0 0.0 0.0 0.0 0.0 0.6 1.6 0.0 0.0 0.0 0.0 0.0 0.0 0.0 0.0 0.0 0.0 0.7 0.6 0.3 0.3 0.0 0.0 0.0 0.0 0.0 0.0 0.0 0.0 0.0 0.0 0.0 0.0 0.0 0.0 0.0 0.0 0.0
0.0 0.0 0.0 0.0 0.0 0.0 0.0 0.0 0.0 0.0 0.0 0.0 0.0 0.0 0.0 0.0 0.0 0.0 0.0 0.0 0.0 0.7 2.6 1.1 0.0 0.0 0.0 0.0 0.0 0.0 0.0 0.0 0.4 1.1 1.7 1.0 0.0 0.0 0.0 0.0 0.0 0.0 0.0 0.0 0.0 0.0 0.0 0.0 0.0 0.0 0.0 0.0 0.0 0.0
0.0 0.0 0.0 0.0 0.0 0.0 0.0 0.0 0.0 0.0 0.0 0.0 0.0 0.0 0.0 0.0 0.0 0.0 0.0 0.0 0.0 0.0 3.6 3.2 0.0 0.0 0.0 0.0 0.0 0.0 0.0 0.0 1.3 0.9 2.2 0.0 0.0 0.0 0.9 0.1 0.0 0.0 0.0 0.0 0.0 0.0 0.0 0.0 0.0 0.0 0.0 0.0 0.0 0.0
0.0 0.0 0.0 0.0 0.0 0.0 0.0 0.0 0.0 0.0 0.0 0.0 0.0 0.0 0.0 0.0 0.0 0.2 0.6 0.0 0.0 0.0 4.1 7.5 4.4 0.6 0.0 0.0 0.0 0.0 0.0 0.3 3.1 2.8 0.0 1.9 1.4 1.8 1.6 0.0 0.0 0.0 0.0 0.0 0.0 0.0 0.0 0.0 0.0 0.0 0.0 0.0 0.0 0.0
0.0 0.0 0.0 0.0 0.0 0.0 0.0 0.0 0.0 0.0 0.0 0.0 0.0 0.0 0.0 0.0 0.0 0.0 0.0 0.0 0.0 3.7 6.9 10.0 8.2 6.9 0.0 0.0 0.0 0.0 0.0 0.2 5.2 1.5 0.0 0.6 0.0 2.1 1.5 0.0 0.0 0.0 0.0 0.0 0.0 0.0 0.0 0.0 0.0 0.0 0.0 0.0 0.0 0.0
0.0 0.0 0.0 0.0 0.0 0.0 0.0 0.0 0.0 0.0 0.0 0.0 0.0 0.0 0.0 0.0 0.0 0.0 0.0 0.0 0.0 0.2 7.7 7.1 8.9 7.9 0.6 0.3 0.3 0.1 0.0 2.0 0.9 1.5 0.0 0.0 1.2 2.4 0.0 0.0 0.1 0.0 0.0 0.0 0.0 0.0 0.0 0.0 0.0 0.0 0.0 0.0 0.0 0.0
0.0 0.0 0.0 0.0 0.0 0.0 0.0 0.0 0.0 0.0 0.0 0.0 0.0 0.0 0.6 0.0 0.0 0.0 0.0 3.2 4.7 4.6 4.6 6.0 4.3 2.7 2.4 4.7 1.2 1.3 0.3 3.3 5.4 0.0 0.0 1.7 0.0 0.0 0.0 0.5 0.2 0.1 0.0 0.0 4.0 2.7 1.0 1.6 0.3 0.3 0.0 0.1 0.0 0.0
0.0 0.0 0.0 0.0 0.0 0.0 0.0 0.0 0.0 0.0 0.0 0.0 0.1 0.5 0.0 0.0 0.0 0.1 6.5 5.2 3.1 2.7 3.7 3.7 3.0 3.3 0.0 4.4 2.3 0.7 3.7 2.7 6.5 3.2 1.2 1.7 2.8 1.1 0.0 0.3 0.0 0.1 0.2 0.0 0.0 0.5 1.7 2.9 3.1 1.5 0.6 3.2 1.5 2.4
0.0 0.0 0.0 0.0 0.0 0.0 0.0 0.0 0.0 0.0 0.0 0.0 0.0 0.0 0.0 3.5 7.0 9.5 9.1 1.7 1.3 1.8 1.7 1.8 1.2 0.6 1.7 0.0 3.0 2.1 3.1 2.9 2.6 1.6 4.0 3.4 2.3 1.4 1.9 0.6 0.3 0.1 0.0 0.1 0.2 2.1 0.9 0.9 1.2 1.4 2.6 2.9 2.7 2.9
0.0 0.0 0.0 0.0 0.0 0.0 0.0 0.0 0.0 0.0 0.0 0.0 0.4 1.5 2.9 5.5 7.1 5.2 4.1 1.7 0.6 0.5 0.6 1.0 1.3 0.3 0.0 0.3 2.4 2.9 2.3 1.1 2.6 4.4 3.2 1.4 0.5 0.0 0.5 1.7 1.6 1.6 0.3 1.3 2.0 0.0 0.7 0.5 0.4 0.3 0.3 0.1 0.0 0.0
0.0 0.0 0.0 0.0 0.0 0.0 0.0 0.0 0.0 0.0 0.0 0.1 0.7 1.3 2.3 3.0 3.2 2.4 1.3 1.1 0.0 0.3 0.0 0.1 1.0 1.8 0.4 1.9 1.9 2.6 0.6 2.7 4.9 2.4 2.0 0.3 0.5 0.4 0.2 0.4 0.7 0.8 1.2 1.7 3.9 3.9 1.9 1.0 0.4 0.1 0.0 0.0 0.0 0.0
0.0 0.0 0.0 0.0 0.0 0.0 0.0 0.0 0.0 0.0 0.0 0.0 0.9 1.2 1.2 1.8 0.8 0.4 0.1 0.5 0.0 0.0 0.0 0.0 0.1 0.6 1.4 2.2 1.8 1.9 2.1 3.4 2.8 2.6 1.3 0.6 0.6 0.8 0.5 0.3 0.2 0.5 0.7 1.6 1.6 2.6 3.5 1.9 0.7 0.0 0.0 0.1 0.3 0.5
0.0 0.0 0.0 0.0 0.0 0.0 0.0 0.0 0.0 0.0 0.0 0.1 0.6 1.2 0.9 0.6 0.3 0.1 0.0 0.1 0.0 0.0 0.1 0.3 0.5 1.2 1.0 2.5 1.3 1.9 2.8 2.8 2.0 1.4 0.8 0.4 0.7 0.0 0.2 0.3 0.0 0.0 0.0 0.2 1.3 1.7 2.3 2.0 1.2 0.6 0.5 0.1 0.2 1.2
0.0 0.0 0.0 0.0 0.0 0.0 0.0 0.0 0.0 0.0 0.1 0.0 0.2 0.7 0.8 0.4 0.4 0.3 0.0 0.0 0.0 0.2 1.3 2.0 2.3 0.7 0.6 1.2 0.6 0.5 1.5 1.3 0.9 0.0 0.1 0.0 0.1 0.0 0.0 0.0 0.0 0.0 0.0 0.0 0.6 1.0 1.7 2.3 2.3 1.2 1.5 1.3 1.0 0.7
0.0 0.0 0.0 0.0 0.0 0.0 0.0 0.0 0.0 0.0 0.0 0.0 0.0 0.0 0.0 0.0 0.3 0.3 0.0 0.0 0.0 0.4 1.8 5.0 2.5 1.5 0.3 0.1 0.0 0.2 0.0 0.0 0.2 0.0 0.2 0.0 0.0 0.0 0.0 0.0 0.0 0.2 0.7 1.7 1.5 1.5 1.0 1.5 1.4 1.1 0.8 0.7 0.7 0.8
0.0 0.0 0.0 0.0 0.0 0.0 0.0 0.0 0.0 0.0 0.0 0.0 0.0 0.0 0.0 0.0 0.0 0.0 0.0 0.0 0.0 0.0 0.3 3.0 2.2 0.3 0.0 0.0 0.0 0.0 0.0 0.0 0.0 0.0 0.0 0.0 0.0 0.0 0.0 0.3 0.3 0.7 1.7 1.4 0.4 0.3 0.4 0.4 0.7 0.3 0.9 0.6 0.8 0.6
0.0 0.0 0.0 0.0 0.0 0.0 0.0 0.0 0.0 0.0 0.0 0.0 0.0 0.0 0.0 0.0 0.0 0.0 0.0 0.3 0.5 2.0 2.3 1.9 0.0 0.2 0.1 0.3 0.3 0.1 0.0 0.0 0.0 0.0 0.0 0.0 0.0 0.0 0.0 0.0 0.1 0.4 0.7 0.5 0.4 0.8 0.5 0.6 0.4 0.2 0.5 0.4 0.8 0.9
0.0 0.0 0.0 0.0 0.4 0.1 0.0 0.0 0.0 0.0 0.0 0.0 0.0 0.0 0.0 0.0 0.0 0.0 0.0 1.2 2.2 3.1 2.3 1.3 0.2 0.1 0.0 0.5 0.2 0.0 0.0 0.0 0.0 0.0 0.0 0.0 0.0 0.0 0.0 0.0 0.0 0.0 0.0 0.2 0.2 0.1 0.5 0.3 0.7 0.5 0.2 0.7 0.5 0.8
0.9 0.0 2.5 2.7 1.6 0.3 0.2 0.0 0.0 0.0 0.0 0.0 0.0 0.0 0.0 0.0 0.0 0.0 0.0 1.6 2.7 1.6 1.2 0.9 0.9 0.6 0.2 0.0 0.7 0.7 0.5 0.0 0.0 0.0 0.0 0.0 0.0 0.0 0.0 0.0 0.0 0.0 0.0 0.0 0.0 0.0 0.0 0.1 0.0 0.4 0.4 0.9 0.8 0.3
0.8 2.4 3.2 2.4 1.4 0.9 0.1 0.1 0.1 0.0 0.0 0.0 0.0 0.0 0.0 0.0 0.0 0.0 0.8 1.0 1.2 0.9 0.7 0.6 0.7 1.6 1.7 1.4 1.4 1.1 0.6 0.1 0.0 0.2 0.1 0.0 0.0 0.0 0.0 0.0 0.0 0.0 0.0 0.0 0.0 0.0 0.0 0.0 0.0 0.0 0.0 0.0 0.5 0.5
0.0 2.8 2.8 2.0 1.4 0.5 0.3 0.0 0.1 0.0 0.0 0.0 0.0 0.0 0.0 0.0 0.0 0.0 0.5 0.3 0.3 0.2 0.8 1.0 0.9 0.7 0.5 1.2 1.4 1.7 1.9 1.2 0.3 0.0 0.6 0.3 0.1 0.0 0.0 0.0 0.0 0.0 0.0 0.0 0.0 0.0 0.0 0.0 0.0 0.0 0.0 0.0 0.0 0.0
4.2 3.7 2.6 2.3 0.9 0.5 0.1 0.1 0.0 0.0 0.0 0.0 0.1 0.0 0.0 0.0 0.1 0.1 0.0 0.0 0.0 0.1 0.3 0.8 0.9 0.9 0.9 0.7 1.0 1.0 1.0 1.2 1.8 1.9 0.1 1.3 0.6 0.2 0.0 0.0 0.3 0.0 0.0 0.1 0.1 0.0 0.0 0.0 0.0 0.0 0.0 0.0 0.0 0.0
4.6 1.6 0.7 0.1 0.0 0.0 0.0 0.0 0.0 0.0 0.0 0.0 0.1 0.0 0.0 0.0 0.1 0.0 0.0 0.0 0.1 0.2 0.2 0.3 0.7 0.7 0.5 0.5 0.7 1.2 1.2 1.1 1.0 1.7 1.1 1.6 1.3 1.6 1.6 0.0 1.0 0.5 0.1 0.0 0.4 0.4 0.2 0.1 0.0 0.0 0.0 0.0 0.1 0.0
2.2 0.7 0.0 0.0 0.0 0.0 0.0 0.0 0.0 0.0 0.0 0.1 0.0 0.0 0.0 0.2 0.0 0.0 0.0 0.0 0.0 0.2 0.3 0.6 1.2 1.1 0.8 0.8 0.8 1.2 1.4 1.5 1.4 1.1 1.4 3.2 3.1 2.1 0.9 1.4 1.3 1.0 0.6 0.3 0.8 0.5 0.4 0.4 0.3 0.4 0.4 0.4 0.3 0.3
0.3 0.0 0.0 0.0 0.0 0.0 0.0 0.1 0.1 0.1 0.0 0.0 0.3 0.2 0.1 0.0 0.0 0.0 0.0 0.0 0.0 0.0 0.4 0.7 1.1 1.5 1.3 1.1 1.2 1.6 1.8 2.0 2.2 2.1 3.0 3.5 3.8 3.6 2.9 2.5 2.1 2.5 2.3 1.6 1.1 1.2 1.0 0.7 0.5 1.1 0.9 0.8 0.8 0.6
0.1 0.0 0.0 0.0 0.0 0.0 0.0 0.0 0.0 0.0 0.0 0.0 0.0 0.0 0.0 0.0 0.0 0.0 0.0 0.0 0.0 0.4 0.6 0.8 1.1 1.2 1.6 1.7 1.7 2.2 2.3 2.3 1.9 1.5 1.2 1.5 2.7 3.7 3.9 3.6 4.2 4.3 2.9 3.0 2.6 2.3 1.6 2.0 1.8 1.9 2.1 2.2 2.0 1.9
0.0 0.0 0.0 0.0 0.0 0.0 0.0 0.0 0.0 0.0 0.0 0.0 0.0 0.0 0.0 0.0 0.0 0.0 0.0 0.0 0.0 0.7 1.0 1.4 1.4 1.5 2.0 2.0 2.0 1.9 2.4 2.6 2.5 1.4 1.3 1.4 1.8 2.7 4.0 4.0 4.2 4.6 4.4 4.0 4.6 5.2 4.9 4.8 4.9 4.5 3.6 3.4 3.3 2.9
0.0 0.0 0.0 0.0 0.0 0.0 0.0 0.0 0.0 0.0 0.0 0.0 0.0 0.0 0.0 0.0 0.0 0.0 0.1 0.3 0.7 1.1 1.5 1.9 2.1 2.6 2.7 2.9 2.9 2.5 2.5 3.0 3.3 3.6 2.9 2.9 3.1 3.1 3.7 4.1 3.9 4.3 4.3 4.2 3.6 3.4 3.4 2.9 2.5 2.6 2.5 2.5 2.3 2.1
0.0 0.0 0.0 0.0 0.0 0.0 0.0 0.0 0.0 0.0 0.0 0.0 0.0 0.0 0.0 0.0 0.0 0.0 0.2 0.4 0.9 1.2 1.6 1.9 2.1 2.6 3.1 3.1 3.2 3.3 2.7 2.9 2.9 3.7 3.2 2.8 2.9 2.5 3.1 3.3 4.0 4.0 4.2 4.1 3.6 3.7 3.5 3.5 3.6 3.3 3.2 3.3 3.0 2.6
0.6 0.3 0.2 0.1 0.0 0.0 0.0 0.0 0.0 0.0 0.0 0.0 0.0 0.0 0.0 0.0 0.0 0.2 0.3 0.5 1.0 1.2 1.4 2.1 2.5 2.5 2.5 2.5 2.8 3.1 3.2 3.1 3.9 4.1 4.1 4.1 3.9 3.6 3.1 3.4 3.6 4.0 3.9 4.0 4.2 4.4 4.5 4.2 3.9 3.7 3.4 3.1 2.9 2.7

GFSWCAN_prec_snow_063.txt.gz
Snowfall_Accumulation
0.0 0.0 0.0 0.0 0.0 0.0 0.0 0.0 0.0 0.0 0.0 0.0 0.0 0.0 0.0 0.0 0.0 0.0 0.0 0.0 0.0 0.0 0.0 0.0 0.0 0.0 0.0 0.0 0.0 0.0 0.0 0.0 0.1 0.3 0.0 0.1 0.2 0.0 0.0 0.0 0.0 0.0 0.1 0.4 0.4 0.8 0.0 0.0 0.0 0.0 0.0 0.0 0.0 0.0
0.0 0.0 0.0 0.0 0.0 0.0 0.0 0.0 0.0 0.0 0.0 0.0 0.0 0.0 0.0 0.0 0.0 0.0 0.0 0.0 0.0 0.1 0.0 0.0 0.0 0.0 0.0 0.0 0.0 0.0 0.0 0.0 0.0 0.3 0.2 0.0 0.0 0.0 0.0 0.0 0.0 0.0 0.0 0.0 0.0 0.0 0.0 0.0 0.0 0.0 0.0 0.0 0.0 0.0
0.0 0.0 0.0 0.0 0.0 0.0 0.0 0.0 0.0 0.0 0.0 0.0 0.0 0.0 0.0 0.0 0.0 0.0 0.0 0.0 0.0 0.4 0.0 0.0 0.0 0.0 0.0 0.0 0.0 0.0 0.0 0.0 0.0 0.1 0.2 0.1 0.0 0.0 0.1 0.0 0.0 0.0 0.0 0.0 0.0 0.0 0.0 0.0 0.0 0.0 0.0 0.0 0.0 0.0
0.0 0.0 0.0 0.0 0.0 0.0 0.0 0.0 0.0 0.0 0.0 0.0 0.0 0.0 0.0 0.0 0.0 0.0 0.0 0.0 0.0 0.6 1.6 0.0 0.0 0.0 0.0 0.0 0.0 0.0 0.0 0.0 0.0 0.7 0.6 0.3 0.3 0.0 0.0 0.0 0.0 0.0 0.0 0.0 0.0 0.0 0.0 0.0 0.0 0.0 0.0 0.0 0.0 0.0
0.0 0.0 0.0 0.0 0.0 0.0 0.0 0.0 0.0 0.0 0.0 0.0 0.0 0.0 0.0 0.0 0.0 0.0 0.0 0.0 0.0 0.7 2.6 1.1 0.0 0.0 0.0 0.0 0.0 0.0 0.0 0.0 0.4 1.1 1.7 1.0 0.0 0.0 0.0 0.0 0.0 0.0 0.0 0.0 0.0 0.0 0.0 0.0 0.0 0.0 0.0 0.0 0.0 0.0
0.0 0.0 0.0 0.0 0.0 0.0 0.0 0.0 0.0 0.0 0.0 0.0 0.0 0.0 0.0 0.0 0.0 0.0 0.0 0.0 0.0 0.0 3.6 3.2 0.0 0.0 0.0 0.0 0.0 0.0 0.0 0.0 1.3 0.9 2.2 0.0 0.0 0.0 0.9 0.1 0.0 0.0 0.0 0.0 0.0 0.0 0.0 0.0 0.0 0.0 0.0 0.0 0.0 0.0
0.0 0.0 0.0 0.0 0.0 0.0 0.0 0.0 0.0 0.0 0.0 0.0 0.0 0.0 0.0 0.0 0.0 0.2 0.6 0.0 0.0 0.0 4.1 7.5 4.4 0.6 0.0 0.0 0.0 0.0 0.0 0.3 3.1 2.8 0.0 1.9 1.4 1.8 1.6 0.0 0.0 0.0 0.0 0.0 0.0 0.0 0.0 0.0 0.0 0.0 0.0 0.0 0.0 0.0
0.0 0.0 0.0 0.0 0.0 0.0 0.0 0.0 0.0 0.0 0.0 0.0 0.0 0.0 0.0 0.0 0.0 0.0 0.0 0.0 0.0 3.7 6.9 10.0 8.2 6.9 0.0 0.0 0.0 0.0 0.0 0.2 5.2 1.5 0.0 0.6 0.0 2.1 1.5 0.0 0.0 0.0 0.0 0.0 0.0 0.0 0.0 0.0 0.0 0.0 0.0 0.0 0.0 0.0
0.0 0.0 0.0 0.0 0.0 0.0 0.0 0.0 0.0 0.0 0.0 0.0 0.0 0.0 0.0 0.0 0.0 0.0 0.0 0.0 0.0 0.2 7.7 7.1 8.9 7.9 0.6 0.3 0.3 0.1 0.0 2.0 0.9 1.5 0.0 0.0 1.2 2.4 0.0 0.0 0.1 0.0 0.0 0.0 0.0 0.0 0.0 0.0 0.0 0.0 0.0 0.0 0.0 0.0
0.0 0.0 0.0 0.0 0.0 0.0 0.0 0.0 0.0 0.0 0.0 0.0 0.0 0.0 0.6 0.0 0.0 0.0 0.0 3.2 4.7 4.6 4.6 6.0 4.3 2.7 2.4 4.7 1.2 1.3 0.3 3.3 5.4 0.0 0.0 1.7 0.0 0.0 0.0 0.5 0.2 0.1 0.0 0.0 4.0 2.7 1.0 1.6 0.3 0.3 0.0 0.1 0.0 0.0
0.0 0.0 0.0 0.0 0.0 0.0 0.0 0.0 0.0 0.0 0.0 0.0 0.1 0.5 0.0 0.0 0.0 0.1 6.5 5.2 3.1 2.7 3.7 3.7 3.0 3.3 0.0 4.4 2.3 0.7 3.7 2.7 6.5 3.2 1.2 1.7 2.8 1.1 0.0 0.3 0.0 0.1 0.2 0.0 0.0 0.5 1.7 2.9 3.1 1.5 0.6 3.2 1.5 2.4
0.0 0.0 0.0 0.0 0.0 0.0 0.0 0.0 0.0 0.0 0.0 0.0 0.0 0.0 0.0 3.5 7.0 9.5 9.1 1.7 1.3 1.8 1.7 1.8 1.2 0.6 1.7 0.0 3.0 2.1 3.1 2.9 2.6 1.6 4.0 3.4 2.3 1.4 1.9 0.6 0.3 0.1 0.0 0.1 0.2 2.1 0.9 0.9 1.2 1.4 2.6 2.9 2.7 2.9
0.0 0.0 0.0 0.0 0.0 0.0 0.0 0.0 0.0 0.0 0.0 0.0 0.4 1.5 2.9 5.5 7.1 5.2 4.1 1.7 0.6 0.5 0.6 1.0 1.3 0.3 0.0 0.3 2.4 2.9 2.3 1.1 2.6 4.4 3.2 1.4 0.5 0.0 0.5 1.7 1.6 1.6 0.3 1.3 2.0 0.0 0.7 0.5 0.4 0.3 0.3 0.1 0.0 0.0
0.0 0.0 0.0 0.0 0.0 0.0 0.0 0.0 0.0 0.0 0.0 0.1 0.7 1.3 2.3 3.0 3.2 2.4 1.3 1.1 0.0 0.3 0.0 0.1 1.0 1.8 0.4 1.9 1.9 2.6 0.6 2.7 4.9 2.4 2.0 0.3 0.5 0.4 0.2 0.4 0.7 0.8 1.2 1.7 3.9 3.9 1.9 1.0 0.4 0.1 0.0 0.0 0.0 0.0
0.0 0.0 0.0 0.0 0.0 0.0 0.0 0.0 0.0 0.0 0.0 0.0 0.9 1.2 1.2 1.8 0.8 0.4 0.1 0.5 0.0 0.0 0.0 0.0 0.1 0.6 1.4 2.2 1.8 1.9 2.1 3.4 2.8 2.6 1.3 0.6 0.6 0.8 0.5 0.3 0.2 0.5 0.7 1.6 1.6 2.6 3.5 1.9 0.7 0.0 0.0 0.1 0.3 0.6
0.0 0.0 0.0 0.0 0.0 0.0 0.0 0.0 0.0 0.0 0.0 0.1 0.6 1.2 0.9 0.6 0.3 0.1 0.0 0.1 0.0 0.0 0.1 0.3 0.5 1.2 1.0 2.5 1.3 1.9 2.8 2.8 2.0 1.4 0.8 0.4 0.7 0.0 0.2 0.3 0.0 0.0 0.0 0.2 1.3 1.7 2.3 2.0 1.2 0.6 0.5 0.1 0.2 1.3
0.0 0.0 0.0 0.0 0.0 0.0 0.0 0.0 0.0 0.0 0.1 0.0 0.2 0.7 0.8 0.4 0.4 0.3 0.0 0.0 0.0 0.2 1.3 2.0 2.3 0.7 0.6 1.2 0.6 0.5 1.5 1.3 0.9 0.0 0.1 0.0 0.1 0.0 0.0 0.0 0.0 0.0 0.0 0.0 0.6 1.0 1.7 2.3 2.3 1.2 1.5 1.3 1.0 0.7
0.0 0.0 0.0 0.0 0.0 0.0 0.0 0.0 0.0 0.0 0.0 0.0 0.0 0.0 0.0 0.0 0.3 0.3 0.0 0.0 0.0 0.4 1.8 5.0 2.5 1.5 0.3 0.1 0.0 0.2 0.0 0.0 0.2 0.0 0.2 0.0 0.0 0.0 0.0 0.0 0.0 0.2 0.7 1.7 1.5 1.5 1.0 1.5 1.4 1.1 0.8 0.7 0.7 0.9
0.0 0.0 0.0 0.0 0.0 0.0 0.0 0.0 0.0 0.0 0.0 0.0 0.0 0.0 0.0 0.0 0.0 0.0 0.0 0.0 0.0 0.0 0.3 3.0 2.2 0.3 0.0 0.0 0.0 0.0 0.0 0.0 0.0 0.0 0.0 0.0 0.0 0.0 0.0 0.3 0.3 0.7 1.7 1.4 0.4 0.3 0.4 0.4 0.7 0.3 0.9 0.6 0.8 0.8
0.0 0.0 0.0 0.0 0.0 0.0 0.0 0.0 0.0 0.0 0.0 0.0 0.0 0.0 0.0 0.0 0.0 0.0 0.0 0.3 0.5 2.0 2.3 1.9 0.0 0.2 0.1 0.3 0.3 0.1 0.0 0.0 0.0 0.0 0.0 0.0 0.0 0.0 0.0 0.0 0.1 0.4 0.7 0.5 0.4 0.8 0.5 0.6 0.4 0.2 0.5 0.4 0.8 0.9
0.0 0.0 0.0 0.0 0.4 0.1 0.0 0.0 0.0 0.0 0.0 0.0 0.0 0.0 0.0 0.0 0.0 0.0 0.0 1.2 2.2 3.1 2.3 1.3 0.2 0.1 0.0 0.5 0.2 0.0 0.0 0.0 0.0 0.0 0.0 0.0 0.0 0.0 0.0 0.0 0.0 0.0 0.0 0.2 0.2 0.1 0.5 0.3 0.7 0.5 0.2 0.7 0.5 0.8
0.9 0.0 2.5 2.7 1.7 0.3 0.2 0.0 0.0 0.0 0.0 0.0 0.0 0.0 0.0 0.0 0.0 0.0 0.0 1.6 2.7 1.6 1.2 0.9 0.9 0.6 0.2 0.0 0.7 0.7 0.5 0.0 0.0 0.0 0.0 0.0 0.0 0.0 0.0 0.0 0.0 0.0 0.0 0.0 0.0 0.0 0.0 0.1 0.0 0.4 0.4 0.9 0.8 0.3
0.8 2.4 3.2 2.4 1.4 1.0 0.2 0.1 0.1 0.0 0.0 0.0 0.0 0.0 0.0 0.0 0.0 0.0 0.8 1.0 1.2 0.9 0.7 0.6 0.7 1.6 1.7 1.4 1.4 1.1 0.6 0.1 0.0 0.2 0.1 0.0 0.0 0.0 0.0 0.0 0.0 0.0 0.0 0.0 0.0 0.0 0.0 0.0 0.0 0.0 0.0 0.0 0.5 0.5
0.0 2.9 2.9 2.2 1.5 0.5 0.3 0.0 0.1 0.0 0.0 0.0 0.0 0.0 0.0 0.0 0.0 0.0 0.5 0.3 0.3 0.2 0.8 1.0 0.9 0.7 0.5 1.2 1.4 1.7 1.9 1.2 0.3 0.0 0.6 0.3 0.1 0.0 0.0 0.0 0.0 0.0 0.0 0.0 0.0 0.0 0.0 0.0 0.0 0.0 0.0 0.0 0.0 0.0
4.2 3.9 2.7 2.4 0.9 0.5 0.1 0.1 0.0 0.0 0.0 0.0 0.1 0.0 0.0 0.0 0.1 0.1 0.0 0.0 0.0 0.1 0.3 0.8 0.9 0.9 0.9 0.7 1.0 1.0 1.0 1.2 1.8 1.9 0.1 1.3 0.6 0.2 0.0 0.0 0.3 0.0 0.0 0.1 0.1 0.0 0.0 0.0 0.0 0.0 0.0 0.0 0.0 0.0
4.6 1.7 0.7 0.1 0.0 0.1 0.0 0.0 0.0 0.0 0.0 0.0 0.1 0.0 0.0 0.0 0.1 0.0 0.0 0.0 0.1 0.2 0.2 0.3 0.7 0.7 0.5 0.5 0.7 1.2 1.2 1.1 1.0 1.7 1.1 1.6 1.3 1.6 1.6 0.0 1.0 0.5 0.1 0.0 0.4 0.4 0.2 0.1 0.0 0.0 0.0 0.0 0.1 0.0
2.2 0.7 0.0 0.0 0.0 0.0 0.0 0.0 0.0 0.0 0.0 0.1 0.0 0.0 0.0 0.2 0.0 0.0 0.0 0.0 0.0 0.2 0.3 0.6 1.2 1.1 0.8 0.8 0.8 1.2 1.4 1.5 1.4 1.1 1.4 3.2 3.1 2.1 0.9 1.5 1.4 1.0 0.6 0.3 0.8 0.5 0.4 0.4 0.3 0.4 0.4 0.4 0.3 0.3
0.3 0.0 0.0 0.0 0.0 0.0 0.0 0.1 0.1 0.1 0.0 0.0 0.3 0.2 0.1 0.0 0.0 0.0 0.0 0.0 0.0 0.0 0.4 0.7 1.1 1.5 1.3 1.1 1.2 1.6 1.8 2.0 2.2 2.1 3.0 3.5 3.8 3.6 2.9 2.5 2.1 2.5 2.3 1.6 1.1 1.2 1.0 0.7 0.5 1.1 0.9 0.8 0.8 0.6
0.1 0.0 0.0 0.0 0.0 0.0 0.0 0.0 0.0 0.0 0.0 0.0 0.0 0.0 0.0 0.0 0.0 0.0 0.0 0.0 0.0 0.4 0.6 0.8 1.1 1.2 1.6 1.7 1.7 2.2 2.3 2.3 1.9 1.5 1.2 1.5 2.7 3.7 3.9 3.6 4.2 4.3 2.9 3.0 2.6 2.3 1.6 2.0 1.9 1.9 2.1 2.2 2.0 1.9
0.0 0.0 0.0 0.0 0.0 0.0 0.0 0.0 0.0 0.0 0.0 0.0 0.0 0.0 0.0 0.0 0.0 0.0 0.0 0.0 0.0 0.7 1.0 1.4 1.4 1.5 2.0 2.0 2.0 1.9 2.4 2.6 2.5 1.4 1.3 1.4 1.8 2.7 4.0 4.0 4.2 4.6 4.5 4.0 4.7 5.2 4.9 4.8 4.9 4.5 3.6 3.4 3.3 2.9
0.0 0.0 0.0 0.0 0.0 0.0 0.0 0.0 0.0 0.0 0.0 0.0 0.0 0.0 0.0 0.0 0.0 0.0 0.1 0.3 0.7 1.1 1.5 1.9 2.1 2.6 2.7 2.9 2.9 2.5 2.5 3.0 3.3 3.6 2.9 3.0 3.1 3.1 3.7 4.2 4.0 4.4 4.4 4.2 3.7 3.4 3.4 2.9 2.5 2.6 2.5 2.5 2.3 2.1
0.0 0.0 0.0 0.0 0.0 0.0 0.0 0.0 0.0 0.0 0.0 0.0 0.0 0.0 0.0 0.0 0.0 0.0 0.2 0.4 0.9 1.2 1.6 1.9 2.1 2.6 3.1 3.1 3.2 3.3 2.7 2.9 2.9 3.7 3.2 2.8 2.9 2.5 3.1 3.4 4.0 4.0 4.2 4.1 3.6 3.7 3.6 3.5 3.6 3.3 3.2 3.3 3.0 2.6
0.6 0.3 0.2 0.1 0.0 0.0 0.0 0.0 0.0 0.0 0.0 0.0 0.0 0.0 0.0 0.0 0.0 0.2 0.3 0.5 1.0 1.2 1.4 2.1 2.5 2.5 2.5 2.5 2.8 3.1 3.2 3.1 3.9 4.1 4.1 4.2 4.0 3.9 3.2 3.5 3.6 4.0 3.9 4.0 4.2 4.4 4.5 4.2 3.9 3.7 3.4 3.1 2.9 2.7

GFSWCAN_prec_snow_066.txt.gz
Snowfall_Accumulation
0.0 0.0 0.0 0.0 0.0 0.0 0.0 0.0 0.0 0.0 0.0 0.0 0.0 0.0 0.0 0.0 0.0 0.0 0.0 0.0 0.0 0.0 0.0 0.0 0.0 0.0 0.0 0.0 0.0 0.0 0.0 0.0 0.1 0.3 0.0 0.1 0.2 0.0 0.0 0.0 0.0 0.0 0.1 0.4 0.4 0.8 0.0 0.0 0.0 0.0 0.0 0.0 0.0 0.0
0.0 0.0 0.0 0.0 0.0 0.0 0.0 0.0 0.0 0.0 0.0 0.0 0.0 0.0 0.0 0.0 0.0 0.0 0.0 0.0 0.0 0.1 0.0 0.0 0.0 0.0 0.0 0.0 0.0 0.0 0.0 0.0 0.0 0.3 0.2 0.0 0.0 0.0 0.0 0.0 0.0 0.0 0.0 0.0 0.0 0.0 0.0 0.0 0.0 0.0 0.0 0.0 0.0 0.0
0.0 0.0 0.0 0.0 0.0 0.0 0.0 0.0 0.0 0.0 0.0 0.0 0.0 0.0 0.0 0.0 0.0 0.0 0.0 0.0 0.0 0.4 0.0 0.0 0.0 0.0 0.0 0.0 0.0 0.0 0.0 0.0 0.0 0.1 0.2 0.1 0.0 0.0 0.1 0.0 0.0 0.0 0.0 0.0 0.0 0.0 0.0 0.0 0.0 0.0 0.0 0.0 0.0 0.0
0.0 0.0 0.0 0.0 0.0 0.0 0.0 0.0 0.0 0.0 0.0 0.0 0.0 0.0 0.0 0.0 0.0 0.0 0.0 0.0 0.0 0.6 1.6 0.0 0.0 0.0 0.0 0.0 0.0 0.0 0.0 0.0 0.0 0.7 0.6 0.3 0.3 0.0 0.0 0.0 0.0 0.0 0.0 0.0 0.0 0.0 0.0 0.0 0.0 0.0 0.0 0.0 0.0 0.0
0.0 0.0 0.0 0.0 0.0 0.0 0.0 0.0 0.0 0.0 0.0 0.0 0.0 0.0 0.0 0.0 0.0 0.0 0.0 0.0 0.0 0.7 2.6 1.1 0.0 0.0 0.0 0.0 0.0 0.0 0.0 0.0 0.4 1.1 1.7 1.0 0.0 0.0 0.0 0.0 0.0 0.0 0.0 0.0 0.0 0.0 0.0 0.0 0.0 0.0 0.0 0.0 0.0 0.0
0.0 0.0 0.0 0.0 0.0 0.0 0.0 0.0 0.0 0.0 0.0 0.0 0.0 0.0 0.0 0.0 0.0 0.0 0.0 0.0 0.0 0.0 3.6 3.2 0.0 0.0 0.0 0.0 0.0 0.0 0.0 0.0 1.3 0.9 2.2 0.0 0.0 0.0 0.9 0.1 0.0 0.0 0.0 0.0 0.0 0.0 0.0 0.0 0.0 0.0 0.0 0.0 0.0 0.0
0.0 0.0 0.0 0.0 0.0 0.0 0.0 0.0 0.0 0.0 0.0 0.0 0.0 0.0 0.0 0.0 0.0 0.2 0.6 0.0 0.0 0.0 4.1 7.5 4.4 0.6 0.0 0.0 0.0 0.0 0.0 0.3 3.1 2.8 0.0 1.9 1.4 1.8 1.6 0.0 0.0 0.0 0.0 0.0 0.0 0.0 0.0 0.0 0.0 0.0 0.0 0.0 0.0 0.0
0.0 0.0 0.0 0.0 0.0 0.0 0.0 0.0 0.0 0.0 0.0 0.0 0.0 0.0 0.0 0.0 0.0 0.0 0.0 0.0 0.0 3.7 6.9 10.0 8.2 6.9 0.0 0.0 0.0 0.0 0.0 0.2 5.2 1.5 0.0 0.6 0.0 2.1 1.5 0.0 0.0 0.0 0.0 0.0 0.0 0.0 0.0 0.0 0.0 0.0 0.0 0.0 0.0 0.0
0.0 0.0 0.0 0.0 0.0 0.0 0.0 0.0 0.0 0.0 0.0 0.0 0.0 0.0 0.0 0.0 0.0 0.0 0.0 0.0 0.0 0.2 7.7 7.1 8.9 7.9 0.6 0.3 0.3 0.1 0.0 2.0 0.9 1.5 0.0 0.0 1.2 2.4 0.0 0.0 0.1 0.0 0.0 0.0 0.0 0.0 0.0 0.0 0.0 0.0 0.0 0.0 0.0 0.0
0.0 0.0 0.0 0.0 0.0 0.0 0.0 0.0 0.0 0.0 0.0 0.0 0.0 0.0 0.6 0.0 0.0 0.0 0.0 3.2 4.7 4.6 4.6 6.0 4.3 2.7 2.4 4.7 1.2 1.3 0.3 3.3 5.4 0.0 0.0 1.7 0.0 0.0 0.0 0.5 0.2 0.1 0.0 0.0 4.0 2.7 1.0 1.6 0.3 0.3 0.0 0.1 0.0 0.0
0.0 0.0 0.0 0.0 0.0 0.0 0.0 0.0 0.0 0.0 0.0 0.0 0.1 0.5 0.0 0.0 0.0 0.1 6.5 5.2 3.1 2.7 3.7 3.7 3.0 3.3 0.0 4.4 2.3 0.7 3.7 2.7 6.5 3.2 1.2 1.7 2.8 1.1 0.0 0.3 0.0 0.1 0.2 0.0 0.0 0.5 1.7 2.9 3.1 1.5 0.6 3.2 1.5 2.4
0.0 0.0 0.0 0.0 0.0 0.0 0.0 0.0 0.0 0.0 0.0 0.0 0.0 0.0 0.0 3.5 7.0 9.5 9.1 1.7 1.3 1.8 1.7 1.8 1.2 0.6 1.7 0.0 3.0 2.1 3.1 2.9 2.6 1.6 4.0 3.4 2.3 1.4 1.9 0.6 0.3 0.1 0.0 0.1 0.2 2.1 0.9 0.9 1.2 1.4 2.6 2.9 2.7 2.9
0.0 0.0 0.0 0.0 0.0 0.0 0.0 0.0 0.0 0.0 0.0 0.0 0.4 1.5 2.9 5.5 7.1 5.2 4.1 1.7 0.6 0.5 0.6 1.0 1.3 0.3 0.0 0.3 2.4 2.9 2.3 1.1 2.6 4.4 3.2 1.5 0.5 0.0 0.5 1.7 1.6 1.6 0.3 1.3 2.0 0.0 0.7 0.5 0.4 0.3 0.3 0.1 0.0 0.0
0.0 0.0 0.0 0.0 0.0 0.0 0.0 0.0 0.0 0.0 0.0 0.1 0.7 1.3 2.3 3.0 3.2 2.4 1.3 1.1 0.0 0.3 0.0 0.1 1.0 1.8 0.4 1.9 1.9 2.6 0.6 2.7 4.9 2.4 2.0 0.3 0.5 0.4 0.2 0.4 0.7 0.8 1.2 1.7 3.9 3.9 1.9 1.0 0.4 0.1 0.0 0.0 0.0 0.0
0.0 0.0 0.0 0.0 0.0 0.0 0.0 0.0 0.0 0.0 0.0 0.0 0.9 1.2 1.2 1.8 0.8 0.4 0.1 0.5 0.0 0.0 0.0 0.0 0.1 0.6 1.4 2.2 1.8 1.9 2.1 3.4 2.8 2.6 1.3 0.6 0.6 0.8 0.5 0.3 0.2 0.5 0.7 1.6 1.6 2.6 3.5 1.9 0.7 0.0 0.0 0.1 0.3 0.6
0.0 0.0 0.0 0.0 0.0 0.0 0.0 0.0 0.0 0.0 0.0 0.1 0.6 1.2 0.9 0.6 0.3 0.1 0.0 0.1 0.0 0.0 0.1 0.3 0.5 1.2 1.0 2.5 1.3 1.9 2.8 2.8 2.0 1.4 0.8 0.4 0.7 0.0 0.2 0.3 0.0 0.0 0.0 0.2 1.3 1.7 2.3 2.0 1.2 0.6 0.5 0.1 0.2 1.3
0.0 0.0 0.0 0.0 0.0 0.0 0.0 0.0 0.0 0.0 0.1 0.0 0.2 0.7 0.8 0.4 0.4 0.3 0.0 0.0 0.0 0.2 1.3 2.0 2.3 0.7 0.6 1.2 0.6 0.5 1.5 1.3 0.9 0.0 0.1 0.0 0.1 0.0 0.0 0.0 0.0 0.0 0.0 0.0 0.6 1.0 1.7 2.3 2.3 1.2 1.5 1.3 1.0 0.7
0.0 0.0 0.0 0.0 0.0 0.0 0.0 0.0 0.0 0.0 0.0 0.0 0.0 0.0 0.0 0.0 0.3 0.3 0.0 0.0 0.0 0.4 1.8 5.0 2.5 1.5 0.3 0.1 0.0 0.2 0.0 0.0 0.2 0.0 0.2 0.0 0.0 0.0 0.0 0.0 0.0 0.2 0.7 1.7 1.5 1.5 1.0 1.5 1.4 1.1 0.8 0.7 0.7 0.9
0.0 0.0 0.0 0.0 0.0 0.0 0.0 0.0 0.0 0.0 0.0 0.0 0.0 0.0 0.0 0.0 0.0 0.0 0.0 0.0 0.0 0.0 0.3 3.0 2.2 0.3 0.0 0.0 0.0 0.0 0.0 0.0 0.0 0.0 0.0 0.0 0.0 0.0 0.0 0.3 0.3 0.7 1.7 1.4 0.4 0.3 0.4 0.4 0.7 0.3 0.9 0.6 0.8 0.8
0.0 0.0 0.0 0.0 0.0 0.0 0.0 0.0 0.0 0.0 0.0 0.0 0.0 0.0 0.0 0.0 0.0 0.0 0.0 0.3 0.5 2.0 2.3 1.9 0.0 0.2 0.1 0.3 0.3 0.1 0.0 0.0 0.0 0.0 0.0 0.0 0.0 0.0 0.0 0.0 0.1 0.4 0.7 0.5 0.4 0.8 0.5 0.6 0.4 0.2 0.5 0.4 0.8 0.9
0.0 0.0 0.0 0.0 0.4 0.1 0.0 0.0 0.0 0.0 0.0 0.0 0.0 0.0 0.0 0.0 0.0 0.0 0.0 1.2 2.2 3.1 2.3 1.3 0.2 0.1 0.0 0.5 0.2 0.0 0.0 0.0 0.0 0.0 0.0 0.0 0.0 0.0 0.0 0.0 0.0 0.0 0.0 0.2 0.2 0.1 0.5 0.3 0.7 0.5 0.2 0.7 0.5 0.8
0.9 0.0 2.5 2.7 1.7 0.3 0.2 0.0 0.0 0.0 0.0 0.0 0.0 0.0 0.0 0.0 0.0 0.0 0.0 1.6 2.7 1.6 1.2 0.9 0.9 0.6 0.2 0.0 0.7 0.7 0.5 0.0 0.0 0.0 0.0 0.0 0.0 0.0 0.0 0.0 0.0 0.0 0.0 0.0 0.0 0.0 0.0 0.1 0.0 0.4 0.4 0.9 0.8 0.3
0.8 2.4 3.2 2.4 1.4 1.0 0.2 0.1 0.1 0.0 0.0 0.0 0.0 0.0 0.0 0.0 0.0 0.0 0.8 1.0 1.2 0.9 0.7 0.6 0.7 1.6 1.7 1.4 1.4 1.1 0.6 0.1 0.0 0.2 0.1 0.0 0.0 0.0 0.0 0.0 0.0 0.0 0.0 0.0 0.0 0.0 0.0 0.0 0.0 0.0 0.0 0.0 0.5 0.5
0.0 2.9 3.1 2.3 1.5 0.5 0.3 0.0 0.1 0.0 0.0 0.0 0.0 0.0 0.0 0.0 0.0 0.0 0.5 0.3 0.3 0.2 0.8 1.0 0.9 0.7 0.5 1.2 1.4 1.7 1.9 1.2 0.3 0.0 0.6 0.3 0.1 0.0 0.0 0.0 0.0 0.0 0.0 0.0 0.0 0.0 0.0 0.0 0.0 0.0 0.0 0.0 0.0 0.0
4.5 4.2 2.8 2.5 0.9 0.5 0.1 0.1 0.0 0.0 0.0 0.0 0.1 0.0 0.0 0.0 0.1 0.1 0.0 0.0 0.0 0.1 0.3 0.8 0.9 0.9 0.9 0.7 1.0 1.0 1.0 1.2 1.8 1.9 0.1 1.3 0.6 0.2 0.0 0.0 0.3 0.0 0.0 0.1 0.1 0.0 0.0 0.0 0.0 0.0 0.0 0.0 0.0 0.0
4.8 1.8 0.7 0.1 0.0 0.1 0.0 0.0 0.1 0.0 0.0 0.0 0.1 0.0 0.0 0.0 0.1 0.0 0.0 0.0 0.1 0.2 0.2 0.3 0.7 0.7 0.5 0.5 0.7 1.2 1.2 1.1 1.0 1.7 1.1 1.6 1.3 1.6 1.6 0.1 1.0 0.5 0.1 0.0 0.4 0.4 0.2 0.1 0.0 0.0 0.0 0.0 0.1 0.0
2.2 0.7 0.0 0.0 0.0 0.0 0.0 0.0 0.0 0.0 0.0 0.1 0.0 0.0 0.0 0.2 0.0 0.0 0.0 0.0 0.0 0.2 0.3 0.6 1.2 1.1 0.8 0.8 0.8 1.2 1.4 1.5 1.4 1.1 1.4 3.2 3.1 2.1 0.9 1.6 1.4 1.0 0.6 0.3 0.9 0.6 0.5 0.5 0.3 0.4 0.4 0.4 0.3 0.3
0.3 0.0 0.0 0.0 0.1 0.1 0.0 0.1 0.1 0.1 0.0 0.0 0.3 0.2 0.1 0.0 0.0 0.0 0.0 0.0 0.0 0.0 0.4 0.7 1.1 1.5 1.3 1.1 1.2 1.6 1.8 2.0 2.2 2.1 3.0 3.5 3.8 3.6 2.9 2.5 2.1 2.5 2.3 1.6 1.1 1.3 1.1 0.8 0.6 1.2 0.9 0.8 0.8 0.7
0.1 0.0 0.1 0.1 0.0 0.0 0.0 0.0 0.0 0.0 0.0 0.0 0.0 0.0 0.0 0.0 0.0 0.0 0.0 0.0 0.0 0.4 0.6 0.8 1.1 1.2 1.6 1.7 1.7 2.2 2.3 2.3 1.9 1.5 1.2 1.5 2.7 3.7 3.9 3.6 4.2 4.3 2.9 3.0 2.6 2.4 1.8 2.3 2.1 2.1 2.3 2.3 2.1 2.0
0.1 0.0 0.0 0.0 0.0 0.0 0.0 0.0 0.0 0.0 0.0 0.0 0.0 0.0 0.0 0.0 0.0 0.0 0.0 0.0 0.0 0.7 1.0 1.4 1.4 1.5 2.0 2.0 2.0 1.9 2.4 2.6 2.5 1.4 1.3 1.4 1.8 2.7 4.0 4.0 4.2 4.6 4.5 4.1 4.7 5.2 5.0 4.9 5.0 4.6 3.7 3.4 3.3 2.9
0.0 0.0 0.0 0.0 0.0 0.0 0.0 0.0 0.0 0.0 0.0 0.0 0.0 0.0 0.0 0.0 0.0 0.0 0.1 0.3 0.7 1.1 1.5 1.9 2.1 2.6 2.7 2.9 2.9 2.5 2.5 3.0 3.3 3.6 2.9 3.0 3.1 3.1 3.7 4.2 4.0 4.5 4.5 4.2 3.7 3.4 3.5 3.0 2.6 2.6 2.5 2.5 2.4 2.1
0.0 0.0 0.0 0.0 0.0 0.0 0.0 0.0 0.0 0.0 0.0 0.0 0.0 0.0 0.0 0.0 0.0 0.0 0.2 0.4 0.9 1.2 1.6 1.9 2.1 2.6 3.1 3.1 3.2 3.3 2.7 2.9 2.9 3.7 3.2 2.9 2.9 2.5 3.2 3.5 4.1 4.0 4.2 4.1 3.6 3.8 3.6 3.6 3.7 3.4 3.2 3.3 3.0 2.6
0.6 0.3 0.2 0.1 0.0 0.0 0.0 0.0 0.0 0.0 0.0 0.0 0.0 0.0 0.0 0.0 0.0 0.2 0.3 0.5 1.0 1.2 1.4 2.1 2.5 2.5 2.5 2.5 2.8 3.1 3.2 3.1 3.9 4.1 4.1 4.2 4.1 4.2 3.5 3.6 3.6 4.0 3.9 4.0 4.2 4.5 4.6 4.2 3.9 3.7 3.4 3.1 2.9 2.7

GFSWCAN_prec_snow_069.txt.gz
Snowfall_Accumulation
0.0 0.0 0.0 0.0 0.0 0.0 0.0 0.0 0.0 0.0 0.0 0.0 0.0 0.0 0.0 0.0 0.0 0.0 0.0 0.0 0.0 0.0 0.0 0.0 0.0 0.0 0.0 0.0 0.0 0.0 0.0 0.0 0.1 0.3 0.0 0.1 0.2 0.0 0.0 0.0 0.0 0.0 0.1 0.4 0.4 0.8 0.0 0.0 0.0 0.0 0.0 0.0 0.0 0.0
0.0 0.0 0.0 0.0 0.0 0.0 0.0 0.0 0.0 0.0 0.0 0.0 0.0 0.0 0.0 0.0 0.0 0.0 0.0 0.0 0.0 0.1 0.0 0.0 0.0 0.0 0.0 0.0 0.0 0.0 0.0 0.0 0.0 0.3 0.2 0.0 0.0 0.0 0.0 0.0 0.0 0.0 0.0 0.0 0.0 0.0 0.0 0.0 0.0 0.0 0.0 0.0 0.0 0.0
0.0 0.0 0.0 0.0 0.0 0.0 0.0 0.0 0.0 0.0 0.0 0.0 0.0 0.0 0.0 0.0 0.0 0.0 0.0 0.0 0.0 0.4 0.0 0.0 0.0 0.0 0.0 0.0 0.0 0.0 0.0 0.0 0.0 0.1 0.2 0.1 0.0 0.0 0.1 0.0 0.0 0.0 0.0 0.0 0.0 0.0 0.0 0.0 0.0 0.0 0.0 0.0 0.0 0.0
0.0 0.0 0.0 0.0 0.0 0.0 0.0 0.0 0.0 0.0 0.0 0.0 0.0 0.0 0.0 0.0 0.0 0.0 0.0 0.0 0.0 0.6 1.6 0.0 0.0 0.0 0.0 0.0 0.0 0.0 0.0 0.0 0.0 0.7 0.6 0.3 0.3 0.0 0.0 0.0 0.0 0.0 0.0 0.0 0.0 0.0 0.0 0.0 0.0 0.0 0.0 0.0 0.0 0.0
0.0 0.0 0.0 0.0 0.0 0.0 0.0 0.0 0.0 0.0 0.0 0.0 0.0 0.0 0.0 0.0 0.0 0.0 0.0 0.0 0.0 0.7 2.6 1.1 0.0 0.0 0.0 0.0 0.0 0.0 0.0 0.0 0.4 1.1 1.7 1.0 0.0 0.0 0.0 0.0 0.0 0.0 0.0 0.0 0.0 0.0 0.0 0.0 0.0 0.0 0.0 0.0 0.0 0.0
0.0 0.0 0.0 0.0 0.0 0.0 0.0 0.0 0.0 0.0 0.0 0.0 0.0 0.0 0.0 0.0 0.0 0.0 0.0 0.0 0.0 0.0 3.6 3.2 0.0 0.0 0.0 0.0 0.0 0.0 0.0 0.0 1.3 0.9 2.2 0.0 0.0 0.0 0.9 0.1 0.0 0.0 0.0 0.0 0.0 0.0 0.0 0.0 0.0 0.0 0.0 0.0 0.0 0.0
0.0 0.0 0.0 0.0 0.0 0.0 0.0 0.0 0.0 0.0 0.0 0.0 0.0 0.0 0.0 0.0 0.0 0.2 0.6 0.0 0.0 0.0 4.1 7.5 4.4 0.6 0.0 0.0 0.0 0.0 0.0 0.3 3.1 2.8 0.0 1.9 1.4 1.8 1.6 0.0 0.0 0.0 0.0 0.0 0.0 0.0 0.0 0.0 0.0 0.0 0.0 0.0 0.0 0.0
0.0 0.0 0.0 0.0 0.0 0.0 0.0 0.0 0.0 0.0 0.0 0.0 0.0 0.0 0.0 0.0 0.0 0.0 0.0 0.0 0.0 3.7 6.9 10.0 8.2 6.9 0.0 0.0 0.0 0.0 0.0 0.2 5.2 1.5 0.0 0.6 0.0 2.1 1.5 0.0 0.0 0.0 0.0 0.0 0.0 0.0 0.0 0.0 0.0 0.0 0.0 0.0 0.0 0.0
0.0 0.0 0.0 0.0 0.0 0.0 0.0 0.0 0.0 0.0 0.0 0.0 0.0 0.0 0.0 0.0 0.0 0.0 0.0 0.0 0.0 0.2 7.7 7.1 8.9 7.9 0.6 0.3 0.3 0.1 0.0 2.0 0.9 1.5 0.0 0.0 1.2 2.4 0.0 0.0 0.1 0.0 0.0 0.0 0.0 0.0 0.0 0.0 0.0 0.0 0.0 0.0 0.0 0.0
0.0 0.0 0.0 0.0 0.0 0.0 0.0 0.0 0.0 0.0 0.0 0.0 0.0 0.0 0.6 0.0 0.0 0.0 0.0 3.2 4.7 4.6 4.6 6.0 4.3 2.7 2.4 4.7 1.2 1.3 0.3 3.3 5.4 0.0 0.0 1.7 0.0 0.0 0.0 0.5 0.2 0.1 0.0 0.0 4.0 2.7 1.0 1.6 0.3 0.3 0.0 0.1 0.0 0.0
0.0 0.0 0.0 0.0 0.0 0.0 0.0 0.0 0.0 0.0 0.0 0.0 0.1 0.5 0.0 0.0 0.0 0.1 6.5 5.2 3.1 2.7 3.7 3.7 3.0 3.3 0.0 4.4 2.3 0.7 3.7 2.7 6.5 3.2 1.2 1.7 2.8 1.1 0.0 0.3 0.0 0.1 0.2 0.0 0.0 0.5 1.7 2.9 3.1 1.5 0.6 3.2 1.5 2.4
0.0 0.0 0.0 0.0 0.0 0.0 0.0 0.0 0.0 0.0 0.0 0.0 0.0 0.0 0.0 3.5 7.0 9.5 9.1 1.7 1.3 1.8 1.7 1.8 1.2 0.6 1.7 0.0 3.0 2.1 3.1 2.9 2.6 1.6 4.0 3.4 2.3 1.4 1.9 0.6 0.3 0.1 0.0 0.1 0.2 2.1 0.9 0.9 1.2 1.4 2.6 2.9 2.7 2.9
0.0 0.0 0.0 0.0 0.0 0.0 0.0 0.0 0.0 0.0 0.0 0.0 0.4 1.5 2.9 5.5 7.1 5.2 4.1 1.7 0.6 0.5 0.6 1.0 1.3 0.3 0.0 0.3 2.4 2.9 2.3 1.1 2.6 4.4 3.2 1.5 0.5 0.0 0.5 1.7 1.6 1.6 0.3 1.3 2.0 0.0 0.7 0.5 0.4 0.3 0.3 0.1 0.0 0.0
0.0 0.0 0.0 0.0 0.0 0.0 0.0 0.0 0.0 0.0 0.0 0.1 0.7 1.3 2.3 3.0 3.2 2.4 1.3 1.1 0.0 0.3 0.0 0.1 1.0 1.8 0.4 1.9 1.9 2.6 0.6 2.7 4.9 2.4 2.0 0.3 0.5 0.4 0.2 0.4 0.7 0.8 1.2 1.7 3.9 3.9 1.9 1.0 0.4 0.1 0.0 0.0 0.0 0.0
0.0 0.0 0.0 0.0 0.0 0.0 0.0 0.0 0.0 0.0 0.0 0.0 0.9 1.2 1.2 1.8 0.8 0.4 0.1 0.5 0.0 0.0 0.0 0.0 0.1 0.6 1.4 2.2 1.8 1.9 2.1 3.4 2.8 2.6 1.3 0.6 0.6 0.8 0.5 0.3 0.2 0.5 0.7 1.6 1.6 2.6 3.5 1.9 0.7 0.0 0.0 0.1 0.3 0.6
0.0 0.0 0.0 0.0 0.0 0.0 0.0 0.0 0.0 0.0 0.0 0.1 0.6 1.2 0.9 0.6 0.3 0.1 0.0 0.1 0.0 0.0 0.1 0.3 0.5 1.2 1.0 2.5 1.3 1.9 2.8 2.8 2.0 1.4 0.8 0.4 0.7 0.0 0.2 0.3 0.0 0.0 0.0 0.2 1.3 1.7 2.3 2.0 1.2 0.6 0.5 0.1 0.2 1.3
0.0 0.0 0.0 0.0 0.0 0.0 0.0 0.0 0.0 0.0 0.1 0.0 0.2 0.7 0.8 0.4 0.4 0.3 0.0 0.0 0.0 0.2 1.3 2.0 2.3 0.7 0.6 1.2 0.6 0.5 1.5 1.3 0.9 0.0 0.1 0.0 0.1 0.0 0.0 0.0 0.0 0.0 0.0 0.0 0.6 1.0 1.7 2.3 2.3 1.2 1.5 1.3 1.0 0.7
0.0 0.0 0.0 0.0 0.0 0.0 0.0 0.0 0.0 0.0 0.0 0.0 0.0 0.0 0.0 0.0 0.3 0.3 0.0 0.0 0.0 0.4 1.8 5.0 2.5 1.5 0.3 0.1 0.0 0.2 0.0 0.0 0.2 0.0 0.2 0.0 0.0 0.0 0.0 0.0 0.0 0.2 0.7 1.7 1.5 1.5 1.0 1.5 1.4 1.1 0.8 0.7 0.7 0.9
0.0 0.0 0.0 0.0 0.0 0.0 0.0 0.0 0.0 0.0 0.0 0.0 0.0 0.0 0.0 0.0 0.0 0.0 0.0 0.0 0.0 0.0 0.3 3.0 2.2 0.3 0.0 0.0 0.0 0.0 0.0 0.0 0.0 0.0 0.0 0.0 0.0 0.0 0.0 0.3 0.3 0.7 1.7 1.4 0.4 0.3 0.4 0.4 0.7 0.3 0.9 0.6 0.8 0.8
0.0 0.0 0.0 0.0 0.0 0.0 0.0 0.0 0.0 0.0 0.0 0.0 0.0 0.0 0.0 0.0 0.0 0.0 0.0 0.3 0.5 2.0 2.3 1.9 0.0 0.2 0.1 0.3 0.3 0.1 0.0 0.0 0.0 0.0 0.0 0.0 0.0 0.0 0.0 0.0 0.1 0.4 0.7 0.5 0.4 0.8 0.5 0.6 0.4 0.2 0.5 0.4 0.8 0.9
0.0 0.0 0.0 0.0 0.5 0.1 0.0 0.0 0.0 0.0 0.0 0.0 0.0 0.0 0.0 0.0 0.0 0.0 0.0 1.2 2.2 3.1 2.3 1.3 0.2 0.1 0.0 0.5 0.2 0.0 0.0 0.0 0.0 0.0 0.0 0.0 0.0 0.0 0.0 0.0 0.0 0.0 0.0 0.2 0.2 0.1 0.5 0.3 0.7 0.5 0.2 0.7 0.5 0.8
0.9 0.0 2.5 2.7 1.7 0.3 0.2 0.0 0.0 0.0 0.0 0.0 0.0 0.0 0.0 0.0 0.0 0.0 0.0 1.6 2.7 1.6 1.2 0.9 0.9 0.6 0.2 0.0 0.7 0.7 0.5 0.0 0.0 0.0 0.0 0.0 0.0 0.0 0.0 0.0 0.0 0.0 0.0 0.0 0.0 0.0 0.0 0.1 0.0 0.4 0.4 0.9 0.8 0.3
0.8 2.4 3.2 2.4 1.4 1.0 0.2 0.1 0.1 0.0 0.0 0.0 0.0 0.0 0.0 0.0 0.0 0.0 0.8 1.0 1.2 0.9 0.7 0.6 0.7 1.6 1.7 1.4 1.4 1.1 0.6 0.1 0.0 0.2 0.1 0.0 0.0 0.0 0.0 0.0 0.0 0.0 0.0 0.0 0.0 0.0 0.0 0.0 0.0 0.0 0.0 0.0 0.5 0.5
0.0 3.0 3.2 2.4 1.5 0.5 0.3 0.0 0.1 0.0 0.0 0.0 0.0 0.0 0.0 0.0 0.0 0.0 0.5 0.3 0.3 0.2 0.8 1.0 0.9 0.7 0.5 1.2 1.4 1.7 1.9 1.2 0.3 0.0 0.6 0.3 0.1 0.0 0.0 0.0 0.0 0.0 0.0 0.0 0.0 0.0 0.0 0.0 0.0 0.0 0.0 0.0 0.0 0.0
4.7 4.4 2.9 2.5 0.9 0.5 0.1 0.1 0.0 0.0 0.0 0.0 0.1 0.0 0.0 0.0 0.1 0.1 0.0 0.0 0.0 0.1 0.3 0.8 0.9 0.9 0.9 0.7 1.0 1.0 1.0 1.2 1.8 1.9 0.1 1.3 0.6 0.2 0.0 0.0 0.3 0.0 0.0 0.1 0.1 0.0 0.0 0.0 0.0 0.0 0.0 0.0 0.0 0.0
5.0 1.8 0.7 0.1 0.0 0.1 0.0 0.0 0.1 0.0 0.1 0.1 0.1 0.0 0.0 0.0 0.1 0.0 0.0 0.0 0.1 0.2 0.2 0.3 0.7 0.7 0.5 0.5 0.7 1.2 1.2 1.1 1.0 1.7 1.1 1.6 1.3 1.6 1.6 0.1 1.1 0.5 0.1 0.0 0.5 0.4 0.2 0.1 0.0 0.0 0.0 0.0 0.2 0.1
2.2 0.7 0.0 0.0 0.0 0.0 0.0 0.0 0.1 0.1 0.0 0.1 0.0 0.0 0.0 0.2 0.0 0.0 0.0 0.0 0.0 0.2 0.3 0.6 1.2 1.1 0.8 0.8 0.8 1.2 1.4 1.5 1.4 1.1 1.4 3.2 3.1 2.1 1.0 1.6 1.4 1.0 0.7 0.3 0.9 0.6 0.6 0.5 0.3 0.4 0.4 0.5 0.4 0.4
0.3 0.0 0.0 0.0 0.1 0.1 0.1 0.2 0.2 0.1 0.0 0.0 0.3 0.2 0.1 0.0 0.0 0.0 0.0 0.0 0.0 0.0 0.4 0.7 1.1 1.5 1.3 1.1 1.2 1.6 1.8 2.0 2.2 2.1 3.0 3.5 3.8 3.6 2.9 2.5 2.1 2.5 2.3 1.6 1.2 1.4 1.2 1.0 0.7 1.2 1.0 0.9 0.9 0.8
0.1 0.0 0.1 0.1 0.0 0.1 0.1 0.0 0.0 0.0 0.0 0.0 0.0 0.0 0.0 0.0 0.0 0.0 0.0 0.0 0.0 0.4 0.6 0.8 1.1 1.2 1.6 1.7 1.7 2.2 2.3 2.3 1.9 1.5 1.2 1.5 2.7 3.7 3.9 3.6 4.2 4.3 2.9 3.0 2.6 2.6 2.0 2.4 2.2 2.3 2.4 2.4 2.2 2.1
0.1 0.0 0.0 0.1 0.0 0.1 0.0 0.0 0.0 0.0 0.0 0.0 0.0 0.0 0.0 0.0 0.0 0.0 0.0 0.0 0.0 0.7 1.0 1.4 1.4 1.5 2.0 2.0 2.0 1.9 2.4 2.6 2.5 1.4 1.3 1.4 1.8 2.7 4.0 4.0 4.2 4.6 4.5 4.2 4.7 5.2 5.0 4.9 5.0 4.6 3.7 3.4 3.3 3.0
0.0 0.0 0.0 0.0 0.0 0.0 0.0 0.0 0.0 0.0 0.0 0.0 0.0 0.0 0.0 0.0 0.0 0.0 0.1 0.3 0.7 1.1 1.5 1.9 2.1 2.6 2.7 2.9 2.9 2.5 2.5 3.0 3.3 3.6 2.9 3.1 3.1 3.1 3.7 4.2 4.0 4.5 4.6 4.2 3.7 3.4 3.5 3.0 2.6 2.6 2.5 2.5 2.4 2.1
0.0 0.0 0.0 0.0 0.0 0.0 0.0 0.0 0.0 0.0 0.0 0.0 0.0 0.0 0.0 0.0 0.0 0.0 0.2 0.4 0.9 1.2 1.6 1.9 2.1 2.6 3.1 3.1 3.2 3.3 2.7 2.9 2.9 3.7 3.2 2.9 2.9 2.5 3.2 3.7 4.1 4.0 4.2 4.1 3.6 3.8 3.6 3.6 3.7 3.4 3.2 3.3 3.0 2.6
0.6 0.3 0.2 0.1 0.0 0.0 0.0 0.0 0.0 0.0 0.0 0.0 0.0 0.0 0.0 0.0 0.0 0.2 0.3 0.5 1.0 1.2 1.4 2.1 2.5 2.5 2.5 2.5 2.8 3.1 3.2 3.1 3.9 4.1 4.1 4.3 4.2 4.2 3.5 3.6 3.6 4.0 3.9 4.0 4.2 4.5 4.6 4.2 3.9 3.7 3.4 3.1 2.9 2.7

GFSWCAN_prec_snow_072.txt.gz
Snowfall_Accumulation
0.0 0.0 0.0 0.0 0.0 0.0 0.0 0.0 0.0 0.0 0.0 0.0 0.0 0.0 0.0 0.0 0.0 0.0 0.0 0.0 0.0 0.0 0.0 0.0 0.0 0.0 0.0 0.0 0.0 0.0 0.0 0.0 0.1 0.3 0.0 0.1 0.2 0.0 0.0 0.0 0.0 0.0 0.1 0.4 0.4 0.8 0.0 0.0 0.0 0.0 0.0 0.0 0.0 0.0
0.0 0.0 0.0 0.0 0.0 0.0 0.0 0.0 0.0 0.0 0.0 0.0 0.0 0.0 0.0 0.0 0.0 0.0 0.0 0.0 0.0 0.1 0.0 0.0 0.0 0.0 0.0 0.0 0.0 0.0 0.0 0.0 0.0 0.3 0.2 0.0 0.0 0.0 0.0 0.0 0.0 0.0 0.0 0.0 0.0 0.0 0.0 0.0 0.0 0.0 0.0 0.0 0.0 0.0
0.0 0.0 0.0 0.0 0.0 0.0 0.0 0.0 0.0 0.0 0.0 0.0 0.0 0.0 0.0 0.0 0.0 0.0 0.0 0.0 0.0 0.4 0.0 0.0 0.0 0.0 0.0 0.0 0.0 0.0 0.0 0.0 0.0 0.1 0.2 0.1 0.0 0.0 0.1 0.0 0.0 0.0 0.0 0.0 0.0 0.0 0.0 0.0 0.0 0.0 0.0 0.0 0.0 0.0
0.0 0.0 0.0 0.0 0.0 0.0 0.0 0.0 0.0 0.0 0.0 0.0 0.0 0.0 0.0 0.0 0.0 0.0 0.0 0.0 0.0 0.6 1.6 0.0 0.0 0.0 0.0 0.0 0.0 0.0 0.0 0.0 0.0 0.7 0.6 0.3 0.3 0.0 0.0 0.0 0.0 0.0 0.0 0.0 0.0 0.0 0.0 0.0 0.0 0.0 0.0 0.0 0.0 0.0
0.0 0.0 0.0 0.0 0.0 0.0 0.0 0.0 0.0 0.0 0.0 0.0 0.0 0.0 0.0 0.0 0.0 0.0 0.0 0.0 0.0 0.7 2.6 1.1 0.0 0.0 0.0 0.0 0.0 0.0 0.0 0.0 0.4 1.1 1.7 1.0 0.0 0.0 0.0 0.0 0.0 0.0 0.0 0.0 0.0 0.0 0.0 0.0 0.0 0.0 0.0 0.0 0.0 0.0
0.0 0.0 0.0 0.0 0.0 0.0 0.0 0.0 0.0 0.0 0.0 0.0 0.0 0.0 0.0 0.0 0.0 0.0 0.0 0.0 0.0 0.0 3.6 3.2 0.0 0.0 0.0 0.0 0.0 0.0 0.0 0.0 1.3 0.9 2.2 0.0 0.0 0.0 0.9 0.1 0.0 0.0 0.0 0.0 0.0 0.0 0.0 0.0 0.0 0.0 0.0 0.0 0.0 0.0
0.0 0.0 0.0 0.0 0.0 0.0 0.0 0.0 0.0 0.0 0.0 0.0 0.0 0.0 0.0 0.0 0.0 0.2 0.6 0.0 0.0 0.0 4.1 7.5 4.4 0.6 0.0 0.0 0.0 0.0 0.0 0.3 3.1 2.8 0.0 1.9 1.4 1.8 1.6 0.0 0.0 0.0 0.0 0.0 0.0 0.0 0.0 0.0 0.0 0.0 0.0 0.0 0.0 0.0
0.0 0.0 0.0 0.0 0.0 0.0 0.0 0.0 0.0 0.0 0.0 0.0 0.0 0.0 0.0 0.0 0.0 0.0 0.0 0.0 0.0 3.7 6.9 10.0 8.2 6.9 0.0 0.0 0.0 0.0 0.0 0.2 5.2 1.5 0.0 0.6 0.0 2.1 1.5 0.0 0.0 0.0 0.0 0.0 0.0 0.0 0.0 0.0 0.0 0.0 0.0 0.0 0.0 0.0
0.0 0.0 0.0 0.0 0.0 0.0 0.0 0.0 0.0 0.0 0.0 0.0 0.0 0.0 0.0 0.0 0.0 0.0 0.0 0.0 0.0 0.2 7.7 7.1 8.9 7.9 0.6 0.3 0.3 0.1 0.0 2.0 0.9 1.5 0.0 0.0 1.2 2.4 0.0 0.0 0.1 0.0 0.0 0.0 0.0 0.0 0.0 0.0 0.0 0.0 0.0 0.0 0.0 0.0
0.0 0.0 0.0 0.0 0.0 0.0 0.0 0.0 0.0 0.0 0.0 0.0 0.0 0.0 0.6 0.0 0.0 0.0 0.0 3.2 4.7 4.6 4.6 6.0 4.3 2.7 2.4 4.7 1.2 1.3 0.3 3.3 5.4 0.0 0.0 1.7 0.0 0.0 0.0 0.5 0.2 0.1 0.0 0.0 4.0 2.7 1.0 1.6 0.3 0.3 0.0 0.1 0.0 0.0
0.0 0.0 0.0 0.0 0.0 0.0 0.0 0.0 0.0 0.0 0.0 0.0 0.1 0.5 0.0 0.0 0.0 0.1 6.5 5.2 3.1 2.7 3.7 3.7 3.0 3.3 0.0 4.4 2.3 0.7 3.7 2.7 6.5 3.2 1.2 1.7 2.8 1.1 0.0 0.3 0.0 0.1 0.2 0.0 0.0 0.5 1.7 2.9 3.1 1.5 0.6 3.2 1.5 2.4
0.0 0.0 0.0 0.0 0.0 0.0 0.0 0.0 0.0 0.0 0.0 0.0 0.0 0.0 0.0 3.5 7.0 9.5 9.2 1.7 1.3 1.8 1.7 1.8 1.2 0.6 1.7 0.0 3.0 2.1 3.1 2.9 2.6 1.6 4.0 3.4 2.3 1.4 1.9 0.6 0.3 0.1 0.0 0.1 0.2 2.1 0.9 0.9 1.2 1.4 2.6 2.9 2.7 2.9
0.0 0.0 0.0 0.0 0.0 0.0 0.0 0.0 0.0 0.0 0.0 0.0 0.4 1.5 2.9 5.5 7.1 5.2 4.1 1.7 0.6 0.5 0.6 1.0 1.3 0.3 0.0 0.3 2.4 2.9 2.3 1.1 2.6 4.4 3.2 1.5 0.5 0.0 0.5 1.7 1.6 1.6 0.3 1.3 2.0 0.0 0.7 0.5 0.4 0.3 0.3 0.1 0.0 0.0
0.0 0.0 0.0 0.0 0.0 0.0 0.0 0.0 0.0 0.0 0.0 0.1 0.7 1.3 2.3 3.0 3.2 2.4 1.3 1.1 0.0 0.3 0.0 0.1 1.0 1.8 0.4 1.9 1.9 2.6 0.6 2.7 4.9 2.4 2.0 0.3 0.5 0.4 0.2 0.4 0.7 0.8 1.2 1.7 3.9 3.9 1.9 1.0 0.4 0.1 0.0 0.0 0.0 0.0
0.0 0.0 0.0 0.0 0.0 0.0 0.0 0.0 0.0 0.0 0.0 0.0 0.9 1.2 1.2 1.8 0.8 0.4 0.1 0.5 0.0 0.0 0.0 0.0 0.1 0.6 1.4 2.2 1.8 1.9 2.1 3.4 2.8 2.6 1.3 0.6 0.6 0.8 0.5 0.3 0.2 0.5 0.7 1.6 1.6 2.6 3.5 1.9 0.7 0.0 0.0 0.1 0.3 0.6
0.0 0.0 0.0 0.0 0.0 0.0 0.0 0.0 0.0 0.0 0.0 0.1 0.6 1.2 0.9 0.6 0.3 0.1 0.0 0.1 0.0 0.0 0.1 0.3 0.5 1.2 1.0 2.5 1.3 1.9 2.8 2.8 2.0 1.4 0.8 0.4 0.7 0.0 0.2 0.3 0.0 0.0 0.0 0.2 1.3 1.7 2.3 2.0 1.2 0.6 0.5 0.1 0.2 1.3
0.0 0.0 0.0 0.0 0.0 0.0 0.0 0.0 0.0 0.0 0.1 0.0 0.2 0.7 0.8 0.4 0.4 0.3 0.0 0.0 0.0 0.2 1.3 2.0 2.3 0.7 0.6 1.2 0.6 0.5 1.5 1.3 0.9 0.0 0.1 0.0 0.1 0.0 0.0 0.0 0.0 0.0 0.0 0.0 0.6 1.0 1.7 2.3 2.3 1.2 1.5 1.3 1.0 0.7
0.0 0.0 0.0 0.0 0.0 0.0 0.0 0.0 0.0 0.0 0.0 0.0 0.0 0.0 0.0 0.0 0.3 0.3 0.0 0.0 0.0 0.4 1.8 5.0 2.5 1.5 0.3 0.1 0.0 0.2 0.0 0.0 0.2 0.0 0.2 0.0 0.0 0.0 0.0 0.0 0.0 0.2 0.7 1.7 1.5 1.5 1.0 1.5 1.4 1.1 0.8 0.7 0.7 0.9
0.0 0.0 0.0 0.0 0.0 0.0 0.3 0.1 0.0 0.0 0.0 0.0 0.0 0.0 0.0 0.0 0.0 0.0 0.0 0.0 0.0 0.0 0.3 3.0 2.2 0.3 0.0 0.0 0.0 0.0 0.0 0.0 0.0 0.0 0.0 0.0 0.0 0.0 0.0 0.3 0.3 0.7 1.7 1.4 0.4 0.3 0.4 0.4 0.7 0.3 0.9 0.6 0.8 0.8
0.0 0.0 0.0 0.0 0.0 0.0 0.0 0.0 0.0 0.0 0.0 0.0 0.0 0.0 0.0 0.0 0.0 0.0 0.0 0.3 0.5 2.0 2.3 1.9 0.0 0.2 0.1 0.3 0.3 0.1 0.0 0.0 0.0 0.0 0.0 0.0 0.0 0.0 0.0 0.0 0.1 0.4 0.7 0.5 0.4 0.8 0.5 0.6 0.4 0.2 0.5 0.4 0.8 0.9
0.0 0.0 0.0 0.0 0.5 0.1 0.0 0.0 0.0 0.0 0.0 0.0 0.0 0.0 0.0 0.0 0.0 0.0 0.0 1.2 2.2 3.1 2.3 1.3 0.2 0.1 0.0 0.5 0.2 0.0 0.0 0.0 0.0 0.0 0.0 0.0 0.0 0.0 0.0 0.0 0.0 0.0 0.0 0.2 0.2 0.1 0.5 0.3 0.7 0.5 0.2 0.7 0.5 0.8
0.9 0.0 3.6 2.7 1.7 0.4 0.2 0.0 0.0 0.0 0.0 0.0 0.0 0.0 0.0 0.0 0.0 0.0 0.0 1.6 2.7 1.6 1.2 0.9 0.9 0.6 0.2 0.0 0.7 0.7 0.5 0.0 0.0 0.0 0.0 0.0 0.0 0.0 0.0 0.0 0.0 0.0 0.0 0.0 0.0 0.0 0.0 0.1 0.0 0.4 0.4 0.9 0.8 0.3
0.8 2.4 3.4 2.5 1.5 1.0 0.2 0.1 0.1 0.0 0.0 0.0 0.0 0.0 0.0 0.0 0.0 0.0 0.8 1.0 1.2 0.9 0.7 0.6 0.7 1.6 1.7 1.4 1.4 1.1 0.6 0.1 0.0 0.2 0.1 0.0 0.0 0.0 0.0 0.0 0.0 0.0 0.0 0.0 0.0 0.0 0.0 0.0 0.0 0.0 0.0 0.0 0.5 0.5
0.0 3.6 3.4 2.5 1.6 0.6 0.3 0.1 0.1 0.0 0.0 0.0 0.0 0.0 0.0 0.0 0.0 0.0 0.5 0.3 0.3 0.2 0.8 1.0 0.9 0.7 0.5 1.2 1.4 1.7 1.9 1.2 0.3 0.0 0.6 0.3 0.1 0.0 0.0 0.0 0.0 0.0 0.0 0.0 0.0 0.0 0.0 0.0 0.0 0.0 0.0 0.0 0.0 0.0
5.4 4.7 3.1 2.6 0.9 0.5 0.1 0.1 0.0 0.0 0.0 0.0 0.1 0.0 0.0 0.0 0.1 0.1 0.0 0.0 0.0 0.1 0.3 0.8 0.9 0.9 0.9 0.7 1.0 1.0 1.0 1.2 1.8 1.9 0.1 1.3 0.6 0.2 0.0 0.0 0.3 0.0 0.0 0.1 0.1 0.0 0.0 0.0 0.0 0.0 0.0 0.0 0.0 0.0
5.5 2.0 0.8 0.1 0.0 0.1 0.0 0.0 0.1 0.0 0.1 0.1 0.2 0.0 0.0 0.0 0.1 0.0 0.0 0.0 0.1 0.2 0.2 0.3 0.7 0.7 0.5 0.5 0.7 1.2 1.2 1.1 1.0 1.7 1.1 1.6 1.3 1.6 1.6 0.1 1.1 0.5 0.1 0.0 0.5 0.5 0.2 0.1 0.0 0.0 0.0 0.1 0.3 0.2
2.3 0.7 0.0 0.0 0.0 0.0 0.0 0.0 0.1 0.1 0.4 0.3 0.0 0.0 0.0 0.2 0.0 0.0 0.0 0.0 0.0 0.2 0.3 0.6 1.2 1.1 0.8 0.8 0.8 1.2 1.4 1.5 1.4 1.1 1.4 3.2 3.1 2.1 1.0 1.6 1.4 1.0 0.7 0.4 1.0 0.7 0.6 0.6 0.4 0.4 0.4 0.5 0.4 0.5
0.3 0.0 0.0 0.0 0.1 0.1 0.1 0.4 0.6 0.4 0.2 0.0 0.3 0.2 0.1 0.0 0.0 0.0 0.0 0.0 0.0 0.0 0.4 0.7 1.1 1.5 1.3 1.1 1.2 1.6 1.8 2.0 2.2 2.1 3.0 3.5 3.8 3.6 2.9 2.5 2.1 2.5 2.3 1.6 1.3 1.6 1.3 1.0 0.8 1.3 1.1 0.9 0.9 0.8
0.1 0.0 0.1 0.1 0.0 0.1 0.2 0.3 0.2 0.0 0.0 0.0 0.0 0.0 0.0 0.0 0.0 0.0 0.0 0.0 0.0 0.4 0.6 0.8 1.1 1.2 1.6 1.7 1.7 2.2 2.3 2.3 1.9 1.5 1.2 1.5 2.7 3.7 3.9 3.6 4.2 4.3 2.9 3.0 2.6 2.6 2.1 2.5 2.4 2.4 2.5 2.4 2.2 2.2
0.1 0.0 0.0 0.1 0.0 0.1 0.2 0.1 0.1 0.0 0.0 0.0 0.0 0.0 0.0 0.0 0.0 0.0 0.0 0.0 0.0 0.7 1.0 1.4 1.4 1.5 2.0 2.0 2.0 1.9 2.4 2.6 2.5 1.4 1.3 1.4 1.8 2.7 4.0 4.0 4.2 4.6 4.5 4.2 4.7 5.2 5.0 4.9 5.0 4.6 3.7 3.4 3.4 3.0
0.0 0.0 0.0 0.0 0.0 0.1 0.1 0.0 0.0 0.0 0.0 0.0 0.0 0.0 0.0 0.0 0.0 0.0 0.1 0.3 0.7 1.1 1.5 1.9 2.1 2.6 2.7 2.9 2.9 2.5 2.5 3.0 3.3 3.6 2.9 3.1 3.1 3.1 3.7 4.2 4.1 4.6 4.6 4.2 3.7 3.4 3.5 3.0 2.6 2.6 2.5 2.5 2.4 2.1
0.0 0.0 0.0 0.0 0.0 0.1 0.0 0.0 0.0 0.0 0.0 0.0 0.0 0.0 0.0 0.0 0.0 0.0 0.2 0.4 0.9 1.2 1.6 1.9 2.1 2.6 3.1 3.1 3.2 3.3 2.7 2.9 2.9 3.7 3.2 2.9 2.9 2.5 3.4 3.7 4.2 4.0 4.2 4.1 3.6 3.8 3.6 3.6 3.7 3.4 3.2 3.3 3.0 2.6
0.6 0.3 0.3 0.2 0.0 0.0 0.0 0.0 0.0 0.0 0.0 0.0 0.0 0.0 0.0 0.0 0.0 0.2 0.3 0.5 1.0 1.2 1.4 2.1 2.5 2.5 2.5 2.5 2.8 3.1 3.2 3.1 3.9 4.1 4.1 4.3 4.3 4.3 3.5 3.6 3.6 4.0 3.9 4.0 4.2 4.5 4.6 4.2 3.9 3.7 3.4 3.1 2.9 2.7

GFSWCAN_prec_snow_075.txt.gz
Snowfall_Accumulation
0.0 0.0 0.0 0.0 0.0 0.0 0.0 0.0 0.0 0.0 0.0 0.0 0.0 0.0 0.0 0.0 0.0 0.0 0.0 0.0 0.0 0.0 0.0 0.0 0.0 0.0 0.0 0.0 0.0 0.0 0.0 0.0 0.1 0.3 0.0 0.1 0.2 0.0 0.0 0.0 0.0 0.0 0.1 0.4 0.4 0.8 0.0 0.0 0.0 0.0 0.0 0.0 0.0 0.0
0.0 0.0 0.0 0.0 0.0 0.0 0.0 0.0 0.0 0.0 0.0 0.0 0.0 0.0 0.0 0.0 0.0 0.0 0.0 0.0 0.0 0.1 0.0 0.0 0.0 0.0 0.0 0.0 0.0 0.0 0.0 0.0 0.0 0.3 0.2 0.0 0.0 0.0 0.0 0.0 0.0 0.0 0.0 0.0 0.0 0.0 0.0 0.0 0.0 0.0 0.0 0.0 0.0 0.0
0.0 0.0 0.0 0.0 0.0 0.0 0.0 0.0 0.0 0.0 0.0 0.0 0.0 0.0 0.0 0.0 0.0 0.0 0.0 0.0 0.0 0.4 0.0 0.0 0.0 0.0 0.0 0.0 0.0 0.0 0.0 0.0 0.0 0.1 0.2 0.1 0.0 0.0 0.1 0.0 0.0 0.0 0.0 0.0 0.0 0.0 0.0 0.0 0.0 0.0 0.0 0.0 0.0 0.0
0.0 0.0 0.0 0.0 0.0 0.0 0.0 0.0 0.0 0.0 0.0 0.0 0.0 0.0 0.0 0.0 0.0 0.0 0.0 0.0 0.0 0.6 1.6 0.0 0.0 0.0 0.0 0.0 0.0 0.0 0.0 0.0 0.0 0.7 0.6 0.3 0.3 0.0 0.0 0.0 0.0 0.0 0.0 0.0 0.0 0.0 0.0 0.0 0.0 0.0 0.0 0.0 0.0 0.0
0.0 0.0 0.0 0.0 0.0 0.0 0.0 0.0 0.0 0.0 0.0 0.0 0.0 0.0 0.0 0.0 0.0 0.0 0.0 0.0 0.0 0.7 2.6 1.1 0.0 0.0 0.0 0.0 0.0 0.0 0.0 0.0 0.4 1.1 1.7 1.0 0.0 0.0 0.0 0.0 0.0 0.0 0.0 0.0 0.0 0.0 0.0 0.0 0.0 0.0 0.0 0.0 0.0 0.0
0.0 0.0 0.0 0.0 0.0 0.0 0.0 0.0 0.0 0.0 0.0 0.0 0.0 0.0 0.0 0.0 0.0 0.0 0.0 0.0 0.0 0.0 3.6 3.2 0.0 0.0 0.0 0.0 0.0 0.0 0.0 0.0 1.3 0.9 2.2 0.0 0.0 0.0 0.9 0.1 0.0 0.0 0.0 0.0 0.0 0.0 0.0 0.0 0.0 0.0 0.0 0.0 0.0 0.0
0.0 0.0 0.0 0.0 0.0 0.0 0.0 0.0 0.0 0.0 0.0 0.0 0.0 0.0 0.0 0.0 0.0 0.2 0.6 0.0 0.0 0.0 4.1 7.5 4.4 0.6 0.0 0.0 0.0 0.0 0.0 0.3 3.1 2.8 0.0 1.9 1.4 1.8 1.6 0.0 0.0 0.0 0.0 0.0 0.0 0.0 0.0 0.0 0.0 0.0 0.0 0.0 0.0 0.0
0.0 0.0 0.0 0.0 0.0 0.0 0.0 0.0 0.0 0.0 0.0 0.0 0.0 0.0 0.0 0.0 0.0 0.0 0.0 0.0 0.0 3.7 6.9 10.0 8.2 6.9 0.0 0.0 0.0 0.0 0.0 0.2 5.2 1.5 0.0 0.6 0.0 2.1 1.5 0.0 0.0 0.0 0.0 0.0 0.0 0.0 0.0 0.0 0.0 0.0 0.0 0.0 0.0 0.0
0.0 0.0 0.0 0.0 0.0 0.0 0.0 0.0 0.0 0.0 0.0 0.0 0.0 0.0 0.0 0.0 0.0 0.0 0.0 0.0 0.0 0.2 7.7 7.1 8.9 7.9 0.6 0.3 0.3 0.1 0.0 2.0 0.9 1.5 0.0 0.0 1.2 2.4 0.0 0.0 0.1 0.0 0.0 0.0 0.0 0.0 0.0 0.0 0.0 0.0 0.0 0.0 0.0 0.0
0.0 0.0 0.0 0.0 0.0 0.0 0.0 0.0 0.0 0.0 0.0 0.0 0.0 0.0 0.6 0.0 0.0 0.0 0.0 3.2 4.7 4.6 4.6 6.0 4.3 2.7 2.4 4.7 1.2 1.3 0.3 3.3 5.4 0.0 0.0 1.7 0.0 0.0 0.0 0.5 0.2 0.1 0.0 0.0 4.0 2.7 1.0 1.6 0.3 0.3 0.0 0.1 0.0 0.0
0.0 0.0 0.0 0.0 0.0 0.0 0.0 0.0 0.0 0.0 0.0 0.0 0.1 0.5 0.0 0.0 0.0 0.1 6.5 5.2 3.1 2.7 3.7 3.7 3.0 3.3 0.0 4.4 2.3 0.7 3.7 2.7 6.5 3.2 1.2 1.7 2.8 1.1 0.0 0.3 0.0 0.1 0.2 0.0 0.0 0.5 1.7 2.9 3.1 1.5 0.6 3.2 1.5 2.4
0.0 0.0 0.0 0.0 0.0 0.0 0.0 0.0 0.0 0.0 0.0 0.0 0.0 0.0 0.0 3.5 7.0 9.5 9.2 1.7 1.3 1.8 1.7 1.8 1.2 0.6 1.7 0.0 3.0 2.1 3.1 2.9 2.6 1.6 4.0 3.4 2.3 1.4 1.9 0.6 0.3 0.1 0.0 0.1 0.2 2.1 0.9 0.9 1.2 1.4 2.6 2.9 2.7 2.9
0.0 0.0 0.0 0.0 0.0 0.0 0.0 0.0 0.0 0.0 0.0 0.0 0.4 1.5 2.9 5.5 7.1 5.2 4.1 1.7 0.6 0.5 0.6 1.0 1.3 0.3 0.0 0.3 2.4 2.9 2.3 1.1 2.6 4.4 3.2 1.5 0.5 0.0 0.5 1.7 1.6 1.6 0.3 1.3 2.0 0.0 0.7 0.5 0.4 0.3 0.3 0.1 0.0 0.0
0.0 0.0 0.0 0.0 0.0 0.0 0.0 0.0 0.0 0.0 0.0 0.1 0.7 1.3 2.3 3.0 3.2 2.4 1.3 1.1 0.0 0.3 0.0 0.1 1.0 1.8 0.4 1.9 1.9 2.6 0.6 2.7 4.9 2.4 2.0 0.3 0.5 0.4 0.2 0.4 0.7 0.8 1.2 1.7 3.9 3.9 1.9 1.0 0.4 0.1 0.0 0.0 0.0 0.0
0.0 0.0 0.0 0.0 0.0 0.0 0.0 0.0 0.0 0.0 0.0 0.0 0.9 1.2 1.2 1.8 0.8 0.4 0.1 0.5 0.0 0.0 0.0 0.0 0.1 0.6 1.4 2.2 1.8 1.9 2.1 3.4 2.8 2.6 1.3 0.6 0.6 0.8 0.5 0.3 0.2 0.5 0.7 1.6 1.6 2.6 3.5 1.9 0.7 0.0 0.0 0.1 0.3 0.6
0.0 0.0 0.0 0.0 0.0 0.0 0.0 0.0 0.0 0.0 0.0 0.1 0.6 1.2 0.9 0.6 0.3 0.1 0.0 0.1 0.0 0.0 0.1 0.3 0.5 1.2 1.0 2.5 1.3 1.9 2.8 2.8 2.0 1.4 0.8 0.4 0.7 0.0 0.2 0.3 0.0 0.0 0.0 0.2 1.3 1.7 2.3 2.0 1.2 0.6 0.5 0.1 0.2 1.3
0.0 0.0 0.0 0.0 0.0 0.0 0.0 0.0 0.0 0.1 0.2 0.0 0.2 0.7 0.8 0.4 0.4 0.3 0.0 0.0 0.0 0.2 1.3 2.0 2.3 0.7 0.6 1.2 0.6 0.5 1.5 1.3 0.9 0.0 0.1 0.0 0.1 0.0 0.0 0.0 0.0 0.0 0.0 0.0 0.6 1.0 1.7 2.3 2.3 1.2 1.5 1.3 1.0 0.7
0.0 0.0 0.0 0.0 0.0 0.0 0.0 0.0 0.4 0.2 0.0 0.0 0.0 0.0 0.0 0.0 0.3 0.3 0.0 0.0 0.0 0.4 1.8 5.0 2.5 1.5 0.3 0.1 0.0 0.2 0.0 0.0 0.2 0.0 0.2 0.0 0.0 0.0 0.0 0.0 0.0 0.2 0.7 1.7 1.5 1.5 1.0 1.5 1.4 1.1 0.8 0.7 0.7 0.9
0.0 0.0 0.0 0.0 0.0 0.0 1.3 0.7 0.1 0.0 0.0 0.0 0.0 0.0 0.0 0.0 0.0 0.0 0.0 0.0 0.0 0.0 0.3 3.0 2.2 0.3 0.0 0.0 0.0 0.0 0.0 0.0 0.0 0.0 0.0 0.0 0.0 0.0 0.0 0.3 0.3 0.7 1.7 1.4 0.4 0.3 0.4 0.4 0.7 0.3 0.9 0.6 0.8 0.8
0.0 0.0 0.0 0.0 0.0 0.3 0.0 0.6 0.0 0.0 0.0 0.0 0.0 0.0 0.0 0.0 0.0 0.0 0.0 0.3 0.5 2.0 2.3 1.9 0.0 0.2 0.1 0.3 0.3 0.1 0.0 0.0 0.0 0.0 0.0 0.0 0.0 0.0 0.0 0.0 0.1 0.4 0.7 0.5 0.4 0.8 0.5 0.6 0.4 0.2 0.5 0.4 0.9 0.9
0.0 0.0 0.0 0.0 2.5 0.8 0.2 0.1 0.0 0.0 0.0 0.0 0.0 0.0 0.0 0.0 0.0 0.0 0.0 1.2 2.2 3.1 2.3 1.3 0.2 0.1 0.0 0.5 0.2 0.0 0.0 0.0 0.0 0.0 0.0 0.0 0.0 0.0 0.0 0.0 0.0 0.0 0.0 0.2 0.2 0.1 0.5 0.3 0.7 0.5 0.2 0.7 0.6 0.9
0.9 0.0 7.6 6.2 3.4 0.8 0.2 0.0 0.0 0.0 0.0 0.0 0.0 0.0 0.0 0.0 0.0 0.0 0.0 1.6 2.7 1.6 1.2 0.9 0.9 0.6 0.2 0.0 0.7 0.7 0.5 0.0 0.0 0.0 0.0 0.0 0.0 0.0 0.0 0.0 0.0 0.0 0.0 0.0 0.0 0.0 0.0 0.1 0.0 0.4 0.4 0.9 0.8 0.3
0.8 2.4 6.2 4.6 2.6 1.2 0.3 0.1 0.1 0.0 0.0 0.1 0.0 0.0 0.0 0.0 0.0 0.0 0.8 1.0 1.2 0.9 0.7 0.6 0.7 1.6 1.7 1.4 1.4 1.1 0.6 0.1 0.0 0.2 0.1 0.0 0.0 0.0 0.0 0.0 0.0 0.0 0.0 0.0 0.0 0.0 0.0 0.0 0.0 0.0 0.0 0.0 0.5 0.5
0.0 6.6 5.8 3.7 1.9 0.7 0.3 0.2 0.3 0.1 0.1 0.1 0.0 0.0 0.0 0.0 0.0 0.0 0.5 0.3 0.3 0.2 0.8 1.0 0.9 0.7 0.5 1.2 1.4 1.7 1.9 1.2 0.3 0.0 0.6 0.3 0.1 0.0 0.0 0.0 0.0 0.0 0.0 0.0 0.0 0.0 0.0 0.0 0.0 0.0 0.0 0.0 0.0 0.0
8.0 6.6 4.0 3.1 1.1 0.5 0.1 0.1 0.0 0.1 0.1 0.0 0.1 0.0 0.0 0.0 0.1 0.1 0.0 0.0 0.0 0.1 0.3 0.8 0.9 0.9 0.9 0.7 1.0 1.0 1.0 1.2 1.8 1.9 0.1 1.3 0.6 0.2 0.0 0.0 0.3 0.0 0.0 0.1 0.1 0.0 0.0 0.0 0.0 0.0 0.0 0.0 0.1 0.1
7.5 3.1 1.1 0.1 0.0 0.1 0.0 0.0 0.1 0.0 0.1 0.1 0.2 0.0 0.0 0.0 0.1 0.0 0.0 0.0 0.1 0.2 0.2 0.3 0.7 0.7 0.5 0.5 0.7 1.2 1.2 1.1 1.0 1.7 1.1 1.6 1.3 1.6 1.6 0.1 1.1 0.5 0.1 0.0 0.6 0.5 0.2 0.1 0.0 0.0 0.0 0.1 0.3 0.3
2.9 0.8 0.0 0.0 0.0 0.0 0.0 0.0 0.1 0.1 0.4 0.3 0.0 0.0 0.0 0.2 0.0 0.0 0.0 0.0 0.0 0.2 0.3 0.6 1.2 1.1 0.8 0.8 0.8 1.2 1.4 1.5 1.4 1.1 1.4 3.2 3.1 2.1 1.0 1.6 1.5 1.0 0.7 0.4 1.0 0.7 0.7 0.6 0.4 0.4 0.4 0.5 0.4 0.6
0.3 0.0 0.0 0.0 0.1 0.1 0.2 0.5 0.8 0.7 0.3 0.0 0.3 0.2 0.1 0.0 0.0 0.0 0.0 0.0 0.0 0.0 0.4 0.7 1.1 1.5 1.3 1.1 1.2 1.6 1.8 2.0 2.2 2.1 3.0 3.5 3.8 3.6 2.9 2.5 2.1 2.5 2.4 1.7 1.4 1.6 1.4 1.1 0.8 1.4 1.1 1.0 0.9 0.8
0.1 0.0 0.1 0.1 0.0 0.2 0.4 0.4 0.3 0.1 0.0 0.0 0.0 0.0 0.0 0.0 0.0 0.0 0.0 0.0 0.0 0.4 0.6 0.8 1.1 1.2 1.6 1.7 1.7 2.2 2.3 2.3 1.9 1.5 1.2 1.5 2.7 3.7 3.9 3.6 4.2 4.3 2.9 3.0 2.6 2.6 2.1 2.6 2.4 2.4 2.6 2.5 2.2 2.2
0.1 0.0 0.0 0.1 0.2 0.1 0.3 0.1 0.1 0.0 0.0 0.0 0.0 0.0 0.0 0.0 0.0 0.0 0.0 0.0 0.0 0.7 1.0 1.4 1.4 1.5 2.0 2.0 2.0 1.9 2.4 2.6 2.5 1.4 1.3 1.4 1.8 2.7 4.0 4.0 4.2 4.6 4.5 4.2 4.7 5.2 5.0 4.9 5.0 4.6 3.7 3.4 3.4 3.0
0.0 0.0 0.1 0.1 0.0 0.2 0.1 0.2 0.1 0.0 0.0 0.0 0.0 0.0 0.0 0.0 0.0 0.0 0.1 0.3 0.7 1.1 1.5 1.9 2.1 2.6 2.7 2.9 2.9 2.5 2.5 3.0 3.3 3.6 2.9 3.1 3.1 3.1 3.7 4.2 4.1 4.6 4.6 4.2 3.7 3.4 3.5 3.0 2.6 2.6 2.5 2.5 2.4 2.1
0.0 0.0 0.0 0.0 0.0 0.1 0.3 0.2 0.1 0.0 0.0 0.0 0.0 0.0 0.0 0.0 0.0 0.0 0.2 0.4 0.9 1.2 1.6 1.9 2.1 2.6 3.1 3.1 3.2 3.3 2.7 2.9 2.9 3.7 3.2 2.9 2.9 2.5 3.4 3.7 4.2 4.0 4.2 4.1 3.6 3.8 3.6 3.6 3.7 3.4 3.2 3.3 3.0 2.6
0.6 0.3 0.3 0.2 0.4 0.4 0.2 0.1 0.0 0.0 0.0 0.0 0.0 0.0 0.0 0.0 0.0 0.2 0.3 0.5 1.0 1.2 1.4 2.1 2.5 2.5 2.5 2.5 2.8 3.1 3.2 3.1 3.9 4.1 4.1 4.3 4.3 4.4 3.5 3.6 3.6 4.0 3.9 4.0 4.2 4.5 4.6 4.2 3.9 3.7 3.4 3.1 2.9 2.7

GFSWCAN_prec_snow_078.txt.gz
Snowfall_Accumulation
0.0 0.0 0.0 0.0 0.0 0.0 0.0 0.0 0.0 0.0 0.0 0.0 0.0 0.0 0.0 0.0 0.0 0.0 0.0 0.0 0.0 0.0 0.0 0.0 0.0 0.0 0.0 0.0 0.0 0.0 0.0 0.0 0.1 0.3 0.0 0.1 0.2 0.0 0.0 0.0 0.0 0.0 0.1 0.4 0.4 0.8 0.0 0.0 0.0 0.0 0.0 0.0 0.0 0.0
0.0 0.0 0.0 0.0 0.0 0.0 0.0 0.0 0.0 0.0 0.0 0.0 0.0 0.0 0.0 0.0 0.0 0.0 0.0 0.0 0.0 0.1 0.0 0.0 0.0 0.0 0.0 0.0 0.0 0.0 0.0 0.0 0.0 0.3 0.2 0.0 0.0 0.0 0.0 0.0 0.0 0.0 0.0 0.0 0.0 0.0 0.0 0.0 0.0 0.0 0.0 0.0 0.0 0.0
0.0 0.0 0.0 0.0 0.0 0.0 0.0 0.0 0.0 0.0 0.0 0.0 0.0 0.0 0.0 0.0 0.0 0.0 0.0 0.0 0.0 0.4 0.0 0.0 0.0 0.0 0.0 0.0 0.0 0.0 0.0 0.0 0.0 0.1 0.2 0.1 0.0 0.0 0.1 0.0 0.0 0.0 0.0 0.0 0.0 0.0 0.0 0.0 0.0 0.0 0.0 0.0 0.0 0.0
0.0 0.0 0.0 0.0 0.0 0.0 0.0 0.0 0.0 0.0 0.0 0.0 0.0 0.0 0.0 0.0 0.0 0.0 0.0 0.0 0.0 0.6 1.6 0.0 0.0 0.0 0.0 0.0 0.0 0.0 0.0 0.0 0.0 0.7 0.6 0.3 0.3 0.0 0.0 0.0 0.0 0.0 0.0 0.0 0.0 0.0 0.0 0.0 0.0 0.0 0.0 0.0 0.0 0.0
0.0 0.0 0.0 0.0 0.0 0.0 0.0 0.0 0.0 0.0 0.0 0.0 0.0 0.0 0.0 0.0 0.0 0.0 0.0 0.0 0.0 0.7 2.6 1.1 0.0 0.0 0.0 0.0 0.0 0.0 0.0 0.0 0.4 1.1 1.7 1.0 0.0 0.0 0.0 0.0 0.0 0.0 0.0 0.0 0.0 0.0 0.0 0.0 0.0 0.0 0.0 0.0 0.0 0.0
0.0 0.0 0.0 0.0 0.0 0.0 0.0 0.0 0.0 0.0 0.0 0.0 0.0 0.0 0.0 0.0 0.0 0.0 0.0 0.0 0.0 0.0 3.6 3.2 0.0 0.0 0.0 0.0 0.0 0.0 0.0 0.0 1.3 0.9 2.2 0.0 0.0 0.0 0.9 0.1 0.0 0.0 0.0 0.0 0.0 0.0 0.0 0.0 0.0 0.0 0.0 0.0 0.0 0.0
0.0 0.0 0.0 0.0 0.0 0.0 0.0 0.0 0.0 0.0 0.0 0.0 0.0 0.0 0.0 0.0 0.0 0.2 0.6 0.0 0.0 0.0 4.1 7.5 4.4 0.6 0.0 0.0 0.0 0.0 0.0 0.3 3.1 2.8 0.0 1.9 1.4 1.8 1.6 0.0 0.0 0.0 0.0 0.0 0.0 0.0 0.0 0.0 0.0 0.0 0.0 0.0 0.0 0.0
0.0 0.0 0.0 0.0 0.0 0.0 0.0 0.0 0.0 0.0 0.0 0.0 0.0 0.0 0.0 0.0 0.0 0.0 0.0 0.0 0.0 3.7 6.9 10.0 8.2 6.9 0.0 0.0 0.0 0.0 0.0 0.2 5.2 1.5 0.0 0.6 0.0 2.1 1.5 0.0 0.0 0.0 0.0 0.0 0.0 0.0 0.0 0.0 0.0 0.0 0.0 0.0 0.0 0.0
0.0 0.0 0.0 0.0 0.0 0.0 0.0 0.0 0.0 0.0 0.0 0.0 0.0 0.0 0.0 0.0 0.0 0.0 0.0 0.0 0.0 0.2 7.7 7.1 8.9 7.9 0.6 0.3 0.3 0.1 0.0 2.0 0.9 1.5 0.0 0.0 1.2 2.4 0.0 0.0 0.1 0.0 0.0 0.0 0.0 0.0 0.0 0.0 0.0 0.0 0.0 0.0 0.0 0.0
0.0 0.0 0.0 0.0 0.0 0.0 0.0 0.0 0.0 0.0 0.0 0.0 0.0 0.0 0.6 0.0 0.0 0.0 0.0 3.2 4.7 4.6 4.6 6.0 4.3 2.7 2.4 4.7 1.2 1.3 0.3 3.3 5.4 0.0 0.0 1.7 0.0 0.0 0.0 0.5 0.2 0.1 0.0 0.0 4.0 2.7 1.0 1.6 0.3 0.3 0.0 0.1 0.0 0.0
0.0 0.0 0.0 0.0 0.0 0.0 0.0 0.0 0.0 0.0 0.0 0.0 0.1 0.5 0.0 0.0 0.0 0.1 6.5 5.2 3.1 2.7 3.7 3.7 3.0 3.3 0.0 4.4 2.3 0.7 3.7 2.7 6.5 3.2 1.2 1.7 2.8 1.1 0.0 0.3 0.0 0.1 0.2 0.0 0.0 0.5 1.7 2.9 3.1 1.5 0.6 3.2 1.5 2.4
0.0 0.0 0.0 0.0 0.0 0.0 0.0 0.0 0.0 0.0 0.0 0.0 0.0 0.0 0.0 3.5 7.0 9.5 9.2 1.7 1.3 1.8 1.7 1.8 1.2 0.6 1.7 0.0 3.0 2.1 3.1 2.9 2.6 1.6 4.0 3.4 2.3 1.4 1.9 0.6 0.3 0.1 0.0 0.1 0.2 2.1 0.9 0.9 1.2 1.4 2.6 2.9 2.7 2.9
0.0 0.0 0.0 0.0 0.0 0.0 0.0 0.0 0.0 0.0 0.0 0.0 0.4 1.5 2.9 5.5 7.1 5.2 4.1 1.7 0.6 0.5 0.6 1.0 1.3 0.3 0.0 0.3 2.4 2.9 2.3 1.1 2.6 4.4 3.2 1.5 0.5 0.0 0.5 1.7 1.6 1.6 0.3 1.3 2.0 0.0 0.7 0.5 0.4 0.3 0.3 0.1 0.0 0.0
0.0 0.0 0.0 0.0 0.0 0.0 0.0 0.0 0.0 0.0 0.0 0.1 0.7 1.3 2.3 3.0 3.2 2.4 1.3 1.1 0.0 0.3 0.0 0.1 1.0 1.8 0.4 1.9 1.9 2.6 0.6 2.7 4.9 2.4 2.0 0.3 0.5 0.4 0.2 0.4 0.7 0.8 1.2 1.7 3.9 3.9 1.9 1.0 0.4 0.1 0.0 0.0 0.0 0.0
0.0 0.0 0.0 0.0 0.0 0.0 0.0 0.0 0.0 0.0 0.0 0.0 0.9 1.2 1.2 1.8 0.8 0.4 0.1 0.5 0.0 0.0 0.0 0.0 0.1 0.6 1.4 2.2 1.8 1.9 2.1 3.4 2.8 2.6 1.3 0.6 0.6 0.8 0.5 0.3 0.2 0.5 0.7 1.6 1.6 2.6 3.5 1.9 0.7 0.0 0.0 0.1 0.3 0.6
0.0 0.0 0.0 0.0 0.0 0.0 0.0 0.0 0.0 0.0 0.0 0.1 0.6 1.2 0.9 0.6 0.3 0.1 0.0 0.1 0.0 0.0 0.1 0.3 0.5 1.2 1.0 2.5 1.3 1.9 2.8 2.8 2.0 1.4 0.8 0.4 0.7 0.0 0.2 0.3 0.0 0.0 0.0 0.2 1.3 1.7 2.3 2.0 1.2 0.6 0.5 0.1 0.2 1.3
0.0 0.0 0.0 0.0 0.0 0.0 0.0 0.0 0.0 2.3 1.1 0.1 0.2 0.7 0.8 0.4 0.4 0.3 0.0 0.0 0.0 0.2 1.3 2.0 2.3 0.7 0.6 1.2 0.6 0.5 1.5 1.3 0.9 0.0 0.1 0.0 0.1 0.0 0.0 0.0 0.0 0.0 0.0 0.0 0.6 1.0 1.7 2.3 2.3 1.2 1.5 1.3 1.0 0.7
0.0 0.0 0.0 0.0 0.0 0.0 0.0 0.0 0.4 1.8 0.8 0.1 0.0 0.0 0.0 0.0 0.3 0.3 0.0 0.0 0.0 0.4 1.8 5.0 2.5 1.5 0.3 0.1 0.0 0.2 0.0 0.0 0.2 0.0 0.2 0.0 0.0 0.0 0.0 0.0 0.0 0.2 0.7 1.7 1.5 1.5 1.0 1.5 1.4 1.1 0.8 0.7 0.7 0.9
0.0 0.0 0.0 0.0 0.0 0.0 3.8 3.2 1.5 0.6 0.1 0.0 0.0 0.0 0.0 0.0 0.0 0.0 0.0 0.0 0.0 0.0 0.3 3.0 2.2 0.3 0.0 0.0 0.0 0.0 0.0 0.0 0.0 0.0 0.0 0.0 0.0 0.0 0.0 0.3 0.3 0.7 1.7 1.4 0.4 0.3 0.4 0.4 0.7 0.3 0.9 0.6 0.8 0.8
0.0 0.0 0.0 0.0 0.0 1.8 1.1 1.8 0.6 0.0 0.0 0.0 0.0 0.0 0.0 0.0 0.0 0.0 0.0 0.3 0.5 2.0 2.3 1.9 0.0 0.2 0.1 0.3 0.3 0.1 0.0 0.0 0.0 0.0 0.0 0.0 0.0 0.0 0.0 0.0 0.1 0.4 0.7 0.5 0.4 0.8 0.5 0.6 0.4 0.2 0.5 0.4 0.9 1.0
0.0 0.0 0.0 0.0 2.5 2.5 1.0 0.4 0.1 0.0 0.0 0.0 0.0 0.0 0.0 0.0 0.0 0.0 0.0 1.2 2.2 3.1 2.3 1.3 0.2 0.1 0.0 0.5 0.2 0.0 0.0 0.0 0.0 0.0 0.0 0.0 0.0 0.0 0.0 0.0 0.0 0.0 0.0 0.2 0.2 0.1 0.5 0.3 0.7 0.5 0.2 0.7 0.6 0.9
0.9 0.0 9.4 6.2 5.7 2.1 0.7 0.1 0.0 0.0 0.0 0.0 0.0 0.0 0.0 0.0 0.0 0.0 0.0 1.6 2.7 1.6 1.2 0.9 0.9 0.6 0.2 0.0 0.7 0.7 0.5 0.0 0.0 0.0 0.0 0.0 0.0 0.0 0.0 0.0 0.0 0.0 0.0 0.0 0.0 0.0 0.0 0.1 0.0 0.4 0.4 0.9 0.8 0.3
0.8 2.4 7.0 6.3 4.5 2.3 0.9 0.1 0.1 0.0 0.0 0.2 0.2 0.1 0.1 0.0 0.0 0.0 0.8 1.0 1.2 0.9 0.7 0.6 0.7 1.6 1.7 1.4 1.4 1.1 0.6 0.1 0.0 0.2 0.1 0.0 0.0 0.0 0.0 0.0 0.0 0.0 0.0 0.0 0.0 0.0 0.0 0.0 0.0 0.0 0.0 0.0 0.5 0.5
0.0 7.2 7.1 4.9 2.5 1.2 0.6 0.5 0.4 0.2 0.1 0.2 0.3 0.2 0.0 0.0 0.0 0.0 0.5 0.3 0.3 0.2 0.8 1.0 0.9 0.7 0.5 1.2 1.4 1.7 1.9 1.2 0.3 0.0 0.6 0.3 0.1 0.0 0.0 0.0 0.0 0.0 0.0 0.0 0.0 0.0 0.0 0.0 0.0 0.0 0.0 0.0 0.0 0.0
8.9 7.9 5.2 4.1 1.6 0.7 0.2 0.1 0.0 0.1 0.2 0.1 0.2 0.1 0.0 0.0 0.1 0.1 0.0 0.0 0.0 0.1 0.3 0.8 0.9 0.9 0.9 0.7 1.0 1.0 1.0 1.2 1.8 1.9 0.1 1.3 0.6 0.2 0.0 0.0 0.3 0.0 0.0 0.1 0.1 0.0 0.0 0.0 0.0 0.0 0.0 0.0 0.1 0.1
8.6 4.3 1.1 0.1 0.0 0.1 0.0 0.0 0.1 0.0 0.1 0.1 0.2 0.0 0.0 0.0 0.1 0.0 0.0 0.0 0.1 0.2 0.2 0.3 0.7 0.7 0.5 0.5 0.7 1.2 1.2 1.1 1.0 1.7 1.1 1.6 1.3 1.6 1.6 0.1 1.1 0.5 0.1 0.1 0.6 0.5 0.2 0.1 0.0 0.0 0.0 0.1 0.3 0.3
4.1 1.5 0.2 0.1 0.0 0.0 0.0 0.0 0.1 0.1 0.4 0.5 0.1 0.0 0.1 0.3 0.1 0.0 0.0 0.0 0.0 0.2 0.3 0.6 1.2 1.1 0.8 0.8 0.8 1.2 1.4 1.5 1.4 1.1 1.4 3.2 3.1 2.1 1.0 1.6 1.5 1.0 0.7 0.5 1.0 0.7 0.7 0.6 0.4 0.4 0.4 0.5 0.4 0.7
1.0 0.1 0.0 0.0 0.1 0.1 0.2 0.5 0.8 0.7 0.5 0.0 0.3 0.2 0.2 0.0 0.0 0.0 0.0 0.0 0.0 0.0 0.4 0.7 1.1 1.5 1.3 1.1 1.2 1.6 1.8 2.0 2.2 2.1 3.0 3.5 3.8 3.6 2.9 2.5 2.1 2.5 2.4 1.7 1.4 1.7 1.5 1.1 0.9 1.4 1.1 1.0 0.9 0.8
0.1 0.0 0.1 0.1 0.0 0.2 0.4 0.4 0.3 0.1 0.0 0.0 0.0 0.0 0.0 0.0 0.0 0.0 0.0 0.0 0.0 0.4 0.6 0.8 1.1 1.2 1.6 1.7 1.7 2.2 2.3 2.3 1.9 1.5 1.2 1.5 2.7 3.7 3.9 3.6 4.2 4.3 2.9 3.0 2.6 2.6 2.1 2.7 2.5 2.5 2.6 2.5 2.2 2.2
0.1 0.0 0.0 0.1 0.2 0.1 0.3 0.1 0.1 0.0 0.0 0.0 0.0 0.0 0.0 0.0 0.0 0.0 0.0 0.0 0.0 0.7 1.0 1.4 1.4 1.5 2.0 2.0 2.0 1.9 2.4 2.6 2.5 1.4 1.3 1.4 1.8 2.7 4.0 4.0 4.2 4.6 4.5 4.2 4.7 5.2 5.0 4.9 5.0 4.6 3.7 3.4 3.4 3.0
0.0 0.0 0.1 0.1 0.0 0.2 0.1 0.2 0.2 0.2 0.0 0.1 0.1 0.1 0.1 0.0 0.0 0.0 0.1 0.3 0.7 1.1 1.5 1.9 2.1 2.6 2.7 2.9 2.9 2.5 2.5 3.0 3.3 3.6 2.9 3.1 3.1 3.1 3.7 4.2 4.1 4.6 4.6 4.2 3.7 3.4 3.5 3.0 2.6 2.6 2.5 2.5 2.4 2.1
0.0 0.0 0.0 0.0 0.0 0.1 0.3 0.3 0.2 0.1 0.1 0.1 0.1 0.0 0.0 0.0 0.0 0.0 0.2 0.4 0.9 1.2 1.6 1.9 2.1 2.6 3.1 3.1 3.2 3.3 2.7 2.9 2.9 3.7 3.2 2.9 2.9 2.5 3.4 3.7 4.2 4.0 4.2 4.1 3.6 3.8 3.6 3.6 3.7 3.4 3.2 3.3 3.0 2.6
0.6 0.3 0.3 0.2 0.4 0.5 0.2 0.1 0.0 0.0 0.0 0.0 0.0 0.0 0.0 0.0 0.0 0.2 0.3 0.5 1.0 1.2 1.4 2.1 2.5 2.5 2.5 2.5 2.8 3.1 3.2 3.1 3.9 4.1 4.1 4.3 4.3 4.4 3.5 3.6 3.6 4.0 3.9 4.0 4.2 4.5 4.6 4.2 3.9 3.7 3.4 3.1 2.9 2.7

GFSWCAN_prec_snow_081.txt.gz
Snowfall_Accumulation
0.0 0.0 0.0 0.0 0.0 0.0 0.0 0.0 0.0 0.0 0.0 0.0 0.0 0.0 0.0 0.0 0.0 0.0 0.0 0.0 0.0 0.0 0.0 0.0 0.0 0.0 0.0 0.0 0.0 0.0 0.0 0.0 0.1 0.3 0.0 0.1 0.2 0.0 0.0 0.0 0.0 0.0 0.1 0.4 0.4 0.8 0.0 0.0 0.0 0.0 0.0 0.0 0.0 0.0
0.0 0.0 0.0 0.0 0.0 0.0 0.0 0.0 0.0 0.0 0.0 0.0 0.0 0.0 0.0 0.0 0.0 0.0 0.0 0.0 0.0 0.1 0.0 0.0 0.0 0.0 0.0 0.0 0.0 0.0 0.0 0.0 0.0 0.3 0.2 0.0 0.0 0.0 0.0 0.0 0.0 0.0 0.0 0.0 0.0 0.0 0.0 0.0 0.0 0.0 0.0 0.0 0.0 0.0
0.0 0.0 0.0 0.0 0.0 0.0 0.0 0.0 0.0 0.0 0.0 0.0 0.0 0.0 0.0 0.0 0.0 0.0 0.0 0.0 0.0 0.4 0.0 0.0 0.0 0.0 0.0 0.0 0.0 0.0 0.0 0.0 0.0 0.1 0.2 0.1 0.0 0.0 0.1 0.0 0.0 0.0 0.0 0.0 0.0 0.0 0.0 0.0 0.0 0.0 0.0 0.0 0.0 0.0
0.0 0.0 0.0 0.0 0.0 0.0 0.0 0.0 0.0 0.0 0.0 0.0 0.0 0.0 0.0 0.0 0.0 0.0 0.0 0.0 0.0 0.6 1.6 0.0 0.0 0.0 0.0 0.0 0.0 0.0 0.0 0.0 0.0 0.7 0.6 0.3 0.3 0.0 0.0 0.0 0.0 0.0 0.0 0.0 0.0 0.0 0.0 0.0 0.0 0.0 0.0 0.0 0.0 0.0
0.0 0.0 0.0 0.0 0.0 0.0 0.0 0.0 0.0 0.0 0.0 0.0 0.0 0.0 0.0 0.0 0.0 0.0 0.0 0.0 0.0 0.7 2.6 1.1 0.0 0.0 0.0 0.0 0.0 0.0 0.0 0.0 0.4 1.1 1.7 1.0 0.0 0.0 0.0 0.0 0.0 0.0 0.0 0.0 0.0 0.0 0.0 0.0 0.0 0.0 0.0 0.0 0.0 0.0
0.0 0.0 0.0 0.0 0.0 0.0 0.0 0.0 0.0 0.0 0.0 0.0 0.0 0.0 0.0 0.0 0.0 0.0 0.0 0.0 0.0 0.0 3.6 3.2 0.0 0.0 0.0 0.0 0.0 0.0 0.0 0.0 1.3 0.9 2.2 0.0 0.0 0.0 0.9 0.1 0.0 0.0 0.0 0.0 0.0 0.0 0.0 0.0 0.0 0.0 0.0 0.0 0.0 0.0
0.0 0.0 0.0 0.0 0.0 0.0 0.0 0.0 0.0 0.0 0.0 0.0 0.0 0.0 0.0 0.0 0.0 0.2 0.6 0.0 0.0 0.0 4.1 7.5 4.4 0.6 0.0 0.0 0.0 0.0 0.0 0.3 3.1 2.8 0.0 1.9 1.4 1.8 1.6 0.0 0.0 0.0 0.0 0.0 0.0 0.0 0.0 0.0 0.0 0.0 0.0 0.0 0.0 0.0
0.0 0.0 0.0 0.0 0.0 0.0 0.0 0.0 0.0 0.0 0.0 0.0 0.0 0.0 0.0 0.0 0.0 0.0 0.0 0.0 0.0 3.7 6.9 10.0 8.2 6.9 0.0 0.0 0.0 0.0 0.0 0.2 5.2 1.5 0.0 0.6 0.0 2.1 1.5 0.0 0.0 0.0 0.0 0.0 0.0 0.0 0.0 0.0 0.0 0.0 0.0 0.0 0.0 0.0
0.0 0.0 0.0 0.0 0.0 0.0 0.0 0.0 0.0 0.0 0.0 0.0 0.0 0.0 0.0 0.0 0.0 0.0 0.0 0.0 0.0 0.2 7.7 7.1 8.9 7.9 0.6 0.3 0.3 0.1 0.0 2.0 0.9 1.5 0.0 0.0 1.2 2.4 0.0 0.0 0.1 0.0 0.0 0.0 0.0 0.0 0.0 0.0 0.0 0.0 0.0 0.0 0.0 0.0
0.0 0.0 0.0 0.0 0.0 0.0 0.0 0.0 0.0 0.0 0.0 0.0 0.0 0.0 0.6 0.0 0.0 0.0 0.0 3.2 4.7 4.6 4.6 6.0 4.3 2.7 2.4 4.7 1.2 1.3 0.3 3.3 5.4 0.0 0.0 1.7 0.0 0.0 0.0 0.5 0.2 0.1 0.0 0.0 4.0 2.7 1.0 1.6 0.3 0.3 0.0 0.1 0.0 0.0
0.0 0.0 0.0 0.0 0.0 0.0 0.0 0.0 0.0 0.0 0.0 0.0 0.1 0.5 0.0 0.0 0.0 0.1 6.5 5.2 3.1 2.7 3.7 3.7 3.0 3.3 0.0 4.4 2.3 0.7 3.7 2.7 6.5 3.2 1.2 1.7 2.8 1.1 0.0 0.3 0.0 0.1 0.2 0.0 0.0 0.5 1.7 2.9 3.1 1.5 0.6 3.2 1.5 2.4
0.0 0.0 0.0 0.0 0.0 0.0 0.0 0.0 0.0 0.0 0.0 0.0 0.0 0.0 0.0 3.5 7.0 9.5 9.2 1.7 1.3 1.8 1.7 1.8 1.2 0.6 1.7 0.0 3.0 2.1 3.1 2.9 2.6 1.6 4.0 3.4 2.3 1.4 1.9 0.6 0.3 0.1 0.0 0.1 0.2 2.1 0.9 0.9 1.2 1.4 2.6 2.9 2.7 2.9
0.0 0.0 0.0 0.0 0.0 0.0 0.0 0.0 0.0 0.0 0.0 0.0 0.4 1.5 2.9 5.5 7.1 5.2 4.1 1.7 0.6 0.5 0.6 1.0 1.3 0.3 0.0 0.3 2.4 2.9 2.3 1.1 2.6 4.4 3.2 1.5 0.5 0.0 0.5 1.7 1.6 1.6 0.3 1.3 2.0 0.0 0.7 0.5 0.4 0.3 0.3 0.1 0.0 0.0
0.0 0.0 0.0 0.0 0.0 0.0 0.0 0.0 0.0 0.0 0.0 0.1 0.7 1.3 2.3 3.0 3.2 2.4 1.3 1.1 0.0 0.3 0.0 0.1 1.0 1.8 0.4 1.9 1.9 2.6 0.6 2.7 4.9 2.4 2.0 0.3 0.5 0.4 0.2 0.4 0.7 0.8 1.2 1.7 3.9 3.9 1.9 1.0 0.4 0.1 0.0 0.0 0.0 0.0
0.0 0.0 0.0 0.0 0.0 0.0 0.0 0.0 0.0 0.0 0.0 0.3 1.0 1.2 1.2 1.8 0.8 0.4 0.1 0.5 0.0 0.0 0.0 0.0 0.1 0.6 1.4 2.2 1.8 1.9 2.1 3.4 2.8 2.6 1.3 0.6 0.6 0.8 0.5 0.3 0.2 0.5 0.7 1.6 1.6 2.6 3.5 1.9 0.7 0.0 0.0 0.1 0.3 0.6
0.0 0.0 0.0 0.0 0.0 0.0 0.0 0.0 0.0 0.0 0.7 0.3 0.7 1.2 0.9 0.6 0.3 0.1 0.0 0.1 0.0 0.0 0.1 0.3 0.5 1.2 1.0 2.5 1.3 1.9 2.8 2.8 2.0 1.4 0.8 0.4 0.7 0.0 0.2 0.3 0.0 0.0 0.0 0.2 1.3 1.7 2.3 2.0 1.2 0.6 0.5 0.1 0.2 1.3
0.0 0.0 0.0 0.0 0.0 0.0 0.0 0.0 0.0 2.3 2.4 0.7 0.2 0.7 0.8 0.4 0.4 0.3 0.0 0.0 0.0 0.2 1.3 2.0 2.3 0.7 0.6 1.2 0.6 0.5 1.5 1.3 0.9 0.0 0.1 0.0 0.1 0.0 0.0 0.0 0.0 0.0 0.0 0.0 0.6 1.0 1.7 2.3 2.3 1.2 1.5 1.3 1.0 0.7
0.0 0.0 0.0 0.0 0.0 0.0 0.0 0.0 0.4 2.5 1.8 0.1 0.0 0.0 0.0 0.0 0.3 0.3 0.0 0.0 0.0 0.4 1.8 5.0 2.5 1.5 0.3 0.1 0.0 0.2 0.0 0.0 0.2 0.0 0.2 0.0 0.0 0.0 0.0 0.0 0.0 0.2 0.7 1.7 1.5 1.5 1.0 1.5 1.4 1.1 0.8 0.7 0.7 0.9
0.0 0.0 0.0 0.0 0.0 0.0 4.4 3.9 1.5 0.6 0.1 0.0 0.0 0.0 0.0 0.0 0.0 0.0 0.0 0.0 0.0 0.0 0.3 3.0 2.2 0.3 0.0 0.0 0.0 0.0 0.0 0.0 0.0 0.0 0.0 0.0 0.0 0.0 0.0 0.3 0.3 0.7 1.7 1.4 0.4 0.3 0.4 0.4 0.7 0.3 0.9 0.6 0.9 0.8
0.0 0.0 0.0 0.0 0.0 2.4 1.8 2.6 1.0 0.0 0.0 0.0 0.0 0.0 0.0 0.0 0.0 0.0 0.0 0.3 0.5 2.0 2.3 1.9 0.0 0.2 0.1 0.3 0.3 0.1 0.0 0.0 0.0 0.0 0.0 0.0 0.0 0.0 0.0 0.0 0.1 0.4 0.7 0.5 0.4 0.8 0.5 0.6 0.4 0.2 0.5 0.4 0.9 1.0
0.0 0.0 0.0 0.0 2.5 3.3 1.6 0.7 0.1 0.0 0.0 0.0 0.0 0.0 0.0 0.0 0.0 0.0 0.0 1.2 2.2 3.1 2.3 1.3 0.2 0.1 0.0 0.5 0.2 0.0 0.0 0.0 0.0 0.0 0.0 0.0 0.0 0.0 0.0 0.0 0.0 0.0 0.0 0.2 0.2 0.1 0.5 0.3 0.7 0.5 0.2 0.7 0.6 0.9
0.9 0.0 9.4 6.2 7.5 3.2 1.3 0.5 0.0 0.0 0.0 0.0 0.0 0.0 0.0 0.0 0.0 0.0 0.0 1.6 2.7 1.6 1.2 0.9 0.9 0.6 0.2 0.0 0.7 0.7 0.5 0.0 0.0 0.0 0.0 0.0 0.0 0.0 0.0 0.0 0.0 0.0 0.0 0.0 0.0 0.0 0.0 0.1 0.0 0.4 0.4 0.9 0.8 0.3
0.8 2.4 7.4 7.0 5.8 3.4 1.6 0.2 0.1 0.1 0.1 0.2 0.2 0.1 0.4 0.3 0.2 0.1 0.9 1.1 1.2 0.9 0.7 0.6 0.7 1.6 1.7 1.4 1.4 1.1 0.6 0.1 0.0 0.2 0.1 0.0 0.0 0.0 0.0 0.0 0.0 0.0 0.0 0.0 0.0 0.0 0.0 0.0 0.0 0.0 0.0 0.0 0.5 0.5
0.0 8.1 7.8 5.7 3.0 1.7 1.1 0.9 0.6 0.2 0.3 0.4 0.5 0.5 0.2 0.0 0.2 0.1 0.6 0.3 0.3 0.2 0.8 1.0 0.9 0.7 0.5 1.2 1.4 1.7 1.9 1.2 0.3 0.0 0.6 0.3 0.1 0.0 0.0 0.0 0.0 0.0 0.0 0.0 0.0 0.0 0.0 0.0 0.0 0.0 0.0 0.0 0.0 0.0
10.1 9.5 6.1 5.0 2.1 0.8 0.2 0.3 0.2 0.3 0.4 0.3 0.2 0.1 0.0 0.0 0.2 0.2 0.0 0.0 0.0 0.1 0.3 0.8 0.9 0.9 0.9 0.7 1.0 1.0 1.0 1.2 1.8 1.9 0.1 1.3 0.6 0.2 0.0 0.0 0.3 0.0 0.0 0.1 0.1 0.0 0.0 0.0 0.0 0.0 0.0 0.0 0.1 0.2
10.2 5.8 1.7 0.3 0.1 0.1 0.0 0.0 0.1 0.0 0.1 0.1 0.2 0.0 0.0 0.0 0.2 0.0 0.0 0.0 0.1 0.2 0.2 0.3 0.7 0.7 0.5 0.5 0.7 1.2 1.2 1.1 1.0 1.7 1.1 1.6 1.3 1.6 1.6 0.1 1.1 0.5 0.1 0.1 0.6 0.5 0.2 0.1 0.0 0.0 0.0 0.1 0.3 0.3
5.5 2.7 0.4 0.1 0.0 0.0 0.0 0.0 0.1 0.1 0.4 0.5 0.1 0.0 0.1 0.3 0.1 0.0 0.0 0.0 0.0 0.2 0.3 0.6 1.2 1.1 0.8 0.8 0.8 1.2 1.4 1.5 1.4 1.1 1.4 3.2 3.1 2.1 1.0 1.6 1.5 1.0 0.7 0.5 1.0 0.7 0.7 0.6 0.4 0.4 0.4 0.5 0.4 0.7
1.7 0.2 0.0 0.0 0.1 0.1 0.2 0.5 0.8 0.7 0.5 0.0 0.3 0.2 0.2 0.0 0.0 0.0 0.0 0.0 0.0 0.0 0.4 0.7 1.1 1.5 1.3 1.1 1.2 1.6 1.8 2.0 2.2 2.1 3.0 3.5 3.8 3.6 2.9 2.5 2.1 2.5 2.5 1.7 1.4 1.7 1.5 1.1 0.9 1.4 1.1 1.0 0.9 0.8
0.1 0.0 0.1 0.1 0.0 0.2 0.4 0.4 0.3 0.1 0.0 0.0 0.0 0.0 0.0 0.0 0.0 0.0 0.0 0.1 0.0 0.4 0.6 0.8 1.1 1.2 1.6 1.7 1.7 2.2 2.3 2.3 1.9 1.5 1.2 1.5 2.7 3.7 3.9 3.6 4.2 4.3 2.9 3.0 2.6 2.6 2.2 2.8 2.5 2.5 2.6 2.5 2.2 2.2
0.1 0.0 0.0 0.1 0.2 0.1 0.3 0.1 0.1 0.0 0.0 0.0 0.0 0.0 0.0 0.0 0.1 0.1 0.1 0.1 0.0 0.7 1.0 1.4 1.4 1.5 2.0 2.0 2.0 1.9 2.4 2.6 2.5 1.4 1.3 1.4 1.8 2.7 4.0 4.0 4.2 4.6 4.5 4.2 4.7 5.2 5.0 4.9 5.0 4.6 3.7 3.4 3.4 3.0
0.0 0.0 0.1 0.1 0.0 0.2 0.1 0.2 0.2 0.2 0.0 0.1 0.1 0.1 0.1 0.1 0.1 0.1 0.2 0.3 0.7 1.1 1.5 1.9 2.1 2.6 2.7 2.9 2.9 2.5 2.5 3.0 3.3 3.6 2.9 3.1 3.1 3.1 3.7 4.2 4.1 4.6 4.6 4.2 3.7 3.4 3.5 3.0 2.6 2.6 2.5 2.5 2.4 2.1
0.0 0.0 0.0 0.0 0.0 0.1 0.3 0.3 0.2 0.1 0.1 0.1 0.2 0.1 0.1 0.0 0.0 0.0 0.2 0.4 0.9 1.2 1.6 1.9 2.1 2.6 3.1 3.1 3.2 3.3 2.7 2.9 2.9 3.7 3.2 2.9 2.9 2.5 3.4 3.7 4.2 4.0 4.2 4.1 3.6 3.8 3.6 3.6 3.7 3.4 3.2 3.3 3.0 2.6
0.6 0.3 0.3 0.2 0.4 0.5 0.2 0.1 0.1 0.0 0.0 0.0 0.1 0.0 0.0 0.0 0.0 0.2 0.3 0.5 1.0 1.2 1.4 2.1 2.5 2.5 2.5 2.5 2.8 3.1 3.2 3.1 3.9 4.1 4.1 4.3 4.3 4.4 3.5 3.6 3.6 4.0 3.9 4.0 4.2 4.5 4.6 4.2 3.9 3.7 3.4 3.1 2.9 2.7

GFSWCAN_prec_snow_084.txt.gz
Snowfall_Accumulation
0.0 0.0 0.0 0.0 0.0 0.0 0.0 0.0 0.0 0.0 0.0 0.0 0.0 0.0 0.0 0.0 0.0 0.0 0.0 0.0 0.0 0.0 0.0 0.0 0.0 0.0 0.0 0.0 0.0 0.0 0.0 0.0 0.1 0.3 0.0 0.1 0.2 0.0 0.0 0.0 0.0 0.0 0.1 0.4 0.4 0.8 0.0 0.0 0.0 0.0 0.0 0.0 0.0 0.0
0.0 0.0 0.0 0.0 0.0 0.0 0.0 0.0 0.0 0.0 0.0 0.0 0.0 0.0 0.0 0.0 0.0 0.0 0.0 0.0 0.0 0.1 0.0 0.0 0.0 0.0 0.0 0.0 0.0 0.0 0.0 0.0 0.0 0.3 0.2 0.0 0.0 0.0 0.0 0.0 0.0 0.0 0.0 0.0 0.0 0.0 0.0 0.0 0.0 0.0 0.0 0.0 0.0 0.0
0.0 0.0 0.0 0.0 0.0 0.0 0.0 0.0 0.0 0.0 0.0 0.0 0.0 0.0 0.0 0.0 0.0 0.0 0.0 0.0 0.0 0.4 0.0 0.0 0.0 0.0 0.0 0.0 0.0 0.0 0.0 0.0 0.0 0.1 0.2 0.1 0.0 0.0 0.1 0.0 0.0 0.0 0.0 0.0 0.0 0.0 0.0 0.0 0.0 0.0 0.0 0.0 0.0 0.0
0.0 0.0 0.0 0.0 0.0 0.0 0.0 0.0 0.0 0.0 0.0 0.0 0.0 0.0 0.0 0.0 0.0 0.0 0.0 0.0 0.0 0.6 1.6 0.0 0.0 0.0 0.0 0.0 0.0 0.0 0.0 0.0 0.0 0.7 0.6 0.3 0.3 0.0 0.0 0.0 0.0 0.0 0.0 0.0 0.0 0.0 0.0 0.0 0.0 0.0 0.0 0.0 0.0 0.0
0.0 0.0 0.0 0.0 0.0 0.0 0.0 0.0 0.0 0.0 0.0 0.0 0.0 0.0 0.0 0.0 0.0 0.0 0.0 0.0 0.0 0.7 2.6 1.1 0.0 0.0 0.0 0.0 0.0 0.0 0.0 0.0 0.4 1.1 1.7 1.0 0.0 0.0 0.0 0.0 0.0 0.0 0.0 0.0 0.0 0.0 0.0 0.0 0.0 0.0 0.0 0.0 0.0 0.0
0.0 0.0 0.0 0.0 0.0 0.0 0.0 0.0 0.0 0.0 0.0 0.0 0.0 0.0 0.0 0.0 0.0 0.0 0.0 0.0 0.0 0.0 3.6 3.2 0.0 0.0 0.0 0.0 0.0 0.0 0.0 0.0 1.3 0.9 2.2 0.0 0.0 0.0 0.9 0.1 0.0 0.0 0.0 0.0 0.0 0.0 0.0 0.0 0.0 0.0 0.0 0.0 0.0 0.0
0.0 0.0 0.0 0.0 0.0 0.0 0.0 0.0 0.0 0.0 0.0 0.0 0.0 0.0 0.0 0.0 0.0 0.2 0.6 0.0 0.0 0.0 4.1 7.5 4.4 0.6 0.0 0.0 0.0 0.0 0.0 0.3 3.1 2.8 0.0 1.9 1.4 1.8 1.6 0.0 0.0 0.0 0.0 0.0 0.0 0.0 0.0 0.0 0.0 0.0 0.0 0.0 0.0 0.0
0.0 0.0 0.0 0.0 0.0 0.0 0.0 0.0 0.0 0.0 0.0 0.0 0.0 0.0 0.0 0.0 0.0 0.0 0.0 0.0 0.0 3.7 6.9 10.0 8.2 6.9 0.0 0.0 0.0 0.0 0.0 0.2 5.2 1.5 0.0 0.6 0.0 2.1 1.5 0.0 0.0 0.0 0.0 0.0 0.0 0.0 0.0 0.0 0.0 0.0 0.0 0.0 0.0 0.0
0.0 0.0 0.0 0.0 0.0 0.0 0.0 0.0 0.0 0.0 0.0 0.0 0.0 0.0 0.0 0.0 0.0 0.0 0.0 0.0 0.0 0.2 7.7 7.1 8.9 7.9 0.6 0.3 0.3 0.1 0.0 2.0 0.9 1.5 0.0 0.0 1.2 2.4 0.0 0.0 0.1 0.0 0.0 0.0 0.0 0.0 0.0 0.0 0.0 0.0 0.0 0.0 0.0 0.0
0.0 0.0 0.0 0.0 0.0 0.0 0.0 0.0 0.0 0.0 0.0 0.0 0.0 0.0 0.6 0.0 0.0 0.0 0.0 3.2 4.7 4.6 4.6 6.0 4.3 2.7 2.4 4.7 1.2 1.3 0.3 3.3 5.4 0.0 0.0 1.7 0.0 0.0 0.0 0.5 0.2 0.1 0.0 0.0 4.0 2.7 1.0 1.6 0.3 0.3 0.0 0.1 0.0 0.0
0.0 0.0 0.0 0.0 0.0 0.0 0.0 0.0 0.0 0.0 0.0 0.0 0.1 0.5 0.0 0.0 0.0 0.1 6.5 5.2 3.1 2.7 3.7 3.7 3.0 3.3 0.0 4.4 2.3 0.7 3.7 2.7 6.5 3.2 1.2 1.7 2.8 1.1 0.0 0.3 0.0 0.1 0.2 0.0 0.0 0.5 1.7 2.9 3.1 1.5 0.6 3.2 1.5 2.4
0.0 0.0 0.0 0.0 0.0 0.0 0.0 0.0 0.0 0.0 0.0 0.0 0.0 0.0 0.0 3.5 7.0 9.5 9.2 1.7 1.3 1.8 1.7 1.8 1.2 0.6 1.7 0.0 3.0 2.1 3.1 2.9 2.6 1.6 4.0 3.4 2.3 1.4 1.9 0.6 0.3 0.1 0.0 0.1 0.2 2.1 0.9 0.9 1.2 1.4 2.6 2.9 2.7 2.9
0.0 0.0 0.0 0.0 0.0 0.0 0.0 0.0 0.0 0.0 0.0 0.0 0.4 1.5 2.9 5.5 7.1 5.2 4.1 1.7 0.6 0.5 0.6 1.0 1.3 0.3 0.0 0.3 2.4 2.9 2.3 1.1 2.6 4.4 3.2 1.5 0.5 0.0 0.5 1.7 1.6 1.6 0.3 1.3 2.0 0.0 0.7 0.5 0.4 0.3 0.3 0.1 0.0 0.0
0.0 0.0 0.0 0.0 0.0 0.0 0.0 0.0 0.0 0.0 0.0 0.1 0.7 1.3 2.3 3.0 3.2 2.4 1.3 1.1 0.0 0.3 0.0 0.1 1.0 1.8 0.4 1.9 1.9 2.6 0.6 2.7 4.9 2.4 2.0 0.3 0.5 0.4 0.2 0.4 0.7 0.8 1.2 1.7 3.9 3.9 1.9 1.0 0.4 0.1 0.0 0.0 0.0 0.0
0.0 0.0 0.0 0.0 0.0 0.0 0.0 0.0 0.0 0.0 0.0 0.3 1.0 1.2 1.2 1.8 0.8 0.4 0.1 0.5 0.0 0.0 0.0 0.0 0.1 0.6 1.4 2.2 1.8 1.9 2.1 3.4 2.8 2.6 1.3 0.6 0.6 0.8 0.5 0.3 0.2 0.5 0.7 1.6 1.6 2.6 3.5 1.9 0.7 0.0 0.0 0.1 0.3 0.6
0.0 0.0 0.0 0.0 0.0 0.0 0.0 0.0 0.0 0.0 0.7 0.6 0.7 1.2 0.9 0.6 0.3 0.1 0.0 0.1 0.0 0.0 0.1 0.3 0.5 1.2 1.0 2.5 1.3 1.9 2.8 2.8 2.0 1.4 0.8 0.4 0.7 0.0 0.2 0.3 0.0 0.0 0.0 0.2 1.3 1.7 2.3 2.0 1.2 0.6 0.5 0.1 0.2 1.3
0.0 0.0 0.0 0.0 0.0 0.0 0.0 0.0 0.0 2.3 2.9 1.0 0.2 0.7 0.8 0.4 0.4 0.3 0.0 0.0 0.0 0.2 1.3 2.0 2.3 0.7 0.6 1.2 0.6 0.5 1.5 1.3 0.9 0.0 0.1 0.0 0.1 0.0 0.0 0.0 0.0 0.0 0.0 0.0 0.6 1.0 1.7 2.3 2.3 1.2 1.5 1.3 1.0 0.7
0.0 0.0 0.0 0.0 0.0 0.0 0.0 0.0 0.4 2.6 2.1 0.1 0.0 0.0 0.0 0.0 0.3 0.3 0.0 0.0 0.0 0.4 1.8 5.0 2.5 1.5 0.3 0.1 0.0 0.2 0.0 0.0 0.2 0.0 0.2 0.0 0.0 0.0 0.0 0.0 0.0 0.2 0.7 1.7 1.5 1.5 1.0 1.5 1.4 1.1 0.8 0.7 0.7 0.9
0.0 0.0 0.0 0.0 0.0 0.0 4.4 4.6 1.5 0.7 0.1 0.0 0.0 0.0 0.0 0.0 0.0 0.0 0.0 0.0 0.0 0.0 0.3 3.0 2.2 0.3 0.0 0.0 0.0 0.0 0.0 0.0 0.0 0.0 0.0 0.0 0.0 0.0 0.0 0.3 0.3 0.7 1.7 1.4 0.4 0.3 0.4 0.4 0.7 0.3 0.9 0.6 0.9 0.8
0.0 0.0 0.0 0.0 0.0 2.4 2.2 3.2 1.4 0.0 0.0 0.0 0.0 0.0 0.0 0.0 0.0 0.0 0.0 0.3 0.5 2.1 2.3 1.9 0.0 0.2 0.1 0.3 0.3 0.1 0.0 0.0 0.0 0.0 0.0 0.0 0.0 0.0 0.0 0.0 0.1 0.4 0.7 0.5 0.4 0.8 0.5 0.6 0.4 0.2 0.5 0.4 0.9 1.0
0.0 0.0 0.0 0.0 2.5 3.3 1.6 0.7 0.1 0.0 0.0 0.0 0.0 0.0 0.0 0.0 0.0 0.0 0.0 1.2 2.2 3.1 2.3 1.3 0.2 0.1 0.0 0.5 0.2 0.0 0.0 0.0 0.0 0.0 0.0 0.0 0.0 0.0 0.0 0.0 0.0 0.0 0.0 0.2 0.2 0.1 0.5 0.3 0.7 0.5 0.2 0.7 0.6 0.9
0.9 0.0 9.4 6.2 8.3 4.1 1.6 0.7 0.0 0.0 0.0 0.0 0.0 0.0 0.0 0.0 0.0 0.0 0.0 1.6 2.7 1.6 1.2 0.9 0.9 0.6 0.2 0.0 0.7 0.7 0.5 0.0 0.0 0.0 0.0 0.0 0.0 0.0 0.0 0.0 0.0 0.0 0.0 0.0 0.0 0.0 0.0 0.1 0.0 0.4 0.4 0.9 0.8 0.3
0.8 2.4 8.2 8.4 6.4 3.9 2.1 0.4 0.3 0.1 0.1 0.4 0.3 0.1 0.4 0.3 0.2 0.1 0.9 1.1 1.2 0.9 0.7 0.6 0.7 1.6 1.7 1.4 1.4 1.1 0.6 0.1 0.0 0.2 0.1 0.0 0.0 0.0 0.0 0.0 0.0 0.0 0.0 0.0 0.0 0.0 0.0 0.0 0.0 0.0 0.0 0.0 0.5 0.5
0.0 8.1 8.3 6.6 3.5 2.1 1.5 1.2 0.9 0.4 0.5 0.5 0.6 0.5 0.3 0.0 0.3 0.5 0.6 0.3 0.3 0.2 0.8 1.0 0.9 0.7 0.5 1.2 1.4 1.7 1.9 1.2 0.3 0.0 0.6 0.3 0.1 0.0 0.0 0.0 0.0 0.0 0.0 0.0 0.0 0.0 0.0 0.0 0.0 0.0 0.0 0.0 0.0 0.0
11.3 10.7 6.8 5.8 2.7 0.9 0.2 0.4 0.4 0.4 0.4 0.3 0.2 0.1 0.0 0.0 0.2 0.2 0.0 0.0 0.0 0.1 0.3 0.8 0.9 0.9 0.9 0.7 1.0 1.0 1.0 1.2 1.8 1.9 0.1 1.3 0.6 0.2 0.0 0.0 0.3 0.0 0.0 0.1 0.1 0.0 0.0 0.0 0.0 0.0 0.0 0.0 0.1 0.2
11.1 6.6 2.1 0.3 0.1 0.1 0.0 0.0 0.1 0.0 0.1 0.1 0.2 0.0 0.0 0.0 0.2 0.0 0.0 0.0 0.1 0.2 0.2 0.3 0.7 0.7 0.5 0.5 0.7 1.2 1.2 1.1 1.0 1.7 1.1 1.6 1.3 1.6 1.6 0.1 1.1 0.5 0.1 0.1 0.6 0.5 0.2 0.1 0.0 0.0 0.0 0.1 0.3 0.3
6.9 3.9 1.1 0.1 0.0 0.0 0.0 0.0 0.1 0.1 0.4 0.5 0.1 0.0 0.1 0.3 0.1 0.0 0.0 0.0 0.0 0.2 0.3 0.6 1.2 1.1 0.8 0.8 0.8 1.2 1.4 1.5 1.4 1.1 1.4 3.2 3.1 2.1 1.0 1.6 1.5 1.0 0.7 0.5 1.0 0.7 0.7 0.6 0.4 0.4 0.4 0.5 0.4 0.7
1.7 0.2 0.0 0.0 0.1 0.1 0.2 0.5 0.8 0.7 0.5 0.0 0.3 0.2 0.2 0.0 0.0 0.0 0.0 0.0 0.0 0.0 0.4 0.7 1.1 1.5 1.3 1.1 1.2 1.6 1.8 2.0 2.2 2.1 3.0 3.5 3.8 3.6 2.9 2.5 2.1 2.5 2.5 1.7 1.4 1.7 1.5 1.1 0.9 1.4 1.1 1.0 0.9 0.8
0.7 0.1 0.1 0.1 0.0 0.2 0.4 0.4 0.3 0.1 0.0 0.0 0.0 0.0 0.0 0.0 0.0 0.0 0.0 0.1 0.0 0.4 0.6 0.8 1.1 1.2 1.6 1.7 1.7 2.2 2.3 2.3 1.9 1.5 1.2 1.5 2.7 3.7 3.9 3.6 4.2 4.3 2.9 3.0 2.6 2.6 2.2 2.8 2.5 2.5 2.6 2.5 2.2 2.2
0.1 0.0 0.0 0.1 0.2 0.1 0.3 0.1 0.1 0.0 0.0 0.0 0.0 0.0 0.0 0.0 0.1 0.1 0.1 0.1 0.0 0.7 1.0 1.4 1.4 1.5 2.0 2.0 2.0 1.9 2.4 2.6 2.5 1.4 1.3 1.4 1.8 2.7 4.0 4.0 4.2 4.6 4.5 4.2 4.7 5.2 5.0 4.9 5.0 4.6 3.7 3.4 3.4 3.0
0.0 0.0 0.1 0.1 0.0 0.2 0.1 0.2 0.2 0.2 0.0 0.1 0.1 0.1 0.1 0.1 0.1 0.1 0.2 0.3 0.7 1.1 1.5 1.9 2.1 2.6 2.7 2.9 2.9 2.5 2.5 3.0 3.3 3.6 2.9 3.1 3.1 3.1 3.7 4.2 4.1 4.6 4.6 4.2 3.7 3.4 3.5 3.0 2.6 2.6 2.5 2.5 2.4 2.1
0.0 0.0 0.0 0.0 0.0 0.1 0.3 0.3 0.2 0.1 0.1 0.1 0.2 0.1 0.1 0.0 0.0 0.0 0.2 0.4 0.9 1.2 1.6 1.9 2.1 2.6 3.1 3.1 3.2 3.3 2.7 2.9 2.9 3.7 3.2 2.9 2.9 2.5 3.4 3.7 4.2 4.0 4.2 4.1 3.6 3.8 3.6 3.6 3.7 3.4 3.2 3.3 3.0 2.6
0.6 0.3 0.3 0.2 0.5 0.5 0.2 0.1 0.1 0.0 0.0 0.0 0.1 0.0 0.0 0.0 0.0 0.2 0.3 0.5 1.0 1.2 1.4 2.1 2.5 2.5 2.5 2.5 2.8 3.1 3.2 3.1 3.9 4.1 4.1 4.3 4.3 4.4 3.5 3.6 3.6 4.0 3.9 4.0 4.2 4.5 4.6 4.2 3.9 3.7 3.4 3.1 2.9 2.7

GFSWCAN_prec_snow_087.txt.gz
Snowfall_Accumulation
0.0 0.0 0.0 0.0 0.0 0.0 0.0 0.0 0.0 0.0 0.0 0.0 0.0 0.0 0.0 0.0 0.0 0.0 0.0 0.0 0.0 0.0 0.0 0.0 0.0 0.0 0.0 0.0 0.0 0.0 0.0 0.0 0.1 0.3 0.0 0.1 0.2 0.0 0.0 0.0 0.0 0.0 0.1 0.4 0.4 0.8 0.0 0.0 0.0 0.0 0.0 0.0 0.0 0.0
0.0 0.0 0.0 0.0 0.0 0.0 0.0 0.0 0.0 0.0 0.0 0.0 0.0 0.0 0.0 0.0 0.0 0.0 0.0 0.0 0.0 0.1 0.0 0.0 0.0 0.0 0.0 0.0 0.0 0.0 0.0 0.0 0.0 0.3 0.2 0.0 0.0 0.0 0.0 0.0 0.0 0.0 0.0 0.0 0.0 0.0 0.0 0.0 0.0 0.0 0.0 0.0 0.0 0.0
0.0 0.0 0.0 0.0 0.0 0.0 0.0 0.0 0.0 0.0 0.0 0.0 0.0 0.0 0.0 0.0 0.0 0.0 0.0 0.0 0.0 0.4 0.0 0.0 0.0 0.0 0.0 0.0 0.0 0.0 0.0 0.0 0.0 0.1 0.2 0.1 0.0 0.0 0.1 0.0 0.0 0.0 0.0 0.0 0.0 0.0 0.0 0.0 0.0 0.0 0.0 0.0 0.0 0.0
0.0 0.0 0.0 0.0 0.0 0.0 0.0 0.0 0.0 0.0 0.0 0.0 0.0 0.0 0.0 0.0 0.0 0.0 0.0 0.0 0.0 0.6 1.6 0.0 0.0 0.0 0.0 0.0 0.0 0.0 0.0 0.0 0.0 0.7 0.6 0.3 0.3 0.0 0.0 0.0 0.0 0.0 0.0 0.0 0.0 0.0 0.0 0.0 0.0 0.0 0.0 0.0 0.0 0.0
0.0 0.0 0.0 0.0 0.0 0.0 0.0 0.0 0.0 0.0 0.0 0.0 0.0 0.0 0.0 0.0 0.0 0.0 0.0 0.0 0.0 0.7 2.6 1.1 0.0 0.0 0.0 0.0 0.0 0.0 0.0 0.0 0.4 1.1 1.7 1.0 0.0 0.0 0.0 0.0 0.0 0.0 0.0 0.0 0.0 0.0 0.0 0.0 0.0 0.0 0.0 0.0 0.0 0.0
0.0 0.0 0.0 0.0 0.0 0.0 0.0 0.0 0.0 0.0 0.0 0.0 0.0 0.0 0.0 0.0 0.0 0.0 0.0 0.0 0.0 0.0 3.6 3.2 0.0 0.0 0.0 0.0 0.0 0.0 0.0 0.0 1.3 0.9 2.2 0.0 0.0 0.0 0.9 0.1 0.0 0.0 0.0 0.0 0.0 0.0 0.0 0.0 0.0 0.0 0.0 0.0 0.0 0.0
0.0 0.0 0.0 0.0 0.0 0.0 0.0 0.0 0.0 0.0 0.0 0.0 0.0 0.0 0.0 0.0 0.0 0.2 0.6 0.0 0.0 0.0 4.1 7.5 4.4 0.6 0.0 0.0 0.0 0.0 0.0 0.3 3.1 2.8 0.0 1.9 1.4 1.8 1.6 0.0 0.0 0.0 0.0 0.0 0.0 0.0 0.0 0.0 0.0 0.0 0.0 0.0 0.0 0.0
0.0 0.0 0.0 0.0 0.0 0.0 0.0 0.0 0.0 0.0 0.0 0.0 0.0 0.0 0.0 0.0 0.0 0.0 0.0 0.0 0.0 3.7 6.9 10.0 8.2 6.9 0.0 0.0 0.0 0.0 0.0 0.2 5.2 1.5 0.0 0.6 0.0 2.1 1.5 0.0 0.0 0.0 0.0 0.0 0.0 0.0 0.0 0.0 0.0 0.0 0.0 0.0 0.0 0.0
0.0 0.0 0.0 0.0 0.0 0.0 0.0 0.0 0.0 0.0 0.0 0.0 0.0 0.0 0.0 0.0 0.0 0.0 0.0 0.0 0.0 0.2 7.7 7.1 8.9 7.9 0.6 0.3 0.3 0.1 0.0 2.0 0.9 1.5 0.0 0.0 1.2 2.4 0.0 0.0 0.1 0.0 0.0 0.0 0.0 0.0 0.0 0.0 0.0 0.0 0.0 0.0 0.0 0.0
0.0 0.0 0.0 0.0 0.0 0.0 0.0 0.0 0.0 0.0 0.0 0.0 0.0 0.0 0.6 0.0 0.0 0.0 0.0 3.2 4.7 4.6 4.6 6.0 4.3 2.7 2.4 4.7 1.2 1.3 0.3 3.3 5.4 0.0 0.0 1.7 0.0 0.0 0.0 0.5 0.2 0.1 0.0 0.0 4.0 2.7 1.0 1.6 0.3 0.3 0.0 0.1 0.0 0.0
0.0 0.0 0.0 0.0 0.0 0.0 0.0 0.0 0.0 0.0 0.0 0.0 0.1 0.5 0.0 0.0 0.0 0.1 6.5 5.2 3.1 2.7 3.7 3.7 3.0 3.3 0.0 4.4 2.3 0.7 3.7 2.7 6.5 3.2 1.2 1.7 2.8 1.1 0.0 0.3 0.0 0.1 0.2 0.0 0.0 0.5 1.7 2.9 3.1 1.5 0.6 3.2 1.5 2.4
0.0 0.0 0.0 0.0 0.0 0.0 0.0 0.0 0.0 0.0 0.0 0.0 0.0 0.0 0.0 3.5 7.0 9.5 9.2 1.7 1.3 1.8 1.7 1.8 1.2 0.6 1.7 0.0 3.0 2.1 3.1 2.9 2.6 1.6 4.0 3.4 2.3 1.4 1.9 0.6 0.3 0.1 0.0 0.1 0.2 2.1 0.9 0.9 1.2 1.4 2.6 2.9 2.7 2.9
0.0 0.0 0.0 0.0 0.0 0.0 0.0 0.0 0.0 0.0 0.0 0.0 0.4 1.5 2.9 5.5 7.1 5.2 4.1 1.7 0.6 0.5 0.6 1.0 1.3 0.3 0.0 0.3 2.4 2.9 2.3 1.1 2.6 4.4 3.2 1.5 0.5 0.0 0.5 1.7 1.6 1.6 0.3 1.3 2.0 0.0 0.7 0.5 0.4 0.3 0.3 0.1 0.0 0.0
0.0 0.0 0.0 0.0 0.0 0.0 0.0 0.0 0.0 0.0 0.0 0.1 0.7 1.3 2.3 3.0 3.2 2.4 1.3 1.1 0.0 0.3 0.0 0.1 1.0 1.8 0.4 1.9 1.9 2.6 0.6 2.7 4.9 2.4 2.0 0.3 0.5 0.4 0.2 0.4 0.7 0.8 1.2 1.7 3.9 3.9 1.9 1.0 0.4 0.1 0.0 0.0 0.0 0.0
0.0 0.0 0.0 0.0 0.0 0.0 0.0 0.0 0.0 0.0 0.0 0.3 1.0 1.2 1.2 1.8 0.8 0.4 0.1 0.5 0.0 0.0 0.0 0.0 0.1 0.6 1.4 2.2 1.8 1.9 2.1 3.4 2.8 2.6 1.3 0.6 0.6 0.8 0.5 0.3 0.2 0.5 0.7 1.6 1.6 2.6 3.5 1.9 0.7 0.0 0.0 0.1 0.3 0.6
0.0 0.0 0.0 0.0 0.0 0.0 0.0 0.0 0.0 0.0 0.7 0.6 0.7 1.2 0.9 0.6 0.3 0.1 0.0 0.1 0.0 0.0 0.1 0.3 0.5 1.2 1.0 2.5 1.3 1.9 2.8 2.8 2.0 1.4 0.8 0.4 0.7 0.0 0.2 0.3 0.0 0.0 0.0 0.2 1.3 1.7 2.3 2.0 1.2 0.6 0.5 0.1 0.2 1.3
0.0 0.0 0.0 0.0 0.0 0.0 0.0 0.0 0.0 2.3 2.9 1.0 0.2 0.7 0.8 0.4 0.4 0.3 0.0 0.0 0.0 0.2 1.3 2.0 2.3 0.7 0.6 1.2 0.6 0.5 1.5 1.3 0.9 0.0 0.1 0.0 0.1 0.0 0.0 0.0 0.0 0.0 0.0 0.0 0.6 1.0 1.7 2.3 2.3 1.2 1.5 1.3 1.0 0.7
0.0 0.0 0.0 0.0 0.0 0.0 0.0 0.0 0.4 2.6 2.1 0.1 0.0 0.0 0.0 0.0 0.3 0.3 0.0 0.0 0.0 0.4 1.8 5.0 2.5 1.5 0.3 0.1 0.0 0.3 0.0 0.0 0.2 0.0 0.2 0.0 0.0 0.0 0.0 0.0 0.0 0.2 0.7 1.7 1.5 1.5 1.0 1.5 1.4 1.1 0.8 0.7 0.7 0.9
0.0 0.0 0.0 0.0 0.0 0.0 4.4 4.6 1.5 0.8 0.1 0.0 0.0 0.0 0.0 0.0 0.0 0.0 0.0 0.0 0.0 0.0 0.3 3.0 2.2 0.3 0.0 0.0 0.0 0.0 0.0 0.0 0.0 0.0 0.0 0.0 0.0 0.0 0.0 0.3 0.3 0.7 1.7 1.4 0.4 0.3 0.4 0.4 0.7 0.3 0.9 0.6 0.9 0.8
0.0 0.0 0.0 0.0 0.0 2.4 2.3 3.6 1.8 0.0 0.0 0.0 0.0 0.0 0.0 0.0 0.0 0.0 0.0 0.3 0.5 2.1 2.3 1.9 0.0 0.2 0.1 0.3 0.3 0.1 0.0 0.0 0.0 0.0 0.0 0.0 0.0 0.0 0.0 0.0 0.1 0.4 0.7 0.5 0.4 0.8 0.5 0.6 0.4 0.2 0.5 0.4 0.9 1.0
0.0 0.0 0.0 0.0 2.5 3.3 1.6 0.8 0.1 0.0 0.0 0.0 0.0 0.0 0.0 0.0 0.0 0.0 0.0 1.2 2.2 3.1 2.3 1.3 0.2 0.1 0.0 0.5 0.2 0.0 0.0 0.0 0.0 0.0 0.0 0.0 0.0 0.0 0.0 0.0 0.0 0.0 0.0 0.2 0.2 0.1 0.5 0.3 0.7 0.5 0.2 0.7 0.6 0.9
0.9 0.0 9.4 6.2 9.3 4.9 1.6 0.7 0.0 0.0 0.0 0.0 0.0 0.0 0.0 0.0 0.0 0.0 0.0 1.6 2.7 1.6 1.2 0.9 0.9 0.6 0.2 0.0 0.7 0.7 0.5 0.0 0.0 0.0 0.0 0.0 0.0 0.0 0.0 0.0 0.0 0.0 0.0 0.0 0.0 0.0 0.0 0.1 0.0 0.4 0.4 0.9 0.8 0.3
0.8 2.4 9.1 9.4 7.4 4.6 2.5 0.4 0.3 0.1 0.1 0.4 0.3 0.1 0.4 0.3 0.2 0.1 0.9 1.1 1.2 0.9 0.7 0.6 0.7 1.6 1.7 1.4 1.4 1.1 0.6 0.1 0.0 0.2 0.1 0.0 0.0 0.0 0.0 0.0 0.0 0.0 0.0 0.0 0.0 0.0 0.0 0.0 0.0 0.0 0.0 0.0 0.5 0.5
0.0 8.6 8.9 7.3 4.0 2.5 1.8 1.5 1.1 0.6 0.7 0.6 0.6 0.5 0.3 0.0 0.4 0.6 0.6 0.3 0.3 0.2 0.8 1.0 0.9 0.7 0.5 1.2 1.4 1.7 1.9 1.2 0.3 0.0 0.6 0.3 0.1 0.0 0.0 0.0 0.0 0.0 0.0 0.0 0.0 0.0 0.0 0.0 0.0 0.0 0.0 0.0 0.0 0.0
12.5 11.7 7.2 6.2 3.1 1.1 0.3 0.5 0.4 0.4 0.4 0.3 0.2 0.1 0.0 0.0 0.3 0.3 0.0 0.0 0.0 0.1 0.3 0.8 0.9 0.9 0.9 0.7 1.0 1.0 1.0 1.2 1.8 1.9 0.1 1.3 0.6 0.2 0.0 0.0 0.3 0.0 0.0 0.1 0.1 0.0 0.0 0.0 0.0 0.0 0.0 0.0 0.1 0.2
12.3 7.2 2.3 0.4 0.1 0.1 0.0 0.0 0.1 0.0 0.1 0.1 0.2 0.0 0.0 0.0 0.2 0.0 0.0 0.0 0.1 0.2 0.2 0.3 0.7 0.7 0.5 0.5 0.7 1.2 1.2 1.1 1.0 1.7 1.1 1.6 1.3 1.6 1.6 0.1 1.1 0.5 0.1 0.1 0.6 0.5 0.2 0.1 0.0 0.0 0.0 0.1 0.3 0.3
7.2 4.1 1.4 0.1 0.0 0.0 0.0 0.0 0.1 0.1 0.4 0.5 0.1 0.0 0.1 0.3 0.1 0.0 0.0 0.0 0.0 0.2 0.3 0.6 1.2 1.1 0.8 0.8 0.8 1.2 1.4 1.5 1.4 1.1 1.4 3.2 3.1 2.1 1.0 1.6 1.5 1.0 0.7 0.5 1.0 0.7 0.7 0.6 0.4 0.4 0.4 0.5 0.4 0.7
1.7 0.2 0.0 0.0 0.1 0.1 0.2 0.5 0.8 0.7 0.5 0.0 0.3 0.2 0.2 0.0 0.0 0.0 0.0 0.0 0.0 0.0 0.4 0.7 1.1 1.5 1.3 1.1 1.2 1.6 1.8 2.0 2.2 2.1 3.0 3.5 3.8 3.6 2.9 2.5 2.1 2.5 2.5 1.7 1.4 1.7 1.5 1.1 0.9 1.4 1.1 1.0 0.9 0.8
0.7 0.1 0.1 0.1 0.0 0.2 0.4 0.4 0.3 0.1 0.0 0.0 0.0 0.0 0.0 0.0 0.0 0.0 0.0 0.1 0.0 0.4 0.6 0.8 1.1 1.2 1.6 1.7 1.7 2.2 2.3 2.3 1.9 1.5 1.2 1.5 2.7 3.7 3.9 3.6 4.2 4.3 2.9 3.0 2.6 2.6 2.2 2.8 2.5 2.5 2.6 2.5 2.2 2.2
0.1 0.0 0.0 0.1 0.2 0.1 0.3 0.1 0.1 0.0 0.0 0.0 0.0 0.0 0.0 0.0 0.1 0.1 0.1 0.1 0.0 0.7 1.0 1.4 1.4 1.5 2.0 2.0 2.0 1.9 2.4 2.6 2.5 1.4 1.3 1.4 1.8 2.7 4.0 4.0 4.2 4.6 4.5 4.2 4.7 5.2 5.0 4.9 5.0 4.6 3.7 3.4 3.4 3.0
0.0 0.0 0.1 0.1 0.0 0.2 0.1 0.2 0.2 0.2 0.0 0.1 0.1 0.1 0.1 0.1 0.1 0.1 0.2 0.3 0.7 1.1 1.5 1.9 2.1 2.6 2.7 2.9 2.9 2.5 2.5 3.0 3.3 3.6 2.9 3.1 3.1 3.1 3.7 4.2 4.1 4.6 4.6 4.2 3.7 3.4 3.5 3.0 2.6 2.6 2.5 2.5 2.4 2.1
0.0 0.0 0.0 0.0 0.0 0.1 0.3 0.3 0.2 0.1 0.1 0.1 0.2 0.1 0.1 0.0 0.0 0.0 0.2 0.4 0.9 1.2 1.6 1.9 2.1 2.6 3.1 3.1 3.2 3.3 2.7 2.9 2.9 3.7 3.2 2.9 2.9 2.5 3.4 3.7 4.2 4.0 4.2 4.1 3.6 3.8 3.6 3.6 3.7 3.4 3.2 3.3 3.0 2.6
0.6 0.3 0.3 0.2 0.5 0.5 0.2 0.1 0.1 0.0 0.0 0.0 0.1 0.0 0.0 0.0 0.0 0.2 0.3 0.5 1.0 1.2 1.4 2.1 2.5 2.5 2.5 2.5 2.8 3.1 3.2 3.1 3.9 4.1 4.1 4.3 4.3 4.4 3.5 3.6 3.6 4.0 3.9 4.0 4.2 4.5 4.6 4.2 3.9 3.7 3.4 3.1 2.9 2.7

GFSWCAN_prec_snow_090.txt.gz
Snowfall_Accumulation
0.0 0.0 0.0 0.0 0.0 0.0 0.0 0.0 0.0 0.0 0.0 0.0 0.0 0.0 0.0 0.0 0.0 0.0 0.0 0.0 0.0 0.0 0.0 0.0 0.0 0.0 0.0 0.0 0.0 0.0 0.0 0.0 0.1 0.3 0.0 0.1 0.2 0.0 0.0 0.0 0.0 0.0 0.1 0.4 0.4 0.8 0.0 0.0 0.0 0.0 0.0 0.0 0.0 0.0
0.0 0.0 0.0 0.0 0.0 0.0 0.0 0.0 0.0 0.0 0.0 0.0 0.0 0.0 0.0 0.0 0.0 0.0 0.0 0.0 0.0 0.1 0.0 0.0 0.0 0.0 0.0 0.0 0.0 0.0 0.0 0.0 0.0 0.3 0.2 0.0 0.0 0.0 0.0 0.0 0.0 0.0 0.0 0.0 0.0 0.0 0.0 0.0 0.0 0.0 0.0 0.0 0.0 0.0
0.0 0.0 0.0 0.0 0.0 0.0 0.0 0.0 0.0 0.0 0.0 0.0 0.0 0.0 0.0 0.0 0.0 0.0 0.0 0.0 0.0 0.4 0.0 0.0 0.0 0.0 0.0 0.0 0.0 0.0 0.0 0.0 0.0 0.1 0.2 0.1 0.0 0.0 0.1 0.0 0.0 0.0 0.0 0.0 0.0 0.0 0.0 0.0 0.0 0.0 0.0 0.0 0.0 0.0
0.0 0.0 0.0 0.0 0.0 0.0 0.0 0.0 0.0 0.0 0.0 0.0 0.0 0.0 0.0 0.0 0.0 0.0 0.0 0.0 0.0 0.6 1.6 0.0 0.0 0.0 0.0 0.0 0.0 0.0 0.0 0.0 0.0 0.7 0.6 0.3 0.3 0.0 0.0 0.0 0.0 0.0 0.0 0.0 0.0 0.0 0.0 0.0 0.0 0.0 0.0 0.0 0.0 0.0
0.0 0.0 0.0 0.0 0.0 0.0 0.0 0.0 0.0 0.0 0.0 0.0 0.0 0.0 0.0 0.0 0.0 0.0 0.0 0.0 0.0 0.7 2.6 1.1 0.0 0.0 0.0 0.0 0.0 0.0 0.0 0.0 0.4 1.1 1.7 1.0 0.0 0.0 0.0 0.0 0.0 0.0 0.0 0.0 0.0 0.0 0.0 0.0 0.0 0.0 0.0 0.0 0.0 0.0
0.0 0.0 0.0 0.0 0.0 0.0 0.0 0.0 0.0 0.0 0.0 0.0 0.0 0.0 0.0 0.0 0.0 0.0 0.0 0.0 0.0 0.0 3.6 3.2 0.0 0.0 0.0 0.0 0.0 0.0 0.0 0.0 1.3 0.9 2.2 0.0 0.0 0.0 0.9 0.1 0.0 0.0 0.0 0.0 0.0 0.0 0.0 0.0 0.0 0.0 0.0 0.0 0.0 0.0
0.0 0.0 0.0 0.0 0.0 0.0 0.0 0.0 0.0 0.0 0.0 0.0 0.0 0.0 0.0 0.0 0.0 0.2 0.6 0.0 0.0 0.0 4.1 7.5 4.4 0.6 0.0 0.0 0.0 0.0 0.0 0.3 3.1 2.8 0.0 1.9 1.4 1.8 1.6 0.0 0.0 0.0 0.0 0.0 0.0 0.0 0.0 0.0 0.0 0.0 0.0 0.0 0.0 0.0
0.0 0.0 0.0 0.0 0.0 0.0 0.0 0.0 0.0 0.0 0.0 0.0 0.0 0.0 0.0 0.0 0.0 0.0 0.0 0.0 0.0 3.7 6.9 10.0 8.2 6.9 0.0 0.0 0.0 0.0 0.0 0.2 5.2 1.5 0.0 0.6 0.0 2.1 1.5 0.0 0.0 0.0 0.0 0.0 0.0 0.0 0.0 0.0 0.0 0.0 0.0 0.0 0.0 0.0
0.0 0.0 0.0 0.0 0.0 0.0 0.0 0.0 0.0 0.0 0.0 0.0 0.0 0.0 0.0 0.0 0.0 0.0 0.0 0.0 0.0 0.2 7.7 7.1 8.9 7.9 0.6 0.3 0.3 0.1 0.0 2.0 0.9 1.5 0.0 0.0 1.2 2.4 0.0 0.0 0.1 0.0 0.0 0.0 0.0 0.0 0.0 0.0 0.0 0.0 0.0 0.0 0.0 0.0
0.0 0.0 0.0 0.0 0.0 0.0 0.0 0.0 0.0 0.0 0.0 0.0 0.0 0.0 0.6 0.0 0.0 0.0 0.0 3.2 4.7 4.6 4.6 6.0 4.3 2.7 2.4 4.7 1.2 1.3 0.3 3.3 5.4 0.0 0.0 1.7 0.0 0.0 0.0 0.5 0.2 0.1 0.0 0.0 4.0 2.7 1.0 1.6 0.3 0.3 0.0 0.1 0.0 0.0
0.0 0.0 0.0 0.0 0.0 0.0 0.0 0.0 0.0 0.0 0.0 0.0 0.1 0.5 0.0 0.0 0.0 0.1 6.5 5.2 3.1 2.7 3.7 3.7 3.0 3.3 0.0 4.4 2.3 0.7 3.7 2.7 6.5 3.2 1.2 1.7 2.8 1.1 0.0 0.3 0.0 0.1 0.2 0.0 0.0 0.5 1.7 2.9 3.1 1.5 0.6 3.2 1.5 2.4
0.0 0.0 0.0 0.0 0.0 0.0 0.0 0.0 0.0 0.0 0.0 0.0 0.0 0.0 0.0 3.5 7.0 9.5 9.2 1.7 1.3 1.8 1.7 1.8 1.2 0.6 1.7 0.0 3.0 2.1 3.1 2.9 2.6 1.6 4.0 3.4 2.3 1.4 1.9 0.6 0.3 0.1 0.0 0.1 0.2 2.1 0.9 0.9 1.2 1.4 2.6 2.9 2.7 2.9
0.0 0.0 0.0 0.0 0.0 0.0 0.0 0.0 0.0 0.0 0.0 0.0 0.4 1.5 2.9 5.5 7.1 5.2 4.1 1.7 0.6 0.5 0.6 1.0 1.3 0.3 0.0 0.3 2.4 2.9 2.3 1.1 2.6 4.4 3.2 1.5 0.5 0.0 0.5 1.7 1.6 1.6 0.3 1.3 2.0 0.0 0.7 0.5 0.4 0.3 0.3 0.1 0.0 0.0
0.0 0.0 0.0 0.0 0.0 0.0 0.0 0.0 0.0 0.0 0.0 0.1 0.7 1.3 2.3 3.0 3.2 2.4 1.3 1.1 0.0 0.3 0.0 0.1 1.0 1.8 0.4 1.9 1.9 2.6 0.6 2.7 4.9 2.4 2.0 0.3 0.5 0.4 0.2 0.4 0.7 0.8 1.2 1.7 3.9 3.9 1.9 1.0 0.4 0.1 0.0 0.0 0.0 0.0
0.0 0.0 0.0 0.0 0.0 0.0 0.0 0.0 0.0 0.0 0.0 0.3 1.0 1.2 1.2 1.8 0.8 0.4 0.1 0.5 0.0 0.0 0.0 0.0 0.1 0.6 1.4 2.2 1.8 1.9 2.1 3.4 2.8 2.6 1.3 0.6 0.6 0.8 0.5 0.3 0.2 0.5 0.7 1.6 1.6 2.6 3.5 1.9 0.7 0.0 0.0 0.1 0.3 0.6
0.0 0.0 0.0 0.0 0.0 0.0 0.0 0.0 0.0 0.0 0.7 0.6 0.7 1.2 0.9 0.6 0.3 0.1 0.0 0.1 0.0 0.0 0.1 0.3 0.5 1.2 1.0 2.5 1.3 1.9 2.8 2.8 2.0 1.4 0.8 0.4 0.7 0.0 0.2 0.3 0.0 0.0 0.0 0.2 1.3 1.7 2.3 2.0 1.2 0.6 0.5 0.1 0.2 1.3
0.0 0.0 0.0 0.0 0.0 0.0 0.0 0.0 0.0 2.3 2.9 1.0 0.2 0.7 0.8 0.4 0.4 0.3 0.0 0.0 0.0 0.2 1.3 2.0 2.3 0.7 0.6 1.2 0.6 0.5 1.5 1.3 0.9 0.0 0.1 0.0 0.1 0.0 0.0 0.0 0.0 0.0 0.0 0.0 0.6 1.0 1.7 2.3 2.3 1.2 1.5 1.3 1.0 0.7
0.0 0.0 0.0 0.0 0.0 0.0 0.0 0.0 0.4 2.6 2.1 0.1 0.0 0.0 0.0 0.0 0.3 0.3 0.0 0.0 0.0 0.4 1.8 5.0 2.5 1.5 0.3 0.1 0.0 0.3 0.0 0.0 0.2 0.0 0.2 0.0 0.0 0.0 0.0 0.0 0.0 0.2 0.7 1.7 1.5 1.5 1.0 1.5 1.4 1.1 0.8 0.7 0.7 0.9
0.0 0.0 0.0 0.0 0.0 0.0 4.4 4.6 1.5 1.0 0.1 0.0 0.0 0.0 0.0 0.0 0.0 0.0 0.0 0.0 0.0 0.0 0.3 3.0 2.2 0.3 0.0 0.0 0.0 0.0 0.0 0.0 0.0 0.0 0.0 0.0 0.0 0.0 0.0 0.3 0.3 0.7 1.7 1.4 0.4 0.3 0.4 0.4 0.7 0.3 0.9 0.6 0.9 0.8
0.0 0.0 0.0 0.0 0.0 2.4 2.8 3.9 1.8 0.0 0.0 0.0 0.0 0.0 0.0 0.0 0.0 0.0 0.0 0.3 0.5 2.1 2.3 1.9 0.0 0.2 0.1 0.3 0.3 0.1 0.0 0.0 0.0 0.0 0.0 0.0 0.0 0.0 0.0 0.0 0.1 0.4 0.7 0.5 0.4 0.8 0.5 0.6 0.4 0.2 0.5 0.4 0.9 1.0
0.0 0.0 0.0 0.0 2.5 3.3 1.6 0.9 0.1 0.0 0.0 0.0 0.0 0.0 0.0 0.0 0.0 0.0 0.0 1.2 2.2 3.1 2.3 1.3 0.2 0.1 0.0 0.5 0.2 0.0 0.0 0.0 0.0 0.0 0.0 0.0 0.0 0.0 0.0 0.0 0.0 0.0 0.0 0.2 0.2 0.1 0.5 0.3 0.7 0.5 0.2 0.7 0.6 0.9
0.9 0.0 9.4 6.2 11.2 5.8 2.0 0.7 0.0 0.0 0.0 0.0 0.0 0.0 0.0 0.0 0.0 0.0 0.0 1.6 2.7 1.6 1.2 0.9 0.9 0.6 0.2 0.0 0.7 0.7 0.5 0.0 0.0 0.0 0.0 0.0 0.0 0.0 0.0 0.0 0.0 0.0 0.0 0.0 0.0 0.0 0.0 0.1 0.0 0.4 0.4 0.9 0.8 0.3
0.8 2.4 12.3 12.0 9.5 6.1 3.2 0.4 0.3 0.1 0.1 0.4 0.3 0.1 0.4 0.3 0.2 0.1 0.9 1.1 1.2 0.9 0.7 0.6 0.7 1.6 1.7 1.4 1.4 1.1 0.6 0.1 0.0 0.2 0.1 0.0 0.0 0.0 0.0 0.0 0.0 0.0 0.0 0.0 0.0 0.0 0.0 0.0 0.0 0.0 0.0 0.0 0.5 0.5
0.0 12.2 12.4 9.9 5.3 3.6 2.3 1.9 1.5 0.6 0.8 0.6 0.6 0.5 0.3 0.0 0.4 0.6 0.6 0.3 0.3 0.2 0.8 1.0 0.9 0.7 0.5 1.2 1.4 1.7 1.9 1.2 0.3 0.0 0.6 0.3 0.1 0.0 0.0 0.0 0.0 0.0 0.0 0.0 0.0 0.0 0.0 0.0 0.0 0.0 0.0 0.0 0.0 0.0
16.0 15.3 10.1 8.4 4.1 1.4 0.5 0.7 0.5 0.5 0.5 0.4 0.2 0.1 0.0 0.0 0.3 0.3 0.0 0.0 0.0 0.1 0.3 0.8 0.9 0.9 0.9 0.7 1.0 1.0 1.0 1.2 1.8 1.9 0.1 1.3 0.6 0.2 0.0 0.0 0.3 0.0 0.0 0.1 0.1 0.0 0.0 0.0 0.0 0.0 0.0 0.0 0.1 0.2
14.5 8.9 3.2 0.7 0.3 0.1 0.0 0.0 0.1 0.0 0.1 0.1 0.2 0.0 0.0 0.0 0.2 0.0 0.0 0.0 0.1 0.2 0.2 0.3 0.7 0.7 0.5 0.5 0.7 1.2 1.2 1.1 1.0 1.7 1.1 1.6 1.3 1.6 1.6 0.1 1.1 0.5 0.1 0.1 0.6 0.5 0.2 0.1 0.0 0.0 0.0 0.1 0.3 0.3
8.7 4.8 1.5 0.1 0.0 0.0 0.0 0.0 0.1 0.1 0.4 0.5 0.1 0.0 0.1 0.3 0.1 0.0 0.0 0.0 0.0 0.2 0.3 0.6 1.2 1.1 0.8 0.8 0.8 1.2 1.4 1.5 1.4 1.1 1.4 3.2 3.1 2.1 1.0 1.6 1.5 1.0 0.7 0.5 1.0 0.7 0.7 0.6 0.4 0.4 0.4 0.5 0.4 0.7
2.1 0.2 0.0 0.0 0.1 0.1 0.2 0.5 0.8 0.7 0.5 0.0 0.3 0.2 0.2 0.0 0.0 0.0 0.0 0.0 0.0 0.0 0.4 0.7 1.1 1.5 1.3 1.1 1.2 1.6 1.8 2.0 2.2 2.1 3.0 3.5 3.8 3.6 2.9 2.5 2.1 2.5 2.5 1.7 1.4 1.7 1.5 1.1 0.9 1.4 1.1 1.0 0.9 0.8
0.9 0.2 0.1 0.1 0.0 0.2 0.4 0.4 0.3 0.1 0.0 0.0 0.0 0.0 0.0 0.0 0.0 0.0 0.0 0.1 0.0 0.4 0.6 0.8 1.1 1.2 1.6 1.7 1.7 2.2 2.3 2.3 1.9 1.5 1.2 1.5 2.7 3.7 3.9 3.6 4.2 4.3 2.9 3.0 2.6 2.6 2.2 2.8 2.5 2.5 2.6 2.5 2.2 2.2
0.1 0.0 0.0 0.1 0.2 0.1 0.3 0.1 0.1 0.0 0.0 0.0 0.0 0.0 0.0 0.0 0.1 0.1 0.1 0.1 0.0 0.7 1.0 1.4 1.4 1.5 2.0 2.0 2.0 1.9 2.4 2.6 2.5 1.4 1.3 1.4 1.8 2.7 4.0 4.0 4.2 4.6 4.5 4.2 4.7 5.2 5.0 5.0 5.0 4.6 3.7 3.4 3.4 3.0
0.0 0.0 0.1 0.1 0.0 0.2 0.1 0.2 0.2 0.2 0.0 0.1 0.1 0.1 0.1 0.1 0.1 0.1 0.2 0.3 0.7 1.1 1.5 1.9 2.1 2.6 2.7 2.9 2.9 2.5 2.5 3.0 3.3 3.6 2.9 3.1 3.1 3.1 3.7 4.2 4.1 4.6 4.6 4.2 3.7 3.4 3.5 3.0 2.6 2.6 2.5 2.5 2.4 2.1
0.0 0.0 0.0 0.0 0.0 0.1 0.3 0.3 0.2 0.1 0.1 0.1 0.2 0.1 0.1 0.0 0.0 0.0 0.2 0.4 0.9 1.2 1.6 1.9 2.1 2.6 3.1 3.1 3.2 3.3 2.7 2.9 2.9 3.7 3.2 2.9 2.9 2.5 3.4 3.7 4.2 4.0 4.2 4.1 3.6 3.8 3.6 3.6 3.7 3.4 3.2 3.3 3.0 2.6
0.6 0.3 0.3 0.2 0.5 0.5 0.2 0.1 0.1 0.0 0.0 0.0 0.1 0.0 0.0 0.0 0.0 0.2 0.3 0.5 1.0 1.2 1.4 2.1 2.5 2.5 2.5 2.5 2.8 3.1 3.2 3.1 3.9 4.1 4.1 4.3 4.3 4.4 3.5 3.6 3.6 4.0 3.9 4.0 4.2 4.5 4.6 4.2 3.9 3.7 3.4 3.1 2.9 2.7

GFSWCAN_prec_snow_093.txt.gz
Snowfall_Accumulation
0.0 0.0 0.0 0.0 0.0 0.0 0.0 0.0 0.0 0.0 0.0 0.0 0.0 0.0 0.0 0.0 0.0 0.0 0.0 0.0 0.0 0.0 0.0 0.0 0.0 0.0 0.0 0.0 0.0 0.0 0.0 0.0 0.1 0.3 0.0 0.1 0.2 0.0 0.0 0.0 0.0 0.0 0.1 0.4 0.4 0.8 0.0 0.0 0.0 0.0 0.0 0.0 0.0 0.0
0.0 0.0 0.0 0.0 0.0 0.0 0.0 0.0 0.0 0.0 0.0 0.0 0.0 0.0 0.0 0.0 0.0 0.0 0.0 0.0 0.0 0.1 0.0 0.0 0.0 0.0 0.0 0.0 0.0 0.0 0.0 0.0 0.0 0.3 0.2 0.0 0.0 0.0 0.0 0.0 0.0 0.0 0.0 0.0 0.0 0.0 0.0 0.0 0.0 0.0 0.0 0.0 0.0 0.0
0.0 0.0 0.0 0.0 0.0 0.0 0.0 0.0 0.0 0.0 0.0 0.0 0.0 0.0 0.0 0.0 0.0 0.0 0.0 0.0 0.0 0.4 0.0 0.0 0.0 0.0 0.0 0.0 0.0 0.0 0.0 0.0 0.0 0.1 0.2 0.1 0.0 0.0 0.1 0.0 0.0 0.0 0.0 0.0 0.0 0.0 0.0 0.0 0.0 0.0 0.0 0.0 0.0 0.0
0.0 0.0 0.0 0.0 0.0 0.0 0.0 0.0 0.0 0.0 0.0 0.0 0.0 0.0 0.0 0.0 0.0 0.0 0.0 0.0 0.0 0.6 1.6 0.0 0.0 0.0 0.0 0.0 0.0 0.0 0.0 0.0 0.0 0.7 0.6 0.3 0.3 0.0 0.0 0.0 0.0 0.0 0.0 0.0 0.0 0.0 0.0 0.0 0.0 0.0 0.0 0.0 0.0 0.0
0.0 0.0 0.0 0.0 0.0 0.0 0.0 0.0 0.0 0.0 0.0 0.0 0.0 0.0 0.0 0.0 0.0 0.0 0.0 0.0 0.0 0.7 2.6 1.1 0.0 0.0 0.0 0.0 0.0 0.0 0.0 0.0 0.4 1.1 1.7 1.0 0.0 0.0 0.0 0.0 0.0 0.0 0.0 0.0 0.0 0.0 0.0 0.0 0.0 0.0 0.0 0.0 0.0 0.0
0.0 0.0 0.0 0.0 0.0 0.0 0.0 0.0 0.0 0.0 0.0 0.0 0.0 0.0 0.0 0.0 0.0 0.0 0.0 0.0 0.0 0.0 3.6 3.2 0.0 0.0 0.0 0.0 0.0 0.0 0.0 0.0 1.3 0.9 2.2 0.0 0.0 0.0 0.9 0.1 0.0 0.0 0.0 0.0 0.0 0.0 0.0 0.0 0.0 0.0 0.0 0.0 0.0 0.0
0.0 0.0 0.0 0.0 0.0 0.0 0.0 0.0 0.0 0.0 0.0 0.0 0.0 0.0 0.0 0.0 0.0 0.2 0.6 0.0 0.0 0.0 4.1 7.5 4.4 0.6 0.0 0.0 0.0 0.0 0.0 0.3 3.1 2.8 0.0 1.9 1.4 1.8 1.6 0.0 0.0 0.0 0.0 0.0 0.0 0.0 0.0 0.0 0.0 0.0 0.0 0.0 0.0 0.0
0.0 0.0 0.0 0.0 0.0 0.0 0.0 0.0 0.0 0.0 0.0 0.0 0.0 0.0 0.0 0.0 0.0 0.0 0.0 0.0 0.0 3.7 6.9 10.0 8.2 6.9 0.0 0.0 0.0 0.0 0.0 0.2 5.2 1.5 0.0 0.6 0.0 2.1 1.5 0.0 0.0 0.0 0.0 0.0 0.0 0.0 0.0 0.0 0.0 0.0 0.0 0.0 0.0 0.0
0.0 0.0 0.0 0.0 0.0 0.0 0.0 0.0 0.0 0.0 0.0 0.0 0.0 0.0 0.0 0.0 0.0 0.0 0.0 0.0 0.0 0.2 7.7 7.1 8.9 7.9 0.6 0.3 0.3 0.1 0.0 2.0 0.9 1.5 0.0 0.0 1.2 2.4 0.0 0.0 0.1 0.0 0.0 0.0 0.0 0.0 0.0 0.0 0.0 0.0 0.0 0.0 0.0 0.0
0.0 0.0 0.0 0.0 0.0 0.0 0.0 0.0 0.0 0.0 0.0 0.0 0.0 0.0 0.6 0.0 0.0 0.0 0.0 3.2 4.7 4.6 4.6 6.0 4.3 2.7 2.4 4.7 1.2 1.3 0.3 3.3 5.4 0.0 0.0 1.7 0.0 0.0 0.0 0.5 0.2 0.1 0.0 0.0 4.0 2.7 1.0 1.6 0.3 0.3 0.0 0.1 0.0 0.0
0.0 0.0 0.0 0.0 0.0 0.0 0.0 0.0 0.0 0.0 0.0 0.0 0.1 0.5 0.0 0.0 0.0 0.1 6.5 5.2 3.1 2.7 3.7 3.7 3.0 3.3 0.0 4.4 2.3 0.7 3.7 2.7 6.5 3.2 1.2 1.7 2.8 1.1 0.0 0.3 0.0 0.1 0.2 0.0 0.0 0.5 1.7 2.9 3.1 1.5 0.6 3.2 1.5 2.4
0.0 0.0 0.0 0.0 0.0 0.0 0.0 0.0 0.0 0.0 0.0 0.0 0.0 0.0 0.0 3.5 7.0 9.5 9.2 1.7 1.3 1.8 1.7 1.8 1.2 0.6 1.7 0.0 3.0 2.1 3.1 2.9 2.6 1.6 4.0 3.4 2.3 1.4 1.9 0.6 0.3 0.1 0.0 0.1 0.2 2.1 0.9 0.9 1.2 1.4 2.6 2.9 2.7 2.9
0.0 0.0 0.0 0.0 0.0 0.0 0.0 0.0 0.0 0.0 0.0 0.0 0.4 1.5 2.9 5.5 7.1 5.2 4.1 1.7 0.6 0.5 0.6 1.0 1.3 0.3 0.0 0.3 2.4 2.9 2.3 1.1 2.6 4.4 3.2 1.5 0.5 0.0 0.5 1.7 1.6 1.6 0.3 1.3 2.0 0.0 0.7 0.5 0.4 0.3 0.3 0.1 0.0 0.0
0.0 0.0 0.0 0.0 0.0 0.0 0.0 0.0 0.0 0.0 0.0 0.1 0.7 1.3 2.3 3.0 3.2 2.4 1.3 1.1 0.0 0.3 0.0 0.1 1.0 1.8 0.4 1.9 1.9 2.6 0.6 2.7 4.9 2.4 2.0 0.3 0.5 0.4 0.2 0.4 0.7 0.8 1.2 1.7 3.9 3.9 1.9 1.0 0.4 0.1 0.0 0.0 0.0 0.0
0.0 0.0 0.0 0.0 0.0 0.0 0.0 0.0 0.0 0.0 0.0 0.3 1.0 1.2 1.2 1.8 0.8 0.4 0.1 0.5 0.0 0.0 0.0 0.0 0.1 0.6 1.4 2.2 1.8 1.9 2.1 3.4 2.8 2.6 1.3 0.6 0.6 0.8 0.5 0.3 0.2 0.5 0.7 1.6 1.6 2.6 3.5 1.9 0.7 0.0 0.0 0.1 0.3 0.6
0.0 0.0 0.0 0.0 0.0 0.0 0.0 0.0 0.0 0.0 0.7 0.6 0.7 1.2 0.9 0.6 0.3 0.1 0.0 0.1 0.0 0.0 0.1 0.3 0.5 1.2 1.0 2.5 1.3 1.9 2.8 2.8 2.0 1.4 0.8 0.4 0.7 0.0 0.2 0.3 0.0 0.0 0.0 0.2 1.3 1.7 2.3 2.0 1.2 0.6 0.5 0.1 0.2 1.3
0.0 0.0 0.0 0.0 0.0 0.0 0.0 0.0 0.0 2.3 2.9 1.0 0.2 0.7 0.8 0.4 0.4 0.3 0.0 0.0 0.0 0.2 1.3 2.0 2.3 0.7 0.6 1.2 0.6 0.5 1.5 1.3 0.9 0.0 0.1 0.0 0.1 0.0 0.0 0.0 0.0 0.0 0.0 0.0 0.6 1.0 1.7 2.3 2.3 1.2 1.5 1.3 1.0 0.7
0.0 0.0 0.0 0.0 0.0 0.0 0.0 0.0 0.4 2.8 2.3 0.1 0.0 0.0 0.0 0.0 0.3 0.3 0.0 0.0 0.0 0.4 1.8 5.0 2.5 1.5 0.3 0.1 0.0 0.3 0.0 0.0 0.2 0.0 0.2 0.0 0.0 0.0 0.0 0.0 0.0 0.2 0.7 1.7 1.5 1.5 1.0 1.5 1.4 1.1 0.8 0.7 0.7 0.9
0.0 0.0 0.0 0.0 0.0 0.0 6.7 4.6 1.5 1.2 0.1 0.0 0.0 0.0 0.0 0.0 0.0 0.0 0.0 0.0 0.0 0.0 0.3 3.0 2.2 0.3 0.0 0.0 0.0 0.0 0.0 0.0 0.0 0.0 0.0 0.0 0.0 0.0 0.0 0.3 0.3 0.7 1.7 1.4 0.4 0.3 0.4 0.4 0.7 0.3 0.9 0.6 0.9 0.8
0.0 0.0 0.0 0.0 0.0 5.9 5.7 5.6 1.8 0.2 0.1 0.0 0.0 0.0 0.0 0.0 0.0 0.0 0.0 0.3 0.5 2.1 2.3 1.9 0.0 0.2 0.1 0.3 0.3 0.1 0.0 0.0 0.0 0.0 0.0 0.0 0.0 0.0 0.0 0.0 0.1 0.4 0.7 0.5 0.4 0.8 0.5 0.6 0.4 0.2 0.5 0.4 0.9 1.0
0.0 0.0 0.0 0.0 2.5 7.8 3.6 1.7 0.4 0.1 0.0 0.0 0.0 0.0 0.0 0.0 0.0 0.0 0.0 1.2 2.2 3.1 2.3 1.3 0.2 0.1 0.0 0.5 0.2 0.0 0.0 0.0 0.0 0.0 0.0 0.0 0.0 0.0 0.0 0.0 0.0 0.0 0.0 0.2 0.2 0.1 0.5 0.3 0.7 0.5 0.2 0.7 0.6 0.9
0.9 0.0 9.4 6.2 17.6 9.8 3.7 1.5 0.1 0.0 0.0 0.0 0.0 0.0 0.0 0.0 0.0 0.0 0.0 1.6 2.7 1.6 1.2 0.9 0.9 0.6 0.2 0.0 0.7 0.7 0.5 0.0 0.0 0.0 0.0 0.0 0.0 0.0 0.0 0.0 0.0 0.0 0.0 0.0 0.0 0.0 0.0 0.1 0.0 0.4 0.4 0.9 0.8 0.3
0.8 2.4 17.6 17.1 13.5 8.5 4.3 0.8 0.3 0.2 0.1 0.4 0.3 0.1 0.4 0.3 0.2 0.1 0.9 1.1 1.2 0.9 0.7 0.6 0.7 1.6 1.7 1.4 1.4 1.1 0.6 0.1 0.0 0.2 0.1 0.0 0.0 0.0 0.0 0.0 0.0 0.0 0.0 0.0 0.0 0.0 0.0 0.0 0.0 0.0 0.0 0.0 0.5 0.5
0.0 18.0 17.7 14.0 7.8 4.9 3.1 2.6 2.0 0.8 1.0 0.7 0.6 0.5 0.3 0.0 0.5 0.7 0.6 0.3 0.3 0.2 0.8 1.0 0.9 0.7 0.5 1.2 1.4 1.7 1.9 1.2 0.3 0.0 0.6 0.3 0.1 0.0 0.0 0.0 0.0 0.0 0.0 0.0 0.0 0.0 0.0 0.0 0.0 0.0 0.0 0.0 0.0 0.0
21.2 20.7 14.2 11.2 5.4 1.8 0.7 0.9 0.7 0.6 0.7 0.4 0.2 0.1 0.0 0.0 0.3 0.3 0.0 0.0 0.0 0.1 0.3 0.8 0.9 0.9 0.9 0.7 1.0 1.0 1.0 1.2 1.8 1.9 0.1 1.3 0.6 0.2 0.0 0.0 0.3 0.0 0.0 0.1 0.1 0.0 0.0 0.0 0.0 0.0 0.0 0.0 0.1 0.2
18.4 11.5 4.7 1.4 0.6 0.1 0.0 0.0 0.1 0.1 0.1 0.1 0.2 0.0 0.0 0.0 0.2 0.0 0.0 0.0 0.1 0.2 0.2 0.3 0.7 0.7 0.5 0.5 0.7 1.2 1.2 1.1 1.0 1.7 1.1 1.6 1.3 1.6 1.6 0.1 1.1 0.5 0.1 0.1 0.6 0.5 0.2 0.1 0.0 0.0 0.0 0.1 0.3 0.3
11.5 6.1 1.9 0.2 0.0 0.0 0.0 0.0 0.1 0.1 0.4 0.5 0.1 0.0 0.1 0.3 0.1 0.0 0.0 0.0 0.0 0.2 0.3 0.6 1.2 1.1 0.8 0.8 0.8 1.2 1.4 1.5 1.4 1.1 1.4 3.2 3.1 2.1 1.0 1.6 1.5 1.0 0.7 0.5 1.0 0.7 0.7 0.6 0.4 0.4 0.4 0.5 0.4 0.7
3.2 0.5 0.0 0.1 0.1 0.1 0.2 0.5 0.8 0.7 0.5 0.0 0.3 0.2 0.2 0.0 0.0 0.0 0.0 0.0 0.0 0.0 0.4 0.7 1.1 1.5 1.3 1.1 1.2 1.6 1.8 2.0 2.2 2.1 3.0 3.5 3.8 3.6 2.9 2.5 2.2 2.5 2.5 1.7 1.4 1.7 1.5 1.1 0.9 1.4 1.1 1.0 0.9 0.8
1.1 0.2 0.1 0.1 0.0 0.2 0.4 0.4 0.3 0.1 0.0 0.0 0.0 0.0 0.0 0.0 0.0 0.0 0.0 0.1 0.0 0.4 0.6 0.8 1.1 1.2 1.6 1.7 1.7 2.2 2.3 2.3 1.9 1.5 1.2 1.5 2.7 3.7 3.9 3.6 4.2 4.4 2.9 3.0 2.6 2.6 2.2 2.8 2.5 2.5 2.6 2.5 2.2 2.2
0.2 0.0 0.0 0.1 0.2 0.1 0.3 0.1 0.1 0.0 0.0 0.0 0.0 0.0 0.0 0.0 0.1 0.1 0.1 0.1 0.0 0.7 1.0 1.4 1.4 1.5 2.0 2.0 2.0 1.9 2.4 2.6 2.5 1.4 1.3 1.4 1.8 2.7 4.0 4.0 4.2 4.6 4.5 4.2 4.7 5.2 5.0 5.0 5.0 4.6 3.7 3.4 3.4 3.0
0.0 0.0 0.1 0.1 0.0 0.2 0.1 0.2 0.2 0.2 0.0 0.1 0.1 0.1 0.1 0.1 0.1 0.1 0.2 0.3 0.7 1.1 1.5 1.9 2.1 2.6 2.7 2.9 2.9 2.5 2.5 3.0 3.3 3.6 2.9 3.1 3.1 3.1 3.7 4.2 4.1 4.6 4.6 4.2 3.7 3.4 3.5 3.0 2.6 2.6 2.5 2.5 2.4 2.1
0.0 0.0 0.0 0.0 0.0 0.1 0.3 0.3 0.2 0.1 0.1 0.1 0.2 0.1 0.1 0.0 0.0 0.0 0.2 0.4 0.9 1.2 1.6 1.9 2.1 2.6 3.1 3.1 3.2 3.3 2.7 2.9 2.9 3.7 3.2 2.9 2.9 2.5 3.4 3.7 4.2 4.0 4.2 4.1 3.6 3.8 3.6 3.6 3.7 3.4 3.2 3.3 3.0 2.6
0.7 0.3 0.3 0.2 0.5 0.5 0.2 0.1 0.2 0.1 0.1 0.0 0.1 0.0 0.0 0.0 0.0 0.2 0.3 0.5 1.0 1.2 1.4 2.1 2.5 2.5 2.5 2.5 2.8 3.1 3.2 3.1 3.9 4.1 4.1 4.3 4.3 4.4 3.5 3.6 3.6 4.0 3.9 4.0 4.2 4.5 4.6 4.2 3.9 3.7 3.4 3.1 2.9 2.7

GFSWCAN_prec_snow_096.txt.gz
Snowfall_Accumulation
0.0 0.0 0.0 0.0 0.0 0.0 0.0 0.0 0.0 0.0 0.0 0.0 0.0 0.0 0.0 0.0 0.0 0.0 0.0 0.0 0.0 0.0 0.0 0.0 0.0 0.0 0.0 0.0 0.0 0.0 0.0 0.0 0.1 0.3 0.0 0.1 0.2 0.0 0.0 0.0 0.0 0.0 0.1 0.4 0.4 0.8 0.0 0.0 0.0 0.0 0.0 0.0 0.0 0.0
0.0 0.0 0.0 0.0 0.0 0.0 0.0 0.0 0.0 0.0 0.0 0.0 0.0 0.0 0.0 0.0 0.0 0.0 0.0 0.0 0.0 0.1 0.0 0.0 0.0 0.0 0.0 0.0 0.0 0.0 0.0 0.0 0.0 0.3 0.2 0.0 0.0 0.0 0.0 0.0 0.0 0.0 0.0 0.0 0.0 0.0 0.0 0.0 0.0 0.0 0.0 0.0 0.0 0.0
0.0 0.0 0.0 0.0 0.0 0.0 0.0 0.0 0.0 0.0 0.0 0.0 0.0 0.0 0.0 0.0 0.0 0.0 0.0 0.0 0.0 0.4 0.0 0.0 0.0 0.0 0.0 0.0 0.0 0.0 0.0 0.0 0.0 0.1 0.2 0.1 0.0 0.0 0.1 0.0 0.0 0.0 0.0 0.0 0.0 0.0 0.0 0.0 0.0 0.0 0.0 0.0 0.0 0.0
0.0 0.0 0.0 0.0 0.0 0.0 0.0 0.0 0.0 0.0 0.0 0.0 0.0 0.0 0.0 0.0 0.0 0.0 0.0 0.0 0.0 0.6 1.6 0.0 0.0 0.0 0.0 0.0 0.0 0.0 0.0 0.0 0.0 0.7 0.6 0.3 0.3 0.0 0.0 0.0 0.0 0.0 0.0 0.0 0.0 0.0 0.0 0.0 0.0 0.0 0.0 0.0 0.0 0.0
0.0 0.0 0.0 0.0 0.0 0.0 0.0 0.0 0.0 0.0 0.0 0.0 0.0 0.0 0.0 0.0 0.0 0.0 0.0 0.0 0.0 0.7 2.6 1.1 0.0 0.0 0.0 0.0 0.0 0.0 0.0 0.0 0.4 1.1 1.7 1.0 0.0 0.0 0.0 0.0 0.0 0.0 0.0 0.0 0.0 0.0 0.0 0.0 0.0 0.0 0.0 0.0 0.0 0.0
0.0 0.0 0.0 0.0 0.0 0.0 0.0 0.0 0.0 0.0 0.0 0.0 0.0 0.0 0.0 0.0 0.0 0.0 0.0 0.0 0.0 0.0 3.6 3.2 0.0 0.0 0.0 0.0 0.0 0.0 0.0 0.0 1.3 0.9 2.2 0.0 0.0 0.0 0.9 0.1 0.0 0.0 0.0 0.0 0.0 0.0 0.0 0.0 0.0 0.0 0.0 0.0 0.0 0.0
0.0 0.0 0.0 0.0 0.0 0.0 0.0 0.0 0.0 0.0 0.0 0.0 0.0 0.0 0.0 0.0 0.0 0.2 0.6 0.0 0.0 0.0 4.1 7.5 4.4 0.6 0.0 0.0 0.0 0.0 0.0 0.3 3.1 2.8 0.0 1.9 1.4 1.8 1.6 0.0 0.0 0.0 0.0 0.0 0.0 0.0 0.0 0.0 0.0 0.0 0.0 0.0 0.0 0.0
0.0 0.0 0.0 0.0 0.0 0.0 0.0 0.0 0.0 0.0 0.0 0.0 0.0 0.0 0.0 0.0 0.0 0.0 0.0 0.0 0.0 3.7 6.9 10.0 8.2 6.9 0.0 0.0 0.0 0.0 0.0 0.2 5.2 1.5 0.0 0.6 0.0 2.1 1.5 0.0 0.0 0.0 0.0 0.0 0.0 0.0 0.0 0.0 0.0 0.0 0.0 0.0 0.0 0.0
0.0 0.0 0.0 0.0 0.0 0.0 0.0 0.0 0.0 0.0 0.0 0.0 0.0 0.0 0.0 0.0 0.0 0.0 0.0 0.0 0.0 0.2 7.7 7.1 8.9 7.9 0.6 0.3 0.3 0.1 0.0 2.0 0.9 1.5 0.0 0.0 1.2 2.4 0.0 0.0 0.1 0.0 0.0 0.0 0.0 0.0 0.0 0.0 0.0 0.0 0.0 0.0 0.0 0.0
0.0 0.0 0.0 0.0 0.0 0.0 0.0 0.0 0.0 0.0 0.0 0.0 0.0 0.0 0.6 0.0 0.0 0.0 0.0 3.2 4.7 4.6 4.6 6.0 4.3 2.7 2.4 4.7 1.2 1.3 0.3 3.3 5.4 0.0 0.0 1.7 0.0 0.0 0.0 0.5 0.2 0.1 0.0 0.0 4.0 2.7 1.0 1.6 0.3 0.3 0.0 0.1 0.0 0.0
0.0 0.0 0.0 0.0 0.0 0.0 0.0 0.0 0.0 0.0 0.0 0.0 0.1 0.5 0.0 0.0 0.0 0.1 6.5 5.2 3.1 2.7 3.7 3.7 3.0 3.3 0.0 4.4 2.3 0.7 3.7 2.7 6.5 3.2 1.2 1.7 2.8 1.1 0.0 0.3 0.0 0.1 0.2 0.0 0.0 0.5 1.7 2.9 3.1 1.5 0.6 3.2 1.5 2.4
0.0 0.0 0.0 0.0 0.0 0.0 0.0 0.0 0.0 0.0 0.0 0.0 0.0 0.0 0.0 3.5 7.0 9.5 9.2 1.7 1.3 1.8 1.7 1.8 1.2 0.6 1.7 0.0 3.0 2.1 3.1 2.9 2.6 1.6 4.0 3.4 2.3 1.4 1.9 0.6 0.3 0.1 0.0 0.1 0.2 2.1 0.9 0.9 1.2 1.4 2.6 2.9 2.7 2.9
0.0 0.0 0.0 0.0 0.0 0.0 0.0 0.0 0.0 0.0 0.0 0.0 0.4 1.5 2.9 5.5 7.1 5.2 4.1 1.7 0.6 0.5 0.6 1.0 1.3 0.3 0.0 0.3 2.4 2.9 2.3 1.1 2.6 4.4 3.2 1.5 0.5 0.0 0.5 1.7 1.6 1.6 0.3 1.3 2.0 0.0 0.7 0.5 0.4 0.3 0.3 0.1 0.0 0.0
0.0 0.0 0.0 0.0 0.0 0.0 0.0 0.0 0.0 0.0 0.0 0.1 0.7 1.3 2.3 3.0 3.2 2.4 1.3 1.1 0.0 0.3 0.0 0.1 1.0 1.8 0.4 1.9 1.9 2.6 0.6 2.7 4.9 2.4 2.0 0.3 0.5 0.4 0.2 0.4 0.7 0.8 1.2 1.7 3.9 3.9 1.9 1.0 0.4 0.1 0.0 0.0 0.0 0.0
0.0 0.0 0.0 0.0 0.0 0.0 0.0 0.0 0.0 0.0 0.0 0.3 1.0 1.2 1.2 1.8 0.8 0.4 0.1 0.5 0.0 0.0 0.0 0.0 0.1 0.6 1.4 2.2 1.8 1.9 2.1 3.4 2.8 2.6 1.3 0.6 0.6 0.8 0.5 0.3 0.2 0.5 0.7 1.6 1.6 2.6 3.5 1.9 0.7 0.0 0.0 0.1 0.3 0.6
0.0 0.0 0.0 0.0 0.0 0.0 0.0 0.0 0.0 0.0 0.7 0.7 0.7 1.2 0.9 0.6 0.3 0.1 0.0 0.1 0.0 0.0 0.1 0.3 0.5 1.2 1.0 2.5 1.3 1.9 2.8 2.8 2.0 1.4 0.8 0.4 0.7 0.0 0.2 0.3 0.0 0.0 0.0 0.2 1.3 1.7 2.3 2.0 1.2 0.6 0.5 0.1 0.2 1.3
0.0 0.0 0.0 0.0 0.0 0.0 0.0 0.0 0.0 2.3 3.6 1.1 0.2 0.7 0.8 0.4 0.4 0.3 0.0 0.0 0.0 0.2 1.3 2.0 2.3 0.7 0.6 1.2 0.6 0.5 1.5 1.3 0.9 0.0 0.1 0.0 0.1 0.0 0.0 0.0 0.0 0.0 0.0 0.0 0.6 1.0 1.7 2.3 2.3 1.2 1.5 1.3 1.0 0.7
0.0 0.0 0.0 0.0 0.0 0.0 0.0 0.0 0.4 4.7 3.4 0.3 0.0 0.0 0.0 0.0 0.3 0.3 0.0 0.0 0.0 0.4 1.8 5.0 2.5 1.5 0.3 0.1 0.0 0.3 0.0 0.0 0.2 0.0 0.2 0.0 0.0 0.0 0.0 0.0 0.0 0.2 0.7 1.7 1.5 1.5 1.0 1.5 1.4 1.1 0.8 0.7 0.7 0.9
0.0 0.0 0.0 0.0 0.0 0.0 12.2 8.6 3.5 2.0 0.3 0.0 0.0 0.0 0.0 0.0 0.0 0.0 0.0 0.0 0.0 0.0 0.3 3.0 2.2 0.3 0.0 0.0 0.0 0.0 0.0 0.0 0.0 0.0 0.0 0.0 0.0 0.0 0.0 0.3 0.3 0.7 1.7 1.4 0.4 0.3 0.4 0.4 0.7 0.3 0.9 0.6 0.9 0.8
0.0 0.0 0.0 0.0 0.0 11.6 10.5 8.5 1.8 0.4 0.2 0.0 0.0 0.0 0.0 0.0 0.0 0.0 0.0 0.3 0.5 2.1 2.3 1.9 0.0 0.2 0.1 0.3 0.3 0.1 0.0 0.0 0.0 0.0 0.0 0.0 0.0 0.0 0.0 0.0 0.1 0.4 0.7 0.5 0.4 0.8 0.5 0.6 0.4 0.2 0.5 0.4 0.9 1.0
0.0 0.0 0.0 0.0 2.5 15.0 8.5 3.7 1.0 0.2 0.0 0.0 0.0 0.0 0.0 0.0 0.0 0.1 0.1 1.2 2.2 3.1 2.3 1.3 0.2 0.1 0.0 0.5 0.2 0.0 0.0 0.0 0.0 0.0 0.0 0.0 0.0 0.0 0.0 0.0 0.0 0.0 0.0 0.2 0.2 0.1 0.5 0.3 0.7 0.5 0.2 0.7 0.6 0.9
0.9 0.0 9.4 6.2 23.8 16.2 7.9 3.1 0.3 0.0 0.0 0.0 0.0 0.0 0.0 0.0 0.0 0.1 0.1 1.6 2.8 1.6 1.2 0.9 0.9 0.6 0.2 0.0 0.7 0.7 0.5 0.0 0.0 0.0 0.0 0.0 0.0 0.0 0.0 0.0 0.0 0.0 0.0 0.0 0.0 0.0 0.0 0.1 0.0 0.4 0.4 0.9 0.8 0.3
0.8 2.4 22.2 21.6 18.0 12.1 6.8 2.0 0.5 0.3 0.1 0.4 0.3 0.1 0.4 0.3 0.2 0.1 0.9 1.1 1.2 0.9 0.7 0.6 0.7 1.6 1.7 1.4 1.4 1.1 0.6 0.1 0.0 0.2 0.1 0.0 0.0 0.0 0.0 0.0 0.0 0.0 0.0 0.0 0.0 0.0 0.0 0.0 0.0 0.0 0.0 0.0 0.5 0.5
0.0 23.0 22.4 18.0 10.8 6.9 4.4 3.6 2.7 1.1 1.3 1.0 0.9 0.5 0.3 0.0 0.6 0.7 0.6 0.3 0.3 0.2 0.8 1.0 0.9 0.7 0.5 1.2 1.4 1.7 1.9 1.2 0.3 0.0 0.6 0.3 0.1 0.0 0.0 0.0 0.0 0.0 0.0 0.0 0.0 0.0 0.0 0.0 0.0 0.0 0.0 0.0 0.0 0.0
25.7 25.4 17.9 14.4 7.3 2.4 0.9 1.1 0.9 0.8 0.7 0.6 0.3 0.1 0.1 0.1 0.3 0.3 0.0 0.0 0.0 0.1 0.3 0.9 0.9 0.9 0.9 0.7 1.0 1.0 1.0 1.2 1.8 1.9 0.1 1.3 0.6 0.2 0.0 0.0 0.3 0.0 0.0 0.1 0.1 0.0 0.0 0.0 0.0 0.0 0.0 0.0 0.1 0.2
22.0 14.1 6.2 2.2 1.1 0.2 0.0 0.0 0.1 0.1 0.1 0.2 0.2 0.0 0.0 0.0 0.2 0.0 0.0 0.0 0.1 0.2 0.2 0.3 0.7 0.7 0.5 0.5 0.7 1.2 1.2 1.1 1.0 1.7 1.1 1.6 1.3 1.6 1.6 0.1 1.1 0.5 0.1 0.1 0.6 0.5 0.2 0.1 0.0 0.0 0.0 0.1 0.3 0.3
14.7 7.7 2.3 0.3 0.0 0.0 0.0 0.0 0.1 0.1 0.4 0.5 0.2 0.1 0.1 0.3 0.1 0.0 0.0 0.0 0.0 0.2 0.3 0.6 1.2 1.1 0.8 0.8 0.8 1.2 1.4 1.5 1.4 1.1 1.4 3.2 3.1 2.1 1.0 1.6 1.5 1.0 0.7 0.5 1.0 0.7 0.7 0.6 0.4 0.4 0.4 0.5 0.4 0.7
4.5 0.7 0.0 0.2 0.1 0.1 0.2 0.5 0.8 0.7 0.5 0.0 0.3 0.2 0.2 0.0 0.0 0.0 0.0 0.0 0.0 0.0 0.4 0.7 1.1 1.5 1.3 1.1 1.2 1.6 1.8 2.0 2.2 2.1 3.0 3.5 3.8 3.6 2.9 2.5 2.2 2.5 2.5 1.7 1.4 1.7 1.5 1.1 0.9 1.4 1.1 1.0 0.9 0.8
1.3 0.2 0.1 0.1 0.0 0.2 0.4 0.4 0.3 0.1 0.0 0.0 0.0 0.0 0.0 0.0 0.0 0.0 0.0 0.1 0.0 0.4 0.6 0.8 1.1 1.2 1.6 1.7 1.7 2.2 2.3 2.3 1.9 1.5 1.2 1.5 2.7 3.7 3.9 3.6 4.2 4.4 2.9 3.0 2.6 2.6 2.2 2.8 2.5 2.5 2.6 2.5 2.2 2.2
0.3 0.0 0.0 0.1 0.2 0.1 0.3 0.1 0.1 0.0 0.0 0.0 0.0 0.0 0.0 0.0 0.1 0.1 0.1 0.1 0.0 0.7 1.0 1.4 1.4 1.5 2.0 2.0 2.0 1.9 2.4 2.6 2.5 1.4 1.3 1.4 1.8 2.7 4.0 4.0 4.2 4.6 4.5 4.2 4.7 5.2 5.0 5.0 5.0 4.6 3.7 3.4 3.4 3.0
0.0 0.0 0.1 0.1 0.0 0.2 0.1 0.2 0.2 0.2 0.0 0.1 0.2 0.1 0.2 0.1 0.1 0.1 0.2 0.3 0.7 1.1 1.5 1.9 2.1 2.6 2.7 2.9 2.9 2.5 2.5 3.0 3.3 3.6 2.9 3.1 3.1 3.1 3.7 4.2 4.1 4.6 4.6 4.2 3.7 3.4 3.5 3.0 2.6 2.6 2.5 2.5 2.4 2.1
0.1 0.0 0.0 0.0 0.0 0.1 0.3 0.3 0.2 0.1 0.1 0.1 0.2 0.1 0.1 0.0 0.0 0.0 0.2 0.4 0.9 1.2 1.6 1.9 2.1 2.6 3.1 3.1 3.2 3.3 2.7 2.9 2.9 3.7 3.2 2.9 2.9 2.5 3.4 3.7 4.2 4.0 4.2 4.1 3.6 3.8 3.6 3.6 3.7 3.4 3.2 3.3 3.0 2.6
0.7 0.3 0.3 0.2 0.5 0.5 0.2 0.1 0.2 0.2 0.2 0.1 0.1 0.0 0.0 0.0 0.0 0.2 0.3 0.5 1.0 1.2 1.4 2.1 2.5 2.5 2.5 2.5 2.8 3.1 3.2 3.1 3.9 4.1 4.1 4.3 4.3 4.4 3.5 3.6 3.6 4.0 4.0 4.0 4.2 4.5 4.6 4.2 3.9 3.7 3.4 3.1 2.9 2.7

GFSWCAN_prec_snow_099.txt.gz
Snowfall_Accumulation
0.0 0.0 0.0 0.0 0.0 0.0 0.0 0.0 0.0 0.0 0.0 0.0 0.0 0.0 0.0 0.0 0.0 0.0 0.0 0.0 0.0 0.0 0.0 0.0 0.0 0.0 0.0 0.0 0.0 0.0 0.0 0.0 0.1 0.3 0.0 0.1 0.2 0.0 0.0 0.0 0.0 0.0 0.1 0.4 0.4 0.8 0.0 0.0 0.0 0.0 0.0 0.0 0.0 0.0
0.0 0.0 0.0 0.0 0.0 0.0 0.0 0.0 0.0 0.0 0.0 0.0 0.0 0.0 0.0 0.0 0.0 0.0 0.0 0.0 0.0 0.1 0.0 0.0 0.0 0.0 0.0 0.0 0.0 0.0 0.0 0.0 0.0 0.3 0.2 0.0 0.0 0.0 0.0 0.0 0.0 0.0 0.0 0.0 0.0 0.0 0.0 0.0 0.0 0.0 0.0 0.0 0.0 0.0
0.0 0.0 0.0 0.0 0.0 0.0 0.0 0.0 0.0 0.0 0.0 0.0 0.0 0.0 0.0 0.0 0.0 0.0 0.0 0.0 0.0 0.4 0.0 0.0 0.0 0.0 0.0 0.0 0.0 0.0 0.0 0.0 0.0 0.1 0.2 0.1 0.0 0.0 0.1 0.0 0.0 0.0 0.0 0.0 0.0 0.0 0.0 0.0 0.0 0.0 0.0 0.0 0.0 0.0
0.0 0.0 0.0 0.0 0.0 0.0 0.0 0.0 0.0 0.0 0.0 0.0 0.0 0.0 0.0 0.0 0.0 0.0 0.0 0.0 0.0 0.6 1.6 0.0 0.0 0.0 0.0 0.0 0.0 0.0 0.0 0.0 0.0 0.7 0.6 0.3 0.3 0.0 0.0 0.0 0.0 0.0 0.0 0.0 0.0 0.0 0.0 0.0 0.0 0.0 0.0 0.0 0.0 0.0
0.0 0.0 0.0 0.0 0.0 0.0 0.0 0.0 0.0 0.0 0.0 0.0 0.0 0.0 0.0 0.0 0.0 0.0 0.0 0.0 0.0 0.7 2.6 1.1 0.0 0.0 0.0 0.0 0.0 0.0 0.0 0.0 0.4 1.1 1.7 1.0 0.0 0.0 0.0 0.0 0.0 0.0 0.0 0.0 0.0 0.0 0.0 0.0 0.0 0.0 0.0 0.0 0.0 0.0
0.0 0.0 0.0 0.0 0.0 0.0 0.0 0.0 0.0 0.0 0.0 0.0 0.0 0.0 0.0 0.0 0.0 0.0 0.0 0.0 0.0 0.0 3.6 3.2 0.0 0.0 0.0 0.0 0.0 0.0 0.0 0.0 1.3 0.9 2.2 0.0 0.0 0.0 0.9 0.1 0.0 0.0 0.0 0.0 0.0 0.0 0.0 0.0 0.0 0.0 0.0 0.0 0.0 0.0
0.0 0.0 0.0 0.0 0.0 0.0 0.0 0.0 0.0 0.0 0.0 0.0 0.0 0.0 0.0 0.0 0.0 0.2 0.6 0.0 0.0 0.0 4.1 7.5 4.4 0.6 0.0 0.0 0.0 0.0 0.0 0.3 3.1 2.8 0.0 1.9 1.4 1.8 1.6 0.0 0.0 0.0 0.0 0.0 0.0 0.0 0.0 0.0 0.0 0.0 0.0 0.0 0.0 0.0
0.0 0.0 0.0 0.0 0.0 0.0 0.0 0.0 0.0 0.0 0.0 0.0 0.0 0.0 0.0 0.0 0.0 0.0 0.0 0.0 0.0 3.7 6.9 10.0 8.2 6.9 0.0 0.0 0.0 0.0 0.0 0.2 5.2 1.5 0.0 0.6 0.0 2.1 1.5 0.0 0.0 0.0 0.0 0.0 0.0 0.0 0.0 0.0 0.0 0.0 0.0 0.0 0.0 0.0
0.0 0.0 0.0 0.0 0.0 0.0 0.0 0.0 0.0 0.0 0.0 0.0 0.0 0.0 0.0 0.0 0.0 0.0 0.0 0.0 0.0 0.2 7.7 7.1 8.9 7.9 0.6 0.3 0.3 0.1 0.0 2.0 0.9 1.5 0.0 0.0 1.2 2.4 0.0 0.0 0.1 0.0 0.0 0.0 0.0 0.0 0.0 0.0 0.0 0.0 0.0 0.0 0.0 0.0
0.0 0.0 0.0 0.0 0.0 0.0 0.0 0.0 0.0 0.0 0.0 0.0 0.0 0.0 0.6 0.0 0.0 0.0 0.0 3.2 4.7 4.6 4.6 6.0 4.3 2.7 2.4 4.7 1.2 1.3 0.3 3.3 5.4 0.0 0.0 1.7 0.0 0.0 0.0 0.5 0.2 0.1 0.0 0.0 4.0 2.7 1.0 1.6 0.3 0.3 0.0 0.1 0.0 0.0
0.0 0.0 0.0 0.0 0.0 0.0 0.0 0.0 0.0 0.0 0.0 0.0 0.1 0.5 0.0 0.0 0.0 0.1 6.5 5.2 3.1 2.7 3.7 3.7 3.0 3.3 0.0 4.4 2.3 0.7 3.7 2.7 6.5 3.2 1.2 1.7 2.8 1.1 0.0 0.3 0.0 0.1 0.2 0.0 0.0 0.5 1.7 2.9 3.1 1.5 0.6 3.2 1.5 2.4
0.0 0.0 0.0 0.0 0.0 0.0 0.0 0.0 0.0 0.0 0.0 0.0 0.0 0.0 0.0 3.5 7.0 9.5 9.2 1.7 1.3 1.8 1.7 1.8 1.2 0.6 1.7 0.0 3.0 2.1 3.1 2.9 2.6 1.6 4.0 3.4 2.3 1.4 1.9 0.6 0.3 0.1 0.0 0.1 0.2 2.1 0.9 0.9 1.2 1.4 2.6 2.9 2.7 2.9
0.0 0.0 0.0 0.0 0.0 0.0 0.0 0.0 0.0 0.0 0.0 0.0 0.4 1.5 2.9 5.5 7.1 5.2 4.1 1.7 0.6 0.5 0.6 1.0 1.3 0.3 0.0 0.3 2.4 2.9 2.3 1.1 2.6 4.4 3.2 1.5 0.5 0.0 0.5 1.7 1.6 1.6 0.3 1.3 2.0 0.0 0.7 0.5 0.4 0.3 0.3 0.1 0.0 0.0
0.0 0.0 0.0 0.0 0.0 0.0 0.0 0.0 0.0 0.0 0.0 0.1 0.8 1.3 2.3 3.0 3.2 2.4 1.3 1.1 0.0 0.3 0.0 0.1 1.0 1.8 0.4 1.9 1.9 2.6 0.6 2.7 4.9 2.4 2.0 0.3 0.5 0.4 0.2 0.4 0.7 0.8 1.2 1.7 3.9 3.9 1.9 1.0 0.4 0.1 0.0 0.0 0.0 0.0
0.0 0.0 0.0 0.0 0.0 0.0 0.0 0.0 0.0 0.0 0.0 0.7 1.0 1.2 1.2 1.8 0.8 0.4 0.1 0.5 0.0 0.0 0.0 0.0 0.1 0.6 1.4 2.2 1.8 1.9 2.1 3.4 2.8 2.6 1.3 0.6 0.6 0.8 0.5 0.3 0.2 0.5 0.7 1.6 1.6 2.6 3.5 1.9 0.7 0.0 0.0 0.1 0.3 0.6
0.0 0.0 0.0 0.0 0.0 0.0 0.0 0.0 0.0 0.0 0.7 1.4 0.8 1.2 0.9 0.6 0.3 0.1 0.0 0.1 0.0 0.0 0.1 0.3 0.5 1.2 1.0 2.5 1.3 1.9 2.8 2.8 2.0 1.4 0.8 0.4 0.7 0.0 0.2 0.3 0.0 0.0 0.0 0.2 1.3 1.7 2.3 2.0 1.2 0.6 0.5 0.1 0.2 1.3
0.0 0.0 0.0 0.0 0.0 0.0 0.0 0.0 0.0 6.7 5.9 1.9 0.3 0.7 0.8 0.4 0.4 0.3 0.0 0.0 0.0 0.2 1.3 2.0 2.3 0.7 0.6 1.2 0.6 0.5 1.5 1.3 0.9 0.0 0.1 0.0 0.1 0.0 0.0 0.0 0.0 0.0 0.0 0.0 0.6 1.0 1.7 2.3 2.3 1.2 1.5 1.3 1.0 0.7
0.0 0.0 0.0 0.0 0.0 0.0 0.0 0.0 6.1 8.4 5.0 0.3 0.0 0.0 0.0 0.0 0.3 0.3 0.0 0.0 0.0 0.4 1.8 5.0 2.5 1.5 0.3 0.1 0.0 0.3 0.0 0.0 0.2 0.0 0.2 0.0 0.0 0.0 0.0 0.0 0.0 0.2 0.7 1.7 1.5 1.5 1.0 1.5 1.4 1.1 0.8 0.7 0.7 0.9
0.0 0.0 0.0 0.0 0.0 0.0 19.6 15.0 8.4 4.5 0.9 0.0 0.0 0.0 0.0 0.0 0.0 0.0 0.0 0.0 0.0 0.0 0.3 3.0 2.2 0.3 0.0 0.0 0.1 0.0 0.0 0.0 0.0 0.0 0.0 0.0 0.0 0.0 0.0 0.3 0.3 0.7 1.7 1.4 0.4 0.3 0.4 0.4 0.7 0.3 0.9 0.6 0.9 0.8
0.0 0.0 0.0 0.0 0.0 11.6 16.6 13.3 4.6 1.3 0.3 0.0 0.0 0.0 0.0 0.0 0.0 0.0 0.0 0.5 0.5 2.1 2.3 1.9 0.0 0.2 0.1 0.3 0.3 0.1 0.0 0.0 0.0 0.0 0.0 0.0 0.0 0.0 0.0 0.0 0.1 0.4 0.7 0.5 0.4 0.8 0.5 0.6 0.4 0.2 0.5 0.4 0.9 1.0
0.0 0.0 0.0 0.0 2.5 15.0 14.5 7.5 2.5 0.6 0.0 0.0 0.0 0.0 0.0 0.0 0.0 0.1 0.1 1.4 2.5 3.3 2.3 1.3 0.2 0.1 0.0 0.5 0.2 0.0 0.0 0.0 0.0 0.0 0.0 0.0 0.0 0.0 0.0 0.0 0.0 0.0 0.0 0.2 0.2 0.1 0.5 0.3 0.7 0.5 0.2 0.7 0.6 0.9
0.9 0.0 9.4 6.2 29.4 21.9 12.4 5.8 1.2 0.0 0.0 0.0 0.0 0.0 0.0 0.0 0.1 0.1 0.1 3.0 3.8 1.6 1.2 0.9 0.9 0.6 0.2 0.0 0.7 0.7 0.5 0.0 0.0 0.0 0.0 0.0 0.0 0.0 0.0 0.0 0.0 0.0 0.0 0.0 0.0 0.0 0.0 0.1 0.0 0.4 0.4 0.9 0.8 0.3
0.8 2.4 26.8 25.8 21.8 15.7 9.7 3.6 1.0 0.4 0.1 0.4 0.3 0.3 0.6 0.3 0.2 0.1 1.0 1.1 1.2 0.9 0.7 0.6 0.7 1.6 1.7 1.4 1.4 1.1 0.6 0.1 0.0 0.2 0.1 0.0 0.0 0.0 0.0 0.0 0.0 0.0 0.0 0.0 0.0 0.0 0.0 0.0 0.0 0.0 0.0 0.0 0.5 0.5
0.0 27.4 26.8 22.1 14.0 9.6 6.3 4.9 3.2 1.1 1.5 1.1 1.1 0.7 0.4 0.0 0.7 0.8 0.7 0.3 0.3 0.2 0.8 1.0 0.9 0.7 0.5 1.2 1.4 1.7 1.9 1.2 0.3 0.0 0.6 0.3 0.1 0.0 0.0 0.0 0.0 0.0 0.0 0.0 0.0 0.0 0.0 0.0 0.0 0.0 0.0 0.0 0.0 0.0
29.2 29.5 21.8 17.5 9.4 3.3 1.3 1.4 1.1 0.8 0.7 0.6 0.3 0.1 0.2 0.2 0.4 0.4 0.0 0.0 0.0 0.1 0.3 0.9 0.9 0.9 0.9 0.7 1.0 1.0 1.0 1.2 1.8 1.9 0.1 1.3 0.6 0.2 0.0 0.0 0.3 0.0 0.0 0.1 0.1 0.0 0.0 0.0 0.0 0.0 0.0 0.0 0.1 0.2
25.8 16.8 7.7 3.1 1.4 0.3 0.0 0.0 0.1 0.1 0.1 0.2 0.2 0.0 0.0 0.0 0.4 0.1 0.0 0.0 0.1 0.2 0.2 0.3 0.7 0.7 0.5 0.5 0.7 1.2 1.2 1.1 1.0 1.7 1.1 1.6 1.3 1.6 1.6 0.1 1.1 0.5 0.1 0.1 0.6 0.5 0.2 0.1 0.0 0.0 0.0 0.1 0.3 0.3
18.1 10.1 3.0 0.4 0.0 0.0 0.0 0.0 0.1 0.1 0.4 0.5 0.2 0.1 0.1 0.4 0.1 0.0 0.0 0.0 0.0 0.2 0.3 0.6 1.2 1.1 0.8 0.8 0.8 1.2 1.4 1.5 1.4 1.1 1.4 3.2 3.1 2.1 1.0 1.6 1.5 1.0 0.7 0.5 1.0 0.7 0.7 0.6 0.4 0.4 0.4 0.5 0.4 0.7
6.5 1.4 0.0 0.2 0.1 0.1 0.2 0.5 0.8 0.7 0.5 0.0 0.3 0.2 0.2 0.0 0.0 0.0 0.0 0.0 0.0 0.0 0.4 0.7 1.1 1.5 1.3 1.1 1.2 1.6 1.8 2.0 2.2 2.1 3.0 3.5 3.8 3.6 2.9 2.5 2.2 2.5 2.5 1.7 1.4 1.7 1.5 1.1 0.9 1.4 1.1 1.0 0.9 0.8
1.6 0.3 0.1 0.1 0.0 0.2 0.4 0.4 0.3 0.1 0.0 0.0 0.0 0.0 0.0 0.0 0.0 0.0 0.0 0.1 0.0 0.4 0.6 0.8 1.1 1.2 1.6 1.7 1.7 2.2 2.3 2.3 1.9 1.5 1.2 1.5 2.7 3.7 3.9 3.6 4.2 4.4 2.9 3.0 2.6 2.6 2.2 2.8 2.5 2.5 2.6 2.5 2.2 2.2
0.3 0.0 0.0 0.1 0.2 0.1 0.3 0.1 0.1 0.0 0.0 0.0 0.0 0.0 0.0 0.0 0.1 0.1 0.1 0.1 0.0 0.7 1.0 1.4 1.4 1.5 2.0 2.0 2.0 1.9 2.4 2.6 2.5 1.4 1.3 1.4 1.8 2.7 4.0 4.0 4.2 4.6 4.5 4.2 4.7 5.2 5.0 5.0 5.0 4.6 3.7 3.4 3.4 3.0
0.0 0.0 0.1 0.1 0.0 0.2 0.1 0.2 0.2 0.2 0.0 0.1 0.2 0.1 0.2 0.1 0.1 0.1 0.2 0.3 0.7 1.1 1.5 1.9 2.1 2.6 2.7 2.9 2.9 2.5 2.5 3.0 3.3 3.6 2.9 3.1 3.1 3.1 3.7 4.2 4.1 4.6 4.6 4.2 3.7 3.4 3.5 3.0 2.6 2.6 2.5 2.5 2.4 2.1
0.2 0.1 0.0 0.0 0.0 0.1 0.3 0.3 0.2 0.1 0.1 0.1 0.2 0.1 0.1 0.0 0.0 0.0 0.2 0.4 0.9 1.2 1.6 1.9 2.1 2.6 3.1 3.1 3.2 3.3 2.7 2.9 2.9 3.7 3.2 2.9 2.9 2.5 3.4 3.7 4.2 4.0 4.2 4.1 3.6 3.8 3.6 3.6 3.7 3.4 3.2 3.3 3.0 2.6
0.9 0.5 0.4 0.3 0.6 0.7 0.2 0.1 0.2 0.2 0.2 0.1 0.1 0.0 0.0 0.0 0.0 0.2 0.3 0.5 1.0 1.2 1.4 2.1 2.5 2.5 2.5 2.5 2.8 3.1 3.2 3.1 3.9 4.1 4.1 4.3 4.3 4.4 3.5 3.6 3.6 4.0 4.0 4.0 4.2 4.5 4.6 4.2 3.9 3.7 3.4 3.1 2.9 2.7

GFSWCAN_prec_snow_102.txt.gz
Snowfall_Accumulation
0.0 0.0 0.0 0.0 0.0 0.0 0.0 0.0 0.0 0.0 0.0 0.0 0.0 0.0 0.0 0.0 0.0 0.0 0.0 0.0 0.0 0.0 0.0 0.0 0.0 0.0 0.0 0.0 0.0 0.0 0.0 0.0 0.1 0.3 0.0 0.1 0.2 0.0 0.0 0.0 0.0 0.0 0.1 0.4 0.4 0.8 0.0 0.0 0.0 0.0 0.0 0.0 0.0 0.0
0.0 0.0 0.0 0.0 0.0 0.0 0.0 0.0 0.0 0.0 0.0 0.0 0.0 0.0 0.0 0.0 0.0 0.0 0.0 0.0 0.0 0.1 0.0 0.0 0.0 0.0 0.0 0.0 0.0 0.0 0.0 0.0 0.0 0.3 0.2 0.0 0.0 0.0 0.0 0.0 0.0 0.0 0.0 0.0 0.0 0.0 0.0 0.0 0.0 0.0 0.0 0.0 0.0 0.0
0.0 0.0 0.0 0.0 0.0 0.0 0.0 0.0 0.0 0.0 0.0 0.0 0.0 0.0 0.0 0.0 0.0 0.0 0.0 0.0 0.0 0.4 0.0 0.0 0.0 0.0 0.0 0.0 0.0 0.0 0.0 0.0 0.0 0.1 0.2 0.1 0.0 0.0 0.1 0.0 0.0 0.0 0.0 0.0 0.0 0.0 0.0 0.0 0.0 0.0 0.0 0.0 0.0 0.0
0.0 0.0 0.0 0.0 0.0 0.0 0.0 0.0 0.0 0.0 0.0 0.0 0.0 0.0 0.0 0.0 0.0 0.0 0.0 0.0 0.0 0.6 1.6 0.0 0.0 0.0 0.0 0.0 0.0 0.0 0.0 0.0 0.0 0.7 0.6 0.3 0.3 0.0 0.0 0.0 0.0 0.0 0.0 0.0 0.0 0.0 0.0 0.0 0.0 0.0 0.0 0.0 0.0 0.0
0.0 0.0 0.0 0.0 0.0 0.0 0.0 0.0 0.0 0.0 0.0 0.0 0.0 0.0 0.0 0.0 0.0 0.0 0.0 0.0 0.0 0.7 2.6 1.1 0.0 0.0 0.0 0.0 0.0 0.0 0.0 0.0 0.4 1.1 1.7 1.0 0.0 0.0 0.0 0.0 0.0 0.0 0.0 0.0 0.0 0.0 0.0 0.0 0.0 0.0 0.0 0.0 0.0 0.0
0.0 0.0 0.0 0.0 0.0 0.0 0.0 0.0 0.0 0.0 0.0 0.0 0.0 0.0 0.0 0.0 0.0 0.0 0.0 0.0 0.0 0.0 3.6 3.2 0.0 0.0 0.0 0.0 0.0 0.0 0.0 0.0 1.3 0.9 2.2 0.0 0.0 0.0 0.9 0.1 0.0 0.0 0.0 0.0 0.0 0.0 0.0 0.0 0.0 0.0 0.0 0.0 0.0 0.0
0.0 0.0 0.0 0.0 0.0 0.0 0.0 0.0 0.0 0.0 0.0 0.0 0.0 0.0 0.0 0.0 0.0 0.2 0.6 0.0 0.0 0.0 4.1 7.5 4.4 0.6 0.0 0.0 0.0 0.0 0.0 0.3 3.1 2.8 0.0 1.9 1.4 1.8 1.6 0.0 0.0 0.0 0.0 0.0 0.0 0.0 0.0 0.0 0.0 0.0 0.0 0.0 0.0 0.0
0.0 0.0 0.0 0.0 0.0 0.0 0.0 0.0 0.0 0.0 0.0 0.0 0.0 0.0 0.0 0.0 0.0 0.0 0.0 0.0 0.0 3.7 6.9 10.0 8.2 6.9 0.0 0.0 0.0 0.0 0.0 0.2 5.2 1.5 0.0 0.6 0.0 2.1 1.5 0.0 0.0 0.0 0.0 0.0 0.0 0.0 0.0 0.0 0.0 0.0 0.0 0.0 0.0 0.0
0.0 0.0 0.0 0.0 0.0 0.0 0.0 0.0 0.0 0.0 0.0 0.0 0.0 0.0 0.0 0.0 0.0 0.0 0.0 0.0 0.0 0.2 7.7 7.1 8.9 7.9 0.6 0.3 0.3 0.1 0.0 2.0 0.9 1.5 0.0 0.0 1.2 2.4 0.0 0.0 0.1 0.0 0.0 0.0 0.0 0.0 0.0 0.0 0.0 0.0 0.0 0.0 0.0 0.0
0.0 0.0 0.0 0.0 0.0 0.0 0.0 0.0 0.0 0.0 0.0 0.0 0.0 0.0 0.6 0.0 0.0 0.0 0.0 3.2 4.7 4.6 4.6 6.0 4.3 2.7 2.4 4.7 1.2 1.3 0.3 3.3 5.4 0.0 0.0 1.7 0.0 0.0 0.0 0.5 0.2 0.1 0.0 0.0 4.0 2.7 1.0 1.6 0.3 0.3 0.0 0.1 0.0 0.0
0.0 0.0 0.0 0.0 0.0 0.0 0.0 0.0 0.0 0.0 0.0 0.0 0.1 0.5 0.0 0.0 0.0 0.1 6.5 5.2 3.1 2.7 3.7 3.7 3.0 3.3 0.0 4.4 2.3 0.7 3.7 2.7 6.5 3.2 1.2 1.7 2.8 1.1 0.0 0.3 0.0 0.1 0.2 0.0 0.0 0.5 1.7 2.9 3.1 1.5 0.6 3.2 1.5 2.4
0.0 0.0 0.0 0.0 0.0 0.0 0.0 0.0 0.0 0.0 0.0 0.0 0.0 0.0 0.0 3.5 7.0 9.5 9.2 1.7 1.3 1.8 1.7 1.8 1.2 0.6 1.7 0.0 3.0 2.1 3.1 2.9 2.6 1.6 4.0 3.4 2.3 1.4 1.9 0.6 0.3 0.1 0.0 0.1 0.2 2.1 0.9 0.9 1.2 1.4 2.6 2.9 2.7 2.9
0.0 0.0 0.0 0.0 0.0 0.0 0.0 0.0 0.0 0.0 0.0 0.0 0.4 1.7 2.9 5.5 7.1 5.2 4.1 1.7 0.6 0.5 0.6 1.0 1.3 0.3 0.0 0.3 2.4 2.9 2.3 1.1 2.6 4.4 3.2 1.5 0.5 0.0 0.5 1.7 1.6 1.6 0.3 1.3 2.0 0.0 0.7 0.5 0.4 0.3 0.3 0.1 0.0 0.0
0.0 0.0 0.0 0.0 0.0 0.0 0.0 0.0 0.0 0.0 0.0 0.1 1.9 2.0 2.4 3.0 3.2 2.4 1.3 1.1 0.0 0.3 0.0 0.1 1.0 1.8 0.4 1.9 1.9 2.6 0.6 2.7 4.9 2.4 2.0 0.3 0.5 0.4 0.2 0.4 0.7 0.8 1.2 1.7 3.9 3.9 1.9 1.0 0.4 0.1 0.0 0.0 0.0 0.0
0.0 0.0 0.0 0.0 0.0 0.0 0.0 0.0 0.0 0.0 0.0 2.8 2.5 1.6 1.2 1.8 0.8 0.4 0.1 0.5 0.0 0.0 0.0 0.0 0.1 0.6 1.4 2.2 1.8 1.9 2.1 3.4 2.8 2.6 1.3 0.6 0.6 0.8 0.5 0.3 0.2 0.5 0.7 1.6 1.6 2.6 3.5 1.9 0.7 0.0 0.0 0.1 0.3 0.6
0.0 0.0 0.0 0.0 0.0 0.0 0.0 0.0 0.0 0.0 0.7 5.0 3.3 1.5 0.9 0.6 0.3 0.1 0.0 0.1 0.0 0.0 0.1 0.3 0.5 1.2 1.0 2.5 1.3 1.9 2.8 2.8 2.1 1.4 0.8 0.4 0.7 0.0 0.2 0.3 0.0 0.0 0.0 0.2 1.3 1.7 2.3 2.0 1.2 0.6 0.5 0.1 0.2 1.3
0.0 0.0 0.0 0.0 0.0 0.0 0.0 0.0 0.0 12.6 10.1 5.5 1.8 0.7 0.8 0.4 0.4 0.3 0.0 0.0 0.0 0.2 1.3 2.0 2.3 0.7 0.6 1.2 0.6 0.5 1.5 1.3 0.9 0.0 0.1 0.0 0.1 0.0 0.0 0.0 0.0 0.0 0.0 0.0 0.6 1.0 1.7 2.3 2.3 1.2 1.5 1.3 1.0 0.7
0.0 0.0 0.0 0.0 0.0 0.0 0.0 0.0 11.3 13.1 8.5 1.5 0.0 0.0 0.0 0.0 0.3 0.3 0.0 0.0 0.0 0.4 1.8 5.0 2.5 1.5 0.3 0.1 0.0 0.3 0.0 0.0 0.2 0.0 0.2 0.0 0.0 0.0 0.0 0.0 0.0 0.2 0.7 1.7 1.5 1.5 1.0 1.5 1.4 1.1 0.8 0.7 0.7 0.9
0.0 0.0 0.0 0.0 0.0 0.0 19.6 19.1 12.7 8.0 2.3 0.2 0.0 0.0 0.0 0.0 0.0 0.0 0.0 0.0 0.0 0.0 0.3 3.0 2.2 0.3 0.0 0.0 0.1 0.0 0.0 0.0 0.0 0.0 0.0 0.0 0.0 0.0 0.0 0.3 0.3 0.7 1.7 1.4 0.4 0.3 0.4 0.4 0.7 0.3 0.9 0.6 0.9 0.8
0.0 0.0 0.0 0.0 0.0 11.6 20.6 17.3 8.3 2.9 0.7 0.0 0.0 0.0 0.0 0.0 0.0 0.0 0.0 0.5 0.6 2.3 2.6 2.0 0.0 0.2 0.1 0.3 0.3 0.1 0.0 0.0 0.0 0.0 0.0 0.0 0.0 0.0 0.0 0.0 0.1 0.4 0.7 0.5 0.4 0.8 0.5 0.6 0.4 0.2 0.5 0.4 0.9 1.0
0.0 0.0 0.0 0.0 2.5 15.0 18.9 10.4 3.6 0.6 0.0 0.0 0.0 0.0 0.0 0.0 0.0 0.1 0.1 1.5 3.2 4.5 2.7 1.3 0.2 0.1 0.0 0.5 0.2 0.0 0.0 0.0 0.0 0.0 0.0 0.0 0.0 0.0 0.0 0.0 0.0 0.0 0.0 0.2 0.2 0.1 0.5 0.3 0.7 0.5 0.2 0.7 0.6 0.9
0.9 0.0 9.4 6.2 29.4 26.6 15.7 7.8 1.7 0.0 0.0 0.0 0.0 0.0 0.1 0.1 0.1 0.1 0.1 3.4 4.6 1.8 1.2 0.9 0.9 0.6 0.2 0.0 0.7 0.7 0.5 0.0 0.0 0.0 0.0 0.0 0.0 0.0 0.0 0.0 0.0 0.0 0.0 0.0 0.0 0.0 0.0 0.1 0.0 0.4 0.4 0.9 0.8 0.3
0.8 2.4 26.8 29.6 25.4 19.6 12.5 5.2 1.6 0.6 0.1 0.4 0.3 0.3 0.7 0.4 0.2 0.3 1.5 1.5 1.2 0.9 0.7 0.6 0.7 1.6 1.7 1.4 1.4 1.1 0.6 0.1 0.0 0.2 0.1 0.0 0.0 0.0 0.0 0.0 0.0 0.0 0.0 0.0 0.0 0.0 0.0 0.0 0.0 0.0 0.0 0.0 0.5 0.5
0.0 29.7 29.9 26.0 17.4 12.6 8.3 6.3 4.0 1.5 1.7 1.2 1.1 0.8 0.4 0.0 0.9 1.3 0.9 0.3 0.3 0.2 0.8 1.0 0.9 0.7 0.5 1.2 1.4 1.7 1.9 1.2 0.3 0.0 0.6 0.3 0.1 0.0 0.0 0.0 0.0 0.0 0.0 0.0 0.0 0.0 0.0 0.0 0.0 0.0 0.0 0.0 0.0 0.0
31.0 31.9 24.8 21.0 11.6 4.5 1.9 1.6 1.2 0.9 0.8 0.7 0.4 0.1 0.3 0.3 0.7 0.6 0.0 0.0 0.0 0.1 0.3 0.9 0.9 0.9 0.9 0.7 1.0 1.0 1.0 1.2 1.8 1.9 0.1 1.3 0.6 0.2 0.0 0.0 0.3 0.0 0.0 0.1 0.1 0.0 0.0 0.0 0.0 0.0 0.0 0.0 0.1 0.2
27.6 18.1 8.9 3.7 1.7 0.3 0.1 0.0 0.2 0.1 0.1 0.2 0.2 0.0 0.0 0.1 0.7 0.1 0.0 0.0 0.1 0.2 0.2 0.3 0.7 0.7 0.5 0.5 0.7 1.2 1.2 1.1 1.0 1.7 1.1 1.6 1.3 1.6 1.6 0.1 1.1 0.5 0.1 0.1 0.6 0.5 0.2 0.1 0.0 0.0 0.0 0.1 0.3 0.3
19.5 11.1 3.0 0.4 0.0 0.0 0.0 0.0 0.1 0.1 0.4 0.5 0.2 0.2 0.1 0.6 0.1 0.0 0.0 0.0 0.0 0.2 0.3 0.6 1.2 1.1 0.8 0.8 0.8 1.2 1.4 1.5 1.4 1.1 1.4 3.2 3.1 2.1 1.0 1.6 1.5 1.0 0.7 0.5 1.0 0.7 0.7 0.6 0.4 0.4 0.4 0.5 0.4 0.7
7.3 1.4 0.0 0.2 0.1 0.1 0.2 0.5 0.8 0.7 0.5 0.0 0.3 0.2 0.2 0.0 0.0 0.0 0.0 0.0 0.0 0.0 0.4 0.7 1.1 1.5 1.3 1.1 1.2 1.6 1.8 2.0 2.2 2.1 3.0 3.5 3.8 3.6 2.9 2.5 2.2 2.5 2.5 1.7 1.4 1.7 1.5 1.1 0.9 1.4 1.1 1.0 0.9 0.8
1.6 0.4 0.1 0.1 0.0 0.2 0.4 0.4 0.3 0.1 0.0 0.0 0.0 0.0 0.0 0.0 0.0 0.0 0.0 0.1 0.0 0.4 0.6 0.8 1.1 1.2 1.6 1.7 1.7 2.2 2.3 2.3 1.9 1.5 1.2 1.5 2.7 3.7 3.9 3.6 4.2 4.4 2.9 3.0 2.6 2.6 2.2 2.8 2.5 2.5 2.6 2.5 2.2 2.2
0.3 0.0 0.0 0.1 0.2 0.1 0.3 0.1 0.1 0.0 0.0 0.0 0.0 0.0 0.0 0.0 0.1 0.1 0.1 0.1 0.0 0.7 1.0 1.4 1.4 1.5 2.0 2.0 2.0 1.9 2.4 2.6 2.5 1.4 1.3 1.4 1.8 2.7 4.0 4.0 4.2 4.6 4.5 4.2 4.7 5.2 5.0 5.0 5.0 4.6 3.7 3.4 3.4 3.0
0.0 0.0 0.1 0.1 0.0 0.2 0.1 0.2 0.2 0.2 0.0 0.1 0.2 0.1 0.2 0.1 0.1 0.1 0.2 0.3 0.7 1.1 1.5 1.9 2.1 2.6 2.7 2.9 2.9 2.5 2.5 3.0 3.3 3.6 2.9 3.1 3.1 3.1 3.7 4.2 4.1 4.6 4.6 4.2 3.7 3.4 3.5 3.0 2.6 2.6 2.5 2.5 2.4 2.1
0.2 0.1 0.0 0.0 0.0 0.1 0.3 0.3 0.2 0.1 0.1 0.1 0.2 0.1 0.1 0.0 0.0 0.0 0.2 0.4 0.9 1.2 1.6 1.9 2.1 2.6 3.1 3.1 3.2 3.3 2.7 2.9 2.9 3.7 3.2 2.9 2.9 2.5 3.4 3.7 4.2 4.0 4.2 4.1 3.6 3.8 3.6 3.6 3.7 3.4 3.2 3.3 3.0 2.6
1.0 0.5 0.4 0.3 0.6 0.7 0.2 0.1 0.2 0.2 0.2 0.1 0.1 0.0 0.0 0.0 0.0 0.2 0.3 0.5 1.0 1.2 1.4 2.1 2.5 2.5 2.5 2.5 2.8 3.1 3.2 3.1 3.9 4.1 4.1 4.3 4.3 4.4 3.5 3.6 3.6 4.0 4.0 4.0 4.2 4.5 4.6 4.2 3.9 3.7 3.4 3.1 2.9 2.7

GFSWCAN_prec_snow_105.txt.gz
Snowfall_Accumulation
0.0 0.0 0.0 0.0 0.0 0.0 0.0 0.0 0.0 0.0 0.0 0.0 0.0 0.0 0.0 0.0 0.0 0.0 0.0 0.0 0.0 0.0 0.0 0.0 0.0 0.0 0.0 0.0 0.0 0.0 0.0 0.0 0.1 0.3 0.0 0.1 0.2 0.0 0.0 0.0 0.0 0.0 0.1 0.4 0.4 0.8 0.0 0.0 0.0 0.0 0.0 0.0 0.0 0.0
0.0 0.0 0.0 0.0 0.0 0.0 0.0 0.0 0.0 0.0 0.0 0.0 0.0 0.0 0.0 0.0 0.0 0.0 0.0 0.0 0.0 0.1 0.0 0.0 0.0 0.0 0.0 0.0 0.0 0.0 0.0 0.0 0.0 0.3 0.2 0.0 0.0 0.0 0.0 0.0 0.0 0.0 0.0 0.0 0.0 0.0 0.0 0.0 0.0 0.0 0.0 0.0 0.0 0.0
0.0 0.0 0.0 0.0 0.0 0.0 0.0 0.0 0.0 0.0 0.0 0.0 0.0 0.0 0.0 0.0 0.0 0.0 0.0 0.0 0.0 0.4 0.0 0.0 0.0 0.0 0.0 0.0 0.0 0.0 0.0 0.0 0.0 0.1 0.2 0.1 0.0 0.0 0.1 0.0 0.0 0.0 0.0 0.0 0.0 0.0 0.0 0.0 0.0 0.0 0.0 0.0 0.0 0.0
0.0 0.0 0.0 0.0 0.0 0.0 0.0 0.0 0.0 0.0 0.0 0.0 0.0 0.0 0.0 0.0 0.0 0.0 0.0 0.0 0.0 0.6 1.6 0.0 0.0 0.0 0.0 0.0 0.0 0.0 0.0 0.0 0.0 0.7 0.6 0.3 0.3 0.0 0.0 0.0 0.0 0.0 0.0 0.0 0.0 0.0 0.0 0.0 0.0 0.0 0.0 0.0 0.0 0.0
0.0 0.0 0.0 0.0 0.0 0.0 0.0 0.0 0.0 0.0 0.0 0.0 0.0 0.0 0.0 0.0 0.0 0.0 0.0 0.0 0.0 0.7 2.6 1.1 0.0 0.0 0.0 0.0 0.0 0.0 0.0 0.0 0.4 1.1 1.7 1.0 0.0 0.0 0.0 0.0 0.0 0.0 0.0 0.0 0.0 0.0 0.0 0.0 0.0 0.0 0.0 0.0 0.0 0.0
0.0 0.0 0.0 0.0 0.0 0.0 0.0 0.0 0.0 0.0 0.0 0.0 0.0 0.0 0.0 0.0 0.0 0.0 0.0 0.0 0.0 0.0 3.6 3.2 0.0 0.0 0.0 0.0 0.0 0.0 0.0 0.0 1.3 0.9 2.2 0.0 0.0 0.0 0.9 0.1 0.0 0.0 0.0 0.0 0.0 0.0 0.0 0.0 0.0 0.0 0.0 0.0 0.0 0.0
0.0 0.0 0.0 0.0 0.0 0.0 0.0 0.0 0.0 0.0 0.0 0.0 0.0 0.0 0.0 0.0 0.0 0.2 0.6 0.0 0.0 0.0 4.1 7.5 4.4 0.6 0.0 0.0 0.0 0.0 0.0 0.3 3.1 2.8 0.0 1.9 1.4 1.8 1.6 0.0 0.0 0.0 0.0 0.0 0.0 0.0 0.0 0.0 0.0 0.0 0.0 0.0 0.0 0.0
0.0 0.0 0.0 0.0 0.0 0.0 0.0 0.0 0.0 0.0 0.0 0.0 0.0 0.0 0.0 0.0 0.0 0.0 0.0 0.0 0.0 3.7 6.9 10.0 8.2 6.9 0.0 0.0 0.0 0.0 0.0 0.2 5.2 1.5 0.0 0.6 0.0 2.1 1.5 0.0 0.0 0.0 0.0 0.0 0.0 0.0 0.0 0.0 0.0 0.0 0.0 0.0 0.0 0.0
0.0 0.0 0.0 0.0 0.0 0.0 0.0 0.0 0.0 0.0 0.0 0.0 0.0 0.0 0.0 0.0 0.0 0.0 0.0 0.0 0.0 0.2 7.7 7.1 8.9 7.9 0.6 0.3 0.3 0.1 0.0 2.0 0.9 1.5 0.0 0.0 1.2 2.4 0.0 0.0 0.1 0.0 0.0 0.0 0.0 0.0 0.0 0.0 0.0 0.0 0.0 0.0 0.0 0.0
0.0 0.0 0.0 0.0 0.0 0.0 0.0 0.0 0.0 0.0 0.0 0.0 0.0 0.0 0.6 0.0 0.0 0.0 0.0 3.2 4.7 4.6 4.6 6.0 4.3 2.7 2.4 4.7 1.2 1.3 0.3 3.3 5.4 0.0 0.0 1.7 0.0 0.0 0.0 0.5 0.2 0.1 0.0 0.0 4.0 2.7 1.0 1.6 0.3 0.3 0.0 0.1 0.0 0.0
0.0 0.0 0.0 0.0 0.0 0.0 0.0 0.0 0.0 0.0 0.0 0.0 0.1 0.5 0.0 0.0 0.0 0.1 6.5 5.2 3.1 2.7 3.7 3.7 3.0 3.3 0.0 4.4 2.3 0.7 3.7 2.7 6.5 3.2 1.2 1.7 2.8 1.1 0.0 0.3 0.0 0.1 0.2 0.0 0.0 0.5 1.7 2.9 3.1 1.5 0.6 3.2 1.5 2.4
0.0 0.0 0.0 0.0 0.0 0.0 0.0 0.0 0.0 0.0 0.0 0.0 0.0 0.0 0.0 3.7 7.1 9.5 9.2 1.7 1.3 1.8 1.7 1.8 1.2 0.6 1.7 0.0 3.0 2.1 3.1 2.9 2.6 1.6 4.0 3.4 2.3 1.4 1.9 0.6 0.3 0.1 0.0 0.1 0.2 2.1 0.9 0.9 1.2 1.4 2.6 2.9 2.7 2.9
0.0 0.0 0.0 0.0 0.0 0.0 0.0 0.0 0.0 0.0 0.0 0.0 0.4 3.2 3.9 5.9 7.4 5.4 4.1 1.7 0.6 0.5 0.6 1.0 1.3 0.3 0.0 0.3 2.4 2.9 2.3 1.1 2.6 4.4 3.2 1.5 0.5 0.0 0.5 1.7 1.6 1.6 0.3 1.3 2.0 0.0 0.7 0.5 0.4 0.3 0.3 0.1 0.0 0.0
0.0 0.0 0.0 0.0 0.0 0.0 0.0 0.0 0.0 0.0 0.0 0.1 4.5 4.1 3.3 3.1 3.2 2.4 1.3 1.1 0.0 0.3 0.0 0.1 1.0 1.8 0.4 1.9 1.9 2.6 0.6 2.7 4.9 2.4 2.0 0.3 0.5 0.4 0.2 0.4 0.7 0.8 1.2 1.7 3.9 3.9 1.9 1.0 0.4 0.1 0.0 0.0 0.0 0.0
0.0 0.0 0.0 0.0 0.0 0.0 0.0 0.0 0.0 0.0 0.0 5.7 5.5 3.0 1.6 1.8 0.8 0.4 0.1 0.5 0.0 0.0 0.0 0.0 0.1 0.6 1.4 2.2 1.8 1.9 2.1 3.4 2.8 2.6 1.3 0.6 0.6 0.8 0.5 0.3 0.2 0.5 0.7 1.6 1.6 2.6 3.5 1.9 0.7 0.0 0.0 0.1 0.3 0.6
0.0 0.0 0.0 0.0 0.0 0.0 0.0 0.0 0.0 0.0 0.7 8.8 7.0 3.0 1.0 0.6 0.3 0.1 0.0 0.1 0.0 0.0 0.1 0.3 0.5 1.2 1.0 2.5 1.3 1.9 2.8 2.8 2.1 1.4 0.8 0.4 0.7 0.0 0.2 0.3 0.0 0.0 0.0 0.2 1.3 1.7 2.3 2.0 1.2 0.6 0.5 0.1 0.2 1.3
0.0 0.0 0.0 0.0 0.0 0.0 0.0 0.0 0.0 12.6 12.8 8.5 1.8 0.7 0.8 0.4 0.4 0.3 0.0 0.0 0.0 0.2 1.3 2.0 2.3 0.7 0.6 1.2 0.6 0.5 1.5 1.3 0.9 0.0 0.1 0.0 0.1 0.0 0.0 0.0 0.0 0.0 0.0 0.0 0.6 1.0 1.7 2.3 2.3 1.2 1.5 1.3 1.0 0.7
0.0 0.0 0.0 0.0 0.0 0.0 0.0 0.0 11.3 15.2 11.0 2.9 0.0 0.0 0.0 0.0 0.3 0.3 0.0 0.0 0.0 0.4 1.8 5.1 2.6 1.5 0.3 0.1 0.0 0.3 0.0 0.0 0.2 0.0 0.2 0.0 0.0 0.0 0.0 0.0 0.0 0.2 0.7 1.7 1.5 1.5 1.0 1.5 1.4 1.1 0.8 0.7 0.7 0.9
0.0 0.0 0.0 0.0 0.0 0.0 19.6 19.1 12.7 9.5 2.3 0.2 0.0 0.0 0.0 0.0 0.0 0.0 0.0 0.0 0.0 0.0 0.3 3.3 2.5 0.5 0.0 0.0 0.1 0.0 0.0 0.0 0.0 0.0 0.0 0.0 0.0 0.0 0.0 0.3 0.3 0.7 1.7 1.4 0.4 0.3 0.4 0.4 0.7 0.3 0.9 0.6 0.9 0.8
0.0 0.0 0.0 0.0 0.0 11.6 25.8 22.4 11.5 4.4 1.0 0.0 0.0 0.0 0.0 0.0 0.0 0.0 0.0 0.5 0.7 2.8 3.6 2.9 0.2 0.2 0.1 0.3 0.3 0.1 0.0 0.0 0.0 0.0 0.0 0.0 0.0 0.0 0.0 0.0 0.1 0.4 0.7 0.5 0.4 0.8 0.5 0.6 0.4 0.2 0.5 0.4 0.9 1.0
0.0 0.0 0.0 0.0 2.5 15.0 23.5 14.9 6.3 1.6 0.2 0.0 0.0 0.0 0.0 0.0 0.0 0.1 0.1 1.5 4.2 6.4 3.7 1.3 0.2 0.1 0.0 0.5 0.2 0.0 0.0 0.0 0.0 0.0 0.0 0.0 0.0 0.0 0.0 0.0 0.0 0.0 0.0 0.2 0.2 0.1 0.5 0.3 0.7 0.5 0.2 0.7 0.6 0.9
0.9 0.0 9.4 6.2 29.4 28.7 18.3 10.7 4.1 1.2 0.3 0.1 0.0 0.0 0.1 0.2 0.1 0.1 0.1 3.7 5.7 2.3 1.2 0.9 0.9 0.6 0.2 0.0 0.7 0.7 0.5 0.0 0.0 0.0 0.0 0.0 0.0 0.0 0.0 0.0 0.0 0.0 0.0 0.0 0.0 0.0 0.0 0.1 0.0 0.4 0.4 0.9 0.8 0.3
0.8 2.4 26.8 29.6 28.7 22.7 14.2 6.0 2.6 1.5 0.6 0.8 0.8 0.7 0.9 0.4 0.2 0.3 1.7 1.7 1.2 0.9 0.7 0.6 0.7 1.6 1.7 1.4 1.4 1.1 0.6 0.1 0.0 0.2 0.1 0.0 0.0 0.0 0.0 0.0 0.0 0.0 0.1 0.0 0.0 0.0 0.0 0.0 0.0 0.0 0.0 0.0 0.5 0.5
0.0 31.3 31.9 28.8 20.0 15.1 10.3 7.6 4.6 1.7 2.1 1.5 1.4 1.0 0.5 0.0 1.0 1.6 1.1 0.3 0.3 0.2 0.8 1.0 0.9 0.7 0.5 1.2 1.4 1.7 1.9 1.2 0.3 0.0 0.6 0.3 0.1 0.0 0.0 0.0 0.0 0.0 0.0 0.0 0.0 0.0 0.0 0.0 0.0 0.0 0.0 0.0 0.0 0.0
33.7 34.6 26.4 22.6 13.1 5.6 2.6 2.1 1.5 1.0 0.9 0.8 0.4 0.2 0.3 0.3 0.9 0.9 0.0 0.0 0.0 0.1 0.3 0.9 0.9 0.9 0.9 0.7 1.0 1.0 1.0 1.2 1.8 1.9 0.1 1.3 0.6 0.2 0.0 0.0 0.3 0.0 0.0 0.1 0.1 0.0 0.0 0.0 0.0 0.0 0.0 0.0 0.1 0.2
30.1 19.3 9.9 3.7 1.7 0.3 0.1 0.0 0.2 0.1 0.1 0.2 0.2 0.0 0.1 0.2 1.1 0.4 0.0 0.0 0.1 0.2 0.2 0.3 0.7 0.7 0.5 0.5 0.7 1.2 1.2 1.1 1.0 1.7 1.1 1.6 1.3 1.6 1.6 0.1 1.1 0.5 0.1 0.1 0.6 0.5 0.2 0.1 0.0 0.0 0.0 0.1 0.3 0.3
21.0 11.6 3.0 0.4 0.1 0.0 0.0 0.0 0.1 0.1 0.4 0.5 0.2 0.2 0.2 0.9 0.1 0.0 0.0 0.0 0.0 0.2 0.3 0.6 1.2 1.1 0.8 0.8 0.8 1.2 1.4 1.5 1.4 1.1 1.4 3.2 3.1 2.1 1.0 1.6 1.5 1.0 0.7 0.5 1.0 0.7 0.7 0.6 0.4 0.4 0.4 0.5 0.4 0.7
7.3 1.4 0.0 0.2 0.1 0.1 0.2 0.5 0.8 0.7 0.5 0.0 0.3 0.2 0.2 0.0 0.0 0.0 0.0 0.0 0.0 0.0 0.4 0.7 1.1 1.5 1.3 1.1 1.2 1.6 1.8 2.0 2.2 2.1 3.0 3.5 3.8 3.6 2.9 2.5 2.2 2.5 2.5 1.7 1.4 1.7 1.5 1.1 0.9 1.4 1.1 1.0 0.9 0.8
1.6 0.6 0.4 0.5 0.2 0.3 0.4 0.4 0.3 0.1 0.0 0.0 0.0 0.0 0.0 0.0 0.0 0.0 0.0 0.1 0.0 0.4 0.6 0.8 1.1 1.2 1.6 1.7 1.7 2.2 2.3 2.3 1.9 1.5 1.2 1.5 2.7 3.7 3.9 3.6 4.2 4.4 2.9 3.0 2.6 2.6 2.2 2.8 2.5 2.5 2.6 2.5 2.2 2.2
0.3 0.0 0.0 0.1 0.3 0.2 0.3 0.1 0.1 0.0 0.0 0.0 0.0 0.0 0.0 0.0 0.1 0.1 0.1 0.1 0.0 0.7 1.0 1.4 1.4 1.5 2.0 2.0 2.0 1.9 2.4 2.6 2.5 1.4 1.3 1.4 1.8 2.7 4.0 4.0 4.2 4.6 4.5 4.2 4.7 5.2 5.0 5.0 5.0 4.6 3.7 3.4 3.4 3.0
0.0 0.0 0.1 0.1 0.0 0.2 0.1 0.2 0.2 0.2 0.0 0.1 0.2 0.1 0.2 0.1 0.1 0.1 0.2 0.3 0.7 1.1 1.5 1.9 2.1 2.6 2.7 2.9 2.9 2.5 2.5 3.0 3.3 3.6 2.9 3.1 3.1 3.1 3.7 4.2 4.1 4.6 4.6 4.2 3.7 3.4 3.5 3.0 2.6 2.6 2.5 2.5 2.4 2.1
0.2 0.1 0.0 0.0 0.0 0.1 0.3 0.3 0.2 0.1 0.1 0.1 0.2 0.1 0.1 0.0 0.0 0.0 0.2 0.4 0.9 1.2 1.6 1.9 2.1 2.6 3.1 3.1 3.2 3.3 2.7 2.9 2.9 3.7 3.2 2.9 2.9 2.5 3.4 3.7 4.2 4.0 4.2 4.1 3.6 3.8 3.6 3.6 3.7 3.4 3.2 3.3 3.0 2.6
1.1 0.6 0.4 0.3 0.6 0.7 0.2 0.1 0.2 0.2 0.2 0.1 0.1 0.0 0.0 0.0 0.0 0.2 0.3 0.5 1.0 1.2 1.4 2.1 2.5 2.5 2.5 2.5 2.8 3.1 3.2 3.1 3.9 4.1 4.1 4.3 4.3 4.4 3.5 3.6 3.6 4.0 4.0 4.0 4.2 4.5 4.6 4.2 3.9 3.7 3.4 3.1 2.9 2.7

GFSWCAN_prec_snow_108.txt.gz
Snowfall_Accumulation
0.0 0.0 0.0 0.0 0.0 0.0 0.0 0.0 0.0 0.0 0.0 0.0 0.0 0.0 0.0 0.0 0.0 0.0 0.0 0.0 0.0 0.0 0.0 0.0 0.0 0.0 0.0 0.0 0.0 0.0 0.0 0.0 0.1 0.3 0.0 0.1 0.2 0.0 0.0 0.0 0.0 0.0 0.1 0.4 0.4 0.8 0.0 0.0 0.0 0.0 0.0 0.0 0.0 0.0
0.0 0.0 0.0 0.0 0.0 0.0 0.0 0.0 0.0 0.0 0.0 0.0 0.0 0.0 0.0 0.0 0.0 0.0 0.0 0.0 0.0 0.1 0.0 0.0 0.0 0.0 0.0 0.0 0.0 0.0 0.0 0.0 0.0 0.3 0.2 0.0 0.0 0.0 0.0 0.0 0.0 0.0 0.0 0.0 0.0 0.0 0.0 0.0 0.0 0.0 0.0 0.0 0.0 0.0
0.0 0.0 0.0 0.0 0.0 0.0 0.0 0.0 0.0 0.0 0.0 0.0 0.0 0.0 0.0 0.0 0.0 0.0 0.0 0.0 0.0 0.4 0.0 0.0 0.0 0.0 0.0 0.0 0.0 0.0 0.0 0.0 0.0 0.1 0.2 0.1 0.0 0.0 0.1 0.0 0.0 0.0 0.0 0.0 0.0 0.0 0.0 0.0 0.0 0.0 0.0 0.0 0.0 0.0
0.0 0.0 0.0 0.0 0.0 0.0 0.0 0.0 0.0 0.0 0.0 0.0 0.0 0.0 0.0 0.0 0.0 0.0 0.0 0.0 0.0 0.6 1.6 0.0 0.0 0.0 0.0 0.0 0.0 0.0 0.0 0.0 0.0 0.7 0.6 0.3 0.3 0.0 0.0 0.0 0.0 0.0 0.0 0.0 0.0 0.0 0.0 0.0 0.0 0.0 0.0 0.0 0.0 0.0
0.0 0.0 0.0 0.0 0.0 0.0 0.0 0.0 0.0 0.0 0.0 0.0 0.0 0.0 0.0 0.0 0.0 0.0 0.0 0.0 0.0 0.7 2.6 1.1 0.0 0.0 0.0 0.0 0.0 0.0 0.0 0.0 0.4 1.1 1.7 1.0 0.0 0.0 0.0 0.0 0.0 0.0 0.0 0.0 0.0 0.0 0.0 0.0 0.0 0.0 0.0 0.0 0.0 0.0
0.0 0.0 0.0 0.0 0.0 0.0 0.0 0.0 0.0 0.0 0.0 0.0 0.0 0.0 0.0 0.0 0.0 0.0 0.0 0.0 0.0 0.0 3.6 3.2 0.0 0.0 0.0 0.0 0.0 0.0 0.0 0.0 1.3 0.9 2.2 0.0 0.0 0.0 0.9 0.1 0.0 0.0 0.0 0.0 0.0 0.0 0.0 0.0 0.0 0.0 0.0 0.0 0.0 0.0
0.0 0.0 0.0 0.0 0.0 0.0 0.0 0.0 0.0 0.0 0.0 0.0 0.0 0.0 0.0 0.0 0.0 0.2 0.6 0.0 0.0 0.0 4.1 7.5 4.4 0.6 0.0 0.0 0.0 0.0 0.0 0.3 3.1 2.8 0.0 1.9 1.4 1.8 1.6 0.0 0.0 0.0 0.0 0.0 0.0 0.0 0.0 0.0 0.0 0.0 0.0 0.0 0.0 0.0
0.0 0.0 0.0 0.0 0.0 0.0 0.0 0.0 0.0 0.0 0.0 0.0 0.0 0.0 0.0 0.0 0.0 0.0 0.0 0.0 0.0 3.7 6.9 10.0 8.2 6.9 0.0 0.0 0.0 0.0 0.0 0.2 5.2 1.5 0.0 0.6 0.0 2.1 1.5 0.0 0.0 0.0 0.0 0.0 0.0 0.0 0.0 0.0 0.0 0.0 0.0 0.0 0.0 0.0
0.0 0.0 0.0 0.0 0.0 0.0 0.0 0.0 0.0 0.0 0.0 0.0 0.0 0.0 0.0 0.0 0.0 0.0 0.0 0.0 0.0 0.2 7.7 7.1 8.9 7.9 0.6 0.3 0.3 0.1 0.0 2.0 0.9 1.5 0.0 0.0 1.2 2.4 0.0 0.0 0.1 0.0 0.0 0.0 0.0 0.0 0.0 0.0 0.0 0.0 0.0 0.0 0.0 0.0
0.0 0.0 0.0 0.0 0.0 0.0 0.0 0.0 0.0 0.0 0.0 0.0 0.0 0.0 0.6 0.0 0.0 0.0 0.0 3.2 4.7 4.6 4.6 6.0 4.3 2.7 2.4 4.7 1.2 1.3 0.3 3.3 5.4 0.0 0.0 1.8 0.0 0.0 0.0 0.5 0.2 0.1 0.0 0.0 4.0 2.7 1.0 1.6 0.3 0.3 0.0 0.1 0.0 0.0
0.0 0.0 0.0 0.0 0.0 0.0 0.0 0.0 0.0 0.0 0.0 0.0 0.1 0.5 0.0 0.0 0.0 0.1 6.5 5.2 3.1 2.8 3.7 3.7 3.0 3.3 0.0 4.4 2.3 0.7 3.7 2.7 6.5 3.2 1.2 1.7 2.8 1.1 0.0 0.3 0.0 0.1 0.2 0.0 0.0 0.5 1.7 2.9 3.1 1.5 0.6 3.2 1.5 2.4
0.0 0.0 0.0 0.0 0.0 0.0 0.0 0.0 0.0 0.0 0.0 0.0 0.0 0.0 0.0 4.1 7.6 9.8 9.3 1.7 1.3 1.8 1.7 1.8 1.2 0.6 1.7 0.0 3.0 2.1 3.1 2.9 2.6 1.6 4.0 3.4 2.3 1.4 1.9 0.6 0.3 0.1 0.0 0.1 0.2 2.1 0.9 0.9 1.2 1.4 2.6 2.9 2.7 2.9
0.0 0.0 0.0 0.0 0.0 0.0 0.0 0.0 0.0 0.0 0.0 0.0 0.4 5.1 5.5 6.8 8.0 5.7 4.1 1.7 0.6 0.5 0.6 1.0 1.3 0.3 0.0 0.3 2.4 2.9 2.3 1.1 2.6 4.4 3.2 1.5 0.5 0.0 0.5 1.7 1.6 1.6 0.3 1.3 2.0 0.0 0.7 0.5 0.4 0.3 0.3 0.1 0.0 0.0
0.0 0.0 0.0 0.0 0.0 0.0 0.0 0.0 0.0 0.0 0.0 0.1 6.4 6.1 4.5 3.6 3.2 2.4 1.3 1.1 0.0 0.3 0.0 0.1 1.0 1.8 0.4 1.9 1.9 2.6 0.6 2.7 4.9 2.4 2.0 0.3 0.5 0.4 0.2 0.4 0.7 0.8 1.2 1.7 3.9 3.9 1.9 1.0 0.4 0.1 0.0 0.0 0.0 0.0
0.0 0.0 0.0 0.0 0.0 0.0 0.0 0.0 0.0 0.0 0.0 7.2 7.7 4.6 2.4 1.8 0.8 0.4 0.1 0.5 0.0 0.0 0.0 0.0 0.1 0.6 1.4 2.2 1.8 1.9 2.1 3.4 2.8 2.6 1.3 0.6 0.6 0.8 0.5 0.3 0.2 0.5 0.7 1.6 1.6 2.6 3.5 1.9 0.7 0.0 0.0 0.1 0.3 0.6
0.0 0.0 0.0 0.0 0.0 0.0 0.0 0.0 0.0 0.0 0.7 10.0 8.5 3.0 1.0 0.6 0.3 0.1 0.0 0.1 0.0 0.0 0.1 0.3 0.6 1.2 1.0 2.5 1.3 1.9 2.8 2.8 2.1 1.4 0.8 0.4 0.7 0.0 0.2 0.3 0.0 0.0 0.0 0.2 1.3 1.7 2.3 2.0 1.2 0.6 0.5 0.1 0.2 1.3
0.0 0.0 0.0 0.0 0.0 0.0 0.0 0.0 0.0 12.6 15.0 10.4 2.4 0.7 0.8 0.4 0.4 0.3 0.0 0.0 0.0 0.2 1.3 2.5 3.1 0.9 0.8 1.4 0.7 0.5 1.5 1.3 0.9 0.0 0.1 0.0 0.1 0.0 0.0 0.0 0.0 0.0 0.0 0.0 0.6 1.0 1.7 2.3 2.3 1.2 1.5 1.3 1.0 0.7
0.0 0.0 0.0 0.0 0.0 0.0 0.0 0.0 11.3 16.6 11.0 2.9 0.0 0.0 0.0 0.0 0.3 0.3 0.0 0.0 0.0 0.4 1.9 5.5 3.0 1.9 0.5 0.2 0.0 0.3 0.0 0.0 0.2 0.0 0.2 0.0 0.0 0.0 0.0 0.0 0.0 0.2 0.7 1.7 1.5 1.5 1.0 1.5 1.4 1.1 0.8 0.7 0.7 0.9
0.0 0.0 0.0 0.0 0.0 0.0 20.6 19.1 12.7 10.9 2.3 0.2 0.0 0.0 0.0 0.0 0.0 0.0 0.0 0.0 0.0 0.0 0.5 4.2 3.9 1.5 0.1 0.0 0.1 0.0 0.0 0.0 0.0 0.0 0.0 0.0 0.0 0.0 0.0 0.3 0.3 0.7 1.7 1.4 0.4 0.3 0.4 0.4 0.7 0.3 0.9 0.6 0.9 0.8
0.0 0.0 0.0 0.0 0.0 12.6 27.4 24.1 13.2 5.9 1.7 0.0 0.0 0.0 0.0 0.0 0.0 0.0 0.0 0.5 0.7 2.8 4.7 4.2 0.2 0.2 0.1 0.3 0.3 0.1 0.0 0.0 0.0 0.0 0.0 0.0 0.0 0.0 0.0 0.0 0.1 0.4 0.7 0.5 0.4 0.8 0.5 0.6 0.4 0.2 0.5 0.4 0.9 1.0
0.0 0.0 0.0 0.0 2.5 15.0 23.5 16.2 7.3 1.6 0.2 0.2 0.0 0.0 0.0 0.0 0.0 0.1 0.1 1.5 4.3 6.8 4.2 1.3 0.2 0.1 0.0 0.5 0.2 0.0 0.0 0.0 0.0 0.0 0.0 0.0 0.0 0.0 0.0 0.0 0.0 0.0 0.0 0.2 0.2 0.1 0.5 0.3 0.7 0.5 0.2 0.7 0.6 0.9
0.9 0.0 9.4 6.2 30.0 29.5 19.1 11.0 4.4 1.2 0.8 0.5 0.0 0.0 0.1 0.2 0.1 0.1 0.2 4.0 5.9 2.3 1.2 0.9 0.9 0.6 0.2 0.0 0.7 0.7 0.5 0.0 0.0 0.0 0.0 0.0 0.0 0.0 0.0 0.0 0.0 0.0 0.0 0.0 0.0 0.0 0.0 0.1 0.0 0.4 0.4 0.9 0.8 0.3
0.8 2.4 27.7 30.5 29.7 24.0 14.2 6.0 2.7 1.5 0.7 0.8 0.8 0.7 1.2 0.4 0.2 0.3 2.4 2.2 1.2 0.9 0.7 0.6 0.7 1.6 1.7 1.4 1.4 1.1 0.6 0.1 0.0 0.2 0.1 0.0 0.0 0.0 0.0 0.0 0.0 0.0 0.1 0.0 0.0 0.0 0.0 0.0 0.1 0.1 0.0 0.0 0.5 0.5
0.0 32.6 33.2 30.4 21.6 16.3 10.3 7.6 4.6 1.7 2.1 1.7 1.4 1.0 0.5 0.0 1.4 2.4 1.7 0.3 0.3 0.2 0.8 1.0 0.9 0.7 0.5 1.2 1.4 1.7 1.9 1.2 0.3 0.0 0.6 0.3 0.1 0.0 0.0 0.0 0.0 0.0 0.0 0.0 0.0 0.0 0.0 0.0 0.1 0.1 0.0 0.0 0.0 0.0
35.8 37.1 28.3 23.9 13.6 6.1 3.1 2.5 2.1 1.7 1.5 1.1 0.6 0.3 0.4 0.4 1.1 1.1 0.0 0.0 0.0 0.1 0.3 0.9 0.9 0.9 0.9 0.7 1.0 1.0 1.0 1.2 1.8 1.9 0.1 1.3 0.6 0.2 0.0 0.0 0.3 0.0 0.0 0.1 0.1 0.0 0.0 0.0 0.0 0.0 0.0 0.0 0.1 0.2
32.6 20.1 10.9 3.7 1.7 0.4 0.1 0.0 0.2 0.1 0.1 0.2 0.3 0.1 0.2 0.6 1.5 0.5 0.0 0.0 0.1 0.2 0.2 0.3 0.7 0.7 0.5 0.5 0.7 1.2 1.2 1.1 1.0 1.7 1.1 1.6 1.3 1.6 1.6 0.1 1.1 0.5 0.1 0.1 0.6 0.5 0.2 0.1 0.0 0.0 0.0 0.1 0.3 0.3
22.4 11.6 3.4 0.4 0.1 0.0 0.1 0.0 0.1 0.1 0.5 0.6 0.3 0.2 0.5 1.6 0.1 0.0 0.0 0.0 0.0 0.2 0.3 0.6 1.2 1.1 0.8 0.8 0.8 1.2 1.4 1.5 1.4 1.1 1.4 3.2 3.1 2.1 1.0 1.6 1.5 1.0 0.7 0.5 1.0 0.7 0.7 0.6 0.4 0.4 0.4 0.5 0.4 0.7
7.3 2.0 0.0 0.2 0.1 0.1 0.3 0.5 0.8 0.7 0.5 0.0 0.3 0.4 0.4 0.0 0.0 0.0 0.0 0.0 0.0 0.0 0.4 0.7 1.1 1.5 1.3 1.1 1.2 1.6 1.8 2.0 2.2 2.1 3.0 3.5 3.8 3.6 2.9 2.5 2.2 2.5 2.5 1.7 1.4 1.7 1.5 1.1 0.9 1.4 1.1 1.0 0.9 0.8
1.6 1.2 0.8 0.8 0.5 0.4 0.4 0.4 0.3 0.1 0.0 0.0 0.0 0.0 0.0 0.0 0.0 0.0 0.0 0.1 0.0 0.4 0.6 0.8 1.1 1.2 1.6 1.7 1.7 2.2 2.3 2.3 1.9 1.5 1.2 1.5 2.7 3.7 3.9 3.6 4.2 4.4 2.9 3.0 2.6 2.6 2.2 2.8 2.5 2.5 2.6 2.5 2.2 2.2
0.3 0.0 0.0 0.1 0.5 0.6 0.3 0.1 0.1 0.0 0.0 0.0 0.0 0.0 0.0 0.0 0.1 0.1 0.1 0.1 0.0 0.7 1.0 1.4 1.4 1.5 2.0 2.0 2.0 1.9 2.4 2.6 2.5 1.4 1.3 1.4 1.8 2.7 4.0 4.0 4.2 4.6 4.5 4.2 4.7 5.2 5.0 5.0 5.0 4.6 3.7 3.4 3.4 3.0
0.0 0.0 0.1 0.1 0.0 0.2 0.1 0.2 0.2 0.2 0.0 0.1 0.2 0.1 0.2 0.1 0.1 0.1 0.2 0.3 0.7 1.1 1.5 1.9 2.1 2.6 2.7 2.9 2.9 2.5 2.5 3.0 3.3 3.6 2.9 3.1 3.1 3.1 3.7 4.2 4.1 4.6 4.6 4.2 3.7 3.4 3.5 3.0 2.6 2.6 2.5 2.5 2.4 2.1
0.2 0.1 0.0 0.0 0.0 0.1 0.3 0.3 0.2 0.1 0.1 0.1 0.2 0.1 0.1 0.0 0.0 0.0 0.2 0.4 0.9 1.2 1.6 1.9 2.1 2.6 3.1 3.1 3.2 3.3 2.7 2.9 2.9 3.7 3.2 2.9 2.9 2.5 3.4 3.7 4.2 4.0 4.2 4.1 3.6 3.8 3.6 3.6 3.7 3.4 3.2 3.3 3.0 2.6
1.1 0.6 0.4 0.3 0.6 0.7 0.2 0.1 0.2 0.2 0.2 0.1 0.1 0.0 0.0 0.0 0.0 0.2 0.3 0.5 1.0 1.2 1.4 2.1 2.5 2.5 2.5 2.5 2.8 3.1 3.2 3.1 3.9 4.1 4.1 4.3 4.3 4.4 3.5 3.6 3.6 4.0 4.0 4.0 4.2 4.5 4.6 4.2 3.9 3.7 3.4 3.1 2.9 2.7

GFSWCAN_prec_snow_111.txt.gz
Snowfall_Accumulation
0.0 0.0 0.0 0.0 0.0 0.0 0.0 0.0 0.0 0.0 0.0 0.0 0.0 0.0 0.0 0.0 0.0 0.0 0.0 0.0 0.0 0.0 0.0 0.0 0.0 0.0 0.0 0.0 0.0 0.0 0.0 0.0 0.1 0.3 0.0 0.1 0.2 0.0 0.0 0.0 0.0 0.0 0.1 0.4 0.4 0.8 0.0 0.0 0.0 0.0 0.0 0.0 0.0 0.0
0.0 0.0 0.0 0.0 0.0 0.0 0.0 0.0 0.0 0.0 0.0 0.0 0.0 0.0 0.0 0.0 0.0 0.0 0.0 0.0 0.0 0.1 0.0 0.0 0.0 0.0 0.0 0.0 0.0 0.0 0.0 0.0 0.0 0.3 0.2 0.0 0.0 0.0 0.0 0.0 0.0 0.0 0.0 0.0 0.0 0.0 0.0 0.0 0.0 0.0 0.0 0.0 0.0 0.0
0.0 0.0 0.0 0.0 0.0 0.0 0.0 0.0 0.0 0.0 0.0 0.0 0.0 0.0 0.0 0.0 0.0 0.0 0.0 0.0 0.0 0.4 0.0 0.0 0.0 0.0 0.0 0.0 0.0 0.0 0.0 0.0 0.0 0.1 0.2 0.1 0.0 0.0 0.1 0.0 0.0 0.0 0.0 0.0 0.0 0.0 0.0 0.0 0.0 0.0 0.0 0.0 0.0 0.0
0.0 0.0 0.0 0.0 0.0 0.0 0.0 0.0 0.0 0.0 0.0 0.0 0.0 0.0 0.0 0.0 0.0 0.0 0.0 0.0 0.0 0.6 1.6 0.0 0.0 0.0 0.0 0.0 0.0 0.0 0.0 0.0 0.0 0.7 0.6 0.3 0.3 0.0 0.0 0.0 0.0 0.0 0.0 0.0 0.0 0.0 0.0 0.0 0.0 0.0 0.0 0.0 0.0 0.0
0.0 0.0 0.0 0.0 0.0 0.0 0.0 0.0 0.0 0.0 0.0 0.0 0.0 0.0 0.0 0.0 0.0 0.0 0.0 0.0 0.0 0.7 2.6 1.1 0.0 0.0 0.0 0.0 0.0 0.0 0.0 0.0 0.4 1.1 1.7 1.0 0.0 0.0 0.0 0.0 0.0 0.0 0.0 0.0 0.0 0.0 0.0 0.0 0.0 0.0 0.0 0.0 0.0 0.0
0.0 0.0 0.0 0.0 0.0 0.0 0.0 0.0 0.0 0.0 0.0 0.0 0.0 0.0 0.0 0.0 0.0 0.0 0.0 0.0 0.0 0.0 3.6 3.2 0.0 0.0 0.0 0.0 0.0 0.0 0.0 0.0 1.3 0.9 2.2 0.0 0.0 0.0 0.9 0.1 0.0 0.0 0.0 0.0 0.0 0.0 0.0 0.0 0.0 0.0 0.0 0.0 0.0 0.0
0.0 0.0 0.0 0.0 0.0 0.0 0.0 0.0 0.0 0.0 0.0 0.0 0.0 0.0 0.0 0.0 0.0 0.2 0.6 0.0 0.0 0.0 4.1 7.5 4.4 0.6 0.0 0.0 0.0 0.0 0.0 0.3 3.1 2.8 0.0 1.9 1.4 1.8 1.6 0.0 0.0 0.0 0.0 0.0 0.0 0.0 0.0 0.0 0.0 0.0 0.0 0.0 0.0 0.0
0.0 0.0 0.0 0.0 0.0 0.0 0.0 0.0 0.0 0.0 0.0 0.0 0.0 0.0 0.0 0.0 0.0 0.0 0.0 0.0 0.0 3.7 6.9 10.0 8.2 6.9 0.0 0.0 0.0 0.0 0.0 0.2 5.2 1.5 0.0 0.6 0.0 2.1 1.5 0.0 0.0 0.0 0.0 0.0 0.0 0.0 0.0 0.0 0.0 0.0 0.0 0.0 0.0 0.0
0.0 0.0 0.0 0.0 0.0 0.0 0.0 0.0 0.0 0.0 0.0 0.0 0.0 0.0 0.0 0.0 0.0 0.0 0.0 0.0 0.0 0.2 7.7 7.1 8.9 7.9 0.6 0.3 0.3 0.1 0.0 2.0 0.9 1.5 0.0 0.0 1.2 2.4 0.0 0.0 0.1 0.0 0.0 0.0 0.0 0.0 0.0 0.0 0.0 0.0 0.0 0.0 0.0 0.0
0.0 0.0 0.0 0.0 0.0 0.0 0.0 0.0 0.0 0.0 0.0 0.0 0.0 0.0 0.6 0.0 0.0 0.0 0.0 3.2 4.7 4.6 4.6 6.1 4.3 2.7 2.4 4.7 1.2 1.3 0.3 3.3 5.4 0.0 0.0 1.8 0.0 0.0 0.0 0.5 0.2 0.1 0.0 0.0 4.0 2.7 1.0 1.6 0.3 0.3 0.0 0.1 0.0 0.0
0.0 0.0 0.0 0.0 0.0 0.0 0.0 0.0 0.0 0.0 0.0 0.0 0.1 0.5 0.0 0.0 0.0 0.1 6.5 5.3 3.1 2.9 3.7 3.7 3.0 3.3 0.0 4.4 2.3 0.7 3.7 2.7 6.5 3.2 1.2 1.7 2.8 1.1 0.0 0.3 0.0 0.1 0.2 0.0 0.0 0.5 1.7 2.9 3.1 1.5 0.6 3.2 1.5 2.4
0.0 0.0 0.0 0.0 0.0 0.0 0.0 0.0 0.0 0.0 0.0 0.0 0.0 0.0 0.0 4.7 8.3 10.1 9.5 1.7 1.3 1.8 1.7 1.8 1.2 0.6 1.7 0.0 3.0 2.1 3.1 2.9 2.6 1.6 4.0 3.4 2.3 1.4 1.9 0.6 0.3 0.1 0.0 0.1 0.2 2.1 0.9 0.9 1.2 1.4 2.6 2.9 2.7 2.9
0.0 0.0 0.0 0.0 0.0 0.0 0.0 0.0 0.0 0.0 0.0 0.0 0.4 5.1 5.5 7.4 8.5 6.0 4.1 1.8 0.6 0.5 0.6 1.0 1.3 0.3 0.0 0.3 2.4 2.9 2.3 1.1 2.6 4.4 3.2 1.5 0.5 0.0 0.5 1.7 1.6 1.6 0.3 1.3 2.0 0.0 0.7 0.5 0.4 0.3 0.3 0.1 0.0 0.0
0.0 0.0 0.0 0.0 0.0 0.0 0.0 0.0 0.0 0.0 0.0 0.1 6.4 6.9 4.7 3.6 3.2 2.4 1.3 1.1 0.0 0.3 0.0 0.1 1.0 1.8 0.4 1.9 1.9 2.6 0.6 2.7 4.9 2.4 2.0 0.3 0.5 0.4 0.2 0.4 0.7 0.8 1.2 1.7 3.9 3.9 1.9 1.0 0.4 0.1 0.0 0.0 0.0 0.0
0.0 0.0 0.0 0.0 0.0 0.0 0.0 0.0 0.0 0.0 0.0 7.2 8.4 4.6 2.4 1.8 0.8 0.4 0.1 0.5 0.0 0.0 0.0 0.2 0.4 0.8 1.7 2.7 2.1 2.0 2.1 3.4 2.8 2.6 1.3 0.6 0.6 0.8 0.5 0.3 0.2 0.5 0.7 1.6 1.6 2.6 3.5 1.9 0.7 0.0 0.0 0.1 0.3 0.6
0.0 0.0 0.0 0.0 0.0 0.0 0.0 0.0 0.0 0.0 0.7 10.5 8.9 3.0 1.0 0.6 0.3 0.1 0.0 0.1 0.0 0.0 0.1 0.5 1.1 1.7 1.2 2.5 1.8 2.0 2.9 2.8 2.1 1.4 0.8 0.4 0.7 0.0 0.2 0.3 0.0 0.0 0.0 0.2 1.3 1.7 2.3 2.0 1.2 0.6 0.5 0.1 0.2 1.3
0.0 0.0 0.0 0.0 0.0 0.0 0.0 0.0 0.0 12.6 15.0 12.1 2.7 0.7 0.8 0.4 0.4 0.3 0.0 0.0 0.0 0.2 1.5 3.1 4.0 1.5 1.4 2.1 0.9 0.5 1.5 1.3 0.9 0.0 0.1 0.0 0.1 0.0 0.0 0.0 0.0 0.0 0.0 0.0 0.6 1.0 1.7 2.3 2.3 1.2 1.5 1.3 1.0 0.7
0.0 0.0 0.0 0.0 0.0 0.0 0.0 0.0 11.3 17.1 11.1 2.9 0.0 0.0 0.0 0.0 0.3 0.3 0.0 0.0 0.0 0.4 1.9 5.7 3.3 2.7 1.3 0.8 0.2 0.3 0.0 0.0 0.2 0.0 0.2 0.0 0.0 0.0 0.0 0.0 0.0 0.2 0.7 1.7 1.5 1.5 1.0 1.5 1.4 1.1 0.8 0.7 0.7 0.9
0.0 0.0 0.0 0.0 0.0 0.0 20.7 19.1 12.7 11.7 2.4 0.2 0.0 0.0 0.0 0.0 0.0 0.0 0.0 0.0 0.0 0.0 0.5 4.5 4.5 1.9 0.1 0.0 0.1 0.0 0.0 0.0 0.0 0.0 0.0 0.0 0.0 0.0 0.0 0.3 0.3 0.7 1.7 1.4 0.4 0.3 0.4 0.4 0.7 0.3 0.9 0.6 0.9 0.8
0.0 0.0 0.0 0.0 0.0 13.5 28.3 24.5 13.2 5.9 1.7 0.0 0.0 0.0 0.0 0.0 0.0 0.0 0.0 0.5 0.7 2.9 5.2 4.9 0.2 0.2 0.1 0.3 0.3 0.1 0.0 0.0 0.0 0.0 0.0 0.0 0.0 0.0 0.0 0.0 0.1 0.4 0.7 0.5 0.4 0.8 0.5 0.6 0.4 0.2 0.5 0.4 0.9 1.0
0.0 0.0 0.0 0.0 2.5 16.7 25.0 16.2 7.5 1.6 0.2 0.2 0.0 0.1 0.1 0.0 0.0 0.1 0.1 1.5 4.6 7.6 4.2 1.3 0.2 0.1 0.0 0.5 0.2 0.0 0.0 0.0 0.0 0.0 0.0 0.0 0.0 0.0 0.0 0.0 0.0 0.0 0.0 0.2 0.2 0.1 0.5 0.3 0.7 0.5 0.2 0.7 0.6 0.9
0.9 0.0 9.4 6.2 31.7 31.6 20.9 11.5 4.6 1.2 0.8 0.5 0.0 0.0 0.1 0.4 0.1 0.1 0.2 4.7 6.8 2.3 1.2 0.9 0.9 0.6 0.2 0.0 0.7 0.7 0.5 0.0 0.0 0.0 0.0 0.0 0.0 0.0 0.0 0.0 0.0 0.0 0.0 0.0 0.0 0.0 0.0 0.1 0.0 0.4 0.4 0.9 0.8 0.3
0.8 2.4 28.8 31.6 31.2 25.4 14.7 6.0 2.7 1.5 0.8 0.8 0.8 0.9 1.3 0.4 0.2 0.3 3.1 2.2 1.2 0.9 0.7 0.6 0.7 1.6 1.7 1.4 1.4 1.1 0.6 0.1 0.0 0.2 0.1 0.0 0.0 0.0 0.0 0.0 0.0 0.0 0.1 0.0 0.0 0.0 0.0 0.0 0.1 0.1 0.0 0.0 1.1 1.0
0.0 34.3 35.0 32.5 23.0 16.9 10.3 7.6 4.6 1.8 2.1 1.7 1.5 1.0 0.5 0.0 1.4 2.4 2.0 0.3 0.3 0.2 0.8 1.0 0.9 0.7 0.5 1.2 1.4 1.7 1.9 1.2 0.3 0.0 0.6 0.3 0.1 0.0 0.0 0.0 0.0 0.0 0.0 0.0 0.0 0.0 0.0 0.0 0.1 0.1 0.0 0.0 0.7 0.7
37.9 40.2 30.2 25.2 14.0 6.3 3.2 2.7 2.4 2.0 1.5 1.1 0.8 0.3 0.4 0.4 1.4 1.4 0.1 0.0 0.0 0.1 0.3 0.9 0.9 0.9 0.9 0.7 1.0 1.0 1.0 1.2 1.8 1.9 0.1 1.3 0.6 0.2 0.0 0.0 0.3 0.0 0.0 0.1 0.1 0.0 0.0 0.0 0.0 0.0 0.0 0.6 0.9 0.9
34.6 20.8 11.8 4.0 1.8 0.4 0.1 0.0 0.2 0.1 0.1 0.5 0.9 0.9 0.2 1.7 2.8 1.2 0.0 0.0 0.1 0.2 0.2 0.3 0.7 0.7 0.5 0.5 0.7 1.2 1.2 1.1 1.0 1.7 1.1 1.6 1.3 1.6 1.6 0.1 1.1 0.5 0.1 0.1 0.6 0.5 0.2 0.1 0.0 0.0 0.4 0.5 0.7 0.5
23.7 12.0 3.6 0.4 0.1 0.0 0.2 0.0 0.1 0.1 0.5 0.7 0.3 0.2 0.5 2.0 0.1 0.0 0.0 0.0 0.0 0.2 0.3 0.6 1.2 1.1 0.8 0.8 0.8 1.2 1.4 1.5 1.4 1.1 1.4 3.2 3.1 2.1 1.0 1.6 1.5 1.0 0.7 0.5 1.0 0.7 0.7 0.6 0.4 0.5 0.5 0.5 0.4 0.7
7.3 2.0 0.0 0.2 0.1 0.1 0.3 0.5 0.8 0.7 0.5 0.0 0.3 0.6 0.8 0.0 0.0 0.0 0.0 0.0 0.0 0.0 0.4 0.7 1.1 1.5 1.3 1.1 1.2 1.6 1.8 2.0 2.2 2.1 3.0 3.5 3.8 3.6 2.9 2.5 2.2 2.5 2.5 1.7 1.4 1.7 1.5 1.1 0.9 1.4 1.1 1.0 0.9 0.8
1.6 1.2 1.1 0.8 0.5 0.4 0.5 0.4 0.3 0.1 0.0 0.0 0.0 0.0 0.0 0.0 0.0 0.0 0.0 0.1 0.0 0.4 0.6 0.8 1.1 1.2 1.6 1.7 1.7 2.2 2.3 2.3 1.9 1.5 1.2 1.5 2.7 3.7 3.9 3.6 4.2 4.4 2.9 3.0 2.6 2.6 2.2 2.8 2.5 2.5 2.6 2.5 2.2 2.2
0.3 0.0 0.0 0.1 0.5 1.1 0.3 0.1 0.1 0.0 0.0 0.0 0.0 0.0 0.0 0.0 0.1 0.1 0.1 0.1 0.0 0.7 1.0 1.4 1.4 1.5 2.0 2.0 2.0 1.9 2.4 2.6 2.5 1.4 1.3 1.4 1.8 2.7 4.0 4.0 4.2 4.6 4.5 4.2 4.7 5.2 5.0 5.0 5.0 4.6 3.7 3.4 3.4 3.0
0.0 0.0 0.1 0.1 0.0 0.2 0.1 0.2 0.2 0.2 0.0 0.1 0.2 0.1 0.2 0.1 0.1 0.1 0.2 0.3 0.7 1.1 1.5 1.9 2.1 2.6 2.7 2.9 2.9 2.5 2.5 3.0 3.3 3.6 2.9 3.1 3.1 3.1 3.7 4.2 4.1 4.6 4.6 4.2 3.7 3.4 3.5 3.0 2.6 2.6 2.5 2.5 2.4 2.1
0.2 0.1 0.0 0.0 0.0 0.1 0.3 0.3 0.2 0.1 0.1 0.1 0.2 0.1 0.1 0.0 0.0 0.0 0.2 0.4 0.9 1.2 1.6 1.9 2.1 2.6 3.1 3.1 3.2 3.3 2.7 2.9 2.9 3.7 3.2 2.9 2.9 2.5 3.4 3.7 4.2 4.0 4.2 4.1 3.6 3.8 3.6 3.6 3.7 3.4 3.2 3.3 3.0 2.6
1.1 0.6 0.4 0.3 0.6 0.7 0.2 0.1 0.2 0.2 0.2 0.1 0.1 0.0 0.0 0.0 0.0 0.2 0.3 0.5 1.0 1.2 1.4 2.1 2.5 2.5 2.5 2.5 2.8 3.1 3.2 3.1 3.9 4.1 4.1 4.3 4.3 4.4 3.5 3.6 3.6 4.0 4.0 4.0 4.2 4.5 4.6 4.2 3.9 3.7 3.4 3.1 2.9 2.7

GFSWCAN_prec_snow_114.txt.gz
Snowfall_Accumulation
0.0 0.0 0.0 0.0 0.0 0.0 0.0 0.0 0.0 0.0 0.0 0.0 0.0 0.0 0.0 0.0 0.0 0.0 0.0 0.0 0.0 0.0 0.0 0.0 0.0 0.0 0.0 0.0 0.0 0.0 0.0 0.0 0.1 0.3 0.0 0.1 0.2 0.0 0.0 0.0 0.0 0.0 0.1 0.4 0.4 0.8 0.0 0.0 0.0 0.0 0.0 0.0 0.0 0.0
0.0 0.0 0.0 0.0 0.0 0.0 0.0 0.0 0.0 0.0 0.0 0.0 0.0 0.0 0.0 0.0 0.0 0.0 0.0 0.0 0.0 0.1 0.0 0.0 0.0 0.0 0.0 0.0 0.0 0.0 0.0 0.0 0.0 0.3 0.2 0.0 0.0 0.0 0.0 0.0 0.0 0.0 0.0 0.0 0.0 0.0 0.0 0.0 0.0 0.0 0.0 0.0 0.0 0.0
0.0 0.0 0.0 0.0 0.0 0.0 0.0 0.0 0.0 0.0 0.0 0.0 0.0 0.0 0.0 0.0 0.0 0.0 0.0 0.0 0.0 0.4 0.0 0.0 0.0 0.0 0.0 0.0 0.0 0.0 0.0 0.0 0.0 0.1 0.2 0.1 0.0 0.0 0.1 0.0 0.0 0.0 0.0 0.0 0.0 0.0 0.0 0.0 0.0 0.0 0.0 0.0 0.0 0.0
0.0 0.0 0.0 0.0 0.0 0.0 0.0 0.0 0.0 0.0 0.0 0.0 0.0 0.0 0.0 0.0 0.0 0.0 0.0 0.0 0.0 0.6 1.6 0.0 0.0 0.0 0.0 0.0 0.0 0.0 0.0 0.0 0.0 0.7 0.6 0.3 0.3 0.0 0.0 0.0 0.0 0.0 0.0 0.0 0.0 0.0 0.0 0.0 0.0 0.0 0.0 0.0 0.0 0.0
0.0 0.0 0.0 0.0 0.0 0.0 0.0 0.0 0.0 0.0 0.0 0.0 0.0 0.0 0.0 0.0 0.0 0.0 0.0 0.0 0.0 0.7 2.6 1.1 0.0 0.0 0.0 0.0 0.0 0.0 0.0 0.0 0.4 1.1 1.7 1.0 0.0 0.0 0.0 0.0 0.0 0.0 0.0 0.0 0.0 0.0 0.0 0.0 0.0 0.0 0.0 0.0 0.0 0.0
0.0 0.0 0.0 0.0 0.0 0.0 0.0 0.0 0.0 0.0 0.0 0.0 0.0 0.0 0.0 0.0 0.0 0.0 0.0 0.0 0.0 0.0 3.6 3.2 0.0 0.0 0.0 0.0 0.0 0.0 0.0 0.0 1.3 0.9 2.2 0.0 0.0 0.0 0.9 0.1 0.0 0.0 0.0 0.0 0.0 0.0 0.0 0.0 0.0 0.0 0.0 0.0 0.0 0.0
0.0 0.0 0.0 0.0 0.0 0.0 0.0 0.0 0.0 0.0 0.0 0.0 0.0 0.0 0.0 0.0 0.0 0.2 0.6 0.0 0.0 0.0 4.1 7.5 4.4 0.6 0.0 0.0 0.0 0.0 0.0 0.3 3.1 2.8 0.0 1.9 1.4 1.8 1.6 0.0 0.0 0.0 0.0 0.0 0.0 0.0 0.0 0.0 0.0 0.0 0.0 0.0 0.0 0.0
0.0 0.0 0.0 0.0 0.0 0.0 0.0 0.0 0.0 0.0 0.0 0.0 0.0 0.0 0.0 0.0 0.0 0.0 0.0 0.0 0.0 3.7 6.9 10.0 8.2 6.9 0.0 0.0 0.0 0.0 0.0 0.2 5.2 1.5 0.0 0.6 0.0 2.1 1.5 0.0 0.0 0.0 0.0 0.0 0.0 0.0 0.0 0.0 0.0 0.0 0.0 0.0 0.0 0.0
0.0 0.0 0.0 0.0 0.0 0.0 0.0 0.0 0.0 0.0 0.0 0.0 0.0 0.0 0.0 0.0 0.0 0.0 0.0 0.0 0.0 0.2 7.7 7.1 8.9 7.9 0.6 0.3 0.3 0.1 0.0 2.0 0.9 1.5 0.0 0.0 1.2 2.4 0.0 0.0 0.1 0.0 0.0 0.0 0.0 0.0 0.0 0.0 0.0 0.0 0.0 0.0 0.0 0.0
0.0 0.0 0.0 0.0 0.0 0.0 0.0 0.0 0.0 0.0 0.0 0.0 0.0 0.0 0.6 0.0 0.0 0.0 0.0 3.2 4.7 4.6 4.8 6.3 4.3 2.7 2.4 4.7 1.2 1.3 0.3 3.3 5.4 0.0 0.0 1.8 0.0 0.0 0.0 0.5 0.2 0.1 0.0 0.0 4.0 2.7 1.0 1.6 0.3 0.3 0.0 0.1 0.0 0.0
0.0 0.0 0.0 0.0 0.0 0.0 0.0 0.0 0.0 0.0 0.0 0.0 0.1 0.5 0.0 0.0 0.0 0.1 6.6 5.4 3.2 3.1 3.7 3.7 3.0 3.3 0.0 4.4 2.3 0.7 3.7 2.7 6.5 3.2 1.2 1.7 2.8 1.1 0.0 0.3 0.0 0.1 0.2 0.0 0.0 0.5 1.7 2.9 3.1 1.5 0.6 3.2 1.5 2.4
0.0 0.0 0.0 0.0 0.0 0.0 0.0 0.0 0.0 0.0 0.0 0.0 0.0 0.0 0.0 4.7 8.3 10.3 9.7 2.0 1.5 1.8 1.7 1.8 1.2 0.6 1.7 0.0 3.0 2.1 3.1 2.9 2.6 1.6 4.0 3.4 2.3 1.4 1.9 0.6 0.3 0.1 0.0 0.1 0.2 2.1 0.9 0.9 1.2 1.4 2.6 2.9 2.7 2.9
0.0 0.0 0.0 0.0 0.0 0.0 0.0 0.0 0.0 0.0 0.0 0.0 0.4 5.1 5.5 7.4 8.5 6.2 4.1 1.9 0.6 0.5 0.6 1.0 1.3 0.3 0.0 0.3 2.4 2.9 2.3 1.1 2.6 4.4 3.2 1.5 0.5 0.0 0.5 1.7 1.6 1.6 0.3 1.3 2.0 0.0 0.7 0.5 0.4 0.3 0.3 0.1 0.0 0.0
0.0 0.0 0.0 0.0 0.0 0.0 0.0 0.0 0.0 0.0 0.0 0.1 6.6 7.1 4.7 3.6 3.2 2.4 1.3 1.1 0.0 0.3 0.0 0.1 1.0 1.8 0.4 1.9 1.9 2.8 0.6 2.7 4.9 2.4 2.0 0.3 0.5 0.4 0.2 0.4 0.7 0.8 1.2 1.7 3.9 3.9 1.9 1.0 0.4 0.1 0.0 0.0 0.0 0.0
0.0 0.0 0.0 0.0 0.0 0.0 0.0 0.0 0.0 0.0 0.0 7.2 8.7 4.7 2.4 1.8 0.8 0.4 0.1 0.5 0.0 0.0 0.0 0.2 0.4 0.8 2.0 3.4 2.7 2.5 2.6 3.7 2.8 2.6 1.3 0.6 0.6 0.8 0.5 0.3 0.2 0.5 0.7 1.6 1.6 2.6 3.5 1.9 0.7 0.0 0.0 0.1 0.3 0.6
0.0 0.0 0.0 0.0 0.0 0.0 0.0 0.0 0.0 0.0 0.7 11.2 9.1 3.0 1.0 0.6 0.3 0.1 0.0 0.1 0.0 0.0 0.1 0.5 1.1 1.7 1.2 2.5 2.3 2.0 3.0 2.8 2.1 1.4 0.8 0.4 0.7 0.0 0.2 0.3 0.0 0.0 0.0 0.2 1.3 1.7 2.3 2.0 1.2 0.6 0.5 0.1 0.2 1.3
0.0 0.0 0.0 0.0 0.0 0.0 0.0 0.0 0.0 13.3 15.6 12.6 2.7 0.7 0.8 0.4 0.4 0.3 0.0 0.0 0.0 0.2 1.5 3.1 4.4 1.5 1.4 2.6 0.9 0.5 1.6 1.3 0.9 0.0 0.1 0.0 0.1 0.0 0.0 0.0 0.0 0.0 0.0 0.0 0.6 1.0 1.7 2.3 2.3 1.2 1.5 1.3 1.0 0.7
0.0 0.0 0.0 0.0 0.0 0.0 0.0 0.0 11.3 17.1 11.6 3.0 0.0 0.0 0.0 0.0 0.3 0.3 0.0 0.0 0.0 0.4 1.9 5.8 3.5 2.7 1.3 0.8 0.2 0.3 0.0 0.0 0.2 0.0 0.2 0.0 0.0 0.0 0.0 0.0 0.0 0.2 0.7 1.7 1.5 1.5 1.0 1.5 1.4 1.1 0.8 0.7 0.7 0.9
0.0 0.0 0.0 0.0 0.0 0.0 21.0 19.4 12.8 11.9 2.4 0.2 0.0 0.0 0.0 0.0 0.0 0.0 0.0 0.0 0.0 0.0 0.9 5.1 5.0 1.9 0.1 0.0 0.1 0.0 0.0 0.0 0.0 0.0 0.0 0.0 0.0 0.0 0.0 0.3 0.3 0.7 1.7 1.4 0.4 0.3 0.4 0.4 0.7 0.3 0.9 0.6 0.9 0.8
0.0 0.0 0.0 0.0 0.0 15.0 30.0 25.3 13.4 5.9 1.7 0.0 0.0 0.0 0.0 0.0 0.0 0.0 0.0 0.5 0.7 3.2 5.7 5.4 0.2 0.2 0.1 0.3 0.3 0.1 0.0 0.0 0.0 0.0 0.0 0.0 0.0 0.0 0.0 0.0 0.1 0.4 0.7 0.5 0.4 0.8 0.5 0.6 0.4 0.2 0.5 0.4 0.9 1.0
0.0 0.0 0.0 0.0 2.5 19.0 26.5 17.0 7.9 1.6 0.2 0.2 0.0 0.1 0.1 0.0 0.0 0.1 0.1 1.5 4.6 7.9 4.3 1.3 0.2 0.1 0.0 0.5 0.2 0.0 0.0 0.0 0.0 0.0 0.0 0.0 0.0 0.0 0.0 0.0 0.0 0.0 0.0 0.2 0.2 0.1 0.5 0.3 0.7 0.5 0.2 0.7 0.6 0.9
0.9 0.0 9.4 6.2 34.3 35.0 24.2 12.8 4.8 1.2 0.8 0.5 0.0 0.0 0.1 0.4 0.1 0.1 0.2 5.0 7.2 2.3 1.2 0.9 0.9 0.6 0.2 0.0 0.7 0.7 0.5 0.0 0.0 0.0 0.0 0.0 0.0 0.0 0.0 0.0 0.0 0.0 0.0 0.0 0.0 0.0 0.0 0.1 0.0 0.4 0.4 0.9 0.8 0.5
0.8 2.4 30.5 33.3 33.1 27.2 15.8 6.4 3.3 1.9 1.1 0.9 0.8 0.9 1.3 0.4 0.2 0.3 3.1 2.2 1.2 0.9 0.7 0.6 0.7 1.6 1.7 1.4 1.4 1.1 0.6 0.1 0.0 0.2 0.1 0.0 0.0 0.0 0.0 0.0 0.0 0.0 0.1 0.0 0.0 0.0 0.0 0.0 0.1 0.1 0.0 0.0 1.1 1.7
0.0 36.1 36.9 34.4 24.2 17.4 10.5 7.6 4.6 1.8 2.1 1.7 1.5 1.0 0.5 0.0 1.4 2.4 2.3 0.3 0.3 0.2 0.8 1.0 0.9 0.7 0.5 1.2 1.4 1.7 1.9 1.2 0.3 0.0 0.6 0.3 0.1 0.0 0.0 0.0 0.0 0.0 0.0 0.0 0.0 0.0 0.0 0.0 0.1 0.1 0.0 0.0 0.7 1.5
41.1 42.9 31.5 26.5 14.6 6.7 3.8 2.7 2.4 2.0 1.5 1.1 0.8 0.3 0.4 0.4 1.4 1.4 0.1 0.0 0.0 0.1 0.3 0.9 0.9 0.9 0.9 0.7 1.0 1.0 1.0 1.2 1.8 1.9 0.1 1.3 0.6 0.2 0.0 0.0 0.3 0.0 0.0 0.1 0.1 0.0 0.0 0.0 0.0 0.0 0.0 1.0 1.4 1.7
36.5 21.7 13.1 4.0 1.8 0.4 0.1 0.0 0.2 0.1 0.1 0.5 0.9 0.9 0.2 1.7 3.4 1.5 0.0 0.0 0.1 0.2 0.2 0.3 0.7 0.7 0.5 0.5 0.7 1.2 1.2 1.1 1.0 1.7 1.1 1.6 1.3 1.6 1.6 0.1 1.1 0.5 0.1 0.1 0.6 0.5 0.2 0.1 0.0 0.0 0.6 0.9 1.7 1.6
24.6 12.3 3.6 0.4 0.1 0.0 0.2 0.0 0.1 0.1 0.5 0.7 0.3 0.2 0.5 2.8 0.1 0.0 0.0 0.0 0.0 0.2 0.3 0.6 1.2 1.1 0.8 0.8 0.8 1.2 1.4 1.5 1.4 1.1 1.4 3.2 3.1 2.1 1.0 1.6 1.5 1.0 0.7 0.5 1.0 0.7 0.7 0.6 0.4 0.8 1.1 1.3 1.2 1.5
7.3 2.0 0.0 0.2 0.1 0.1 0.3 0.5 0.8 0.7 0.5 0.0 0.3 0.6 0.9 0.0 0.0 0.0 0.0 0.0 0.0 0.0 0.4 0.7 1.1 1.5 1.3 1.1 1.2 1.6 1.8 2.0 2.2 2.1 3.0 3.5 3.8 3.6 2.9 2.5 2.2 2.5 2.5 1.7 1.4 1.7 1.5 1.1 0.9 1.6 1.4 1.1 0.9 0.8
1.6 1.2 1.1 0.8 0.5 0.4 0.5 0.4 0.3 0.1 0.0 0.0 0.0 0.0 0.0 0.0 0.0 0.0 0.0 0.1 0.0 0.4 0.6 0.8 1.1 1.2 1.6 1.7 1.7 2.2 2.3 2.3 1.9 1.5 1.2 1.5 2.7 3.7 3.9 3.6 4.2 4.4 2.9 3.0 2.6 2.6 2.2 2.8 2.5 2.5 2.6 2.5 2.2 2.2
0.3 0.0 0.0 0.1 0.5 1.1 0.3 0.1 0.1 0.0 0.0 0.0 0.0 0.0 0.0 0.0 0.1 0.1 0.1 0.1 0.0 0.7 1.0 1.4 1.4 1.5 2.0 2.0 2.0 1.9 2.4 2.6 2.5 1.4 1.3 1.4 1.8 2.7 4.0 4.0 4.2 4.6 4.5 4.2 4.7 5.2 5.0 5.0 5.0 4.6 3.7 3.4 3.4 3.0
0.0 0.0 0.1 0.1 0.0 0.2 0.1 0.2 0.2 0.2 0.0 0.1 0.2 0.1 0.2 0.1 0.1 0.1 0.2 0.3 0.7 1.1 1.5 1.9 2.1 2.6 2.7 2.9 2.9 2.5 2.5 3.0 3.3 3.6 2.9 3.1 3.1 3.1 3.7 4.2 4.1 4.6 4.6 4.2 3.7 3.4 3.5 3.0 2.6 2.6 2.5 2.5 2.4 2.1
0.2 0.1 0.0 0.0 0.0 0.1 0.3 0.3 0.2 0.1 0.1 0.1 0.2 0.1 0.1 0.0 0.0 0.0 0.2 0.4 0.9 1.2 1.6 1.9 2.1 2.6 3.1 3.1 3.2 3.3 2.7 2.9 2.9 3.7 3.2 2.9 2.9 2.5 3.4 3.7 4.2 4.0 4.2 4.1 3.6 3.8 3.6 3.6 3.7 3.4 3.2 3.3 3.0 2.6
1.1 0.6 0.4 0.3 0.6 0.7 0.2 0.1 0.2 0.2 0.2 0.1 0.1 0.0 0.0 0.0 0.0 0.2 0.3 0.5 1.0 1.2 1.4 2.1 2.5 2.5 2.5 2.5 2.8 3.1 3.2 3.1 3.9 4.1 4.1 4.3 4.3 4.4 3.5 3.6 3.6 4.0 4.0 4.0 4.2 4.5 4.6 4.2 3.9 3.7 3.4 3.1 2.9 2.7

GFSWCAN_prec_snow_117.txt.gz
Snowfall_Accumulation
0.0 0.0 0.0 0.0 0.0 0.0 0.0 0.0 0.0 0.0 0.0 0.0 0.0 0.0 0.0 0.0 0.0 0.0 0.0 0.0 0.0 0.0 0.0 0.0 0.0 0.0 0.0 0.0 0.0 0.0 0.0 0.0 0.1 0.3 0.0 0.1 0.2 0.0 0.0 0.0 0.0 0.0 0.1 0.4 0.4 0.8 0.0 0.0 0.0 0.0 0.0 0.0 0.0 0.0
0.0 0.0 0.0 0.0 0.0 0.0 0.0 0.0 0.0 0.0 0.0 0.0 0.0 0.0 0.0 0.0 0.0 0.0 0.0 0.0 0.0 0.1 0.0 0.0 0.0 0.0 0.0 0.0 0.0 0.0 0.0 0.0 0.0 0.3 0.2 0.0 0.0 0.0 0.0 0.0 0.0 0.0 0.0 0.0 0.0 0.0 0.0 0.0 0.0 0.0 0.0 0.0 0.0 0.0
0.0 0.0 0.0 0.0 0.0 0.0 0.0 0.0 0.0 0.0 0.0 0.0 0.0 0.0 0.0 0.0 0.0 0.0 0.0 0.0 0.0 0.4 0.0 0.0 0.0 0.0 0.0 0.0 0.0 0.0 0.0 0.0 0.0 0.1 0.2 0.1 0.0 0.0 0.1 0.0 0.0 0.0 0.0 0.0 0.0 0.0 0.0 0.0 0.0 0.0 0.0 0.0 0.0 0.0
0.0 0.0 0.0 0.0 0.0 0.0 0.0 0.0 0.0 0.0 0.0 0.0 0.0 0.0 0.0 0.0 0.0 0.0 0.0 0.0 0.0 0.6 1.6 0.0 0.0 0.0 0.0 0.0 0.0 0.0 0.0 0.0 0.0 0.7 0.6 0.3 0.3 0.0 0.0 0.0 0.0 0.0 0.0 0.0 0.0 0.0 0.0 0.0 0.0 0.0 0.0 0.0 0.0 0.0
0.0 0.0 0.0 0.0 0.0 0.0 0.0 0.0 0.0 0.0 0.0 0.0 0.0 0.0 0.0 0.0 0.0 0.0 0.0 0.0 0.0 0.7 2.6 1.1 0.0 0.0 0.0 0.0 0.0 0.0 0.0 0.0 0.4 1.1 1.7 1.0 0.0 0.0 0.0 0.0 0.0 0.0 0.0 0.0 0.0 0.0 0.0 0.0 0.0 0.0 0.0 0.0 0.0 0.0
0.0 0.0 0.0 0.0 0.0 0.0 0.0 0.0 0.0 0.0 0.0 0.0 0.0 0.0 0.0 0.0 0.0 0.0 0.0 0.0 0.0 0.0 3.6 3.2 0.0 0.0 0.0 0.0 0.0 0.0 0.0 0.0 1.3 0.9 2.2 0.0 0.0 0.0 0.9 0.1 0.0 0.0 0.0 0.0 0.0 0.0 0.0 0.0 0.0 0.0 0.0 0.0 0.0 0.0
0.0 0.0 0.0 0.0 0.0 0.0 0.0 0.0 0.0 0.0 0.0 0.0 0.0 0.0 0.0 0.0 0.0 0.2 0.6 0.0 0.0 0.0 4.1 7.5 4.4 0.6 0.0 0.0 0.0 0.0 0.0 0.3 3.1 2.8 0.0 1.9 1.4 1.8 1.6 0.0 0.0 0.0 0.0 0.0 0.0 0.0 0.0 0.0 0.0 0.0 0.0 0.0 0.0 0.0
0.0 0.0 0.0 0.0 0.0 0.0 0.0 0.0 0.0 0.0 0.0 0.0 0.0 0.0 0.0 0.0 0.0 0.0 0.0 0.0 0.0 3.7 6.9 10.1 8.2 6.9 0.0 0.0 0.0 0.0 0.0 0.2 5.2 1.5 0.0 0.6 0.0 2.1 1.5 0.0 0.0 0.0 0.0 0.0 0.0 0.0 0.0 0.0 0.0 0.0 0.0 0.0 0.0 0.0
0.0 0.0 0.0 0.0 0.0 0.0 0.0 0.0 0.0 0.0 0.0 0.0 0.0 0.0 0.0 0.0 0.0 0.0 0.0 0.0 0.0 0.2 7.8 7.4 8.9 7.9 0.6 0.3 0.3 0.1 0.0 2.0 0.9 1.6 0.0 0.0 1.2 2.4 0.0 0.0 0.1 0.0 0.0 0.0 0.0 0.0 0.0 0.0 0.0 0.0 0.0 0.0 0.0 0.0
0.0 0.0 0.0 0.0 0.0 0.0 0.0 0.0 0.0 0.0 0.0 0.0 0.0 0.0 0.6 0.0 0.0 0.0 0.0 3.2 4.7 4.7 5.1 6.4 4.3 2.7 2.4 4.7 1.2 1.3 0.3 3.3 5.4 0.0 0.0 1.9 0.0 0.0 0.0 0.5 0.2 0.1 0.0 0.0 4.0 2.7 1.0 1.6 0.3 0.3 0.0 0.1 0.0 0.0
0.0 0.0 0.0 0.0 0.0 0.0 0.0 0.0 0.0 0.0 0.0 0.0 0.1 0.5 0.0 0.0 0.0 0.1 6.6 5.6 3.5 3.4 3.7 3.7 3.0 3.3 0.0 4.4 2.3 0.7 3.7 2.7 6.5 3.2 1.2 1.7 2.8 1.1 0.0 0.3 0.0 0.1 0.2 0.0 0.0 0.5 1.7 2.9 3.1 1.5 0.6 3.2 1.5 2.4
0.0 0.0 0.0 0.0 0.0 0.0 0.0 0.0 0.0 0.0 0.0 0.0 0.0 0.0 0.0 4.7 8.3 10.3 9.9 2.2 1.5 1.8 1.7 1.8 1.2 0.6 1.7 0.0 3.0 2.1 3.1 2.9 2.6 1.6 4.0 3.4 2.3 1.4 1.9 0.6 0.3 0.1 0.0 0.1 0.2 2.1 0.9 0.9 1.2 1.4 2.6 2.9 2.7 2.9
0.0 0.0 0.0 0.0 0.0 0.0 0.0 0.0 0.0 0.0 0.0 0.0 0.4 5.1 5.5 7.4 8.5 6.4 4.1 1.9 0.6 0.5 0.6 1.0 1.3 0.3 0.0 0.3 2.4 3.1 2.5 1.2 2.6 4.4 3.2 1.5 0.5 0.0 0.5 1.7 1.6 1.6 0.3 1.3 2.0 0.0 0.7 0.5 0.4 0.3 0.3 0.1 0.0 0.0
0.0 0.0 0.0 0.0 0.0 0.0 0.0 0.0 0.0 0.0 0.0 0.1 6.6 7.1 4.7 3.6 3.2 2.4 1.3 1.1 0.0 0.3 0.0 0.1 1.0 1.8 0.4 1.9 1.9 3.0 0.6 2.7 5.1 2.4 2.0 0.3 0.5 0.4 0.2 0.4 0.7 0.8 1.2 1.7 3.9 3.9 1.9 1.0 0.4 0.1 0.0 0.0 0.0 0.0
0.0 0.0 0.0 0.0 0.0 0.0 0.0 0.0 0.0 0.0 0.0 7.2 8.7 4.7 2.4 1.8 0.8 0.4 0.1 0.5 0.0 0.0 0.0 0.2 0.4 0.9 2.0 3.4 2.7 2.5 2.8 3.7 2.8 2.6 1.3 0.6 0.6 0.8 0.5 0.3 0.2 0.5 0.7 1.6 1.6 2.6 3.5 1.9 0.7 0.0 0.0 0.1 0.3 0.6
0.0 0.0 0.0 0.0 0.0 0.0 0.0 0.0 0.0 0.0 0.7 11.5 9.1 3.0 1.0 0.6 0.3 0.1 0.0 0.1 0.0 0.0 0.1 0.5 1.1 1.7 1.2 2.5 2.4 2.0 3.0 2.8 2.1 1.4 0.8 0.4 0.7 0.0 0.2 0.3 0.0 0.0 0.0 0.2 1.3 1.7 2.3 2.0 1.2 0.6 0.5 0.1 0.2 1.3
0.0 0.0 0.0 0.0 0.0 0.0 0.0 0.0 0.0 13.3 16.3 13.0 2.7 0.7 0.8 0.4 0.4 0.3 0.0 0.0 0.0 0.2 1.5 3.1 4.8 1.6 1.4 2.7 0.9 0.5 1.6 1.3 0.9 0.0 0.1 0.0 0.1 0.0 0.0 0.0 0.0 0.0 0.0 0.0 0.6 1.0 1.7 2.3 2.3 1.2 1.5 1.3 1.0 0.7
0.0 0.0 0.0 0.0 0.0 0.0 0.0 0.0 11.5 17.1 11.6 3.0 0.0 0.0 0.0 0.0 0.3 0.3 0.0 0.0 0.0 0.4 1.9 5.8 3.8 2.7 1.3 0.8 0.2 0.3 0.0 0.0 0.2 0.0 0.2 0.0 0.0 0.0 0.0 0.0 0.0 0.2 0.7 1.7 1.5 1.5 1.0 1.5 1.4 1.1 0.8 0.7 0.7 0.9
0.0 0.0 0.0 0.0 0.0 0.0 22.0 20.9 13.6 12.2 2.4 0.2 0.0 0.0 0.0 0.0 0.0 0.0 0.0 0.0 0.0 0.0 1.7 6.0 5.8 2.1 0.1 0.0 0.1 0.0 0.0 0.0 0.0 0.0 0.0 0.0 0.0 0.0 0.0 0.3 0.3 0.7 1.7 1.4 0.4 0.3 0.4 0.4 0.7 0.3 0.9 0.6 0.9 0.8
0.0 0.0 0.0 0.0 0.0 17.9 32.8 27.0 14.8 6.3 1.7 0.0 0.0 0.0 0.0 0.0 0.0 0.0 0.0 0.5 0.7 3.2 5.7 5.4 0.2 0.2 0.1 0.3 0.3 0.1 0.0 0.0 0.0 0.0 0.0 0.0 0.0 0.0 0.0 0.0 0.1 0.4 0.7 0.5 0.4 0.8 0.5 0.6 0.4 0.2 0.5 0.4 0.9 1.0
0.0 0.0 0.0 0.0 2.5 19.0 29.3 18.7 9.0 1.8 0.2 0.2 0.0 0.1 0.1 0.0 0.0 0.1 0.1 1.5 4.6 7.9 4.3 1.3 0.2 0.1 0.0 0.5 0.2 0.0 0.0 0.0 0.0 0.0 0.0 0.0 0.0 0.0 0.0 0.0 0.0 0.0 0.0 0.2 0.2 0.1 0.5 0.3 0.7 0.5 0.2 0.7 0.6 0.9
0.9 0.0 9.4 6.2 37.0 39.4 27.9 14.8 5.4 1.4 0.8 0.5 0.0 0.0 0.1 0.4 0.1 0.1 0.2 5.0 7.2 2.3 1.2 0.9 0.9 0.6 0.2 0.0 0.7 0.7 0.5 0.0 0.0 0.0 0.0 0.0 0.0 0.0 0.0 0.0 0.0 0.0 0.0 0.0 0.0 0.0 0.0 0.1 0.0 0.4 0.4 0.9 0.8 0.5
0.8 2.4 31.8 35.2 36.2 30.8 18.6 7.5 4.2 2.5 1.1 0.9 0.8 0.9 1.3 0.4 0.2 0.3 3.1 2.2 1.2 0.9 0.7 0.6 0.7 1.6 1.7 1.4 1.4 1.1 0.6 0.1 0.0 0.2 0.1 0.0 0.0 0.0 0.0 0.0 0.0 0.0 0.1 0.0 0.0 0.0 0.0 0.0 0.1 0.1 0.0 0.0 1.1 1.7
0.0 37.8 39.1 36.9 26.2 19.3 12.3 9.0 5.4 2.2 2.2 1.7 1.5 1.0 0.5 0.0 1.4 2.4 2.3 0.3 0.3 0.2 0.8 1.0 0.9 0.7 0.5 1.2 1.4 1.7 1.9 1.2 0.3 0.0 0.6 0.3 0.1 0.0 0.0 0.0 0.0 0.0 0.0 0.0 0.0 0.0 0.0 0.0 0.1 0.1 0.0 0.0 0.7 1.5
45.4 47.3 34.0 28.4 16.1 7.7 4.3 2.9 2.5 2.1 1.5 1.1 0.8 0.3 0.4 0.4 1.4 1.4 0.1 0.0 0.0 0.1 0.3 0.9 0.9 0.9 0.9 0.7 1.0 1.0 1.0 1.2 1.8 1.9 0.1 1.3 0.6 0.2 0.0 0.0 0.3 0.0 0.0 0.1 0.1 0.0 0.0 0.0 0.0 0.0 0.0 1.1 1.5 2.0
40.2 24.4 14.9 5.1 2.7 0.4 0.3 0.0 0.2 0.1 0.1 0.5 0.9 0.9 0.2 1.7 3.4 1.5 0.0 0.0 0.1 0.2 0.2 0.3 0.7 0.7 0.5 0.5 0.7 1.2 2.4 1.1 1.0 2.3 1.1 1.6 1.3 1.6 1.6 0.1 1.1 0.5 0.1 0.1 0.6 0.5 0.2 0.1 0.0 0.0 0.9 1.3 2.2 2.5
26.1 13.4 4.2 0.4 0.3 0.1 0.2 0.0 0.1 0.1 0.5 0.7 0.3 0.2 0.5 2.8 0.1 0.0 0.0 0.0 0.0 0.2 0.3 0.6 1.2 1.1 0.8 0.8 0.8 1.2 1.4 1.5 1.4 1.1 1.4 3.2 3.1 2.1 1.0 1.6 1.5 1.0 0.7 0.5 1.0 0.7 0.7 0.6 0.4 0.8 1.7 2.0 1.9 2.3
7.3 2.0 0.0 0.2 0.1 0.1 0.3 0.5 0.8 0.7 0.5 0.0 0.3 0.6 0.9 0.0 0.0 0.0 0.0 0.0 0.0 0.0 0.4 0.7 1.1 1.5 1.3 1.1 1.2 1.6 1.8 2.0 2.2 2.1 3.0 3.5 3.8 3.6 2.9 2.5 2.2 2.5 2.5 1.7 1.4 1.7 1.5 1.1 0.9 1.6 1.8 1.6 0.9 1.2
1.6 1.2 1.1 0.8 0.5 0.4 0.5 0.4 0.3 0.1 0.0 0.0 0.0 0.0 0.0 0.0 0.0 0.0 0.0 0.1 0.0 0.4 0.6 0.8 1.1 1.2 1.6 1.7 1.7 2.2 2.3 2.3 1.9 1.5 1.2 1.5 2.7 3.7 3.9 3.6 4.2 4.4 2.9 3.0 2.6 2.6 2.2 2.8 2.5 2.5 2.6 2.5 2.2 2.2
0.3 0.0 0.0 0.1 0.5 1.1 0.3 0.1 0.1 0.0 0.0 0.0 0.0 0.0 0.0 0.0 0.1 0.1 0.1 0.1 0.0 0.7 1.0 1.4 1.4 1.5 2.0 2.0 2.0 1.9 2.4 2.6 2.5 1.4 1.3 1.4 1.8 2.7 4.0 4.0 4.2 4.6 4.5 4.2 4.7 5.2 5.0 5.0 5.0 4.6 3.7 3.4 3.4 3.0
0.0 0.0 0.1 0.1 0.0 0.2 0.1 0.2 0.2 0.2 0.0 0.1 0.2 0.1 0.2 0.1 0.1 0.1 0.2 0.3 0.7 1.1 1.5 1.9 2.1 2.6 2.7 2.9 2.9 2.5 2.5 3.0 3.3 3.6 2.9 3.1 3.1 3.1 3.7 4.2 4.1 4.6 4.6 4.2 3.7 3.4 3.5 3.0 2.6 2.6 2.5 2.5 2.4 2.1
0.2 0.1 0.0 0.0 0.0 0.1 0.3 0.3 0.2 0.1 0.1 0.1 0.2 0.1 0.1 0.0 0.0 0.0 0.2 0.4 0.9 1.2 1.6 1.9 2.1 2.6 3.1 3.1 3.2 3.3 2.7 2.9 2.9 3.7 3.2 2.9 2.9 2.5 3.4 3.7 4.2 4.0 4.2 4.1 3.6 3.8 3.6 3.6 3.7 3.4 3.2 3.3 3.0 2.6
1.1 0.6 0.4 0.3 0.6 0.7 0.2 0.1 0.2 0.2 0.2 0.1 0.1 0.0 0.0 0.0 0.0 0.2 0.3 0.5 1.0 1.2 1.4 2.1 2.5 2.5 2.5 2.5 2.8 3.1 3.2 3.1 3.9 4.1 4.1 4.3 4.3 4.4 3.5 3.6 3.6 4.0 4.0 4.0 4.2 4.5 4.6 4.2 3.9 3.7 3.4 3.1 2.9 2.7

GFSWCAN_prec_snow_120.txt.gz
Snowfall_Accumulation
0.0 0.0 0.0 0.0 0.0 0.0 0.0 0.0 0.0 0.0 0.0 0.0 0.0 0.0 0.0 0.0 0.0 0.0 0.0 0.0 0.0 0.0 0.0 0.0 0.0 0.0 0.0 0.0 0.0 0.0 0.0 0.0 0.1 0.3 0.0 0.1 0.2 0.0 0.0 0.0 0.0 0.0 0.1 0.4 0.4 0.8 0.0 0.0 0.0 0.0 0.0 0.0 0.0 0.0
0.0 0.0 0.0 0.0 0.0 0.0 0.0 0.0 0.0 0.0 0.0 0.0 0.0 0.0 0.0 0.0 0.0 0.0 0.0 0.0 0.0 0.1 0.0 0.0 0.0 0.0 0.0 0.0 0.0 0.0 0.0 0.0 0.0 0.3 0.2 0.0 0.0 0.0 0.0 0.0 0.0 0.0 0.0 0.0 0.0 0.0 0.0 0.0 0.0 0.0 0.0 0.0 0.0 0.0
0.0 0.0 0.0 0.0 0.0 0.0 0.0 0.0 0.0 0.0 0.0 0.0 0.0 0.0 0.0 0.0 0.0 0.0 0.0 0.0 0.0 0.4 0.0 0.0 0.0 0.0 0.0 0.0 0.0 0.0 0.0 0.0 0.0 0.1 0.2 0.1 0.0 0.0 0.1 0.0 0.0 0.0 0.0 0.0 0.0 0.0 0.0 0.0 0.0 0.0 0.0 0.0 0.0 0.0
0.0 0.0 0.0 0.0 0.0 0.0 0.0 0.0 0.0 0.0 0.0 0.0 0.0 0.0 0.0 0.0 0.0 0.0 0.0 0.0 0.0 0.6 1.6 0.0 0.0 0.0 0.0 0.0 0.0 0.0 0.0 0.0 0.0 0.7 0.6 0.3 0.3 0.0 0.0 0.0 0.0 0.0 0.0 0.0 0.0 0.0 0.0 0.0 0.0 0.0 0.0 0.0 0.0 0.0
0.0 0.0 0.0 0.0 0.0 0.0 0.0 0.0 0.0 0.0 0.0 0.0 0.0 0.0 0.0 0.0 0.0 0.0 0.0 0.0 0.0 0.7 2.6 1.1 0.0 0.0 0.0 0.0 0.0 0.0 0.0 0.0 0.4 1.1 1.7 1.0 0.0 0.0 0.0 0.0 0.0 0.0 0.0 0.0 0.0 0.0 0.0 0.0 0.0 0.0 0.0 0.0 0.0 0.0
0.0 0.0 0.0 0.0 0.0 0.0 0.0 0.0 0.0 0.0 0.0 0.0 0.0 0.0 0.0 0.0 0.0 0.0 0.0 0.0 0.0 0.0 3.6 3.2 0.0 0.0 0.0 0.0 0.0 0.0 0.0 0.0 1.3 0.9 2.2 0.0 0.0 0.0 0.9 0.1 0.0 0.0 0.0 0.0 0.0 0.0 0.0 0.0 0.0 0.0 0.0 0.0 0.0 0.0
0.0 0.0 0.0 0.0 0.0 0.0 0.0 0.0 0.0 0.0 0.0 0.0 0.0 0.0 0.0 0.0 0.0 0.2 0.6 0.0 0.0 0.0 4.1 7.5 4.4 0.6 0.0 0.0 0.0 0.0 0.0 0.3 3.1 2.8 0.0 1.9 1.4 1.8 1.6 0.0 0.0 0.0 0.0 0.0 0.0 0.0 0.0 0.0 0.0 0.0 0.0 0.0 0.0 0.0
0.0 0.0 0.0 0.0 0.0 0.0 0.0 0.0 0.0 0.0 0.0 0.0 0.0 0.0 0.0 0.0 0.0 0.0 0.0 0.0 0.0 3.7 6.9 10.1 8.2 6.9 0.0 0.0 0.0 0.0 0.0 0.2 5.2 1.5 0.0 0.6 0.0 2.1 1.5 0.0 0.0 0.0 0.0 0.0 0.0 0.0 0.0 0.0 0.0 0.0 0.0 0.0 0.0 0.0
0.0 0.0 0.0 0.0 0.0 0.0 0.0 0.0 0.0 0.0 0.0 0.0 0.0 0.0 0.0 0.0 0.0 0.0 0.0 0.0 0.0 0.2 7.8 7.5 8.9 7.9 0.6 0.3 0.3 0.1 0.0 2.0 0.9 1.6 0.0 0.0 1.2 2.4 0.0 0.0 0.1 0.0 0.0 0.0 0.0 0.0 0.0 0.0 0.0 0.0 0.0 0.0 0.0 0.0
0.0 0.0 0.0 0.0 0.0 0.0 0.0 0.0 0.0 0.0 0.0 0.0 0.0 0.0 0.6 0.0 0.0 0.0 0.0 3.2 4.7 4.7 5.3 6.5 4.3 2.7 2.4 4.7 1.2 1.3 0.3 3.3 5.4 0.0 0.0 2.0 0.0 0.0 0.0 0.5 0.2 0.1 0.0 0.0 4.0 2.7 1.0 1.6 0.3 0.3 0.0 0.1 0.0 0.0
0.0 0.0 0.0 0.0 0.0 0.0 0.0 0.0 0.0 0.0 0.0 0.0 0.1 0.5 0.0 0.0 0.0 0.1 6.6 5.6 3.5 3.4 3.7 3.7 3.0 3.3 0.0 4.4 2.3 0.7 3.7 2.7 6.5 3.2 1.2 1.7 2.8 1.1 0.0 0.3 0.0 0.1 0.2 0.0 0.0 0.5 1.7 2.9 3.1 1.5 0.6 3.2 1.5 2.4
0.0 0.0 0.0 0.0 0.0 0.0 0.0 0.0 0.0 0.0 0.0 0.0 0.0 0.0 0.0 4.7 8.3 10.3 10.1 2.3 1.5 1.8 1.7 1.8 1.2 0.6 1.7 0.0 3.0 2.2 3.1 3.0 2.7 1.6 4.2 3.4 2.3 1.4 1.9 0.6 0.3 0.1 0.0 0.1 0.2 2.1 0.9 0.9 1.2 1.4 2.6 2.9 2.7 2.9
0.0 0.0 0.0 0.0 0.0 0.0 0.0 0.0 0.0 0.0 0.0 0.0 0.4 5.1 5.5 7.4 8.6 6.4 4.1 1.9 0.6 0.5 0.6 1.0 1.3 0.3 0.0 0.3 2.4 3.1 2.7 1.2 2.6 4.6 3.2 1.5 0.5 0.0 0.5 1.7 1.6 1.6 0.3 1.3 2.0 0.0 0.7 0.5 0.4 0.3 0.3 0.1 0.0 0.0
0.0 0.0 0.0 0.0 0.0 0.0 0.0 0.0 0.0 0.0 0.0 0.1 6.6 7.1 4.7 3.6 3.2 2.4 1.3 1.1 0.0 0.3 0.0 0.1 1.0 1.8 0.4 1.9 1.9 3.1 0.6 2.7 5.2 2.5 2.0 0.3 0.5 0.4 0.2 0.4 0.7 0.8 1.2 1.7 3.9 3.9 1.9 1.0 0.4 0.1 0.0 0.0 0.0 0.0
0.0 0.0 0.0 0.0 0.0 0.0 0.0 0.0 0.0 0.0 0.0 7.2 8.7 4.7 2.4 1.8 0.8 0.4 0.1 0.5 0.0 0.0 0.0 0.2 0.4 0.9 2.2 3.5 2.7 2.5 2.9 3.7 2.9 2.6 1.3 0.6 0.6 0.8 0.5 0.3 0.2 0.5 0.7 1.6 1.6 2.6 3.5 1.9 0.7 0.0 0.0 0.1 0.3 0.6
0.0 0.0 0.0 0.0 0.0 0.0 0.0 0.0 0.0 0.0 0.7 11.5 9.1 3.0 1.0 0.6 0.3 0.1 0.0 0.1 0.0 0.0 0.1 0.5 1.1 1.7 1.2 2.5 2.4 2.0 3.1 2.8 2.1 1.4 0.8 0.4 0.7 0.0 0.2 0.3 0.0 0.0 0.0 0.2 1.3 1.7 2.3 2.0 1.2 0.6 0.5 0.1 0.2 1.3
0.0 0.0 0.0 0.0 0.0 0.0 0.0 0.0 0.0 13.4 16.3 13.4 2.7 0.7 0.8 0.4 0.4 0.3 0.0 0.0 0.0 0.2 1.6 3.1 5.1 1.6 1.4 2.7 0.9 0.5 1.6 1.3 0.9 0.0 0.1 0.0 0.1 0.0 0.0 0.0 0.0 0.0 0.0 0.0 0.6 1.0 1.7 2.3 2.3 1.2 1.5 1.3 1.0 0.7
0.0 0.0 0.0 0.0 0.0 0.0 0.0 0.0 12.5 17.4 11.7 3.0 0.0 0.0 0.0 0.0 0.3 0.3 0.0 0.0 0.0 0.4 1.9 5.8 3.8 2.7 1.3 0.8 0.2 0.3 0.0 0.0 0.2 0.0 0.2 0.0 0.0 0.0 0.0 0.0 0.0 0.2 0.7 1.7 1.5 1.5 1.0 1.5 1.4 1.1 0.8 0.7 0.7 0.9
0.0 0.0 0.0 0.0 0.0 0.0 24.1 24.1 15.5 12.9 2.4 0.2 0.0 0.0 0.0 0.0 0.0 0.0 0.0 0.0 0.0 0.3 1.7 6.0 5.8 2.1 0.1 0.0 0.1 0.0 0.0 0.0 0.0 0.0 0.0 0.0 0.0 0.0 0.0 0.3 0.3 0.7 1.7 1.4 0.4 0.3 0.4 0.4 0.7 0.3 0.9 0.6 0.9 0.8
0.0 0.0 0.0 0.0 0.0 19.4 35.3 29.0 16.8 7.6 2.1 0.0 0.0 0.0 0.0 0.0 0.0 0.0 0.0 0.5 0.7 3.2 5.7 5.5 0.2 0.2 0.1 0.3 0.3 0.1 0.0 0.0 0.0 0.0 0.0 0.0 0.0 0.0 0.0 0.0 0.1 0.4 0.7 0.5 0.4 0.8 0.5 0.6 0.4 0.2 0.5 0.4 0.9 1.0
0.0 0.0 0.0 0.0 2.5 20.1 31.4 20.3 10.5 2.6 0.2 0.2 0.0 0.1 0.1 0.0 0.0 0.1 0.1 1.5 4.6 7.9 4.3 1.3 0.2 0.1 0.0 0.5 0.2 0.0 0.0 0.0 0.0 0.0 0.0 0.0 0.0 0.0 0.0 0.0 0.0 0.0 0.0 0.2 0.2 0.1 0.5 0.3 0.7 0.5 0.2 0.7 0.6 0.9
0.9 0.0 9.4 6.2 38.0 39.4 29.7 16.2 6.7 2.2 1.2 0.7 0.0 0.0 0.1 0.4 0.1 0.1 0.2 5.0 7.2 2.3 1.2 0.9 0.9 0.6 0.2 0.0 0.7 0.7 0.5 0.0 0.0 0.0 0.0 0.0 0.0 0.0 0.0 0.0 0.0 0.0 0.0 0.0 0.0 0.0 0.0 0.1 0.0 0.4 0.4 0.9 0.8 0.5
0.8 2.4 32.5 35.7 36.9 31.9 18.6 7.5 5.2 3.6 1.7 0.9 0.8 0.9 1.3 0.4 0.2 0.3 3.1 2.2 1.2 0.9 0.7 0.6 0.7 1.6 1.7 1.4 1.4 1.1 0.6 0.1 0.0 0.2 0.1 0.0 0.0 0.0 0.0 0.0 0.0 0.0 0.1 0.0 0.0 0.0 0.0 0.0 0.1 0.1 0.0 0.0 1.1 1.7
0.0 39.4 40.9 38.6 27.3 19.9 12.3 9.0 5.4 2.8 3.1 2.4 1.8 1.2 0.5 0.0 1.4 2.4 2.3 0.3 0.3 0.2 0.8 1.0 0.9 0.7 0.5 1.2 1.4 1.7 1.9 1.2 0.3 0.0 0.6 0.3 0.1 0.0 0.0 0.0 0.0 0.0 0.0 0.0 0.0 0.0 0.0 0.0 0.1 0.1 0.0 0.0 0.7 1.5
47.3 49.7 35.7 29.8 17.0 8.3 4.8 2.9 2.5 2.6 1.9 1.2 0.8 0.3 0.4 0.4 1.4 1.4 0.1 0.0 0.0 0.1 0.3 0.9 0.9 0.9 0.9 0.7 1.0 1.0 1.0 1.2 2.2 1.9 0.7 1.3 2.0 1.5 0.4 0.1 0.3 0.0 0.0 0.1 0.1 0.0 0.0 0.0 0.0 0.0 0.0 1.2 1.8 2.3
43.5 25.4 16.3 6.1 2.7 0.6 0.3 0.0 0.2 0.1 0.1 0.5 1.0 0.9 0.2 1.7 3.4 1.6 0.0 0.0 0.1 0.2 0.2 0.3 0.7 0.7 0.5 0.5 0.7 1.2 2.4 1.1 1.0 2.3 1.1 1.6 1.3 2.0 1.6 0.1 1.1 0.5 0.1 0.1 0.6 0.5 0.2 0.1 0.0 0.0 0.9 1.3 2.5 2.8
27.7 14.7 5.2 0.4 0.3 0.5 0.5 0.1 0.1 0.1 0.5 0.7 0.3 0.2 0.5 3.0 0.2 0.0 0.0 0.0 0.0 0.2 0.3 0.6 1.2 1.1 0.8 0.8 0.8 1.2 1.4 1.5 1.4 1.1 1.4 3.2 3.1 2.1 1.0 1.6 1.5 1.0 0.7 0.5 1.0 0.7 0.7 0.6 0.4 0.8 1.7 2.0 1.9 2.7
7.3 2.0 0.0 0.2 0.1 0.1 0.5 0.6 0.9 0.8 0.7 0.1 0.4 0.6 1.0 0.1 0.0 0.0 0.0 0.0 0.0 0.0 0.4 0.7 1.1 1.5 1.3 1.1 1.2 1.6 1.8 2.0 2.2 2.1 3.0 3.5 3.8 3.6 2.9 2.5 2.2 2.5 2.5 1.7 1.4 1.7 1.5 1.1 0.9 1.6 1.8 1.6 0.9 1.2
1.6 1.2 1.1 0.8 0.5 0.4 0.6 0.5 0.3 0.1 0.0 0.0 0.0 0.0 0.0 0.0 0.0 0.0 0.0 0.1 0.0 0.4 0.6 0.8 1.1 1.2 1.6 1.7 1.7 2.2 2.3 2.3 1.9 1.5 1.2 1.5 2.7 3.7 3.9 3.6 4.2 4.4 2.9 3.0 2.6 2.6 2.2 2.8 2.5 2.5 2.6 2.5 2.2 2.2
0.3 0.0 0.0 0.1 0.5 1.1 0.3 0.1 0.1 0.0 0.0 0.0 0.0 0.0 0.0 0.0 0.1 0.1 0.1 0.1 0.0 0.7 1.0 1.4 1.4 1.5 2.0 2.0 2.0 1.9 2.4 2.6 2.5 1.4 1.3 1.4 1.8 2.7 4.0 4.0 4.2 4.6 4.5 4.2 4.7 5.2 5.0 5.0 5.0 4.6 3.7 3.4 3.4 3.0
0.0 0.0 0.1 0.1 0.0 0.2 0.1 0.2 0.2 0.2 0.0 0.1 0.2 0.1 0.2 0.1 0.1 0.1 0.2 0.3 0.7 1.1 1.5 1.9 2.1 2.6 2.7 2.9 2.9 2.5 2.5 3.0 3.3 3.6 2.9 3.1 3.1 3.1 3.7 4.2 4.1 4.6 4.6 4.2 3.7 3.4 3.5 3.0 2.6 2.6 2.5 2.5 2.4 2.1
0.2 0.1 0.0 0.0 0.0 0.1 0.3 0.3 0.2 0.1 0.1 0.1 0.2 0.1 0.1 0.0 0.0 0.0 0.2 0.4 0.9 1.2 1.6 1.9 2.1 2.6 3.1 3.1 3.2 3.3 2.7 2.9 2.9 3.7 3.2 2.9 2.9 2.5 3.4 3.7 4.2 4.0 4.2 4.1 3.6 3.8 3.6 3.6 3.7 3.4 3.2 3.3 3.0 2.6
1.1 0.6 0.4 0.3 0.6 0.7 0.2 0.1 0.2 0.2 0.2 0.1 0.1 0.0 0.0 0.0 0.0 0.2 0.3 0.5 1.0 1.2 1.4 2.1 2.5 2.5 2.5 2.5 2.8 3.1 3.2 3.1 3.9 4.1 4.1 4.3 4.3 4.4 3.5 3.6 3.6 4.0 4.0 4.0 4.2 4.5 4.6 4.2 3.9 3.7 3.5 3.2 2.9 2.7

GFSWCAN_prec_snow_123.txt.gz
Snowfall_Accumulation
0.0 0.0 0.0 0.0 0.0 0.0 0.0 0.0 0.0 0.0 0.0 0.0 0.0 0.0 0.0 0.0 0.0 0.0 0.0 0.0 0.0 0.0 0.0 0.0 0.0 0.0 0.0 0.0 0.0 0.0 0.0 0.0 0.1 0.3 0.0 0.1 0.2 0.0 0.0 0.0 0.0 0.0 0.1 0.4 0.4 0.8 0.0 0.0 0.0 0.0 0.0 0.0 0.0 0.0
0.0 0.0 0.0 0.0 0.0 0.0 0.0 0.0 0.0 0.0 0.0 0.0 0.0 0.0 0.0 0.0 0.0 0.0 0.0 0.0 0.0 0.1 0.0 0.0 0.0 0.0 0.0 0.0 0.0 0.0 0.0 0.0 0.0 0.3 0.2 0.0 0.0 0.0 0.0 0.0 0.0 0.0 0.0 0.0 0.0 0.0 0.0 0.0 0.0 0.0 0.0 0.0 0.0 0.0
0.0 0.0 0.0 0.0 0.0 0.0 0.0 0.0 0.0 0.0 0.0 0.0 0.0 0.0 0.0 0.0 0.0 0.0 0.0 0.0 0.0 0.4 0.0 0.0 0.0 0.0 0.0 0.0 0.0 0.0 0.0 0.0 0.0 0.1 0.2 0.1 0.0 0.0 0.1 0.0 0.0 0.0 0.0 0.0 0.0 0.0 0.0 0.0 0.0 0.0 0.0 0.0 0.0 0.0
0.0 0.0 0.0 0.0 0.0 0.0 0.0 0.0 0.0 0.0 0.0 0.0 0.0 0.0 0.0 0.0 0.0 0.0 0.0 0.0 0.0 0.6 1.6 0.0 0.0 0.0 0.0 0.0 0.0 0.0 0.0 0.0 0.0 0.7 0.6 0.3 0.3 0.0 0.0 0.0 0.0 0.0 0.0 0.0 0.0 0.0 0.0 0.0 0.0 0.0 0.0 0.0 0.0 0.0
0.0 0.0 0.0 0.0 0.0 0.0 0.0 0.0 0.0 0.0 0.0 0.0 0.0 0.0 0.0 0.0 0.0 0.0 0.0 0.0 0.0 0.7 2.6 1.1 0.0 0.0 0.0 0.0 0.0 0.0 0.0 0.0 0.4 1.1 1.7 1.0 0.0 0.0 0.0 0.0 0.0 0.0 0.0 0.0 0.0 0.0 0.0 0.0 0.0 0.0 0.0 0.0 0.0 0.0
0.0 0.0 0.0 0.0 0.0 0.0 0.0 0.0 0.0 0.0 0.0 0.0 0.0 0.0 0.0 0.0 0.0 0.0 0.0 0.0 0.0 0.0 3.6 3.2 0.0 0.0 0.0 0.0 0.0 0.0 0.0 0.0 1.3 0.9 2.2 0.0 0.0 0.0 0.9 0.1 0.0 0.0 0.0 0.0 0.0 0.0 0.0 0.0 0.0 0.0 0.0 0.0 0.0 0.0
0.0 0.0 0.0 0.0 0.0 0.0 0.0 0.0 0.0 0.0 0.0 0.0 0.0 0.0 0.0 0.0 0.0 0.2 0.6 0.0 0.0 0.0 4.1 7.5 4.4 0.6 0.0 0.0 0.0 0.0 0.0 0.3 3.1 2.8 0.0 1.9 1.4 1.8 1.6 0.0 0.0 0.0 0.0 0.0 0.0 0.0 0.0 0.0 0.0 0.0 0.0 0.0 0.0 0.0
0.0 0.0 0.0 0.0 0.0 0.0 0.0 0.0 0.0 0.0 0.0 0.0 0.0 0.0 0.0 0.0 0.0 0.0 0.0 0.0 0.0 3.7 6.9 10.2 8.2 6.9 0.0 0.0 0.0 0.0 0.0 0.2 5.2 1.5 0.0 0.6 0.0 2.1 1.5 0.0 0.0 0.0 0.0 0.0 0.0 0.0 0.0 0.0 0.0 0.0 0.0 0.0 0.0 0.0
0.0 0.0 0.0 0.0 0.0 0.0 0.0 0.0 0.0 0.0 0.0 0.0 0.0 0.0 0.0 0.0 0.0 0.0 0.0 0.0 0.0 0.2 7.8 7.5 8.9 7.9 0.6 0.3 0.3 0.1 0.0 2.0 0.9 1.7 0.0 0.0 1.2 2.4 0.0 0.0 0.1 0.0 0.0 0.0 0.0 0.0 0.0 0.0 0.0 0.0 0.0 0.0 0.0 0.0
0.0 0.0 0.0 0.0 0.0 0.0 0.0 0.0 0.0 0.0 0.0 0.0 0.0 0.0 0.6 0.0 0.0 0.0 0.0 3.2 4.7 4.7 5.4 6.5 4.3 2.7 2.4 4.7 1.2 1.3 0.3 3.3 5.4 0.0 0.0 2.1 0.0 0.0 0.0 0.5 0.2 0.1 0.0 0.0 4.0 2.7 1.0 1.6 0.3 0.3 0.0 0.1 0.0 0.0
0.0 0.0 0.0 0.0 0.0 0.0 0.0 0.0 0.0 0.0 0.0 0.0 0.1 0.5 0.0 0.0 0.0 0.1 6.6 5.6 3.5 3.5 3.7 3.7 3.0 3.3 0.0 4.4 2.3 0.7 3.7 2.7 6.5 3.2 1.2 1.7 2.8 1.1 0.0 0.3 0.0 0.1 0.2 0.0 0.0 0.5 1.7 2.9 3.1 1.5 0.6 3.2 1.5 2.4
0.0 0.0 0.0 0.0 0.0 0.0 0.0 0.0 0.0 0.0 0.0 0.0 0.0 0.0 0.0 4.7 8.3 10.4 10.2 2.4 1.5 1.8 1.7 1.8 1.2 0.6 1.7 0.0 3.0 2.2 3.1 3.1 2.8 1.6 4.3 3.4 2.3 1.4 1.9 0.6 0.3 0.1 0.0 0.1 0.2 2.1 0.9 0.9 1.2 1.4 2.6 2.9 2.7 2.9
0.0 0.0 0.0 0.0 0.0 0.0 0.0 0.0 0.0 0.0 0.0 0.0 0.4 5.1 5.5 7.4 8.6 6.5 4.1 1.9 0.6 0.5 0.6 1.0 1.3 0.3 0.0 0.3 2.4 3.1 2.7 1.3 2.6 4.7 3.2 1.5 0.5 0.0 0.5 1.7 1.6 1.6 0.3 1.3 2.0 0.0 0.7 0.5 0.4 0.3 0.3 0.1 0.0 0.0
0.0 0.0 0.0 0.0 0.0 0.0 0.0 0.0 0.0 0.0 0.0 0.1 6.6 7.1 4.7 3.6 3.2 2.4 1.3 1.1 0.0 0.3 0.0 0.1 1.0 1.8 0.4 1.9 1.9 3.1 0.6 2.8 5.4 2.6 2.0 0.3 0.5 0.4 0.2 0.4 0.7 0.8 1.2 1.7 3.9 3.9 1.9 1.0 0.4 0.1 0.0 0.0 0.0 0.0
0.0 0.0 0.0 0.0 0.0 0.0 0.0 0.0 0.0 0.0 0.0 7.2 8.7 4.7 2.4 1.8 0.8 0.4 0.1 0.5 0.0 0.0 0.0 0.2 0.4 0.9 2.2 3.5 2.7 2.5 2.9 3.7 2.9 2.6 1.3 0.6 0.6 0.8 0.5 0.3 0.2 0.5 0.7 1.6 1.6 2.6 3.5 1.9 0.7 0.0 0.0 0.1 0.3 0.6
0.0 0.0 0.0 0.0 0.0 0.0 0.0 0.0 0.0 0.0 0.7 11.5 9.1 3.0 1.0 0.6 0.3 0.1 0.0 0.1 0.0 0.0 0.1 0.5 1.1 1.7 1.2 2.5 2.5 2.0 3.1 2.8 2.1 1.4 0.8 0.4 0.7 0.0 0.2 0.3 0.0 0.0 0.0 0.2 1.3 1.7 2.3 2.0 1.2 0.6 0.5 0.1 0.2 1.3
0.0 0.0 0.0 0.0 0.0 0.0 0.0 0.0 0.0 13.7 16.5 13.6 2.7 0.7 0.8 0.4 0.4 0.3 0.0 0.0 0.0 0.2 1.6 3.1 5.1 1.6 1.4 2.7 0.9 0.5 1.6 1.3 0.9 0.0 0.1 0.0 0.1 0.0 0.0 0.0 0.0 0.0 0.0 0.0 0.6 1.0 1.7 2.3 2.3 1.2 1.5 1.3 1.0 0.7
0.0 0.0 0.0 0.0 0.0 0.0 0.0 0.0 14.4 18.3 12.1 3.0 0.0 0.0 0.0 0.0 0.3 0.3 0.0 0.0 0.0 0.4 1.9 5.8 3.8 2.7 1.3 0.8 0.2 0.3 0.0 0.0 0.2 0.0 0.2 0.0 0.0 0.0 0.0 0.0 0.0 0.2 0.7 1.7 1.5 1.5 1.0 1.5 1.4 1.1 0.8 0.7 0.7 0.9
0.0 0.0 0.0 0.0 0.0 0.0 24.1 26.3 17.8 14.5 2.6 0.2 0.0 0.0 0.0 0.0 0.0 0.0 0.0 0.0 0.0 0.3 1.7 6.0 5.8 2.1 0.1 0.0 0.1 0.0 0.0 0.0 0.0 0.0 0.0 0.0 0.0 0.0 0.0 0.3 0.3 0.7 1.7 1.4 0.4 0.3 0.4 0.4 0.7 0.3 0.9 0.6 0.9 0.8
0.0 0.0 0.0 0.0 0.0 19.4 36.4 29.8 16.8 8.5 2.8 0.1 0.0 0.0 0.0 0.0 0.0 0.0 0.0 0.5 0.7 3.2 5.7 5.5 0.2 0.2 0.1 0.3 0.3 0.1 0.0 0.0 0.0 0.0 0.0 0.0 0.0 0.0 0.0 0.0 0.1 0.4 0.7 0.5 0.4 0.8 0.5 0.6 0.4 0.2 0.5 0.4 0.9 1.0
0.0 0.0 0.0 0.0 2.5 20.7 32.3 20.3 11.2 3.2 0.5 0.2 0.0 0.1 0.1 0.0 0.0 0.1 0.1 1.5 4.6 7.9 4.3 1.3 0.2 0.1 0.0 0.5 0.2 0.0 0.0 0.0 0.0 0.0 0.0 0.0 0.0 0.0 0.0 0.0 0.0 0.0 0.0 0.2 0.2 0.1 0.5 0.3 0.7 0.5 0.2 0.7 0.6 0.9
0.9 0.0 9.4 6.2 38.5 39.8 30.7 16.8 7.2 2.4 1.2 0.7 0.0 0.0 0.1 0.4 0.1 0.1 0.2 5.0 7.2 2.3 1.2 0.9 0.9 0.6 0.2 0.0 0.7 0.7 0.5 0.0 0.0 0.0 0.0 0.0 0.0 0.0 0.0 0.0 0.0 0.0 0.0 0.0 0.0 0.0 0.0 0.1 0.0 0.4 0.4 0.9 0.8 0.5
0.8 2.4 33.1 35.7 37.3 32.5 18.6 7.5 5.2 3.6 1.7 0.9 0.8 0.9 1.3 0.4 0.2 0.3 3.1 2.2 1.2 0.9 0.7 0.6 0.7 1.6 1.7 1.4 1.4 1.1 0.6 0.1 0.0 0.2 0.1 0.0 0.0 0.0 0.0 0.0 0.0 0.0 0.2 0.1 0.0 0.0 0.0 0.0 0.1 0.1 0.0 0.0 1.1 1.7
0.0 41.2 42.4 40.2 28.1 20.2 12.3 9.0 5.4 2.8 3.1 2.4 1.8 1.2 0.5 0.0 1.4 2.4 2.3 0.3 0.3 0.2 0.8 1.0 0.9 0.7 0.5 1.2 1.4 1.7 1.9 1.2 0.3 0.0 0.6 0.3 0.1 0.0 0.0 0.0 0.0 0.0 0.0 0.5 0.1 0.0 0.0 0.0 0.1 0.1 0.0 0.0 0.7 1.5
50.1 53.1 37.9 31.4 17.6 8.7 5.0 2.9 2.5 2.6 1.9 1.2 0.8 0.3 0.4 0.4 1.4 1.4 0.1 0.0 0.0 0.1 0.3 0.9 0.9 0.9 0.9 0.7 1.0 1.0 1.0 1.2 2.2 1.9 0.7 1.3 2.0 1.5 0.4 0.1 0.3 0.0 0.0 0.2 0.1 0.0 0.0 0.0 0.0 0.0 0.0 1.2 1.8 2.3
45.4 25.9 16.7 6.3 2.8 0.6 0.3 0.0 0.2 0.1 0.1 0.5 1.0 0.9 0.2 1.7 3.4 1.9 0.0 0.0 0.1 0.2 0.2 0.3 0.7 0.7 0.5 0.5 0.7 1.2 2.4 1.1 1.0 2.3 1.1 1.6 1.3 2.0 1.6 0.1 1.1 0.5 0.1 0.1 0.6 0.5 0.2 0.1 0.0 0.0 0.9 1.3 2.5 2.8
29.0 15.9 5.7 0.4 0.3 0.5 0.6 0.2 0.1 0.1 0.6 0.8 0.3 0.2 0.5 3.7 0.6 0.0 0.0 0.0 0.0 0.2 0.3 0.6 1.2 1.1 0.8 0.8 0.8 1.2 1.4 1.5 1.4 1.1 1.4 3.2 3.1 2.1 1.0 1.6 1.5 1.0 0.7 0.5 1.0 0.7 0.7 0.6 0.4 0.8 1.7 2.0 1.9 2.7
7.3 2.0 0.0 0.2 0.1 0.1 0.5 0.6 0.9 1.2 1.0 0.1 0.5 0.6 1.3 0.5 0.0 0.0 0.0 0.0 0.0 0.0 0.4 0.7 1.1 1.5 1.3 1.1 1.2 1.6 1.8 2.0 2.2 2.1 3.0 3.5 3.8 3.6 2.9 2.5 2.2 2.5 2.5 1.7 1.4 1.7 1.5 1.1 0.9 1.6 1.8 1.6 0.9 1.2
1.6 1.2 1.1 0.8 0.5 0.4 0.7 0.5 0.3 0.1 0.0 0.0 0.0 0.0 0.0 0.0 0.0 0.0 0.0 0.1 0.0 0.4 0.6 0.8 1.1 1.2 1.6 1.7 1.7 2.2 2.3 2.3 1.9 1.5 1.2 1.5 2.7 3.7 3.9 3.6 4.2 4.4 2.9 3.0 2.6 2.6 2.2 2.8 2.5 2.5 2.6 2.5 2.2 2.2
0.3 0.0 0.0 0.1 0.5 1.1 0.3 0.1 0.1 0.0 0.0 0.0 0.0 0.0 0.0 0.0 0.1 0.1 0.1 0.1 0.0 0.7 1.0 1.4 1.4 1.5 2.0 2.0 2.0 1.9 2.4 2.6 2.5 1.4 1.3 1.4 1.8 2.7 4.0 4.0 4.2 4.6 4.5 4.2 4.7 5.2 5.0 5.0 5.0 4.6 3.7 3.4 3.4 3.0
0.0 0.0 0.1 0.1 0.0 0.2 0.1 0.2 0.2 0.2 0.0 0.1 0.2 0.1 0.2 0.1 0.1 0.1 0.2 0.3 0.7 1.1 1.5 1.9 2.1 2.6 2.7 2.9 2.9 2.5 2.5 3.0 3.3 3.6 2.9 3.1 3.1 3.1 3.7 4.2 4.1 4.6 4.6 4.2 3.7 3.4 3.5 3.0 2.6 2.6 2.5 2.5 2.4 2.2
0.2 0.1 0.0 0.0 0.0 0.1 0.3 0.3 0.2 0.1 0.1 0.1 0.2 0.1 0.1 0.0 0.0 0.0 0.2 0.4 0.9 1.2 1.6 1.9 2.1 2.6 3.1 3.1 3.2 3.3 2.7 2.9 2.9 3.7 3.2 2.9 2.9 2.5 3.4 3.7 4.2 4.0 4.2 4.1 3.6 3.8 3.6 3.6 3.7 3.4 3.2 3.3 3.2 2.9
1.1 0.6 0.4 0.3 0.6 0.7 0.2 0.1 0.2 0.2 0.2 0.1 0.1 0.0 0.0 0.0 0.0 0.2 0.3 0.5 1.0 1.2 1.4 2.1 2.5 2.5 2.5 2.5 2.8 3.1 3.2 3.1 3.9 4.1 4.1 4.3 4.3 4.4 3.5 3.6 3.6 4.0 4.0 4.0 4.2 4.5 4.6 4.2 3.9 3.7 3.5 3.5 3.3 3.0

GFSWCAN_prec_snow_126.txt.gz
Snowfall_Accumulation
0.0 0.0 0.0 0.0 0.0 0.0 0.0 0.0 0.0 0.0 0.0 0.0 0.0 0.0 0.0 0.0 0.0 0.0 0.0 0.0 0.0 0.0 0.0 0.0 0.0 0.0 0.0 0.0 0.0 0.0 0.0 0.0 0.1 0.3 0.0 0.1 0.2 0.0 0.0 0.0 0.0 0.0 0.1 0.4 0.4 0.8 0.0 0.0 0.0 0.0 0.0 0.0 0.0 0.0
0.0 0.0 0.0 0.0 0.0 0.0 0.0 0.0 0.0 0.0 0.0 0.0 0.0 0.0 0.0 0.0 0.0 0.0 0.0 0.0 0.0 0.1 0.0 0.0 0.0 0.0 0.0 0.0 0.0 0.0 0.0 0.0 0.0 0.3 0.2 0.0 0.0 0.0 0.0 0.0 0.0 0.0 0.0 0.0 0.0 0.0 0.0 0.0 0.0 0.0 0.0 0.0 0.0 0.0
0.0 0.0 0.0 0.0 0.0 0.0 0.0 0.0 0.0 0.0 0.0 0.0 0.0 0.0 0.0 0.0 0.0 0.0 0.0 0.0 0.0 0.4 0.0 0.0 0.0 0.0 0.0 0.0 0.0 0.0 0.0 0.0 0.0 0.1 0.2 0.1 0.0 0.0 0.1 0.0 0.0 0.0 0.0 0.0 0.0 0.0 0.0 0.0 0.0 0.0 0.0 0.0 0.0 0.0
0.0 0.0 0.0 0.0 0.0 0.0 0.0 0.0 0.0 0.0 0.0 0.0 0.0 0.0 0.0 0.0 0.0 0.0 0.0 0.0 0.0 0.6 1.6 0.0 0.0 0.0 0.0 0.0 0.0 0.0 0.0 0.0 0.0 0.7 0.6 0.3 0.3 0.0 0.0 0.0 0.0 0.0 0.0 0.0 0.0 0.0 0.0 0.0 0.0 0.0 0.0 0.0 0.0 0.0
0.0 0.0 0.0 0.0 0.0 0.0 0.0 0.0 0.0 0.0 0.0 0.0 0.0 0.0 0.0 0.0 0.0 0.0 0.0 0.0 0.0 0.7 2.6 1.1 0.0 0.0 0.0 0.0 0.0 0.0 0.0 0.0 0.4 1.1 1.7 1.0 0.0 0.0 0.0 0.0 0.0 0.0 0.0 0.0 0.0 0.0 0.0 0.0 0.0 0.0 0.0 0.0 0.0 0.0
0.0 0.0 0.0 0.0 0.0 0.0 0.0 0.0 0.0 0.0 0.0 0.0 0.0 0.0 0.0 0.0 0.0 0.0 0.0 0.0 0.0 0.0 3.6 3.2 0.0 0.0 0.0 0.0 0.0 0.0 0.0 0.0 1.3 0.9 2.2 0.0 0.0 0.0 0.9 0.1 0.0 0.0 0.0 0.0 0.0 0.0 0.0 0.0 0.0 0.0 0.0 0.0 0.0 0.0
0.0 0.0 0.0 0.0 0.0 0.0 0.0 0.0 0.0 0.0 0.0 0.0 0.0 0.0 0.0 0.0 0.0 0.2 0.6 0.0 0.0 0.0 4.1 7.5 4.4 0.6 0.0 0.0 0.0 0.0 0.0 0.3 3.1 2.8 0.0 1.9 1.4 1.8 1.6 0.0 0.0 0.0 0.0 0.0 0.0 0.0 0.0 0.0 0.0 0.0 0.0 0.0 0.0 0.0
0.0 0.0 0.0 0.0 0.0 0.0 0.0 0.0 0.0 0.0 0.0 0.0 0.0 0.0 0.0 0.0 0.0 0.0 0.0 0.0 0.0 3.7 6.9 10.2 8.2 6.9 0.0 0.0 0.0 0.0 0.0 0.2 5.2 1.5 0.0 0.6 0.0 2.1 1.5 0.0 0.0 0.0 0.0 0.0 0.0 0.0 0.0 0.0 0.0 0.0 0.0 0.0 0.0 0.0
0.0 0.0 0.0 0.0 0.0 0.0 0.0 0.0 0.0 0.0 0.0 0.0 0.0 0.0 0.0 0.0 0.0 0.0 0.0 0.0 0.0 0.2 7.8 7.5 8.9 7.9 0.6 0.3 0.3 0.1 0.0 2.0 0.9 1.7 0.0 0.0 1.2 2.4 0.0 0.0 0.1 0.0 0.0 0.0 0.0 0.0 0.0 0.0 0.0 0.0 0.0 0.0 0.0 0.0
0.0 0.0 0.0 0.0 0.0 0.0 0.0 0.0 0.0 0.0 0.0 0.0 0.0 0.0 0.6 0.0 0.0 0.0 0.0 3.2 4.7 4.7 5.4 6.5 4.3 2.7 2.4 4.7 1.2 1.3 0.3 3.3 5.5 0.0 0.0 2.2 0.0 0.0 0.0 0.5 0.2 0.1 0.0 0.0 4.0 2.7 1.0 1.6 0.3 0.3 0.0 0.1 0.0 0.0
0.0 0.0 0.0 0.0 0.0 0.0 0.0 0.0 0.0 0.0 0.0 0.0 0.1 0.5 0.0 0.0 0.0 0.1 6.6 5.6 3.5 3.6 3.7 3.7 3.0 3.3 0.0 4.4 2.3 0.7 3.7 2.7 6.5 3.2 1.2 1.7 2.8 1.1 0.0 0.3 0.0 0.1 0.2 0.0 0.0 0.5 1.7 2.9 3.1 1.5 0.6 3.2 1.5 2.4
0.0 0.0 0.0 0.0 0.0 0.0 0.0 0.0 0.0 0.0 0.0 0.0 0.0 0.0 0.0 4.7 8.3 10.4 10.2 2.4 1.5 1.8 1.7 1.8 1.2 0.6 1.7 0.0 3.0 2.2 3.1 3.1 2.8 1.6 4.4 3.4 2.3 1.4 1.9 0.6 0.3 0.1 0.0 0.1 0.2 2.1 0.9 0.9 1.2 1.4 2.6 2.9 2.7 2.9
0.0 0.0 0.0 0.0 0.0 0.0 0.0 0.0 0.0 0.0 0.0 0.0 0.4 5.1 5.5 7.4 8.6 6.5 4.1 1.9 0.6 0.5 0.6 1.0 1.3 0.3 0.0 0.3 2.4 3.1 2.7 1.3 2.6 4.8 3.2 1.5 0.5 0.0 0.5 1.7 1.6 1.6 0.3 1.3 2.0 0.0 0.7 0.5 0.4 0.3 0.3 0.1 0.0 0.0
0.0 0.0 0.0 0.0 0.0 0.0 0.0 0.0 0.0 0.0 0.0 0.1 6.6 7.1 4.7 3.6 3.2 2.4 1.3 1.1 0.0 0.3 0.0 0.1 1.0 1.8 0.4 1.9 1.9 3.1 0.6 2.8 5.5 2.6 2.0 0.3 0.5 0.4 0.2 0.4 0.7 0.8 1.2 1.7 3.9 3.9 1.9 1.0 0.4 0.1 0.0 0.0 0.0 0.0
0.0 0.0 0.0 0.0 0.0 0.0 0.0 0.0 0.0 0.0 0.0 7.2 8.7 4.7 2.4 1.8 0.8 0.4 0.1 0.5 0.0 0.0 0.0 0.2 0.5 0.9 2.2 3.5 2.7 2.5 3.0 3.7 2.9 2.6 1.3 0.6 0.6 0.8 0.5 0.3 0.2 0.5 0.7 1.6 1.6 2.6 3.5 1.9 0.7 0.0 0.0 0.1 0.3 0.6
0.0 0.0 0.0 0.0 0.0 0.0 0.0 0.0 0.0 0.0 0.7 11.5 9.1 3.0 1.0 0.6 0.3 0.1 0.0 0.1 0.0 0.0 0.1 0.5 1.1 1.7 1.2 2.5 2.6 2.0 3.1 2.8 2.1 1.4 0.8 0.4 0.7 0.0 0.2 0.3 0.0 0.0 0.0 0.2 1.3 1.7 2.3 2.0 1.2 0.6 0.5 0.1 0.2 1.3
0.0 0.0 0.0 0.0 0.0 0.0 0.0 0.0 0.0 14.1 16.7 13.6 2.7 0.7 0.8 0.4 0.4 0.3 0.0 0.0 0.0 0.2 1.6 3.1 5.1 1.6 1.4 2.7 0.9 0.5 1.6 1.3 0.9 0.0 0.1 0.0 0.1 0.0 0.0 0.0 0.0 0.0 0.0 0.0 0.6 1.0 1.7 2.3 2.3 1.2 1.5 1.3 1.0 0.7
0.0 0.0 0.0 0.0 0.0 0.0 0.0 0.0 15.5 19.2 12.4 3.0 0.0 0.0 0.0 0.0 0.3 0.3 0.0 0.0 0.0 0.4 1.9 5.8 3.8 2.7 1.3 0.8 0.2 0.3 0.0 0.0 0.2 0.0 0.2 0.0 0.0 0.0 0.0 0.0 0.0 0.2 0.7 1.7 1.5 1.5 1.0 1.5 1.4 1.1 0.8 0.7 0.7 0.9
0.0 0.0 0.0 0.0 0.0 0.0 24.1 27.3 19.2 15.6 2.6 0.2 0.0 0.0 0.0 0.0 0.0 0.0 0.0 0.0 0.0 0.3 1.7 6.0 5.8 2.1 0.1 0.0 0.1 0.0 0.0 0.0 0.0 0.0 0.0 0.0 0.0 0.0 0.0 0.3 0.3 0.7 1.7 1.4 0.4 0.3 0.4 0.4 0.7 0.3 0.9 0.6 0.9 0.8
0.0 0.0 0.0 0.0 0.0 19.4 36.7 30.2 16.8 8.5 2.8 0.1 0.0 0.0 0.0 0.0 0.0 0.0 0.0 0.5 0.7 3.2 5.8 5.6 0.2 0.2 0.1 0.3 0.3 0.1 0.0 0.0 0.0 0.0 0.0 0.0 0.0 0.0 0.0 0.0 0.1 0.4 0.7 0.5 0.4 0.8 0.5 0.6 0.4 0.2 0.5 0.4 0.9 1.0
0.0 0.0 0.0 0.0 2.5 20.7 32.3 20.3 11.6 3.4 0.5 0.2 0.0 0.1 0.1 0.0 0.0 0.1 0.1 1.5 4.6 8.0 4.3 1.3 0.2 0.1 0.0 0.5 0.2 0.0 0.0 0.0 0.0 0.0 0.0 0.0 0.0 0.0 0.0 0.0 0.0 0.0 0.0 0.2 0.2 0.1 0.5 0.3 0.7 0.5 0.2 0.8 0.6 1.2
0.9 0.0 9.4 6.2 39.2 41.2 32.1 17.3 7.2 2.5 1.2 0.7 0.0 0.0 0.1 0.4 0.1 0.1 0.2 5.0 7.2 2.3 1.2 0.9 0.9 0.6 0.2 0.0 0.7 0.7 0.5 0.0 0.0 0.0 0.0 0.0 0.0 0.0 0.0 0.0 0.0 0.0 0.0 0.0 0.0 0.0 0.0 0.1 0.1 0.6 0.7 1.0 0.8 0.5
0.8 2.4 33.3 35.9 37.7 33.0 18.6 7.5 5.2 3.6 1.7 0.9 0.8 0.9 1.3 0.4 0.2 0.3 3.1 2.2 1.2 0.9 0.7 0.6 0.7 1.6 1.7 1.4 1.4 1.1 0.6 0.1 0.0 0.2 0.1 0.0 0.0 0.0 0.0 0.0 0.0 0.0 0.2 0.1 0.0 0.0 0.0 0.0 0.1 0.2 0.0 0.0 1.1 1.7
0.0 41.7 43.0 40.7 28.4 20.2 12.3 9.0 5.4 2.8 3.1 2.4 1.8 1.2 0.5 0.0 1.4 2.4 2.3 0.3 0.3 0.2 0.8 1.0 0.9 0.7 0.5 1.2 1.4 1.7 1.9 1.2 0.3 0.0 0.6 0.3 0.1 0.0 0.0 0.0 0.0 0.0 0.0 0.5 0.1 0.0 0.0 0.0 0.1 0.1 0.0 0.0 0.7 1.5
51.3 54.5 37.9 31.4 17.9 8.8 5.0 2.9 2.5 2.6 1.9 1.2 0.8 0.3 0.4 0.4 1.4 1.4 0.1 0.0 0.0 0.1 0.3 0.9 0.9 0.9 0.9 0.7 1.0 1.0 1.0 1.2 2.2 1.9 0.7 1.3 2.0 1.5 0.4 0.1 0.3 0.0 0.0 0.2 0.1 0.0 0.0 0.0 0.0 0.0 0.0 1.2 1.8 2.3
46.6 25.9 17.4 6.3 2.8 1.0 0.3 0.0 0.2 0.1 0.1 0.5 1.0 0.9 0.2 1.7 3.4 2.1 0.0 0.0 0.1 0.2 0.2 0.3 0.7 0.7 0.5 0.5 0.7 1.2 2.4 1.1 1.0 2.3 1.1 1.6 1.3 2.0 1.6 0.1 1.1 0.5 0.1 0.1 0.6 0.5 0.2 0.1 0.0 0.0 0.9 1.3 2.5 2.8
30.3 15.9 5.7 0.4 0.3 0.5 0.6 0.2 0.1 0.1 0.6 0.8 0.3 0.2 0.5 4.2 0.6 0.0 0.0 0.0 0.0 0.2 0.3 0.6 1.2 1.1 0.8 0.8 0.8 1.2 1.4 1.5 1.4 1.1 1.4 3.2 3.1 2.1 1.0 1.6 1.5 1.0 0.7 0.5 1.0 0.7 0.7 0.6 0.4 0.8 1.7 2.0 1.9 2.7
7.3 2.0 0.0 0.2 0.1 0.1 0.5 0.6 0.9 1.2 1.0 0.1 0.5 0.6 1.3 0.5 0.0 0.0 0.0 0.0 0.0 0.0 0.4 0.7 1.1 1.5 1.3 1.1 1.2 1.6 1.8 2.0 2.2 2.1 3.0 3.5 3.8 3.6 2.9 2.5 2.2 2.5 2.5 1.7 1.4 1.7 1.5 1.1 0.9 1.6 1.8 1.6 0.9 1.2
1.6 1.2 1.1 0.8 0.5 0.4 0.7 0.5 0.3 0.1 0.0 0.0 0.0 0.0 0.0 0.0 0.0 0.0 0.0 0.1 0.0 0.4 0.6 0.8 1.1 1.2 1.6 1.7 1.7 2.2 2.3 2.3 1.9 1.5 1.2 1.5 2.7 3.7 3.9 3.6 4.2 4.4 2.9 3.0 2.6 2.6 2.2 2.8 2.5 2.5 2.6 2.5 2.2 2.2
0.3 0.0 0.0 0.1 0.5 1.1 0.3 0.1 0.1 0.0 0.0 0.0 0.0 0.0 0.0 0.0 0.1 0.1 0.1 0.1 0.0 0.7 1.0 1.4 1.4 1.5 2.0 2.0 2.0 1.9 2.4 2.6 2.5 1.4 1.3 1.4 1.8 2.7 4.0 4.0 4.2 4.6 4.5 4.2 4.7 5.2 5.0 5.0 5.0 4.6 3.7 3.4 3.4 3.0
0.0 0.0 0.1 0.1 0.0 0.2 0.1 0.2 0.2 0.2 0.0 0.1 0.2 0.1 0.2 0.1 0.1 0.1 0.2 0.3 0.7 1.1 1.5 1.9 2.1 2.6 2.7 2.9 2.9 2.5 2.5 3.0 3.3 3.6 2.9 3.1 3.1 3.1 3.7 4.2 4.1 4.6 4.6 4.2 3.7 3.4 3.5 3.0 2.6 2.6 2.5 2.5 2.4 2.2
0.2 0.1 0.0 0.0 0.0 0.1 0.3 0.3 0.2 0.1 0.1 0.1 0.2 0.1 0.1 0.0 0.0 0.0 0.2 0.4 0.9 1.2 1.6 1.9 2.1 2.6 3.1 3.1 3.2 3.3 2.7 2.9 2.9 3.7 3.2 2.9 2.9 2.5 3.4 3.7 4.2 4.0 4.2 4.1 3.6 3.8 3.6 3.6 3.7 3.4 3.2 3.3 3.2 2.9
1.1 0.6 0.4 0.3 0.6 0.7 0.2 0.1 0.2 0.2 0.2 0.1 0.1 0.0 0.0 0.0 0.0 0.2 0.3 0.5 1.0 1.2 1.4 2.1 2.5 2.5 2.5 2.5 2.8 3.1 3.2 3.1 3.9 4.1 4.1 4.3 4.3 4.4 3.5 3.6 3.6 4.0 4.0 4.0 4.2 4.5 4.6 4.2 3.9 3.7 3.5 3.5 3.3 3.2

GFSWCAN_prec_snow_129.txt.gz
Snowfall_Accumulation
0.0 0.0 0.0 0.0 0.0 0.0 0.0 0.0 0.0 0.0 0.0 0.0 0.0 0.0 0.0 0.0 0.0 0.0 0.0 0.0 0.0 0.0 0.0 0.0 0.0 0.0 0.0 0.0 0.0 0.0 0.0 0.0 0.1 0.3 0.0 0.1 0.2 0.0 0.0 0.0 0.0 0.0 0.1 0.4 0.4 0.8 0.0 0.0 0.0 0.0 0.0 0.0 0.0 0.0
0.0 0.0 0.0 0.0 0.0 0.0 0.0 0.0 0.0 0.0 0.0 0.0 0.0 0.0 0.0 0.0 0.0 0.0 0.0 0.0 0.0 0.1 0.0 0.0 0.0 0.0 0.0 0.0 0.0 0.0 0.0 0.0 0.0 0.3 0.2 0.0 0.0 0.0 0.0 0.0 0.0 0.0 0.0 0.0 0.0 0.0 0.0 0.0 0.0 0.0 0.0 0.0 0.0 0.0
0.0 0.0 0.0 0.0 0.0 0.0 0.0 0.0 0.0 0.0 0.0 0.0 0.0 0.0 0.0 0.0 0.0 0.0 0.0 0.0 0.0 0.4 0.0 0.0 0.0 0.0 0.0 0.0 0.0 0.0 0.0 0.0 0.0 0.1 0.2 0.1 0.0 0.0 0.1 0.0 0.0 0.0 0.0 0.0 0.0 0.0 0.0 0.0 0.0 0.0 0.0 0.0 0.0 0.0
0.0 0.0 0.0 0.0 0.0 0.0 0.0 0.0 0.0 0.0 0.0 0.0 0.0 0.0 0.0 0.0 0.0 0.0 0.0 0.0 0.0 0.6 1.6 0.0 0.0 0.0 0.0 0.0 0.0 0.0 0.0 0.0 0.0 0.7 0.6 0.3 0.3 0.0 0.0 0.0 0.0 0.0 0.0 0.0 0.0 0.0 0.0 0.0 0.0 0.0 0.0 0.0 0.0 0.0
0.0 0.0 0.0 0.0 0.0 0.0 0.0 0.0 0.0 0.0 0.0 0.0 0.0 0.0 0.0 0.0 0.0 0.0 0.0 0.0 0.0 0.7 2.6 1.1 0.0 0.0 0.0 0.0 0.0 0.0 0.0 0.0 0.4 1.1 1.7 1.0 0.0 0.0 0.0 0.0 0.0 0.0 0.0 0.0 0.0 0.0 0.0 0.0 0.0 0.0 0.0 0.0 0.0 0.0
0.0 0.0 0.0 0.0 0.0 0.0 0.0 0.0 0.0 0.0 0.0 0.0 0.0 0.0 0.0 0.0 0.0 0.0 0.0 0.0 0.0 0.0 3.6 3.2 0.0 0.0 0.0 0.0 0.0 0.0 0.0 0.0 1.3 0.9 2.2 0.0 0.0 0.0 0.9 0.1 0.0 0.0 0.0 0.0 0.0 0.0 0.0 0.0 0.0 0.0 0.0 0.0 0.0 0.0
0.0 0.0 0.0 0.0 0.0 0.0 0.0 0.0 0.0 0.0 0.0 0.0 0.0 0.0 0.0 0.0 0.0 0.2 0.6 0.0 0.0 0.0 4.1 7.5 4.4 0.6 0.0 0.0 0.0 0.0 0.0 0.3 3.1 2.8 0.0 1.9 1.4 1.8 1.6 0.0 0.0 0.0 0.0 0.0 0.0 0.0 0.0 0.0 0.0 0.0 0.0 0.0 0.0 0.0
0.0 0.0 0.0 0.0 0.0 0.0 0.0 0.0 0.0 0.0 0.0 0.0 0.0 0.0 0.0 0.0 0.0 0.0 0.0 0.0 0.0 3.7 6.9 10.2 8.2 6.9 0.0 0.0 0.0 0.0 0.0 0.2 5.2 1.5 0.0 0.6 0.0 2.1 1.5 0.0 0.0 0.0 0.0 0.0 0.0 0.0 0.0 0.0 0.0 0.0 0.0 0.0 0.0 0.0
0.0 0.0 0.0 0.0 0.0 0.0 0.0 0.0 0.0 0.0 0.0 0.0 0.0 0.0 0.0 0.0 0.0 0.0 0.0 0.0 0.0 0.2 7.8 7.5 8.9 7.9 0.6 0.3 0.3 0.1 0.0 2.0 0.9 1.7 0.0 0.0 1.2 2.4 0.0 0.0 0.1 0.0 0.0 0.0 0.0 0.0 0.0 0.0 0.0 0.0 0.0 0.0 0.0 0.0
0.0 0.0 0.0 0.0 0.0 0.0 0.0 0.0 0.0 0.0 0.0 0.0 0.0 0.0 0.6 0.0 0.0 0.0 0.0 3.2 4.7 4.7 5.4 6.5 4.3 2.7 2.4 4.7 1.2 1.3 0.3 3.3 5.5 0.0 0.0 2.3 0.0 0.0 0.0 0.5 0.2 0.1 0.0 0.0 4.0 2.7 1.0 1.6 0.3 0.3 0.0 0.1 0.0 0.0
0.0 0.0 0.0 0.0 0.0 0.0 0.0 0.0 0.0 0.0 0.0 0.0 0.1 0.5 0.0 0.0 0.0 0.1 6.6 5.6 3.5 3.6 3.7 3.7 3.0 3.3 0.0 4.4 2.3 0.7 3.7 2.7 6.6 3.2 1.2 1.7 2.8 1.1 0.0 0.3 0.0 0.1 0.2 0.0 0.0 0.5 1.7 2.9 3.1 1.5 0.6 3.2 1.5 2.4
0.0 0.0 0.0 0.0 0.0 0.0 0.0 0.0 0.0 0.0 0.0 0.0 0.0 0.0 0.0 4.7 8.3 10.4 10.2 2.4 1.5 1.8 1.7 1.8 1.2 0.6 1.7 0.0 3.0 2.4 3.2 3.2 2.8 1.6 4.4 3.4 2.3 1.4 1.9 0.6 0.3 0.1 0.0 0.1 0.2 2.1 0.9 0.9 1.2 1.4 2.6 2.9 2.7 2.9
0.0 0.0 0.0 0.0 0.0 0.0 0.0 0.0 0.0 0.0 0.0 0.0 0.4 5.1 5.5 7.4 8.6 6.5 4.1 1.9 0.6 0.5 0.6 1.0 1.3 0.3 0.1 0.4 2.6 3.2 2.8 1.3 2.6 4.8 3.2 1.5 0.5 0.0 0.5 1.7 1.6 1.6 0.3 1.3 2.0 0.0 0.7 0.5 0.4 0.3 0.3 0.1 0.0 0.0
0.0 0.0 0.0 0.0 0.0 0.0 0.0 0.0 0.0 0.0 0.0 0.1 6.6 7.1 4.7 3.6 3.2 2.4 1.3 1.1 0.0 0.3 0.0 0.1 1.2 2.0 0.5 2.1 2.0 3.1 0.6 2.9 5.5 2.6 2.0 0.3 0.5 0.4 0.2 0.4 0.7 0.8 1.2 1.7 3.9 3.9 1.9 1.0 0.4 0.1 0.0 0.0 0.0 0.0
0.0 0.0 0.0 0.0 0.0 0.0 0.0 0.0 0.0 0.0 0.0 7.2 8.7 4.7 2.4 1.8 0.8 0.4 0.1 0.5 0.0 0.0 0.0 0.3 0.6 1.0 2.4 3.6 2.8 2.5 3.0 3.7 2.9 2.6 1.3 0.6 0.6 0.8 0.5 0.3 0.2 0.5 0.7 1.6 1.6 2.6 3.5 1.9 0.7 0.0 0.0 0.1 0.3 0.6
0.0 0.0 0.0 0.0 0.0 0.0 0.0 0.0 0.0 0.0 0.7 11.5 9.1 3.0 1.0 0.6 0.3 0.1 0.0 0.1 0.0 0.0 0.1 0.5 1.1 1.7 1.2 2.5 2.7 2.0 3.1 2.8 2.1 1.4 0.8 0.4 0.7 0.0 0.2 0.3 0.0 0.0 0.0 0.2 1.3 1.7 2.3 2.0 1.2 0.6 0.5 0.1 0.2 1.3
0.0 0.0 0.0 0.0 0.0 0.0 0.0 0.0 0.0 14.1 16.7 13.6 2.7 0.7 0.8 0.4 0.4 0.3 0.0 0.0 0.0 0.2 1.6 3.1 5.1 1.6 1.4 2.7 0.9 0.5 1.6 1.3 0.9 0.0 0.1 0.0 0.1 0.0 0.0 0.0 0.0 0.0 0.0 0.0 0.6 1.0 1.7 2.3 2.3 1.2 1.5 1.3 1.0 0.7
0.0 0.0 0.0 0.0 0.0 0.0 0.0 0.0 15.8 19.6 12.6 3.0 0.0 0.0 0.0 0.0 0.3 0.3 0.0 0.0 0.0 0.4 1.9 5.8 3.8 2.7 1.3 0.8 0.2 0.3 0.0 0.0 0.2 0.0 0.2 0.0 0.0 0.0 0.0 0.0 0.0 0.2 0.7 1.7 1.5 1.5 1.0 1.5 1.4 1.1 0.8 0.7 0.7 0.9
0.0 0.0 0.0 0.0 0.0 0.0 24.1 28.0 20.1 16.2 2.6 0.2 0.0 0.0 0.0 0.0 0.0 0.0 0.0 0.0 0.0 0.3 1.7 6.0 5.8 2.1 0.1 0.0 0.1 0.0 0.0 0.0 0.0 0.0 0.0 0.0 0.0 0.0 0.0 0.3 0.3 0.7 1.7 1.4 0.4 0.3 0.4 0.4 0.7 0.3 0.9 0.6 0.9 0.8
0.0 0.0 0.0 0.0 0.0 19.4 36.8 30.3 16.8 8.6 3.0 0.1 0.0 0.0 0.0 0.0 0.0 0.0 0.0 0.5 0.7 3.2 5.8 5.7 0.2 0.2 0.1 0.3 0.3 0.1 0.0 0.0 0.0 0.0 0.0 0.0 0.0 0.0 0.0 0.0 0.1 0.4 0.7 0.5 0.4 0.8 0.5 0.6 0.4 0.2 0.5 0.4 1.0 1.0
0.0 0.0 0.0 0.0 2.5 20.8 32.3 20.3 11.8 3.4 0.5 0.2 0.0 0.1 0.1 0.0 0.0 0.1 0.1 1.5 4.6 8.0 4.3 1.3 0.2 0.1 0.0 0.5 0.2 0.0 0.0 0.0 0.0 0.0 0.0 0.0 0.0 0.0 0.0 0.0 0.0 0.0 0.0 0.2 0.2 0.1 0.5 0.3 0.7 0.5 0.2 0.8 0.6 1.2
0.9 0.0 9.4 6.2 40.2 42.4 33.1 17.3 7.2 2.5 1.2 0.7 0.0 0.0 0.1 0.4 0.1 0.1 0.2 5.0 7.2 2.3 1.2 0.9 0.9 0.6 0.2 0.0 0.7 0.7 0.5 0.0 0.0 0.0 0.0 0.0 0.0 0.0 0.0 0.0 0.0 0.0 0.0 0.0 0.0 0.0 0.0 0.1 0.1 0.6 0.7 1.0 0.8 0.5
0.8 2.4 33.6 35.9 39.0 34.0 19.1 8.1 5.7 3.7 1.8 0.9 0.8 0.9 1.3 0.4 0.2 0.3 3.1 2.2 1.2 0.9 0.7 0.6 0.7 1.6 1.7 1.4 1.4 1.1 0.6 0.1 0.0 0.2 0.1 0.0 0.0 0.0 0.0 0.0 0.0 0.0 0.2 0.1 0.0 0.0 0.0 0.0 0.1 0.2 0.0 0.0 1.1 1.7
0.0 42.0 43.4 40.7 28.4 20.2 12.3 9.0 5.4 2.8 3.1 2.4 1.8 1.2 0.5 0.0 1.4 2.4 2.3 0.3 0.3 0.2 0.8 1.0 0.9 0.7 0.5 1.2 1.4 1.7 1.9 1.2 0.3 0.0 0.6 0.3 0.1 0.0 0.0 0.0 0.0 0.0 0.0 0.5 0.1 0.0 0.0 0.0 0.1 0.1 0.0 0.0 0.7 1.5
51.9 55.3 38.5 31.9 18.2 8.9 5.0 2.9 2.5 2.6 1.9 1.2 0.8 0.3 0.4 0.4 1.4 1.4 0.1 0.0 0.0 0.1 0.3 0.9 0.9 0.9 0.9 0.7 1.0 1.0 1.0 1.2 2.2 1.9 0.7 1.3 2.0 1.5 0.4 0.1 0.3 0.0 0.0 0.2 0.1 0.0 0.0 0.0 0.0 0.0 0.0 1.2 1.8 2.3
47.0 25.9 17.7 6.3 2.8 1.0 0.3 0.0 0.2 0.1 0.1 0.5 1.0 0.9 0.2 1.7 3.4 2.1 0.0 0.0 0.1 0.2 0.2 0.3 0.7 0.7 0.5 0.5 0.7 1.2 2.4 1.1 1.0 2.3 1.1 1.6 1.3 2.0 1.6 0.1 1.1 0.5 0.1 0.1 0.6 0.5 0.2 0.1 0.0 0.0 0.9 1.3 2.5 2.8
30.3 15.9 5.7 0.4 0.3 0.5 0.6 0.2 0.1 0.1 0.6 0.8 0.3 0.2 0.5 4.4 0.6 0.0 0.0 0.0 0.0 0.2 0.3 0.6 1.2 1.1 0.8 0.8 0.8 1.2 1.4 1.5 1.4 1.1 1.4 3.2 3.1 2.1 1.0 1.6 1.5 1.0 0.7 0.5 1.0 0.7 0.7 0.6 0.4 0.8 1.7 2.0 1.9 2.7
7.3 2.0 0.0 0.2 0.1 0.1 0.5 0.6 0.9 1.2 1.0 0.1 0.5 0.6 1.3 0.5 0.0 0.0 0.0 0.0 0.0 0.0 0.4 0.7 1.1 1.5 1.3 1.1 1.2 1.6 1.8 2.0 2.2 2.1 3.0 3.5 3.8 3.6 2.9 2.5 2.2 2.5 2.5 1.7 1.4 1.7 1.5 1.1 0.9 1.6 1.8 1.6 0.9 1.2
1.6 1.2 1.1 0.8 0.5 0.4 0.7 0.5 0.3 0.1 0.0 0.0 0.0 0.0 0.0 0.0 0.0 0.0 0.0 0.1 0.0 0.4 0.6 0.8 1.1 1.2 1.6 1.7 1.7 2.2 2.3 2.3 1.9 1.5 1.2 1.5 2.7 3.7 3.9 3.6 4.2 4.4 2.9 3.0 2.6 2.6 2.2 2.8 2.5 2.5 2.6 2.5 2.2 2.2
0.3 0.0 0.0 0.1 0.5 1.1 0.3 0.1 0.1 0.0 0.0 0.0 0.0 0.0 0.0 0.0 0.1 0.1 0.1 0.1 0.0 0.7 1.0 1.4 1.4 1.5 2.0 2.0 2.0 1.9 2.4 2.6 2.5 1.4 1.3 1.4 1.8 2.7 4.0 4.0 4.2 4.6 4.5 4.2 4.7 5.2 5.0 5.0 5.0 4.6 3.7 3.4 3.4 3.0
0.0 0.0 0.1 0.1 0.0 0.2 0.1 0.2 0.2 0.2 0.0 0.1 0.2 0.1 0.2 0.1 0.1 0.1 0.2 0.3 0.7 1.1 1.5 1.9 2.1 2.6 2.7 2.9 2.9 2.5 2.5 3.0 3.3 3.6 2.9 3.1 3.1 3.1 3.7 4.2 4.1 4.6 4.6 4.2 3.7 3.4 3.5 3.0 2.6 2.6 2.5 2.5 2.4 2.2
0.2 0.1 0.0 0.0 0.0 0.1 0.3 0.3 0.2 0.1 0.1 0.1 0.2 0.1 0.1 0.0 0.0 0.0 0.2 0.4 0.9 1.2 1.6 1.9 2.1 2.6 3.1 3.1 3.2 3.3 2.7 2.9 2.9 3.7 3.2 2.9 2.9 2.5 3.4 3.7 4.2 4.0 4.2 4.1 3.6 3.8 3.6 3.6 3.7 3.4 3.2 3.3 3.2 2.9
1.1 0.6 0.4 0.3 0.6 0.7 0.2 0.1 0.2 0.2 0.2 0.1 0.1 0.0 0.0 0.0 0.0 0.2 0.3 0.5 1.0 1.2 1.4 2.1 2.5 2.5 2.5 2.5 2.8 3.1 3.2 3.1 3.9 4.1 4.1 4.3 4.3 4.4 3.5 3.6 3.6 4.0 4.0 4.0 4.2 4.5 4.6 4.2 3.9 3.7 3.5 3.5 3.3 3.2